<?xml version="1.0" encoding="UTF-8" standalone="no" ?>
<gpx xmlns="http://www.topografix.com/GPX/1/1" xmlns:xsi="http://www.w3.org/2001/XMLSchema-instance" xsi:schemaLocation="http://www.topografix.com/GPX/1/1 http://www.topografix.com/GPX/1/1/gpx.xsd" version="1.1" creator="VisuGPX - https://www.visugpx.com">
  <metadata>
    <name>col de la Gardette</name>
    <desc><![CDATA[final arrivé au col a coté du velo ( trop raide ) mais le reste super boucle]]></desc>
  </metadata>
  <trk>
    <name><![CDATA[cesmat-bernard2015/10/10_13:45]]></name>
    <trkseg>
      <trkpt lat="44.5494" lon="6.32894">
        <ele>1181.741699</ele>
        <time>2015-10-10T11:45:05Z</time>
      </trkpt>
      <trkpt lat="44.54939" lon="6.32896">
        <ele>1178.491699</ele>
        <time>2015-10-10T11:45:09Z</time>
      </trkpt>
      <trkpt lat="44.54938" lon="6.32897">
        <ele>1172.866699</ele>
        <time>2015-10-10T11:45:13Z</time>
      </trkpt>
      <trkpt lat="44.54939" lon="6.32896">
        <ele>1172.741699</ele>
        <time>2015-10-10T11:45:17Z</time>
      </trkpt>
      <trkpt lat="44.5494" lon="6.32895">
        <ele>1174.116699</ele>
        <time>2015-10-10T11:45:21Z</time>
      </trkpt>
      <trkpt lat="44.5494" lon="6.32894">
        <ele>1174.460449</ele>
        <time>2015-10-10T11:45:25Z</time>
      </trkpt>
      <trkpt lat="44.54941" lon="6.32894">
        <ele>1175.397949</ele>
        <time>2015-10-10T11:45:29Z</time>
      </trkpt>
      <trkpt lat="44.5494" lon="6.32895">
        <ele>1174.960449</ele>
        <time>2015-10-10T11:45:33Z</time>
      </trkpt>
      <trkpt lat="44.54941" lon="6.32896">
        <ele>1174.866699</ele>
        <time>2015-10-10T11:45:37Z</time>
      </trkpt>
      <trkpt lat="44.54942" lon="6.32895">
        <ele>1175.022949</ele>
        <time>2015-10-10T11:45:41Z</time>
      </trkpt>
      <trkpt lat="44.54943" lon="6.32894">
        <ele>1175.710449</ele>
        <time>2015-10-10T11:45:45Z</time>
      </trkpt>
      <trkpt lat="44.54943" lon="6.32893">
        <ele>1174.929199</ele>
        <time>2015-10-10T11:45:49Z</time>
      </trkpt>
      <trkpt lat="44.54943" lon="6.32893">
        <ele>1174.741699</ele>
        <time>2015-10-10T11:45:53Z</time>
      </trkpt>
      <trkpt lat="44.54943" lon="6.32892">
        <ele>1174.897949</ele>
        <time>2015-10-10T11:45:57Z</time>
      </trkpt>
      <trkpt lat="44.54943" lon="6.32892">
        <ele>1174.866699</ele>
        <time>2015-10-10T11:46:01Z</time>
      </trkpt>
      <trkpt lat="44.54943" lon="6.32892">
        <ele>1174.835449</ele>
        <time>2015-10-10T11:46:05Z</time>
      </trkpt>
      <trkpt lat="44.54943" lon="6.32892">
        <ele>1174.772949</ele>
        <time>2015-10-10T11:46:09Z</time>
      </trkpt>
      <trkpt lat="44.54943" lon="6.32892">
        <ele>1174.772949</ele>
        <time>2015-10-10T11:46:13Z</time>
      </trkpt>
      <trkpt lat="44.54943" lon="6.32892">
        <ele>1174.804199</ele>
        <time>2015-10-10T11:46:17Z</time>
      </trkpt>
      <trkpt lat="44.54943" lon="6.32893">
        <ele>1174.804199</ele>
        <time>2015-10-10T11:46:21Z</time>
      </trkpt>
      <trkpt lat="44.54943" lon="6.32893">
        <ele>1174.772949</ele>
        <time>2015-10-10T11:46:25Z</time>
      </trkpt>
      <trkpt lat="44.54942" lon="6.32892">
        <ele>1173.741699</ele>
        <time>2015-10-10T11:46:29Z</time>
      </trkpt>
      <trkpt lat="44.54942" lon="6.32892">
        <ele>1173.397949</ele>
        <time>2015-10-10T11:46:33Z</time>
      </trkpt>
      <trkpt lat="44.54942" lon="6.32892">
        <ele>1173.179199</ele>
        <time>2015-10-10T11:46:37Z</time>
      </trkpt>
      <trkpt lat="44.54942" lon="6.32892">
        <ele>1173.147949</ele>
        <time>2015-10-10T11:46:41Z</time>
      </trkpt>
      <trkpt lat="44.54942" lon="6.32892">
        <ele>1173.366699</ele>
        <time>2015-10-10T11:46:45Z</time>
      </trkpt>
      <trkpt lat="44.54943" lon="6.32892">
        <ele>1173.397949</ele>
        <time>2015-10-10T11:46:49Z</time>
      </trkpt>
      <trkpt lat="44.54943" lon="6.32892">
        <ele>1173.304199</ele>
        <time>2015-10-10T11:46:53Z</time>
      </trkpt>
      <trkpt lat="44.54944" lon="6.32893">
        <ele>1173.179199</ele>
        <time>2015-10-10T11:46:57Z</time>
      </trkpt>
      <trkpt lat="44.54945" lon="6.32891">
        <ele>1172.679199</ele>
        <time>2015-10-10T11:47:01Z</time>
      </trkpt>
      <trkpt lat="44.54951" lon="6.32898">
        <ele>1171.804199</ele>
        <time>2015-10-10T11:47:05Z</time>
      </trkpt>
      <trkpt lat="44.54953" lon="6.32906">
        <ele>1172.085449</ele>
        <time>2015-10-10T11:47:09Z</time>
      </trkpt>
      <trkpt lat="44.5496" lon="6.32917">
        <ele>1172.772949</ele>
        <time>2015-10-10T11:47:13Z</time>
      </trkpt>
      <trkpt lat="44.54966" lon="6.3293">
        <ele>1173.272949</ele>
        <time>2015-10-10T11:47:17Z</time>
      </trkpt>
      <trkpt lat="44.54973" lon="6.32944">
        <ele>1173.897949</ele>
        <time>2015-10-10T11:47:21Z</time>
      </trkpt>
      <trkpt lat="44.54979" lon="6.32957">
        <ele>1174.366699</ele>
        <time>2015-10-10T11:47:25Z</time>
      </trkpt>
      <trkpt lat="44.54985" lon="6.32972">
        <ele>1174.710449</ele>
        <time>2015-10-10T11:47:29Z</time>
      </trkpt>
      <trkpt lat="44.54991" lon="6.32987">
        <ele>1175.116699</ele>
        <time>2015-10-10T11:47:33Z</time>
      </trkpt>
      <trkpt lat="44.54997" lon="6.33">
        <ele>1175.522949</ele>
        <time>2015-10-10T11:47:37Z</time>
      </trkpt>
      <trkpt lat="44.55005" lon="6.33013">
        <ele>1175.960449</ele>
        <time>2015-10-10T11:47:41Z</time>
      </trkpt>
      <trkpt lat="44.55012" lon="6.33027">
        <ele>1176.022949</ele>
        <time>2015-10-10T11:47:45Z</time>
      </trkpt>
      <trkpt lat="44.55021" lon="6.33042">
        <ele>1175.772949</ele>
        <time>2015-10-10T11:47:49Z</time>
      </trkpt>
      <trkpt lat="44.5503" lon="6.33055">
        <ele>1176.397949</ele>
        <time>2015-10-10T11:47:53Z</time>
      </trkpt>
      <trkpt lat="44.55039" lon="6.33068">
        <ele>1176.460449</ele>
        <time>2015-10-10T11:47:57Z</time>
      </trkpt>
      <trkpt lat="44.55049" lon="6.33079">
        <ele>1176.741699</ele>
        <time>2015-10-10T11:48:01Z</time>
      </trkpt>
      <trkpt lat="44.55059" lon="6.33092">
        <ele>1176.679199</ele>
        <time>2015-10-10T11:48:05Z</time>
      </trkpt>
      <trkpt lat="44.55067" lon="6.33105">
        <ele>1177.241699</ele>
        <time>2015-10-10T11:48:09Z</time>
      </trkpt>
      <trkpt lat="44.55074" lon="6.33121">
        <ele>1177.429199</ele>
        <time>2015-10-10T11:48:13Z</time>
      </trkpt>
      <trkpt lat="44.55081" lon="6.33136">
        <ele>1178.366699</ele>
        <time>2015-10-10T11:48:17Z</time>
      </trkpt>
      <trkpt lat="44.55087" lon="6.33152">
        <ele>1179.397949</ele>
        <time>2015-10-10T11:48:21Z</time>
      </trkpt>
      <trkpt lat="44.55091" lon="6.33168">
        <ele>1180.147949</ele>
        <time>2015-10-10T11:48:25Z</time>
      </trkpt>
      <trkpt lat="44.55096" lon="6.33183">
        <ele>1180.960449</ele>
        <time>2015-10-10T11:48:29Z</time>
      </trkpt>
      <trkpt lat="44.55101" lon="6.33199">
        <ele>1181.647949</ele>
        <time>2015-10-10T11:48:33Z</time>
      </trkpt>
      <trkpt lat="44.55109" lon="6.3321">
        <ele>1182.241699</ele>
        <time>2015-10-10T11:48:37Z</time>
      </trkpt>
      <trkpt lat="44.55121" lon="6.3321">
        <ele>1182.835449</ele>
        <time>2015-10-10T11:48:41Z</time>
      </trkpt>
      <trkpt lat="44.55136" lon="6.33197">
        <ele>1183.741699</ele>
        <time>2015-10-10T11:48:45Z</time>
      </trkpt>
      <trkpt lat="44.55146" lon="6.33179">
        <ele>1184.429199</ele>
        <time>2015-10-10T11:48:49Z</time>
      </trkpt>
      <trkpt lat="44.55152" lon="6.33158">
        <ele>1184.929199</ele>
        <time>2015-10-10T11:48:53Z</time>
      </trkpt>
      <trkpt lat="44.55156" lon="6.33135">
        <ele>1185.804199</ele>
        <time>2015-10-10T11:48:57Z</time>
      </trkpt>
      <trkpt lat="44.55161" lon="6.33113">
        <ele>1186.897949</ele>
        <time>2015-10-10T11:49:01Z</time>
      </trkpt>
      <trkpt lat="44.55169" lon="6.33094">
        <ele>1186.616699</ele>
        <time>2015-10-10T11:49:05Z</time>
      </trkpt>
      <trkpt lat="44.55179" lon="6.33078">
        <ele>1187.022949</ele>
        <time>2015-10-10T11:49:09Z</time>
      </trkpt>
      <trkpt lat="44.55191" lon="6.33063">
        <ele>1187.866699</ele>
        <time>2015-10-10T11:49:13Z</time>
      </trkpt>
      <trkpt lat="44.55202" lon="6.33046">
        <ele>1187.772949</ele>
        <time>2015-10-10T11:49:17Z</time>
      </trkpt>
      <trkpt lat="44.55207" lon="6.33026">
        <ele>1188.085449</ele>
        <time>2015-10-10T11:49:21Z</time>
      </trkpt>
      <trkpt lat="44.55209" lon="6.33005">
        <ele>1189.397949</ele>
        <time>2015-10-10T11:49:25Z</time>
      </trkpt>
      <trkpt lat="44.5521" lon="6.32984">
        <ele>1189.835449</ele>
        <time>2015-10-10T11:49:29Z</time>
      </trkpt>
      <trkpt lat="44.55212" lon="6.32962">
        <ele>1190.491699</ele>
        <time>2015-10-10T11:49:33Z</time>
      </trkpt>
      <trkpt lat="44.55215" lon="6.3294">
        <ele>1191.460449</ele>
        <time>2015-10-10T11:49:37Z</time>
      </trkpt>
      <trkpt lat="44.55219" lon="6.32919">
        <ele>1193.022949</ele>
        <time>2015-10-10T11:49:41Z</time>
      </trkpt>
      <trkpt lat="44.55221" lon="6.32898">
        <ele>1193.460449</ele>
        <time>2015-10-10T11:49:45Z</time>
      </trkpt>
      <trkpt lat="44.55226" lon="6.32877">
        <ele>1193.991699</ele>
        <time>2015-10-10T11:49:49Z</time>
      </trkpt>
      <trkpt lat="44.55233" lon="6.3286">
        <ele>1195.022949</ele>
        <time>2015-10-10T11:49:53Z</time>
      </trkpt>
      <trkpt lat="44.5524" lon="6.32843">
        <ele>1196.335449</ele>
        <time>2015-10-10T11:49:57Z</time>
      </trkpt>
      <trkpt lat="44.55249" lon="6.32826">
        <ele>1197.085449</ele>
        <time>2015-10-10T11:50:01Z</time>
      </trkpt>
      <trkpt lat="44.5526" lon="6.32807">
        <ele>1198.272949</ele>
        <time>2015-10-10T11:50:05Z</time>
      </trkpt>
      <trkpt lat="44.55271" lon="6.32788">
        <ele>1199.022949</ele>
        <time>2015-10-10T11:50:09Z</time>
      </trkpt>
      <trkpt lat="44.55281" lon="6.32767">
        <ele>1200.147949</ele>
        <time>2015-10-10T11:50:13Z</time>
      </trkpt>
      <trkpt lat="44.55292" lon="6.32748">
        <ele>1201.241699</ele>
        <time>2015-10-10T11:50:17Z</time>
      </trkpt>
      <trkpt lat="44.55301" lon="6.32728">
        <ele>1202.054199</ele>
        <time>2015-10-10T11:50:21Z</time>
      </trkpt>
      <trkpt lat="44.55312" lon="6.32709">
        <ele>1202.866699</ele>
        <time>2015-10-10T11:50:25Z</time>
      </trkpt>
      <trkpt lat="44.55322" lon="6.32691">
        <ele>1203.679199</ele>
        <time>2015-10-10T11:50:29Z</time>
      </trkpt>
      <trkpt lat="44.55332" lon="6.32672">
        <ele>1204.804199</ele>
        <time>2015-10-10T11:50:33Z</time>
      </trkpt>
      <trkpt lat="44.55339" lon="6.3265">
        <ele>1206.335449</ele>
        <time>2015-10-10T11:50:37Z</time>
      </trkpt>
      <trkpt lat="44.55346" lon="6.3263">
        <ele>1208.241699</ele>
        <time>2015-10-10T11:50:41Z</time>
      </trkpt>
      <trkpt lat="44.55353" lon="6.32611">
        <ele>1209.116699</ele>
        <time>2015-10-10T11:50:45Z</time>
      </trkpt>
      <trkpt lat="44.5536" lon="6.32591">
        <ele>1210.585449</ele>
        <time>2015-10-10T11:50:49Z</time>
      </trkpt>
      <trkpt lat="44.55368" lon="6.32572">
        <ele>1212.929199</ele>
        <time>2015-10-10T11:50:53Z</time>
      </trkpt>
      <trkpt lat="44.55376" lon="6.32551">
        <ele>1214.429199</ele>
        <time>2015-10-10T11:50:57Z</time>
      </trkpt>
      <trkpt lat="44.55383" lon="6.32532">
        <ele>1216.085449</ele>
        <time>2015-10-10T11:51:01Z</time>
      </trkpt>
      <trkpt lat="44.55391" lon="6.32513">
        <ele>1218.116699</ele>
        <time>2015-10-10T11:51:05Z</time>
      </trkpt>
      <trkpt lat="44.55401" lon="6.32496">
        <ele>1219.272949</ele>
        <time>2015-10-10T11:51:09Z</time>
      </trkpt>
      <trkpt lat="44.55412" lon="6.3248">
        <ele>1222.522949</ele>
        <time>2015-10-10T11:51:13Z</time>
      </trkpt>
      <trkpt lat="44.55426" lon="6.32467">
        <ele>1225.897949</ele>
        <time>2015-10-10T11:51:17Z</time>
      </trkpt>
      <trkpt lat="44.55439" lon="6.32454">
        <ele>1227.585449</ele>
        <time>2015-10-10T11:51:21Z</time>
      </trkpt>
      <trkpt lat="44.55458" lon="6.32454">
        <ele>1210.960449</ele>
        <time>2015-10-10T11:51:25Z</time>
      </trkpt>
      <trkpt lat="44.5547" lon="6.32432">
        <ele>1226.241699</ele>
        <time>2015-10-10T11:51:29Z</time>
      </trkpt>
      <trkpt lat="44.55477" lon="6.32414">
        <ele>1234.241699</ele>
        <time>2015-10-10T11:51:33Z</time>
      </trkpt>
      <trkpt lat="44.55488" lon="6.32402">
        <ele>1235.554199</ele>
        <time>2015-10-10T11:51:37Z</time>
      </trkpt>
      <trkpt lat="44.55502" lon="6.3239">
        <ele>1235.147949</ele>
        <time>2015-10-10T11:51:41Z</time>
      </trkpt>
      <trkpt lat="44.55513" lon="6.32377">
        <ele>1236.241699</ele>
        <time>2015-10-10T11:51:45Z</time>
      </trkpt>
      <trkpt lat="44.55523" lon="6.32364">
        <ele>1236.616699</ele>
        <time>2015-10-10T11:51:49Z</time>
      </trkpt>
      <trkpt lat="44.55531" lon="6.32349">
        <ele>1236.116699</ele>
        <time>2015-10-10T11:51:53Z</time>
      </trkpt>
      <trkpt lat="44.55539" lon="6.32334">
        <ele>1237.179199</ele>
        <time>2015-10-10T11:51:57Z</time>
      </trkpt>
      <trkpt lat="44.55549" lon="6.3232">
        <ele>1236.929199</ele>
        <time>2015-10-10T11:52:01Z</time>
      </trkpt>
      <trkpt lat="44.55561" lon="6.32308">
        <ele>1238.366699</ele>
        <time>2015-10-10T11:52:05Z</time>
      </trkpt>
      <trkpt lat="44.55573" lon="6.32298">
        <ele>1239.929199</ele>
        <time>2015-10-10T11:52:09Z</time>
      </trkpt>
      <trkpt lat="44.55586" lon="6.32288">
        <ele>1240.554199</ele>
        <time>2015-10-10T11:52:13Z</time>
      </trkpt>
      <trkpt lat="44.55597" lon="6.32276">
        <ele>1241.741699</ele>
        <time>2015-10-10T11:52:17Z</time>
      </trkpt>
      <trkpt lat="44.55608" lon="6.32263">
        <ele>1243.054199</ele>
        <time>2015-10-10T11:52:21Z</time>
      </trkpt>
      <trkpt lat="44.55618" lon="6.32249">
        <ele>1243.991699</ele>
        <time>2015-10-10T11:52:25Z</time>
      </trkpt>
      <trkpt lat="44.55622" lon="6.32231">
        <ele>1245.116699</ele>
        <time>2015-10-10T11:52:29Z</time>
      </trkpt>
      <trkpt lat="44.55619" lon="6.32212">
        <ele>1245.522949</ele>
        <time>2015-10-10T11:52:33Z</time>
      </trkpt>
      <trkpt lat="44.55615" lon="6.32193">
        <ele>1247.679199</ele>
        <time>2015-10-10T11:52:37Z</time>
      </trkpt>
      <trkpt lat="44.55615" lon="6.32173">
        <ele>1246.772949</ele>
        <time>2015-10-10T11:52:41Z</time>
      </trkpt>
      <trkpt lat="44.55617" lon="6.32152">
        <ele>1248.147949</ele>
        <time>2015-10-10T11:52:45Z</time>
      </trkpt>
      <trkpt lat="44.55619" lon="6.32134">
        <ele>1249.679199</ele>
        <time>2015-10-10T11:52:49Z</time>
      </trkpt>
      <trkpt lat="44.55621" lon="6.32115">
        <ele>1251.585449</ele>
        <time>2015-10-10T11:52:53Z</time>
      </trkpt>
      <trkpt lat="44.55621" lon="6.32097">
        <ele>1253.179199</ele>
        <time>2015-10-10T11:52:57Z</time>
      </trkpt>
      <trkpt lat="44.55618" lon="6.32077">
        <ele>1255.772949</ele>
        <time>2015-10-10T11:53:01Z</time>
      </trkpt>
      <trkpt lat="44.55613" lon="6.32059">
        <ele>1257.179199</ele>
        <time>2015-10-10T11:53:05Z</time>
      </trkpt>
      <trkpt lat="44.55609" lon="6.3204">
        <ele>1259.647949</ele>
        <time>2015-10-10T11:53:09Z</time>
      </trkpt>
      <trkpt lat="44.55605" lon="6.32022">
        <ele>1261.210449</ele>
        <time>2015-10-10T11:53:13Z</time>
      </trkpt>
      <trkpt lat="44.55602" lon="6.3202">
        <ele>1261.147949</ele>
        <time>2015-10-10T11:53:17Z</time>
      </trkpt>
      <trkpt lat="44.55603" lon="6.32021">
        <ele>1260.804199</ele>
        <time>2015-10-10T11:53:21Z</time>
      </trkpt>
      <trkpt lat="44.55603" lon="6.32021">
        <ele>1260.710449</ele>
        <time>2015-10-10T11:53:25Z</time>
      </trkpt>
      <trkpt lat="44.55603" lon="6.32021">
        <ele>1260.679199</ele>
        <time>2015-10-10T11:53:29Z</time>
      </trkpt>
      <trkpt lat="44.55603" lon="6.32021">
        <ele>1260.647949</ele>
        <time>2015-10-10T11:53:33Z</time>
      </trkpt>
      <trkpt lat="44.55603" lon="6.32021">
        <ele>1260.679199</ele>
        <time>2015-10-10T11:53:37Z</time>
      </trkpt>
      <trkpt lat="44.55603" lon="6.32022">
        <ele>1260.741699</ele>
        <time>2015-10-10T11:53:41Z</time>
      </trkpt>
      <trkpt lat="44.55603" lon="6.32022">
        <ele>1260.741699</ele>
        <time>2015-10-10T11:53:45Z</time>
      </trkpt>
      <trkpt lat="44.55603" lon="6.32021">
        <ele>1260.429199</ele>
        <time>2015-10-10T11:53:49Z</time>
      </trkpt>
      <trkpt lat="44.55602" lon="6.32017">
        <ele>1259.241699</ele>
        <time>2015-10-10T11:53:53Z</time>
      </trkpt>
      <trkpt lat="44.556" lon="6.32006">
        <ele>1260.147949</ele>
        <time>2015-10-10T11:53:57Z</time>
      </trkpt>
      <trkpt lat="44.55598" lon="6.31985">
        <ele>1260.491699</ele>
        <time>2015-10-10T11:54:01Z</time>
      </trkpt>
      <trkpt lat="44.55598" lon="6.31964">
        <ele>1261.022949</ele>
        <time>2015-10-10T11:54:05Z</time>
      </trkpt>
      <trkpt lat="44.55599" lon="6.31942">
        <ele>1263.022949</ele>
        <time>2015-10-10T11:54:09Z</time>
      </trkpt>
      <trkpt lat="44.55603" lon="6.31923">
        <ele>1263.991699</ele>
        <time>2015-10-10T11:54:13Z</time>
      </trkpt>
      <trkpt lat="44.55607" lon="6.31903">
        <ele>1265.147949</ele>
        <time>2015-10-10T11:54:17Z</time>
      </trkpt>
      <trkpt lat="44.55612" lon="6.31883">
        <ele>1266.491699</ele>
        <time>2015-10-10T11:54:21Z</time>
      </trkpt>
      <trkpt lat="44.55616" lon="6.31861">
        <ele>1267.679199</ele>
        <time>2015-10-10T11:54:25Z</time>
      </trkpt>
      <trkpt lat="44.55619" lon="6.3184">
        <ele>1268.460449</ele>
        <time>2015-10-10T11:54:29Z</time>
      </trkpt>
      <trkpt lat="44.55622" lon="6.3182">
        <ele>1269.522949</ele>
        <time>2015-10-10T11:54:33Z</time>
      </trkpt>
      <trkpt lat="44.55625" lon="6.31799">
        <ele>1270.554199</ele>
        <time>2015-10-10T11:54:37Z</time>
      </trkpt>
      <trkpt lat="44.55628" lon="6.3178">
        <ele>1271.179199</ele>
        <time>2015-10-10T11:54:41Z</time>
      </trkpt>
      <trkpt lat="44.55631" lon="6.3176">
        <ele>1272.491699</ele>
        <time>2015-10-10T11:54:45Z</time>
      </trkpt>
      <trkpt lat="44.55636" lon="6.3174">
        <ele>1273.741699</ele>
        <time>2015-10-10T11:54:49Z</time>
      </trkpt>
      <trkpt lat="44.55641" lon="6.31723">
        <ele>1275.085449</ele>
        <time>2015-10-10T11:54:53Z</time>
      </trkpt>
      <trkpt lat="44.55647" lon="6.31705">
        <ele>1276.429199</ele>
        <time>2015-10-10T11:54:57Z</time>
      </trkpt>
      <trkpt lat="44.55652" lon="6.31687">
        <ele>1277.554199</ele>
        <time>2015-10-10T11:55:01Z</time>
      </trkpt>
      <trkpt lat="44.55658" lon="6.31669">
        <ele>1278.929199</ele>
        <time>2015-10-10T11:55:05Z</time>
      </trkpt>
      <trkpt lat="44.55664" lon="6.3165">
        <ele>1280.241699</ele>
        <time>2015-10-10T11:55:09Z</time>
      </trkpt>
      <trkpt lat="44.5567" lon="6.31631">
        <ele>1281.366699</ele>
        <time>2015-10-10T11:55:13Z</time>
      </trkpt>
      <trkpt lat="44.55679" lon="6.31614">
        <ele>1282.397949</ele>
        <time>2015-10-10T11:55:17Z</time>
      </trkpt>
      <trkpt lat="44.5569" lon="6.316">
        <ele>1282.335449</ele>
        <time>2015-10-10T11:55:21Z</time>
      </trkpt>
      <trkpt lat="44.55701" lon="6.31587">
        <ele>1284.147949</ele>
        <time>2015-10-10T11:55:25Z</time>
      </trkpt>
      <trkpt lat="44.55713" lon="6.3157">
        <ele>1285.179199</ele>
        <time>2015-10-10T11:55:29Z</time>
      </trkpt>
      <trkpt lat="44.55727" lon="6.31554">
        <ele>1286.179199</ele>
        <time>2015-10-10T11:55:33Z</time>
      </trkpt>
      <trkpt lat="44.55735" lon="6.31567">
        <ele>1287.054199</ele>
        <time>2015-10-10T11:55:37Z</time>
      </trkpt>
      <trkpt lat="44.5573" lon="6.31589">
        <ele>1286.585449</ele>
        <time>2015-10-10T11:55:41Z</time>
      </trkpt>
      <trkpt lat="44.55722" lon="6.31611">
        <ele>1287.554199</ele>
        <time>2015-10-10T11:55:45Z</time>
      </trkpt>
      <trkpt lat="44.55712" lon="6.31629">
        <ele>1291.397949</ele>
        <time>2015-10-10T11:55:49Z</time>
      </trkpt>
      <trkpt lat="44.55706" lon="6.3165">
        <ele>1293.304199</ele>
        <time>2015-10-10T11:55:53Z</time>
      </trkpt>
      <trkpt lat="44.55706" lon="6.31673">
        <ele>1295.085449</ele>
        <time>2015-10-10T11:55:57Z</time>
      </trkpt>
      <trkpt lat="44.5571" lon="6.31694">
        <ele>1296.022949</ele>
        <time>2015-10-10T11:56:01Z</time>
      </trkpt>
      <trkpt lat="44.55718" lon="6.31711">
        <ele>1296.647949</ele>
        <time>2015-10-10T11:56:05Z</time>
      </trkpt>
      <trkpt lat="44.55726" lon="6.31729">
        <ele>1297.022949</ele>
        <time>2015-10-10T11:56:09Z</time>
      </trkpt>
      <trkpt lat="44.55734" lon="6.31747">
        <ele>1298.335449</ele>
        <time>2015-10-10T11:56:13Z</time>
      </trkpt>
      <trkpt lat="44.55743" lon="6.31763">
        <ele>1299.335449</ele>
        <time>2015-10-10T11:56:17Z</time>
      </trkpt>
      <trkpt lat="44.55755" lon="6.31775">
        <ele>1300.054199</ele>
        <time>2015-10-10T11:56:21Z</time>
      </trkpt>
      <trkpt lat="44.5577" lon="6.31784">
        <ele>1301.179199</ele>
        <time>2015-10-10T11:56:25Z</time>
      </trkpt>
      <trkpt lat="44.55779" lon="6.31801">
        <ele>1302.460449</ele>
        <time>2015-10-10T11:56:29Z</time>
      </trkpt>
      <trkpt lat="44.55784" lon="6.31822">
        <ele>1303.179199</ele>
        <time>2015-10-10T11:56:33Z</time>
      </trkpt>
      <trkpt lat="44.55786" lon="6.31844">
        <ele>1305.366699</ele>
        <time>2015-10-10T11:56:37Z</time>
      </trkpt>
      <trkpt lat="44.55788" lon="6.31865">
        <ele>1306.585449</ele>
        <time>2015-10-10T11:56:41Z</time>
      </trkpt>
      <trkpt lat="44.5579" lon="6.31885">
        <ele>1307.210449</ele>
        <time>2015-10-10T11:56:45Z</time>
      </trkpt>
      <trkpt lat="44.55789" lon="6.31905">
        <ele>1308.710449</ele>
        <time>2015-10-10T11:56:49Z</time>
      </trkpt>
      <trkpt lat="44.55789" lon="6.31919">
        <ele>1309.679199</ele>
        <time>2015-10-10T11:56:53Z</time>
      </trkpt>
      <trkpt lat="44.55789" lon="6.31916">
        <ele>1309.866699</ele>
        <time>2015-10-10T11:56:57Z</time>
      </trkpt>
      <trkpt lat="44.55788" lon="6.31916">
        <ele>1309.616699</ele>
        <time>2015-10-10T11:57:01Z</time>
      </trkpt>
      <trkpt lat="44.55788" lon="6.31916">
        <ele>1309.460449</ele>
        <time>2015-10-10T11:57:05Z</time>
      </trkpt>
      <trkpt lat="44.55788" lon="6.31915">
        <ele>1309.397949</ele>
        <time>2015-10-10T11:57:09Z</time>
      </trkpt>
      <trkpt lat="44.55788" lon="6.31915">
        <ele>1309.366699</ele>
        <time>2015-10-10T11:57:13Z</time>
      </trkpt>
      <trkpt lat="44.55788" lon="6.31915">
        <ele>1309.429199</ele>
        <time>2015-10-10T11:57:17Z</time>
      </trkpt>
      <trkpt lat="44.55787" lon="6.31915">
        <ele>1309.585449</ele>
        <time>2015-10-10T11:57:21Z</time>
      </trkpt>
      <trkpt lat="44.55788" lon="6.31915">
        <ele>1310.116699</ele>
        <time>2015-10-10T11:57:25Z</time>
      </trkpt>
      <trkpt lat="44.55788" lon="6.31915">
        <ele>1310.366699</ele>
        <time>2015-10-10T11:57:29Z</time>
      </trkpt>
      <trkpt lat="44.55789" lon="6.31915">
        <ele>1310.616699</ele>
        <time>2015-10-10T11:57:33Z</time>
      </trkpt>
      <trkpt lat="44.55789" lon="6.31915">
        <ele>1310.772949</ele>
        <time>2015-10-10T11:57:37Z</time>
      </trkpt>
      <trkpt lat="44.55789" lon="6.31915">
        <ele>1310.866699</ele>
        <time>2015-10-10T11:57:41Z</time>
      </trkpt>
      <trkpt lat="44.55789" lon="6.31915">
        <ele>1310.866699</ele>
        <time>2015-10-10T11:57:45Z</time>
      </trkpt>
      <trkpt lat="44.55789" lon="6.31915">
        <ele>1310.897949</ele>
        <time>2015-10-10T11:57:49Z</time>
      </trkpt>
      <trkpt lat="44.55789" lon="6.31915">
        <ele>1310.897949</ele>
        <time>2015-10-10T11:57:53Z</time>
      </trkpt>
      <trkpt lat="44.55789" lon="6.31915">
        <ele>1310.866699</ele>
        <time>2015-10-10T11:57:57Z</time>
      </trkpt>
      <trkpt lat="44.5579" lon="6.31915">
        <ele>1310.897949</ele>
        <time>2015-10-10T11:58:01Z</time>
      </trkpt>
      <trkpt lat="44.5579" lon="6.31915">
        <ele>1310.897949</ele>
        <time>2015-10-10T11:58:05Z</time>
      </trkpt>
      <trkpt lat="44.5579" lon="6.31915">
        <ele>1310.804199</ele>
        <time>2015-10-10T11:58:09Z</time>
      </trkpt>
      <trkpt lat="44.5579" lon="6.31915">
        <ele>1310.772949</ele>
        <time>2015-10-10T11:58:13Z</time>
      </trkpt>
      <trkpt lat="44.5579" lon="6.31915">
        <ele>1310.710449</ele>
        <time>2015-10-10T11:58:17Z</time>
      </trkpt>
      <trkpt lat="44.5579" lon="6.31914">
        <ele>1310.585449</ele>
        <time>2015-10-10T11:58:21Z</time>
      </trkpt>
      <trkpt lat="44.5579" lon="6.31914">
        <ele>1310.147949</ele>
        <time>2015-10-10T11:58:25Z</time>
      </trkpt>
      <trkpt lat="44.5579" lon="6.31914">
        <ele>1309.866699</ele>
        <time>2015-10-10T11:58:29Z</time>
      </trkpt>
      <trkpt lat="44.5579" lon="6.31914">
        <ele>1309.772949</ele>
        <time>2015-10-10T11:58:33Z</time>
      </trkpt>
      <trkpt lat="44.5579" lon="6.31914">
        <ele>1309.772949</ele>
        <time>2015-10-10T11:58:37Z</time>
      </trkpt>
      <trkpt lat="44.5579" lon="6.31914">
        <ele>1309.804199</ele>
        <time>2015-10-10T11:58:41Z</time>
      </trkpt>
      <trkpt lat="44.5579" lon="6.31914">
        <ele>1309.835449</ele>
        <time>2015-10-10T11:58:45Z</time>
      </trkpt>
      <trkpt lat="44.5579" lon="6.31914">
        <ele>1309.835449</ele>
        <time>2015-10-10T11:58:49Z</time>
      </trkpt>
      <trkpt lat="44.5579" lon="6.31914">
        <ele>1309.804199</ele>
        <time>2015-10-10T11:58:53Z</time>
      </trkpt>
      <trkpt lat="44.5579" lon="6.31915">
        <ele>1309.897949</ele>
        <time>2015-10-10T11:58:57Z</time>
      </trkpt>
      <trkpt lat="44.55789" lon="6.31914">
        <ele>1310.085449</ele>
        <time>2015-10-10T11:59:01Z</time>
      </trkpt>
      <trkpt lat="44.5579" lon="6.31914">
        <ele>1309.772949</ele>
        <time>2015-10-10T11:59:05Z</time>
      </trkpt>
      <trkpt lat="44.5579" lon="6.31914">
        <ele>1309.616699</ele>
        <time>2015-10-10T11:59:09Z</time>
      </trkpt>
      <trkpt lat="44.5579" lon="6.31914">
        <ele>1309.522949</ele>
        <time>2015-10-10T11:59:13Z</time>
      </trkpt>
      <trkpt lat="44.5579" lon="6.31914">
        <ele>1309.491699</ele>
        <time>2015-10-10T11:59:17Z</time>
      </trkpt>
      <trkpt lat="44.5579" lon="6.31914">
        <ele>1309.429199</ele>
        <time>2015-10-10T11:59:21Z</time>
      </trkpt>
      <trkpt lat="44.5579" lon="6.31914">
        <ele>1309.460449</ele>
        <time>2015-10-10T11:59:25Z</time>
      </trkpt>
      <trkpt lat="44.5579" lon="6.31915">
        <ele>1309.585449</ele>
        <time>2015-10-10T11:59:29Z</time>
      </trkpt>
      <trkpt lat="44.55794" lon="6.31919">
        <ele>1310.616699</ele>
        <time>2015-10-10T11:59:33Z</time>
      </trkpt>
      <trkpt lat="44.55805" lon="6.31924">
        <ele>1311.397949</ele>
        <time>2015-10-10T11:59:37Z</time>
      </trkpt>
      <trkpt lat="44.55821" lon="6.31925">
        <ele>1312.429199</ele>
        <time>2015-10-10T11:59:41Z</time>
      </trkpt>
      <trkpt lat="44.55837" lon="6.31925">
        <ele>1313.616699</ele>
        <time>2015-10-10T11:59:45Z</time>
      </trkpt>
      <trkpt lat="44.55854" lon="6.31926">
        <ele>1315.054199</ele>
        <time>2015-10-10T11:59:49Z</time>
      </trkpt>
      <trkpt lat="44.55869" lon="6.31928">
        <ele>1317.335449</ele>
        <time>2015-10-10T11:59:53Z</time>
      </trkpt>
      <trkpt lat="44.55884" lon="6.31938">
        <ele>1318.585449</ele>
        <time>2015-10-10T11:59:57Z</time>
      </trkpt>
      <trkpt lat="44.55902" lon="6.31947">
        <ele>1321.272949</ele>
        <time>2015-10-10T12:00:01Z</time>
      </trkpt>
      <trkpt lat="44.55918" lon="6.31957">
        <ele>1323.804199</ele>
        <time>2015-10-10T12:00:05Z</time>
      </trkpt>
      <trkpt lat="44.55931" lon="6.31973">
        <ele>1325.335449</ele>
        <time>2015-10-10T12:00:09Z</time>
      </trkpt>
      <trkpt lat="44.55943" lon="6.3199">
        <ele>1325.554199</ele>
        <time>2015-10-10T12:00:13Z</time>
      </trkpt>
      <trkpt lat="44.55953" lon="6.32009">
        <ele>1326.647949</ele>
        <time>2015-10-10T12:00:17Z</time>
      </trkpt>
      <trkpt lat="44.55962" lon="6.32029">
        <ele>1328.335449</ele>
        <time>2015-10-10T12:00:21Z</time>
      </trkpt>
      <trkpt lat="44.55969" lon="6.32051">
        <ele>1328.929199</ele>
        <time>2015-10-10T12:00:25Z</time>
      </trkpt>
      <trkpt lat="44.55976" lon="6.32074">
        <ele>1327.960449</ele>
        <time>2015-10-10T12:00:29Z</time>
      </trkpt>
      <trkpt lat="44.55981" lon="6.32096">
        <ele>1327.679199</ele>
        <time>2015-10-10T12:00:33Z</time>
      </trkpt>
      <trkpt lat="44.55984" lon="6.3212">
        <ele>1327.491699</ele>
        <time>2015-10-10T12:00:37Z</time>
      </trkpt>
      <trkpt lat="44.55988" lon="6.32143">
        <ele>1330.585449</ele>
        <time>2015-10-10T12:00:41Z</time>
      </trkpt>
      <trkpt lat="44.55991" lon="6.32166">
        <ele>1332.897949</ele>
        <time>2015-10-10T12:00:45Z</time>
      </trkpt>
      <trkpt lat="44.55995" lon="6.32189">
        <ele>1332.647949</ele>
        <time>2015-10-10T12:00:49Z</time>
      </trkpt>
      <trkpt lat="44.55998" lon="6.3221">
        <ele>1332.522949</ele>
        <time>2015-10-10T12:00:53Z</time>
      </trkpt>
      <trkpt lat="44.56001" lon="6.32234">
        <ele>1333.116699</ele>
        <time>2015-10-10T12:00:57Z</time>
      </trkpt>
      <trkpt lat="44.55999" lon="6.32258">
        <ele>1333.897949</ele>
        <time>2015-10-10T12:01:01Z</time>
      </trkpt>
      <trkpt lat="44.55994" lon="6.32281">
        <ele>1337.866699</ele>
        <time>2015-10-10T12:01:05Z</time>
      </trkpt>
      <trkpt lat="44.55989" lon="6.32306">
        <ele>1339.585449</ele>
        <time>2015-10-10T12:01:09Z</time>
      </trkpt>
      <trkpt lat="44.55984" lon="6.32329">
        <ele>1341.460449</ele>
        <time>2015-10-10T12:01:13Z</time>
      </trkpt>
      <trkpt lat="44.5598" lon="6.32345">
        <ele>1342.335449</ele>
        <time>2015-10-10T12:01:17Z</time>
      </trkpt>
      <trkpt lat="44.5597" lon="6.3236">
        <ele>1345.272949</ele>
        <time>2015-10-10T12:01:21Z</time>
      </trkpt>
      <trkpt lat="44.55962" lon="6.32379">
        <ele>1346.554199</ele>
        <time>2015-10-10T12:01:25Z</time>
      </trkpt>
      <trkpt lat="44.55957" lon="6.32406">
        <ele>1347.272949</ele>
        <time>2015-10-10T12:01:29Z</time>
      </trkpt>
      <trkpt lat="44.55965" lon="6.32422">
        <ele>1347.429199</ele>
        <time>2015-10-10T12:01:33Z</time>
      </trkpt>
      <trkpt lat="44.55978" lon="6.32439">
        <ele>1346.772949</ele>
        <time>2015-10-10T12:01:37Z</time>
      </trkpt>
      <trkpt lat="44.55991" lon="6.32435">
        <ele>1347.897949</ele>
        <time>2015-10-10T12:01:41Z</time>
      </trkpt>
      <trkpt lat="44.55998" lon="6.32419">
        <ele>1349.085449</ele>
        <time>2015-10-10T12:01:45Z</time>
      </trkpt>
      <trkpt lat="44.56004" lon="6.32404">
        <ele>1351.085449</ele>
        <time>2015-10-10T12:01:49Z</time>
      </trkpt>
      <trkpt lat="44.56008" lon="6.32386">
        <ele>1352.491699</ele>
        <time>2015-10-10T12:01:53Z</time>
      </trkpt>
      <trkpt lat="44.56012" lon="6.3237">
        <ele>1354.272949</ele>
        <time>2015-10-10T12:01:57Z</time>
      </trkpt>
      <trkpt lat="44.56015" lon="6.32352">
        <ele>1354.929199</ele>
        <time>2015-10-10T12:02:01Z</time>
      </trkpt>
      <trkpt lat="44.56018" lon="6.32335">
        <ele>1355.804199</ele>
        <time>2015-10-10T12:02:05Z</time>
      </trkpt>
      <trkpt lat="44.5602" lon="6.32314">
        <ele>1356.897949</ele>
        <time>2015-10-10T12:02:09Z</time>
      </trkpt>
      <trkpt lat="44.56028" lon="6.32295">
        <ele>1358.522949</ele>
        <time>2015-10-10T12:02:13Z</time>
      </trkpt>
      <trkpt lat="44.56042" lon="6.3228">
        <ele>1357.929199</ele>
        <time>2015-10-10T12:02:17Z</time>
      </trkpt>
      <trkpt lat="44.56053" lon="6.32265">
        <ele>1359.304199</ele>
        <time>2015-10-10T12:02:21Z</time>
      </trkpt>
      <trkpt lat="44.56063" lon="6.32253">
        <ele>1357.679199</ele>
        <time>2015-10-10T12:02:25Z</time>
      </trkpt>
      <trkpt lat="44.56073" lon="6.32241">
        <ele>1358.710449</ele>
        <time>2015-10-10T12:02:29Z</time>
      </trkpt>
      <trkpt lat="44.5608" lon="6.32222">
        <ele>1360.054199</ele>
        <time>2015-10-10T12:02:33Z</time>
      </trkpt>
      <trkpt lat="44.56083" lon="6.32203">
        <ele>1360.460449</ele>
        <time>2015-10-10T12:02:37Z</time>
      </trkpt>
      <trkpt lat="44.56084" lon="6.32181">
        <ele>1360.991699</ele>
        <time>2015-10-10T12:02:41Z</time>
      </trkpt>
      <trkpt lat="44.56085" lon="6.32159">
        <ele>1358.116699</ele>
        <time>2015-10-10T12:02:45Z</time>
      </trkpt>
      <trkpt lat="44.56084" lon="6.32135">
        <ele>1358.210449</ele>
        <time>2015-10-10T12:02:49Z</time>
      </trkpt>
      <trkpt lat="44.5608" lon="6.32112">
        <ele>1359.960449</ele>
        <time>2015-10-10T12:02:53Z</time>
      </trkpt>
      <trkpt lat="44.56073" lon="6.32093">
        <ele>1361.741699</ele>
        <time>2015-10-10T12:02:57Z</time>
      </trkpt>
      <trkpt lat="44.56067" lon="6.32077">
        <ele>1361.929199</ele>
        <time>2015-10-10T12:03:01Z</time>
      </trkpt>
      <trkpt lat="44.56062" lon="6.32059">
        <ele>1363.241699</ele>
        <time>2015-10-10T12:03:05Z</time>
      </trkpt>
      <trkpt lat="44.56061" lon="6.32039">
        <ele>1364.741699</ele>
        <time>2015-10-10T12:03:09Z</time>
      </trkpt>
      <trkpt lat="44.56062" lon="6.32017">
        <ele>1366.116699</ele>
        <time>2015-10-10T12:03:13Z</time>
      </trkpt>
      <trkpt lat="44.56063" lon="6.31995">
        <ele>1365.585449</ele>
        <time>2015-10-10T12:03:17Z</time>
      </trkpt>
      <trkpt lat="44.56064" lon="6.31971">
        <ele>1365.272949</ele>
        <time>2015-10-10T12:03:21Z</time>
      </trkpt>
      <trkpt lat="44.56073" lon="6.31956">
        <ele>1367.335449</ele>
        <time>2015-10-10T12:03:25Z</time>
      </trkpt>
      <trkpt lat="44.56086" lon="6.31944">
        <ele>1367.960449</ele>
        <time>2015-10-10T12:03:29Z</time>
      </trkpt>
      <trkpt lat="44.56103" lon="6.31948">
        <ele>1366.710449</ele>
        <time>2015-10-10T12:03:33Z</time>
      </trkpt>
      <trkpt lat="44.5612" lon="6.3196">
        <ele>1366.272949</ele>
        <time>2015-10-10T12:03:37Z</time>
      </trkpt>
      <trkpt lat="44.56136" lon="6.31967">
        <ele>1367.054199</ele>
        <time>2015-10-10T12:03:41Z</time>
      </trkpt>
      <trkpt lat="44.56147" lon="6.31949">
        <ele>1366.679199</ele>
        <time>2015-10-10T12:03:45Z</time>
      </trkpt>
      <trkpt lat="44.56147" lon="6.31922">
        <ele>1367.022949</ele>
        <time>2015-10-10T12:03:49Z</time>
      </trkpt>
      <trkpt lat="44.56154" lon="6.31897">
        <ele>1369.522949</ele>
        <time>2015-10-10T12:03:53Z</time>
      </trkpt>
      <trkpt lat="44.56158" lon="6.31874">
        <ele>1369.304199</ele>
        <time>2015-10-10T12:03:57Z</time>
      </trkpt>
      <trkpt lat="44.56156" lon="6.31852">
        <ele>1370.397949</ele>
        <time>2015-10-10T12:04:01Z</time>
      </trkpt>
      <trkpt lat="44.5615" lon="6.31832">
        <ele>1369.929199</ele>
        <time>2015-10-10T12:04:05Z</time>
      </trkpt>
      <trkpt lat="44.56142" lon="6.31809">
        <ele>1370.710449</ele>
        <time>2015-10-10T12:04:09Z</time>
      </trkpt>
      <trkpt lat="44.56134" lon="6.31788">
        <ele>1371.210449</ele>
        <time>2015-10-10T12:04:13Z</time>
      </trkpt>
      <trkpt lat="44.56127" lon="6.31767">
        <ele>1370.960449</ele>
        <time>2015-10-10T12:04:17Z</time>
      </trkpt>
      <trkpt lat="44.5612" lon="6.31747">
        <ele>1372.241699</ele>
        <time>2015-10-10T12:04:21Z</time>
      </trkpt>
      <trkpt lat="44.56117" lon="6.31727">
        <ele>1373.210449</ele>
        <time>2015-10-10T12:04:25Z</time>
      </trkpt>
      <trkpt lat="44.56119" lon="6.31708">
        <ele>1375.054199</ele>
        <time>2015-10-10T12:04:29Z</time>
      </trkpt>
      <trkpt lat="44.5613" lon="6.31697">
        <ele>1378.366699</ele>
        <time>2015-10-10T12:04:33Z</time>
      </trkpt>
      <trkpt lat="44.5614" lon="6.31691">
        <ele>1380.804199</ele>
        <time>2015-10-10T12:04:37Z</time>
      </trkpt>
      <trkpt lat="44.56151" lon="6.31685">
        <ele>1383.491699</ele>
        <time>2015-10-10T12:04:41Z</time>
      </trkpt>
      <trkpt lat="44.56162" lon="6.31681">
        <ele>1385.491699</ele>
        <time>2015-10-10T12:04:45Z</time>
      </trkpt>
      <trkpt lat="44.5617" lon="6.31674">
        <ele>1388.116699</ele>
        <time>2015-10-10T12:04:49Z</time>
      </trkpt>
      <trkpt lat="44.5618" lon="6.3167">
        <ele>1390.147949</ele>
        <time>2015-10-10T12:04:53Z</time>
      </trkpt>
      <trkpt lat="44.5619" lon="6.31666">
        <ele>1391.585449</ele>
        <time>2015-10-10T12:04:57Z</time>
      </trkpt>
      <trkpt lat="44.56201" lon="6.31663">
        <ele>1392.647949</ele>
        <time>2015-10-10T12:05:01Z</time>
      </trkpt>
      <trkpt lat="44.56211" lon="6.31657">
        <ele>1394.085449</ele>
        <time>2015-10-10T12:05:05Z</time>
      </trkpt>
      <trkpt lat="44.56222" lon="6.31653">
        <ele>1395.897949</ele>
        <time>2015-10-10T12:05:09Z</time>
      </trkpt>
      <trkpt lat="44.56232" lon="6.3165">
        <ele>1397.897949</ele>
        <time>2015-10-10T12:05:13Z</time>
      </trkpt>
      <trkpt lat="44.5624" lon="6.31645">
        <ele>1400.679199</ele>
        <time>2015-10-10T12:05:17Z</time>
      </trkpt>
      <trkpt lat="44.5625" lon="6.31643">
        <ele>1402.241699</ele>
        <time>2015-10-10T12:05:21Z</time>
      </trkpt>
      <trkpt lat="44.56261" lon="6.31643">
        <ele>1403.772949</ele>
        <time>2015-10-10T12:05:25Z</time>
      </trkpt>
      <trkpt lat="44.56271" lon="6.31642">
        <ele>1404.647949</ele>
        <time>2015-10-10T12:05:29Z</time>
      </trkpt>
      <trkpt lat="44.56283" lon="6.31642">
        <ele>1405.460449</ele>
        <time>2015-10-10T12:05:33Z</time>
      </trkpt>
      <trkpt lat="44.56295" lon="6.31644">
        <ele>1406.679199</ele>
        <time>2015-10-10T12:05:37Z</time>
      </trkpt>
      <trkpt lat="44.56308" lon="6.31646">
        <ele>1408.491699</ele>
        <time>2015-10-10T12:05:41Z</time>
      </trkpt>
      <trkpt lat="44.56317" lon="6.31647">
        <ele>1409.772949</ele>
        <time>2015-10-10T12:05:45Z</time>
      </trkpt>
      <trkpt lat="44.56328" lon="6.3165">
        <ele>1411.147949</ele>
        <time>2015-10-10T12:05:49Z</time>
      </trkpt>
      <trkpt lat="44.56339" lon="6.31652">
        <ele>1411.554199</ele>
        <time>2015-10-10T12:05:53Z</time>
      </trkpt>
      <trkpt lat="44.5635" lon="6.3165">
        <ele>1413.116699</ele>
        <time>2015-10-10T12:05:57Z</time>
      </trkpt>
      <trkpt lat="44.56363" lon="6.31646">
        <ele>1414.616699</ele>
        <time>2015-10-10T12:06:01Z</time>
      </trkpt>
      <trkpt lat="44.56378" lon="6.31639">
        <ele>1416.335449</ele>
        <time>2015-10-10T12:06:05Z</time>
      </trkpt>
      <trkpt lat="44.56391" lon="6.31636">
        <ele>1415.522949</ele>
        <time>2015-10-10T12:06:09Z</time>
      </trkpt>
      <trkpt lat="44.56406" lon="6.31631">
        <ele>1416.647949</ele>
        <time>2015-10-10T12:06:13Z</time>
      </trkpt>
      <trkpt lat="44.56419" lon="6.31615">
        <ele>1417.179199</ele>
        <time>2015-10-10T12:06:17Z</time>
      </trkpt>
      <trkpt lat="44.56434" lon="6.31601">
        <ele>1417.585449</ele>
        <time>2015-10-10T12:06:21Z</time>
      </trkpt>
      <trkpt lat="44.56451" lon="6.31586">
        <ele>1418.272949</ele>
        <time>2015-10-10T12:06:25Z</time>
      </trkpt>
      <trkpt lat="44.56464" lon="6.31567">
        <ele>1420.116699</ele>
        <time>2015-10-10T12:06:29Z</time>
      </trkpt>
      <trkpt lat="44.56475" lon="6.31548">
        <ele>1420.804199</ele>
        <time>2015-10-10T12:06:33Z</time>
      </trkpt>
      <trkpt lat="44.56487" lon="6.31529">
        <ele>1421.616699</ele>
        <time>2015-10-10T12:06:37Z</time>
      </trkpt>
      <trkpt lat="44.565" lon="6.31512">
        <ele>1422.022949</ele>
        <time>2015-10-10T12:06:41Z</time>
      </trkpt>
      <trkpt lat="44.56516" lon="6.31499">
        <ele>1422.991699</ele>
        <time>2015-10-10T12:06:45Z</time>
      </trkpt>
      <trkpt lat="44.56535" lon="6.31492">
        <ele>1422.897949</ele>
        <time>2015-10-10T12:06:49Z</time>
      </trkpt>
      <trkpt lat="44.56556" lon="6.3149">
        <ele>1422.866699</ele>
        <time>2015-10-10T12:06:53Z</time>
      </trkpt>
      <trkpt lat="44.56569" lon="6.3147">
        <ele>1424.210449</ele>
        <time>2015-10-10T12:06:57Z</time>
      </trkpt>
      <trkpt lat="44.56576" lon="6.31448">
        <ele>1424.397949</ele>
        <time>2015-10-10T12:07:01Z</time>
      </trkpt>
      <trkpt lat="44.56578" lon="6.31426">
        <ele>1423.741699</ele>
        <time>2015-10-10T12:07:05Z</time>
      </trkpt>
      <trkpt lat="44.56577" lon="6.31404">
        <ele>1425.241699</ele>
        <time>2015-10-10T12:07:09Z</time>
      </trkpt>
      <trkpt lat="44.56572" lon="6.31383">
        <ele>1426.179199</ele>
        <time>2015-10-10T12:07:13Z</time>
      </trkpt>
      <trkpt lat="44.56566" lon="6.31367">
        <ele>1427.179199</ele>
        <time>2015-10-10T12:07:17Z</time>
      </trkpt>
      <trkpt lat="44.5656" lon="6.31352">
        <ele>1427.241699</ele>
        <time>2015-10-10T12:07:21Z</time>
      </trkpt>
      <trkpt lat="44.56554" lon="6.31337">
        <ele>1427.647949</ele>
        <time>2015-10-10T12:07:25Z</time>
      </trkpt>
      <trkpt lat="44.56549" lon="6.31321">
        <ele>1428.897949</ele>
        <time>2015-10-10T12:07:29Z</time>
      </trkpt>
      <trkpt lat="44.56547" lon="6.31305">
        <ele>1430.397949</ele>
        <time>2015-10-10T12:07:33Z</time>
      </trkpt>
      <trkpt lat="44.56547" lon="6.31291">
        <ele>1431.147949</ele>
        <time>2015-10-10T12:07:37Z</time>
      </trkpt>
      <trkpt lat="44.5655" lon="6.31275">
        <ele>1431.991699</ele>
        <time>2015-10-10T12:07:41Z</time>
      </trkpt>
      <trkpt lat="44.56558" lon="6.31265">
        <ele>1434.210449</ele>
        <time>2015-10-10T12:07:45Z</time>
      </trkpt>
      <trkpt lat="44.56569" lon="6.31266">
        <ele>1436.272949</ele>
        <time>2015-10-10T12:07:49Z</time>
      </trkpt>
      <trkpt lat="44.56581" lon="6.31271">
        <ele>1437.929199</ele>
        <time>2015-10-10T12:07:53Z</time>
      </trkpt>
      <trkpt lat="44.56594" lon="6.31273">
        <ele>1439.210449</ele>
        <time>2015-10-10T12:07:57Z</time>
      </trkpt>
      <trkpt lat="44.56607" lon="6.31266">
        <ele>1440.741699</ele>
        <time>2015-10-10T12:08:01Z</time>
      </trkpt>
      <trkpt lat="44.56619" lon="6.31253">
        <ele>1442.929199</ele>
        <time>2015-10-10T12:08:05Z</time>
      </trkpt>
      <trkpt lat="44.56628" lon="6.3124">
        <ele>1445.647949</ele>
        <time>2015-10-10T12:08:09Z</time>
      </trkpt>
      <trkpt lat="44.56636" lon="6.31224">
        <ele>1447.241699</ele>
        <time>2015-10-10T12:08:13Z</time>
      </trkpt>
      <trkpt lat="44.56641" lon="6.3121">
        <ele>1448.772949</ele>
        <time>2015-10-10T12:08:17Z</time>
      </trkpt>
      <trkpt lat="44.56647" lon="6.31197">
        <ele>1450.491699</ele>
        <time>2015-10-10T12:08:21Z</time>
      </trkpt>
      <trkpt lat="44.56655" lon="6.31187">
        <ele>1452.116699</ele>
        <time>2015-10-10T12:08:25Z</time>
      </trkpt>
      <trkpt lat="44.56665" lon="6.31187">
        <ele>1452.710449</ele>
        <time>2015-10-10T12:08:29Z</time>
      </trkpt>
      <trkpt lat="44.56673" lon="6.31192">
        <ele>1453.054199</ele>
        <time>2015-10-10T12:08:33Z</time>
      </trkpt>
      <trkpt lat="44.5668" lon="6.31201">
        <ele>1454.460449</ele>
        <time>2015-10-10T12:08:37Z</time>
      </trkpt>
      <trkpt lat="44.56685" lon="6.31214">
        <ele>1454.460449</ele>
        <time>2015-10-10T12:08:41Z</time>
      </trkpt>
      <trkpt lat="44.5669" lon="6.31226">
        <ele>1455.085449</ele>
        <time>2015-10-10T12:08:45Z</time>
      </trkpt>
      <trkpt lat="44.56695" lon="6.31241">
        <ele>1455.679199</ele>
        <time>2015-10-10T12:08:49Z</time>
      </trkpt>
      <trkpt lat="44.56696" lon="6.31258">
        <ele>1456.241699</ele>
        <time>2015-10-10T12:08:53Z</time>
      </trkpt>
      <trkpt lat="44.56692" lon="6.31274">
        <ele>1456.429199</ele>
        <time>2015-10-10T12:08:57Z</time>
      </trkpt>
      <trkpt lat="44.56686" lon="6.31291">
        <ele>1458.366699</ele>
        <time>2015-10-10T12:09:01Z</time>
      </trkpt>
      <trkpt lat="44.56679" lon="6.31306">
        <ele>1459.991699</ele>
        <time>2015-10-10T12:09:05Z</time>
      </trkpt>
      <trkpt lat="44.56682" lon="6.31321">
        <ele>1462.116699</ele>
        <time>2015-10-10T12:09:09Z</time>
      </trkpt>
      <trkpt lat="44.56695" lon="6.31317">
        <ele>1465.585449</ele>
        <time>2015-10-10T12:09:13Z</time>
      </trkpt>
      <trkpt lat="44.56702" lon="6.31302">
        <ele>1467.147949</ele>
        <time>2015-10-10T12:09:17Z</time>
      </trkpt>
      <trkpt lat="44.5671" lon="6.31288">
        <ele>1469.491699</ele>
        <time>2015-10-10T12:09:21Z</time>
      </trkpt>
      <trkpt lat="44.56718" lon="6.31273">
        <ele>1471.929199</ele>
        <time>2015-10-10T12:09:25Z</time>
      </trkpt>
      <trkpt lat="44.56726" lon="6.31261">
        <ele>1474.397949</ele>
        <time>2015-10-10T12:09:29Z</time>
      </trkpt>
      <trkpt lat="44.56733" lon="6.3125">
        <ele>1474.241699</ele>
        <time>2015-10-10T12:09:33Z</time>
      </trkpt>
      <trkpt lat="44.56739" lon="6.31236">
        <ele>1476.022949</ele>
        <time>2015-10-10T12:09:37Z</time>
      </trkpt>
      <trkpt lat="44.56748" lon="6.31228">
        <ele>1476.866699</ele>
        <time>2015-10-10T12:09:41Z</time>
      </trkpt>
      <trkpt lat="44.56756" lon="6.31228">
        <ele>1477.366699</ele>
        <time>2015-10-10T12:09:45Z</time>
      </trkpt>
      <trkpt lat="44.56766" lon="6.31233">
        <ele>1477.491699</ele>
        <time>2015-10-10T12:09:49Z</time>
      </trkpt>
      <trkpt lat="44.56776" lon="6.31235">
        <ele>1477.522949</ele>
        <time>2015-10-10T12:09:53Z</time>
      </trkpt>
      <trkpt lat="44.56787" lon="6.31239">
        <ele>1478.585449</ele>
        <time>2015-10-10T12:09:57Z</time>
      </trkpt>
      <trkpt lat="44.56797" lon="6.31241">
        <ele>1478.835449</ele>
        <time>2015-10-10T12:10:01Z</time>
      </trkpt>
      <trkpt lat="44.56809" lon="6.31245">
        <ele>1479.304199</ele>
        <time>2015-10-10T12:10:05Z</time>
      </trkpt>
      <trkpt lat="44.5682" lon="6.31245">
        <ele>1480.429199</ele>
        <time>2015-10-10T12:10:09Z</time>
      </trkpt>
      <trkpt lat="44.56831" lon="6.31242">
        <ele>1481.679199</ele>
        <time>2015-10-10T12:10:13Z</time>
      </trkpt>
      <trkpt lat="44.56842" lon="6.31237">
        <ele>1483.272949</ele>
        <time>2015-10-10T12:10:17Z</time>
      </trkpt>
      <trkpt lat="44.56854" lon="6.31233">
        <ele>1485.210449</ele>
        <time>2015-10-10T12:10:21Z</time>
      </trkpt>
      <trkpt lat="44.56865" lon="6.31231">
        <ele>1486.679199</ele>
        <time>2015-10-10T12:10:25Z</time>
      </trkpt>
      <trkpt lat="44.56876" lon="6.3123">
        <ele>1487.772949</ele>
        <time>2015-10-10T12:10:29Z</time>
      </trkpt>
      <trkpt lat="44.56888" lon="6.3123">
        <ele>1489.522949</ele>
        <time>2015-10-10T12:10:33Z</time>
      </trkpt>
      <trkpt lat="44.56901" lon="6.3123">
        <ele>1491.397949</ele>
        <time>2015-10-10T12:10:37Z</time>
      </trkpt>
      <trkpt lat="44.56912" lon="6.31228">
        <ele>1492.866699</ele>
        <time>2015-10-10T12:10:41Z</time>
      </trkpt>
      <trkpt lat="44.56924" lon="6.31223">
        <ele>1494.866699</ele>
        <time>2015-10-10T12:10:45Z</time>
      </trkpt>
      <trkpt lat="44.56933" lon="6.31207">
        <ele>1499.397949</ele>
        <time>2015-10-10T12:10:49Z</time>
      </trkpt>
      <trkpt lat="44.56941" lon="6.31193">
        <ele>1501.897949</ele>
        <time>2015-10-10T12:10:53Z</time>
      </trkpt>
      <trkpt lat="44.56949" lon="6.31181">
        <ele>1503.522949</ele>
        <time>2015-10-10T12:10:57Z</time>
      </trkpt>
      <trkpt lat="44.5696" lon="6.3118">
        <ele>1504.366699</ele>
        <time>2015-10-10T12:11:01Z</time>
      </trkpt>
      <trkpt lat="44.56971" lon="6.31179">
        <ele>1506.241699</ele>
        <time>2015-10-10T12:11:05Z</time>
      </trkpt>
      <trkpt lat="44.5698" lon="6.31166">
        <ele>1508.866699</ele>
        <time>2015-10-10T12:11:09Z</time>
      </trkpt>
      <trkpt lat="44.56987" lon="6.31151">
        <ele>1509.210449</ele>
        <time>2015-10-10T12:11:13Z</time>
      </trkpt>
      <trkpt lat="44.56988" lon="6.31132">
        <ele>1510.179199</ele>
        <time>2015-10-10T12:11:17Z</time>
      </trkpt>
      <trkpt lat="44.56983" lon="6.31114">
        <ele>1510.960449</ele>
        <time>2015-10-10T12:11:21Z</time>
      </trkpt>
      <trkpt lat="44.56979" lon="6.31096">
        <ele>1511.397949</ele>
        <time>2015-10-10T12:11:25Z</time>
      </trkpt>
      <trkpt lat="44.56976" lon="6.31079">
        <ele>1511.772949</ele>
        <time>2015-10-10T12:11:29Z</time>
      </trkpt>
      <trkpt lat="44.56976" lon="6.31063">
        <ele>1511.491699</ele>
        <time>2015-10-10T12:11:33Z</time>
      </trkpt>
      <trkpt lat="44.56976" lon="6.31044">
        <ele>1511.491699</ele>
        <time>2015-10-10T12:11:37Z</time>
      </trkpt>
      <trkpt lat="44.56981" lon="6.31027">
        <ele>1512.491699</ele>
        <time>2015-10-10T12:11:41Z</time>
      </trkpt>
      <trkpt lat="44.5699" lon="6.31013">
        <ele>1515.366699</ele>
        <time>2015-10-10T12:11:45Z</time>
      </trkpt>
      <trkpt lat="44.56999" lon="6.30998">
        <ele>1517.397949</ele>
        <time>2015-10-10T12:11:49Z</time>
      </trkpt>
      <trkpt lat="44.57006" lon="6.3098">
        <ele>1518.304199</ele>
        <time>2015-10-10T12:11:53Z</time>
      </trkpt>
      <trkpt lat="44.57011" lon="6.30961">
        <ele>1519.429199</ele>
        <time>2015-10-10T12:11:57Z</time>
      </trkpt>
      <trkpt lat="44.57016" lon="6.30944">
        <ele>1520.554199</ele>
        <time>2015-10-10T12:12:01Z</time>
      </trkpt>
      <trkpt lat="44.57024" lon="6.30927">
        <ele>1520.835449</ele>
        <time>2015-10-10T12:12:05Z</time>
      </trkpt>
      <trkpt lat="44.57031" lon="6.30908">
        <ele>1523.397949</ele>
        <time>2015-10-10T12:12:09Z</time>
      </trkpt>
      <trkpt lat="44.57037" lon="6.30888">
        <ele>1525.304199</ele>
        <time>2015-10-10T12:12:13Z</time>
      </trkpt>
      <trkpt lat="44.57043" lon="6.3087">
        <ele>1525.397949</ele>
        <time>2015-10-10T12:12:17Z</time>
      </trkpt>
      <trkpt lat="44.57047" lon="6.30852">
        <ele>1526.960449</ele>
        <time>2015-10-10T12:12:21Z</time>
      </trkpt>
      <trkpt lat="44.5705" lon="6.30835">
        <ele>1527.585449</ele>
        <time>2015-10-10T12:12:25Z</time>
      </trkpt>
      <trkpt lat="44.57051" lon="6.30816">
        <ele>1528.772949</ele>
        <time>2015-10-10T12:12:29Z</time>
      </trkpt>
      <trkpt lat="44.57049" lon="6.30796">
        <ele>1531.054199</ele>
        <time>2015-10-10T12:12:33Z</time>
      </trkpt>
      <trkpt lat="44.57049" lon="6.3078">
        <ele>1530.772949</ele>
        <time>2015-10-10T12:12:37Z</time>
      </trkpt>
      <trkpt lat="44.57052" lon="6.30761">
        <ele>1532.022949</ele>
        <time>2015-10-10T12:12:41Z</time>
      </trkpt>
      <trkpt lat="44.57061" lon="6.30747">
        <ele>1532.929199</ele>
        <time>2015-10-10T12:12:45Z</time>
      </trkpt>
      <trkpt lat="44.57072" lon="6.30734">
        <ele>1535.335449</ele>
        <time>2015-10-10T12:12:49Z</time>
      </trkpt>
      <trkpt lat="44.57081" lon="6.3072">
        <ele>1537.679199</ele>
        <time>2015-10-10T12:12:53Z</time>
      </trkpt>
      <trkpt lat="44.57084" lon="6.307">
        <ele>1540.960449</ele>
        <time>2015-10-10T12:12:57Z</time>
      </trkpt>
      <trkpt lat="44.57082" lon="6.30684">
        <ele>1540.147949</ele>
        <time>2015-10-10T12:13:01Z</time>
      </trkpt>
      <trkpt lat="44.57078" lon="6.30666">
        <ele>1540.741699</ele>
        <time>2015-10-10T12:13:05Z</time>
      </trkpt>
      <trkpt lat="44.57075" lon="6.30647">
        <ele>1540.710449</ele>
        <time>2015-10-10T12:13:09Z</time>
      </trkpt>
      <trkpt lat="44.57071" lon="6.30631">
        <ele>1539.429199</ele>
        <time>2015-10-10T12:13:13Z</time>
      </trkpt>
      <trkpt lat="44.57064" lon="6.30615">
        <ele>1540.272949</ele>
        <time>2015-10-10T12:13:17Z</time>
      </trkpt>
      <trkpt lat="44.57061" lon="6.306">
        <ele>1540.835449</ele>
        <time>2015-10-10T12:13:21Z</time>
      </trkpt>
      <trkpt lat="44.57061" lon="6.3059">
        <ele>1540.741699</ele>
        <time>2015-10-10T12:13:25Z</time>
      </trkpt>
      <trkpt lat="44.57061" lon="6.3059">
        <ele>1540.804199</ele>
        <time>2015-10-10T12:13:29Z</time>
      </trkpt>
      <trkpt lat="44.57061" lon="6.3059">
        <ele>1540.866699</ele>
        <time>2015-10-10T12:13:33Z</time>
      </trkpt>
      <trkpt lat="44.57061" lon="6.3059">
        <ele>1540.897949</ele>
        <time>2015-10-10T12:13:37Z</time>
      </trkpt>
      <trkpt lat="44.57061" lon="6.3059">
        <ele>1540.897949</ele>
        <time>2015-10-10T12:13:41Z</time>
      </trkpt>
      <trkpt lat="44.57061" lon="6.30591">
        <ele>1540.960449</ele>
        <time>2015-10-10T12:13:45Z</time>
      </trkpt>
      <trkpt lat="44.57061" lon="6.30591">
        <ele>1540.835449</ele>
        <time>2015-10-10T12:13:49Z</time>
      </trkpt>
      <trkpt lat="44.57061" lon="6.3059">
        <ele>1541.366699</ele>
        <time>2015-10-10T12:13:53Z</time>
      </trkpt>
      <trkpt lat="44.57061" lon="6.3059">
        <ele>1541.710449</ele>
        <time>2015-10-10T12:13:57Z</time>
      </trkpt>
      <trkpt lat="44.57061" lon="6.3059">
        <ele>1541.866699</ele>
        <time>2015-10-10T12:14:01Z</time>
      </trkpt>
      <trkpt lat="44.57061" lon="6.3059">
        <ele>1542.022949</ele>
        <time>2015-10-10T12:14:05Z</time>
      </trkpt>
      <trkpt lat="44.57061" lon="6.3059">
        <ele>1542.116699</ele>
        <time>2015-10-10T12:14:09Z</time>
      </trkpt>
      <trkpt lat="44.57061" lon="6.3059">
        <ele>1542.179199</ele>
        <time>2015-10-10T12:14:13Z</time>
      </trkpt>
      <trkpt lat="44.57061" lon="6.3059">
        <ele>1542.241699</ele>
        <time>2015-10-10T12:14:17Z</time>
      </trkpt>
      <trkpt lat="44.57061" lon="6.3059">
        <ele>1542.272949</ele>
        <time>2015-10-10T12:14:21Z</time>
      </trkpt>
      <trkpt lat="44.57061" lon="6.3059">
        <ele>1542.335449</ele>
        <time>2015-10-10T12:14:25Z</time>
      </trkpt>
      <trkpt lat="44.57061" lon="6.3059">
        <ele>1542.397949</ele>
        <time>2015-10-10T12:14:29Z</time>
      </trkpt>
      <trkpt lat="44.57061" lon="6.3059">
        <ele>1542.429199</ele>
        <time>2015-10-10T12:14:33Z</time>
      </trkpt>
      <trkpt lat="44.57061" lon="6.3059">
        <ele>1542.460449</ele>
        <time>2015-10-10T12:14:37Z</time>
      </trkpt>
      <trkpt lat="44.57061" lon="6.3059">
        <ele>1542.522949</ele>
        <time>2015-10-10T12:14:41Z</time>
      </trkpt>
      <trkpt lat="44.57061" lon="6.3059">
        <ele>1542.616699</ele>
        <time>2015-10-10T12:14:45Z</time>
      </trkpt>
      <trkpt lat="44.57061" lon="6.3059">
        <ele>1542.679199</ele>
        <time>2015-10-10T12:14:49Z</time>
      </trkpt>
      <trkpt lat="44.57061" lon="6.3059">
        <ele>1542.710449</ele>
        <time>2015-10-10T12:14:53Z</time>
      </trkpt>
      <trkpt lat="44.57061" lon="6.30591">
        <ele>1542.772949</ele>
        <time>2015-10-10T12:14:57Z</time>
      </trkpt>
      <trkpt lat="44.57061" lon="6.30591">
        <ele>1542.772949</ele>
        <time>2015-10-10T12:15:01Z</time>
      </trkpt>
      <trkpt lat="44.57061" lon="6.30591">
        <ele>1542.835449</ele>
        <time>2015-10-10T12:15:05Z</time>
      </trkpt>
      <trkpt lat="44.57061" lon="6.30591">
        <ele>1542.835449</ele>
        <time>2015-10-10T12:15:09Z</time>
      </trkpt>
      <trkpt lat="44.57061" lon="6.30591">
        <ele>1542.804199</ele>
        <time>2015-10-10T12:15:13Z</time>
      </trkpt>
      <trkpt lat="44.57061" lon="6.30591">
        <ele>1542.804199</ele>
        <time>2015-10-10T12:15:17Z</time>
      </trkpt>
      <trkpt lat="44.57061" lon="6.30591">
        <ele>1542.804199</ele>
        <time>2015-10-10T12:15:21Z</time>
      </trkpt>
      <trkpt lat="44.57061" lon="6.30591">
        <ele>1542.866699</ele>
        <time>2015-10-10T12:15:25Z</time>
      </trkpt>
      <trkpt lat="44.57061" lon="6.30591">
        <ele>1542.835449</ele>
        <time>2015-10-10T12:15:29Z</time>
      </trkpt>
      <trkpt lat="44.57061" lon="6.30591">
        <ele>1542.522949</ele>
        <time>2015-10-10T12:15:33Z</time>
      </trkpt>
      <trkpt lat="44.57061" lon="6.30591">
        <ele>1542.429199</ele>
        <time>2015-10-10T12:15:37Z</time>
      </trkpt>
      <trkpt lat="44.5706" lon="6.30591">
        <ele>1542.429199</ele>
        <time>2015-10-10T12:15:41Z</time>
      </trkpt>
      <trkpt lat="44.5706" lon="6.30591">
        <ele>1542.460449</ele>
        <time>2015-10-10T12:15:45Z</time>
      </trkpt>
      <trkpt lat="44.5706" lon="6.3059">
        <ele>1542.460449</ele>
        <time>2015-10-10T12:15:49Z</time>
      </trkpt>
      <trkpt lat="44.57068" lon="6.30582">
        <ele>1542.991699</ele>
        <time>2015-10-10T12:15:53Z</time>
      </trkpt>
      <trkpt lat="44.57081" lon="6.30576">
        <ele>1543.897949</ele>
        <time>2015-10-10T12:15:57Z</time>
      </trkpt>
      <trkpt lat="44.57095" lon="6.30579">
        <ele>1545.679199</ele>
        <time>2015-10-10T12:16:01Z</time>
      </trkpt>
      <trkpt lat="44.57108" lon="6.30571">
        <ele>1548.429199</ele>
        <time>2015-10-10T12:16:05Z</time>
      </trkpt>
      <trkpt lat="44.57117" lon="6.30554">
        <ele>1550.960449</ele>
        <time>2015-10-10T12:16:09Z</time>
      </trkpt>
      <trkpt lat="44.57126" lon="6.30539">
        <ele>1552.460449</ele>
        <time>2015-10-10T12:16:13Z</time>
      </trkpt>
      <trkpt lat="44.57135" lon="6.30524">
        <ele>1554.835449</ele>
        <time>2015-10-10T12:16:17Z</time>
      </trkpt>
      <trkpt lat="44.57147" lon="6.30512">
        <ele>1557.272949</ele>
        <time>2015-10-10T12:16:21Z</time>
      </trkpt>
      <trkpt lat="44.57158" lon="6.30501">
        <ele>1559.116699</ele>
        <time>2015-10-10T12:16:25Z</time>
      </trkpt>
      <trkpt lat="44.57169" lon="6.30491">
        <ele>1560.929199</ele>
        <time>2015-10-10T12:16:29Z</time>
      </trkpt>
      <trkpt lat="44.57179" lon="6.30479">
        <ele>1562.897949</ele>
        <time>2015-10-10T12:16:33Z</time>
      </trkpt>
      <trkpt lat="44.57188" lon="6.30466">
        <ele>1565.085449</ele>
        <time>2015-10-10T12:16:37Z</time>
      </trkpt>
      <trkpt lat="44.57195" lon="6.30453">
        <ele>1566.647949</ele>
        <time>2015-10-10T12:16:41Z</time>
      </trkpt>
      <trkpt lat="44.57204" lon="6.30441">
        <ele>1568.147949</ele>
        <time>2015-10-10T12:16:45Z</time>
      </trkpt>
      <trkpt lat="44.57216" lon="6.30439">
        <ele>1569.272949</ele>
        <time>2015-10-10T12:16:49Z</time>
      </trkpt>
      <trkpt lat="44.57227" lon="6.30435">
        <ele>1570.147949</ele>
        <time>2015-10-10T12:16:53Z</time>
      </trkpt>
      <trkpt lat="44.57238" lon="6.30429">
        <ele>1572.460449</ele>
        <time>2015-10-10T12:16:57Z</time>
      </trkpt>
      <trkpt lat="44.57249" lon="6.30425">
        <ele>1574.491699</ele>
        <time>2015-10-10T12:17:01Z</time>
      </trkpt>
      <trkpt lat="44.57261" lon="6.30423">
        <ele>1576.210449</ele>
        <time>2015-10-10T12:17:05Z</time>
      </trkpt>
      <trkpt lat="44.57271" lon="6.30421">
        <ele>1577.960449</ele>
        <time>2015-10-10T12:17:09Z</time>
      </trkpt>
      <trkpt lat="44.57283" lon="6.30421">
        <ele>1578.679199</ele>
        <time>2015-10-10T12:17:13Z</time>
      </trkpt>
      <trkpt lat="44.57291" lon="6.30407">
        <ele>1581.022949</ele>
        <time>2015-10-10T12:17:17Z</time>
      </trkpt>
      <trkpt lat="44.57298" lon="6.30394">
        <ele>1582.710449</ele>
        <time>2015-10-10T12:17:21Z</time>
      </trkpt>
      <trkpt lat="44.57308" lon="6.30386">
        <ele>1584.554199</ele>
        <time>2015-10-10T12:17:25Z</time>
      </trkpt>
      <trkpt lat="44.5732" lon="6.30383">
        <ele>1586.647949</ele>
        <time>2015-10-10T12:17:29Z</time>
      </trkpt>
      <trkpt lat="44.57333" lon="6.30379">
        <ele>1588.460449</ele>
        <time>2015-10-10T12:17:33Z</time>
      </trkpt>
      <trkpt lat="44.57344" lon="6.30374">
        <ele>1590.991699</ele>
        <time>2015-10-10T12:17:37Z</time>
      </trkpt>
      <trkpt lat="44.57354" lon="6.30365">
        <ele>1593.304199</ele>
        <time>2015-10-10T12:17:41Z</time>
      </trkpt>
      <trkpt lat="44.57364" lon="6.30349">
        <ele>1594.897949</ele>
        <time>2015-10-10T12:17:45Z</time>
      </trkpt>
      <trkpt lat="44.57375" lon="6.3034">
        <ele>1595.147949</ele>
        <time>2015-10-10T12:17:49Z</time>
      </trkpt>
      <trkpt lat="44.57385" lon="6.30326">
        <ele>1596.366699</ele>
        <time>2015-10-10T12:17:53Z</time>
      </trkpt>
      <trkpt lat="44.57394" lon="6.3031">
        <ele>1598.241699</ele>
        <time>2015-10-10T12:17:57Z</time>
      </trkpt>
      <trkpt lat="44.57404" lon="6.30296">
        <ele>1599.835449</ele>
        <time>2015-10-10T12:18:01Z</time>
      </trkpt>
      <trkpt lat="44.57413" lon="6.30284">
        <ele>1600.616699</ele>
        <time>2015-10-10T12:18:05Z</time>
      </trkpt>
      <trkpt lat="44.57422" lon="6.30272">
        <ele>1601.460449</ele>
        <time>2015-10-10T12:18:09Z</time>
      </trkpt>
      <trkpt lat="44.57429" lon="6.30259">
        <ele>1602.429199</ele>
        <time>2015-10-10T12:18:13Z</time>
      </trkpt>
      <trkpt lat="44.57437" lon="6.30246">
        <ele>1603.366699</ele>
        <time>2015-10-10T12:18:17Z</time>
      </trkpt>
      <trkpt lat="44.57445" lon="6.30232">
        <ele>1603.960449</ele>
        <time>2015-10-10T12:18:21Z</time>
      </trkpt>
      <trkpt lat="44.57452" lon="6.30218">
        <ele>1605.022949</ele>
        <time>2015-10-10T12:18:25Z</time>
      </trkpt>
      <trkpt lat="44.5746" lon="6.30204">
        <ele>1606.210449</ele>
        <time>2015-10-10T12:18:29Z</time>
      </trkpt>
      <trkpt lat="44.57473" lon="6.30193">
        <ele>1604.429199</ele>
        <time>2015-10-10T12:18:33Z</time>
      </trkpt>
      <trkpt lat="44.57488" lon="6.30188">
        <ele>1604.522949</ele>
        <time>2015-10-10T12:18:37Z</time>
      </trkpt>
      <trkpt lat="44.57499" lon="6.30186">
        <ele>1602.929199</ele>
        <time>2015-10-10T12:18:41Z</time>
      </trkpt>
      <trkpt lat="44.57512" lon="6.30178">
        <ele>1602.616699</ele>
        <time>2015-10-10T12:18:45Z</time>
      </trkpt>
      <trkpt lat="44.57531" lon="6.30174">
        <ele>1602.022949</ele>
        <time>2015-10-10T12:18:49Z</time>
      </trkpt>
      <trkpt lat="44.57551" lon="6.30174">
        <ele>1601.460449</ele>
        <time>2015-10-10T12:18:53Z</time>
      </trkpt>
      <trkpt lat="44.57577" lon="6.30169">
        <ele>1600.491699</ele>
        <time>2015-10-10T12:18:57Z</time>
      </trkpt>
      <trkpt lat="44.57595" lon="6.30162">
        <ele>1601.522949</ele>
        <time>2015-10-10T12:19:01Z</time>
      </trkpt>
      <trkpt lat="44.57608" lon="6.30152">
        <ele>1602.616699</ele>
        <time>2015-10-10T12:19:05Z</time>
      </trkpt>
      <trkpt lat="44.57626" lon="6.3014">
        <ele>1602.491699</ele>
        <time>2015-10-10T12:19:09Z</time>
      </trkpt>
      <trkpt lat="44.57642" lon="6.30122">
        <ele>1602.491699</ele>
        <time>2015-10-10T12:19:13Z</time>
      </trkpt>
      <trkpt lat="44.57659" lon="6.30111">
        <ele>1601.491699</ele>
        <time>2015-10-10T12:19:17Z</time>
      </trkpt>
      <trkpt lat="44.57679" lon="6.30105">
        <ele>1599.866699</ele>
        <time>2015-10-10T12:19:21Z</time>
      </trkpt>
      <trkpt lat="44.57699" lon="6.30108">
        <ele>1598.335449</ele>
        <time>2015-10-10T12:19:25Z</time>
      </trkpt>
      <trkpt lat="44.57722" lon="6.30093">
        <ele>1597.241699</ele>
        <time>2015-10-10T12:19:29Z</time>
      </trkpt>
      <trkpt lat="44.5774" lon="6.30063">
        <ele>1597.772949</ele>
        <time>2015-10-10T12:19:33Z</time>
      </trkpt>
      <trkpt lat="44.57753" lon="6.30034">
        <ele>1599.522949</ele>
        <time>2015-10-10T12:19:37Z</time>
      </trkpt>
      <trkpt lat="44.57766" lon="6.30016">
        <ele>1601.460449</ele>
        <time>2015-10-10T12:19:41Z</time>
      </trkpt>
      <trkpt lat="44.57775" lon="6.29997">
        <ele>1603.147949</ele>
        <time>2015-10-10T12:19:45Z</time>
      </trkpt>
      <trkpt lat="44.57776" lon="6.29975">
        <ele>1603.335449</ele>
        <time>2015-10-10T12:19:49Z</time>
      </trkpt>
      <trkpt lat="44.57767" lon="6.29956">
        <ele>1603.616699</ele>
        <time>2015-10-10T12:19:53Z</time>
      </trkpt>
      <trkpt lat="44.57762" lon="6.29934">
        <ele>1603.366699</ele>
        <time>2015-10-10T12:19:57Z</time>
      </trkpt>
      <trkpt lat="44.57768" lon="6.29914">
        <ele>1604.054199</ele>
        <time>2015-10-10T12:20:01Z</time>
      </trkpt>
      <trkpt lat="44.57783" lon="6.29903">
        <ele>1605.585449</ele>
        <time>2015-10-10T12:20:05Z</time>
      </trkpt>
      <trkpt lat="44.57797" lon="6.29893">
        <ele>1608.022949</ele>
        <time>2015-10-10T12:20:09Z</time>
      </trkpt>
      <trkpt lat="44.57804" lon="6.29874">
        <ele>1609.866699</ele>
        <time>2015-10-10T12:20:13Z</time>
      </trkpt>
      <trkpt lat="44.57813" lon="6.29853">
        <ele>1611.647949</ele>
        <time>2015-10-10T12:20:17Z</time>
      </trkpt>
      <trkpt lat="44.57823" lon="6.29835">
        <ele>1614.179199</ele>
        <time>2015-10-10T12:20:21Z</time>
      </trkpt>
      <trkpt lat="44.57833" lon="6.29821">
        <ele>1615.929199</ele>
        <time>2015-10-10T12:20:25Z</time>
      </trkpt>
      <trkpt lat="44.57847" lon="6.29818">
        <ele>1617.085449</ele>
        <time>2015-10-10T12:20:29Z</time>
      </trkpt>
      <trkpt lat="44.57858" lon="6.29802">
        <ele>1620.491699</ele>
        <time>2015-10-10T12:20:33Z</time>
      </trkpt>
      <trkpt lat="44.57865" lon="6.29785">
        <ele>1622.991699</ele>
        <time>2015-10-10T12:20:37Z</time>
      </trkpt>
      <trkpt lat="44.57875" lon="6.29771">
        <ele>1624.210449</ele>
        <time>2015-10-10T12:20:41Z</time>
      </trkpt>
      <trkpt lat="44.57884" lon="6.29757">
        <ele>1626.647949</ele>
        <time>2015-10-10T12:20:45Z</time>
      </trkpt>
      <trkpt lat="44.57893" lon="6.29743">
        <ele>1627.272949</ele>
        <time>2015-10-10T12:20:49Z</time>
      </trkpt>
      <trkpt lat="44.57901" lon="6.29728">
        <ele>1627.929199</ele>
        <time>2015-10-10T12:20:53Z</time>
      </trkpt>
      <trkpt lat="44.57912" lon="6.29719">
        <ele>1627.241699</ele>
        <time>2015-10-10T12:20:57Z</time>
      </trkpt>
      <trkpt lat="44.57925" lon="6.29709">
        <ele>1628.179199</ele>
        <time>2015-10-10T12:21:01Z</time>
      </trkpt>
      <trkpt lat="44.57937" lon="6.29697">
        <ele>1629.772949</ele>
        <time>2015-10-10T12:21:05Z</time>
      </trkpt>
      <trkpt lat="44.57949" lon="6.29685">
        <ele>1632.179199</ele>
        <time>2015-10-10T12:21:09Z</time>
      </trkpt>
      <trkpt lat="44.5796" lon="6.29676">
        <ele>1633.991699</ele>
        <time>2015-10-10T12:21:13Z</time>
      </trkpt>
      <trkpt lat="44.57974" lon="6.29667">
        <ele>1634.710449</ele>
        <time>2015-10-10T12:21:17Z</time>
      </trkpt>
      <trkpt lat="44.57987" lon="6.29654">
        <ele>1636.022949</ele>
        <time>2015-10-10T12:21:21Z</time>
      </trkpt>
      <trkpt lat="44.58001" lon="6.29646">
        <ele>1637.179199</ele>
        <time>2015-10-10T12:21:25Z</time>
      </trkpt>
      <trkpt lat="44.58015" lon="6.29644">
        <ele>1638.366699</ele>
        <time>2015-10-10T12:21:29Z</time>
      </trkpt>
      <trkpt lat="44.58028" lon="6.2964">
        <ele>1639.772949</ele>
        <time>2015-10-10T12:21:33Z</time>
      </trkpt>
      <trkpt lat="44.58034" lon="6.29621">
        <ele>1641.397949</ele>
        <time>2015-10-10T12:21:37Z</time>
      </trkpt>
      <trkpt lat="44.58041" lon="6.29602">
        <ele>1643.116699</ele>
        <time>2015-10-10T12:21:41Z</time>
      </trkpt>
      <trkpt lat="44.58049" lon="6.29585">
        <ele>1644.804199</ele>
        <time>2015-10-10T12:21:45Z</time>
      </trkpt>
      <trkpt lat="44.58048" lon="6.29565">
        <ele>1644.304199</ele>
        <time>2015-10-10T12:21:49Z</time>
      </trkpt>
      <trkpt lat="44.5804" lon="6.29547">
        <ele>1645.429199</ele>
        <time>2015-10-10T12:21:53Z</time>
      </trkpt>
      <trkpt lat="44.58041" lon="6.29525">
        <ele>1645.897949</ele>
        <time>2015-10-10T12:21:57Z</time>
      </trkpt>
      <trkpt lat="44.58051" lon="6.29508">
        <ele>1647.554199</ele>
        <time>2015-10-10T12:22:01Z</time>
      </trkpt>
      <trkpt lat="44.58063" lon="6.29496">
        <ele>1648.866699</ele>
        <time>2015-10-10T12:22:05Z</time>
      </trkpt>
      <trkpt lat="44.58074" lon="6.29488">
        <ele>1650.741699</ele>
        <time>2015-10-10T12:22:09Z</time>
      </trkpt>
      <trkpt lat="44.58087" lon="6.29482">
        <ele>1652.179199</ele>
        <time>2015-10-10T12:22:13Z</time>
      </trkpt>
      <trkpt lat="44.581" lon="6.29475">
        <ele>1653.054199</ele>
        <time>2015-10-10T12:22:17Z</time>
      </trkpt>
      <trkpt lat="44.58113" lon="6.29469">
        <ele>1654.554199</ele>
        <time>2015-10-10T12:22:21Z</time>
      </trkpt>
      <trkpt lat="44.58126" lon="6.29462">
        <ele>1655.554199</ele>
        <time>2015-10-10T12:22:25Z</time>
      </trkpt>
      <trkpt lat="44.58139" lon="6.29454">
        <ele>1657.647949</ele>
        <time>2015-10-10T12:22:29Z</time>
      </trkpt>
      <trkpt lat="44.5815" lon="6.29442">
        <ele>1660.147949</ele>
        <time>2015-10-10T12:22:33Z</time>
      </trkpt>
      <trkpt lat="44.58158" lon="6.29424">
        <ele>1663.116699</ele>
        <time>2015-10-10T12:22:37Z</time>
      </trkpt>
      <trkpt lat="44.58165" lon="6.29408">
        <ele>1665.585449</ele>
        <time>2015-10-10T12:22:41Z</time>
      </trkpt>
      <trkpt lat="44.58173" lon="6.29395">
        <ele>1666.585449</ele>
        <time>2015-10-10T12:22:45Z</time>
      </trkpt>
      <trkpt lat="44.58184" lon="6.29389">
        <ele>1666.085449</ele>
        <time>2015-10-10T12:22:49Z</time>
      </trkpt>
      <trkpt lat="44.58196" lon="6.29377">
        <ele>1666.366699</ele>
        <time>2015-10-10T12:22:53Z</time>
      </trkpt>
      <trkpt lat="44.58202" lon="6.29358">
        <ele>1667.897949</ele>
        <time>2015-10-10T12:22:57Z</time>
      </trkpt>
      <trkpt lat="44.58211" lon="6.29347">
        <ele>1664.460449</ele>
        <time>2015-10-10T12:23:01Z</time>
      </trkpt>
      <trkpt lat="44.58222" lon="6.2934">
        <ele>1666.241699</ele>
        <time>2015-10-10T12:23:05Z</time>
      </trkpt>
      <trkpt lat="44.58233" lon="6.29334">
        <ele>1667.679199</ele>
        <time>2015-10-10T12:23:09Z</time>
      </trkpt>
      <trkpt lat="44.58243" lon="6.29323">
        <ele>1669.960449</ele>
        <time>2015-10-10T12:23:13Z</time>
      </trkpt>
      <trkpt lat="44.58243" lon="6.29305">
        <ele>1671.554199</ele>
        <time>2015-10-10T12:23:17Z</time>
      </trkpt>
      <trkpt lat="44.5824" lon="6.29286">
        <ele>1671.429199</ele>
        <time>2015-10-10T12:23:21Z</time>
      </trkpt>
      <trkpt lat="44.58243" lon="6.29267">
        <ele>1672.397949</ele>
        <time>2015-10-10T12:23:25Z</time>
      </trkpt>
      <trkpt lat="44.5825" lon="6.29253">
        <ele>1672.460449</ele>
        <time>2015-10-10T12:23:29Z</time>
      </trkpt>
      <trkpt lat="44.58258" lon="6.2924">
        <ele>1673.147949</ele>
        <time>2015-10-10T12:23:33Z</time>
      </trkpt>
      <trkpt lat="44.58267" lon="6.29228">
        <ele>1674.397949</ele>
        <time>2015-10-10T12:23:37Z</time>
      </trkpt>
      <trkpt lat="44.58276" lon="6.29215">
        <ele>1675.179199</ele>
        <time>2015-10-10T12:23:41Z</time>
      </trkpt>
      <trkpt lat="44.58285" lon="6.29203">
        <ele>1676.772949</ele>
        <time>2015-10-10T12:23:45Z</time>
      </trkpt>
      <trkpt lat="44.58296" lon="6.29193">
        <ele>1678.772949</ele>
        <time>2015-10-10T12:23:49Z</time>
      </trkpt>
      <trkpt lat="44.58308" lon="6.29189">
        <ele>1681.210449</ele>
        <time>2015-10-10T12:23:53Z</time>
      </trkpt>
      <trkpt lat="44.58318" lon="6.29181">
        <ele>1683.741699</ele>
        <time>2015-10-10T12:23:57Z</time>
      </trkpt>
      <trkpt lat="44.58327" lon="6.29166">
        <ele>1686.085449</ele>
        <time>2015-10-10T12:24:01Z</time>
      </trkpt>
      <trkpt lat="44.58335" lon="6.2915">
        <ele>1688.116699</ele>
        <time>2015-10-10T12:24:05Z</time>
      </trkpt>
      <trkpt lat="44.58343" lon="6.29136">
        <ele>1689.491699</ele>
        <time>2015-10-10T12:24:09Z</time>
      </trkpt>
      <trkpt lat="44.58353" lon="6.29125">
        <ele>1691.397949</ele>
        <time>2015-10-10T12:24:13Z</time>
      </trkpt>
      <trkpt lat="44.58359" lon="6.29111">
        <ele>1693.835449</ele>
        <time>2015-10-10T12:24:17Z</time>
      </trkpt>
      <trkpt lat="44.58369" lon="6.29099">
        <ele>1694.554199</ele>
        <time>2015-10-10T12:24:21Z</time>
      </trkpt>
      <trkpt lat="44.58379" lon="6.29096">
        <ele>1694.085449</ele>
        <time>2015-10-10T12:24:25Z</time>
      </trkpt>
      <trkpt lat="44.58389" lon="6.2909">
        <ele>1695.522949</ele>
        <time>2015-10-10T12:24:29Z</time>
      </trkpt>
      <trkpt lat="44.58397" lon="6.29084">
        <ele>1695.522949</ele>
        <time>2015-10-10T12:24:33Z</time>
      </trkpt>
      <trkpt lat="44.58405" lon="6.29076">
        <ele>1696.866699</ele>
        <time>2015-10-10T12:24:37Z</time>
      </trkpt>
      <trkpt lat="44.58411" lon="6.29073">
        <ele>1696.522949</ele>
        <time>2015-10-10T12:24:41Z</time>
      </trkpt>
      <trkpt lat="44.58413" lon="6.29075">
        <ele>1695.585449</ele>
        <time>2015-10-10T12:24:45Z</time>
      </trkpt>
      <trkpt lat="44.58414" lon="6.29075">
        <ele>1695.366699</ele>
        <time>2015-10-10T12:24:49Z</time>
      </trkpt>
      <trkpt lat="44.58415" lon="6.29075">
        <ele>1695.116699</ele>
        <time>2015-10-10T12:24:53Z</time>
      </trkpt>
      <trkpt lat="44.58415" lon="6.29075">
        <ele>1695.085449</ele>
        <time>2015-10-10T12:24:57Z</time>
      </trkpt>
      <trkpt lat="44.58415" lon="6.29075">
        <ele>1695.147949</ele>
        <time>2015-10-10T12:25:01Z</time>
      </trkpt>
      <trkpt lat="44.58414" lon="6.29072">
        <ele>1695.116699</ele>
        <time>2015-10-10T12:25:05Z</time>
      </trkpt>
      <trkpt lat="44.58415" lon="6.2907">
        <ele>1695.179199</ele>
        <time>2015-10-10T12:25:09Z</time>
      </trkpt>
      <trkpt lat="44.58415" lon="6.29069">
        <ele>1694.366699</ele>
        <time>2015-10-10T12:25:13Z</time>
      </trkpt>
      <trkpt lat="44.58416" lon="6.29067">
        <ele>1693.366699</ele>
        <time>2015-10-10T12:25:17Z</time>
      </trkpt>
      <trkpt lat="44.58417" lon="6.29066">
        <ele>1693.179199</ele>
        <time>2015-10-10T12:25:21Z</time>
      </trkpt>
      <trkpt lat="44.58417" lon="6.29066">
        <ele>1693.147949</ele>
        <time>2015-10-10T12:25:25Z</time>
      </trkpt>
      <trkpt lat="44.58417" lon="6.29066">
        <ele>1693.210449</ele>
        <time>2015-10-10T12:25:29Z</time>
      </trkpt>
      <trkpt lat="44.58418" lon="6.29066">
        <ele>1693.116699</ele>
        <time>2015-10-10T12:25:33Z</time>
      </trkpt>
      <trkpt lat="44.58417" lon="6.29065">
        <ele>1693.116699</ele>
        <time>2015-10-10T12:25:37Z</time>
      </trkpt>
      <trkpt lat="44.58416" lon="6.29065">
        <ele>1693.116699</ele>
        <time>2015-10-10T12:25:41Z</time>
      </trkpt>
      <trkpt lat="44.58414" lon="6.29063">
        <ele>1692.835449</ele>
        <time>2015-10-10T12:25:45Z</time>
      </trkpt>
      <trkpt lat="44.58412" lon="6.29061">
        <ele>1692.366699</ele>
        <time>2015-10-10T12:25:49Z</time>
      </trkpt>
      <trkpt lat="44.58411" lon="6.29063">
        <ele>1692.960449</ele>
        <time>2015-10-10T12:25:53Z</time>
      </trkpt>
      <trkpt lat="44.58411" lon="6.29065">
        <ele>1693.804199</ele>
        <time>2015-10-10T12:25:57Z</time>
      </trkpt>
      <trkpt lat="44.58408" lon="6.29069">
        <ele>1694.147949</ele>
        <time>2015-10-10T12:26:01Z</time>
      </trkpt>
      <trkpt lat="44.58409" lon="6.29073">
        <ele>1694.616699</ele>
        <time>2015-10-10T12:26:05Z</time>
      </trkpt>
      <trkpt lat="44.58406" lon="6.29072">
        <ele>1695.085449</ele>
        <time>2015-10-10T12:26:09Z</time>
      </trkpt>
      <trkpt lat="44.58406" lon="6.29072">
        <ele>1694.929199</ele>
        <time>2015-10-10T12:26:13Z</time>
      </trkpt>
      <trkpt lat="44.58405" lon="6.29074">
        <ele>1695.147949</ele>
        <time>2015-10-10T12:26:17Z</time>
      </trkpt>
      <trkpt lat="44.58407" lon="6.29076">
        <ele>1693.397949</ele>
        <time>2015-10-10T12:26:21Z</time>
      </trkpt>
      <trkpt lat="44.58407" lon="6.29074">
        <ele>1693.085449</ele>
        <time>2015-10-10T12:26:25Z</time>
      </trkpt>
      <trkpt lat="44.58407" lon="6.29073">
        <ele>1693.054199</ele>
        <time>2015-10-10T12:26:29Z</time>
      </trkpt>
      <trkpt lat="44.58409" lon="6.29074">
        <ele>1692.804199</ele>
        <time>2015-10-10T12:26:33Z</time>
      </trkpt>
      <trkpt lat="44.58411" lon="6.29074">
        <ele>1693.679199</ele>
        <time>2015-10-10T12:26:37Z</time>
      </trkpt>
      <trkpt lat="44.58411" lon="6.29074">
        <ele>1693.679199</ele>
        <time>2015-10-10T12:26:41Z</time>
      </trkpt>
      <trkpt lat="44.58416" lon="6.29081">
        <ele>1694.460449</ele>
        <time>2015-10-10T12:26:45Z</time>
      </trkpt>
      <trkpt lat="44.58421" lon="6.29093">
        <ele>1695.085449</ele>
        <time>2015-10-10T12:26:49Z</time>
      </trkpt>
      <trkpt lat="44.58424" lon="6.29106">
        <ele>1695.554199</ele>
        <time>2015-10-10T12:26:53Z</time>
      </trkpt>
      <trkpt lat="44.58427" lon="6.2912">
        <ele>1697.804199</ele>
        <time>2015-10-10T12:26:57Z</time>
      </trkpt>
      <trkpt lat="44.58432" lon="6.29132">
        <ele>1699.116699</ele>
        <time>2015-10-10T12:27:01Z</time>
      </trkpt>
      <trkpt lat="44.58434" lon="6.29145">
        <ele>1698.022949</ele>
        <time>2015-10-10T12:27:05Z</time>
      </trkpt>
      <trkpt lat="44.58434" lon="6.29158">
        <ele>1698.491699</ele>
        <time>2015-10-10T12:27:09Z</time>
      </trkpt>
      <trkpt lat="44.58434" lon="6.29171">
        <ele>1698.679199</ele>
        <time>2015-10-10T12:27:13Z</time>
      </trkpt>
      <trkpt lat="44.58432" lon="6.29184">
        <ele>1698.616699</ele>
        <time>2015-10-10T12:27:17Z</time>
      </trkpt>
      <trkpt lat="44.58432" lon="6.29197">
        <ele>1699.710449</ele>
        <time>2015-10-10T12:27:21Z</time>
      </trkpt>
      <trkpt lat="44.58434" lon="6.2921">
        <ele>1700.585449</ele>
        <time>2015-10-10T12:27:25Z</time>
      </trkpt>
      <trkpt lat="44.58437" lon="6.29223">
        <ele>1700.929199</ele>
        <time>2015-10-10T12:27:29Z</time>
      </trkpt>
      <trkpt lat="44.58444" lon="6.29232">
        <ele>1701.179199</ele>
        <time>2015-10-10T12:27:33Z</time>
      </trkpt>
      <trkpt lat="44.58452" lon="6.29239">
        <ele>1702.272949</ele>
        <time>2015-10-10T12:27:37Z</time>
      </trkpt>
      <trkpt lat="44.58459" lon="6.29241">
        <ele>1702.804199</ele>
        <time>2015-10-10T12:27:41Z</time>
      </trkpt>
      <trkpt lat="44.58467" lon="6.29243">
        <ele>1705.116699</ele>
        <time>2015-10-10T12:27:45Z</time>
      </trkpt>
      <trkpt lat="44.58476" lon="6.29241">
        <ele>1705.835449</ele>
        <time>2015-10-10T12:27:49Z</time>
      </trkpt>
      <trkpt lat="44.58484" lon="6.29237">
        <ele>1707.022949</ele>
        <time>2015-10-10T12:27:53Z</time>
      </trkpt>
      <trkpt lat="44.58489" lon="6.29228">
        <ele>1708.804199</ele>
        <time>2015-10-10T12:27:57Z</time>
      </trkpt>
      <trkpt lat="44.58495" lon="6.29219">
        <ele>1710.022949</ele>
        <time>2015-10-10T12:28:01Z</time>
      </trkpt>
      <trkpt lat="44.58502" lon="6.29212">
        <ele>1711.147949</ele>
        <time>2015-10-10T12:28:05Z</time>
      </trkpt>
      <trkpt lat="44.58508" lon="6.29206">
        <ele>1712.397949</ele>
        <time>2015-10-10T12:28:09Z</time>
      </trkpt>
      <trkpt lat="44.58516" lon="6.29199">
        <ele>1713.272949</ele>
        <time>2015-10-10T12:28:13Z</time>
      </trkpt>
      <trkpt lat="44.58523" lon="6.29193">
        <ele>1714.241699</ele>
        <time>2015-10-10T12:28:17Z</time>
      </trkpt>
      <trkpt lat="44.5853" lon="6.29191">
        <ele>1714.804199</ele>
        <time>2015-10-10T12:28:21Z</time>
      </trkpt>
      <trkpt lat="44.58535" lon="6.29199">
        <ele>1715.022949</ele>
        <time>2015-10-10T12:28:25Z</time>
      </trkpt>
      <trkpt lat="44.58537" lon="6.2921">
        <ele>1714.960449</ele>
        <time>2015-10-10T12:28:29Z</time>
      </trkpt>
      <trkpt lat="44.5854" lon="6.2922">
        <ele>1715.116699</ele>
        <time>2015-10-10T12:28:33Z</time>
      </trkpt>
      <trkpt lat="44.58545" lon="6.29227">
        <ele>1714.585449</ele>
        <time>2015-10-10T12:28:37Z</time>
      </trkpt>
      <trkpt lat="44.58551" lon="6.29234">
        <ele>1714.210449</ele>
        <time>2015-10-10T12:28:41Z</time>
      </trkpt>
      <trkpt lat="44.58558" lon="6.29242">
        <ele>1714.897949</ele>
        <time>2015-10-10T12:28:45Z</time>
      </trkpt>
      <trkpt lat="44.58564" lon="6.29247">
        <ele>1715.835449</ele>
        <time>2015-10-10T12:28:49Z</time>
      </trkpt>
      <trkpt lat="44.58571" lon="6.29255">
        <ele>1717.304199</ele>
        <time>2015-10-10T12:28:53Z</time>
      </trkpt>
      <trkpt lat="44.58574" lon="6.29264">
        <ele>1717.835449</ele>
        <time>2015-10-10T12:28:57Z</time>
      </trkpt>
      <trkpt lat="44.58579" lon="6.29276">
        <ele>1719.272949</ele>
        <time>2015-10-10T12:29:01Z</time>
      </trkpt>
      <trkpt lat="44.58583" lon="6.29284">
        <ele>1720.491699</ele>
        <time>2015-10-10T12:29:05Z</time>
      </trkpt>
      <trkpt lat="44.58584" lon="6.29287">
        <ele>1719.710449</ele>
        <time>2015-10-10T12:29:09Z</time>
      </trkpt>
      <trkpt lat="44.58586" lon="6.29289">
        <ele>1721.491699</ele>
        <time>2015-10-10T12:29:13Z</time>
      </trkpt>
      <trkpt lat="44.58588" lon="6.29294">
        <ele>1721.241699</ele>
        <time>2015-10-10T12:29:17Z</time>
      </trkpt>
      <trkpt lat="44.58593" lon="6.29302">
        <ele>1722.460449</ele>
        <time>2015-10-10T12:29:21Z</time>
      </trkpt>
      <trkpt lat="44.58602" lon="6.29302">
        <ele>1725.460449</ele>
        <time>2015-10-10T12:29:25Z</time>
      </trkpt>
      <trkpt lat="44.5861" lon="6.29298">
        <ele>1727.397949</ele>
        <time>2015-10-10T12:29:29Z</time>
      </trkpt>
      <trkpt lat="44.58618" lon="6.29297">
        <ele>1729.491699</ele>
        <time>2015-10-10T12:29:33Z</time>
      </trkpt>
      <trkpt lat="44.58627" lon="6.29297">
        <ele>1730.741699</ele>
        <time>2015-10-10T12:29:37Z</time>
      </trkpt>
      <trkpt lat="44.58635" lon="6.293">
        <ele>1732.397949</ele>
        <time>2015-10-10T12:29:41Z</time>
      </trkpt>
      <trkpt lat="44.58643" lon="6.29301">
        <ele>1735.304199</ele>
        <time>2015-10-10T12:29:45Z</time>
      </trkpt>
      <trkpt lat="44.58651" lon="6.29302">
        <ele>1737.335449</ele>
        <time>2015-10-10T12:29:49Z</time>
      </trkpt>
      <trkpt lat="44.58659" lon="6.29301">
        <ele>1738.679199</ele>
        <time>2015-10-10T12:29:53Z</time>
      </trkpt>
      <trkpt lat="44.58666" lon="6.29299">
        <ele>1740.210449</ele>
        <time>2015-10-10T12:29:57Z</time>
      </trkpt>
      <trkpt lat="44.58674" lon="6.293">
        <ele>1741.397949</ele>
        <time>2015-10-10T12:30:01Z</time>
      </trkpt>
      <trkpt lat="44.58681" lon="6.29297">
        <ele>1743.210449</ele>
        <time>2015-10-10T12:30:05Z</time>
      </trkpt>
      <trkpt lat="44.58688" lon="6.29293">
        <ele>1743.804199</ele>
        <time>2015-10-10T12:30:09Z</time>
      </trkpt>
      <trkpt lat="44.58695" lon="6.29291">
        <ele>1744.897949</ele>
        <time>2015-10-10T12:30:13Z</time>
      </trkpt>
      <trkpt lat="44.58702" lon="6.29295">
        <ele>1746.741699</ele>
        <time>2015-10-10T12:30:17Z</time>
      </trkpt>
      <trkpt lat="44.58711" lon="6.29298">
        <ele>1748.679199</ele>
        <time>2015-10-10T12:30:21Z</time>
      </trkpt>
      <trkpt lat="44.58717" lon="6.29301">
        <ele>1750.210449</ele>
        <time>2015-10-10T12:30:25Z</time>
      </trkpt>
      <trkpt lat="44.58724" lon="6.29304">
        <ele>1751.147949</ele>
        <time>2015-10-10T12:30:29Z</time>
      </trkpt>
      <trkpt lat="44.58732" lon="6.29307">
        <ele>1754.491699</ele>
        <time>2015-10-10T12:30:33Z</time>
      </trkpt>
      <trkpt lat="44.58739" lon="6.29308">
        <ele>1756.147949</ele>
        <time>2015-10-10T12:30:37Z</time>
      </trkpt>
      <trkpt lat="44.58746" lon="6.2931">
        <ele>1757.710449</ele>
        <time>2015-10-10T12:30:41Z</time>
      </trkpt>
      <trkpt lat="44.58752" lon="6.29314">
        <ele>1757.741699</ele>
        <time>2015-10-10T12:30:45Z</time>
      </trkpt>
      <trkpt lat="44.58758" lon="6.2932">
        <ele>1760.460449</ele>
        <time>2015-10-10T12:30:49Z</time>
      </trkpt>
      <trkpt lat="44.5876" lon="6.29328">
        <ele>1761.522949</ele>
        <time>2015-10-10T12:30:53Z</time>
      </trkpt>
      <trkpt lat="44.58759" lon="6.2934">
        <ele>1762.491699</ele>
        <time>2015-10-10T12:30:57Z</time>
      </trkpt>
      <trkpt lat="44.58756" lon="6.29352">
        <ele>1763.710449</ele>
        <time>2015-10-10T12:31:01Z</time>
      </trkpt>
      <trkpt lat="44.58752" lon="6.29364">
        <ele>1765.554199</ele>
        <time>2015-10-10T12:31:05Z</time>
      </trkpt>
      <trkpt lat="44.58751" lon="6.29376">
        <ele>1766.585449</ele>
        <time>2015-10-10T12:31:09Z</time>
      </trkpt>
      <trkpt lat="44.58751" lon="6.29386">
        <ele>1767.304199</ele>
        <time>2015-10-10T12:31:13Z</time>
      </trkpt>
      <trkpt lat="44.58752" lon="6.29398">
        <ele>1766.366699</ele>
        <time>2015-10-10T12:31:17Z</time>
      </trkpt>
      <trkpt lat="44.58749" lon="6.29409">
        <ele>1765.179199</ele>
        <time>2015-10-10T12:31:21Z</time>
      </trkpt>
      <trkpt lat="44.58743" lon="6.29427">
        <ele>1762.179199</ele>
        <time>2015-10-10T12:31:25Z</time>
      </trkpt>
      <trkpt lat="44.58731" lon="6.29461">
        <ele>1759.647949</ele>
        <time>2015-10-10T12:31:29Z</time>
      </trkpt>
      <trkpt lat="44.58713" lon="6.29475">
        <ele>1758.460449</ele>
        <time>2015-10-10T12:31:33Z</time>
      </trkpt>
      <trkpt lat="44.58701" lon="6.29475">
        <ele>1759.397949</ele>
        <time>2015-10-10T12:31:37Z</time>
      </trkpt>
      <trkpt lat="44.5869" lon="6.29478">
        <ele>1760.179199</ele>
        <time>2015-10-10T12:31:41Z</time>
      </trkpt>
      <trkpt lat="44.58683" lon="6.29483">
        <ele>1761.460449</ele>
        <time>2015-10-10T12:31:45Z</time>
      </trkpt>
      <trkpt lat="44.58675" lon="6.29485">
        <ele>1762.147949</ele>
        <time>2015-10-10T12:31:49Z</time>
      </trkpt>
      <trkpt lat="44.58667" lon="6.29488">
        <ele>1763.147949</ele>
        <time>2015-10-10T12:31:53Z</time>
      </trkpt>
      <trkpt lat="44.58661" lon="6.29491">
        <ele>1764.147949</ele>
        <time>2015-10-10T12:31:57Z</time>
      </trkpt>
      <trkpt lat="44.58656" lon="6.29494">
        <ele>1765.460449</ele>
        <time>2015-10-10T12:32:01Z</time>
      </trkpt>
      <trkpt lat="44.5865" lon="6.29498">
        <ele>1766.835449</ele>
        <time>2015-10-10T12:32:05Z</time>
      </trkpt>
      <trkpt lat="44.58643" lon="6.29499">
        <ele>1767.897949</ele>
        <time>2015-10-10T12:32:09Z</time>
      </trkpt>
      <trkpt lat="44.58631" lon="6.29502">
        <ele>1768.491699</ele>
        <time>2015-10-10T12:32:13Z</time>
      </trkpt>
      <trkpt lat="44.58624" lon="6.29503">
        <ele>1768.804199</ele>
        <time>2015-10-10T12:32:17Z</time>
      </trkpt>
      <trkpt lat="44.58619" lon="6.29507">
        <ele>1769.022949</ele>
        <time>2015-10-10T12:32:21Z</time>
      </trkpt>
      <trkpt lat="44.58619" lon="6.29506">
        <ele>1768.772949</ele>
        <time>2015-10-10T12:32:25Z</time>
      </trkpt>
      <trkpt lat="44.58618" lon="6.29506">
        <ele>1768.804199</ele>
        <time>2015-10-10T12:32:29Z</time>
      </trkpt>
      <trkpt lat="44.58619" lon="6.29506">
        <ele>1768.616699</ele>
        <time>2015-10-10T12:32:33Z</time>
      </trkpt>
      <trkpt lat="44.58619" lon="6.29506">
        <ele>1768.522949</ele>
        <time>2015-10-10T12:32:37Z</time>
      </trkpt>
      <trkpt lat="44.58619" lon="6.29506">
        <ele>1768.429199</ele>
        <time>2015-10-10T12:32:41Z</time>
      </trkpt>
      <trkpt lat="44.58619" lon="6.29506">
        <ele>1768.335449</ele>
        <time>2015-10-10T12:32:45Z</time>
      </trkpt>
      <trkpt lat="44.58619" lon="6.29506">
        <ele>1768.366699</ele>
        <time>2015-10-10T12:32:49Z</time>
      </trkpt>
      <trkpt lat="44.58619" lon="6.29506">
        <ele>1768.460449</ele>
        <time>2015-10-10T12:32:53Z</time>
      </trkpt>
      <trkpt lat="44.58618" lon="6.29506">
        <ele>1768.647949</ele>
        <time>2015-10-10T12:32:57Z</time>
      </trkpt>
      <trkpt lat="44.58618" lon="6.29506">
        <ele>1768.804199</ele>
        <time>2015-10-10T12:33:01Z</time>
      </trkpt>
      <trkpt lat="44.58617" lon="6.29506">
        <ele>1768.897949</ele>
        <time>2015-10-10T12:33:05Z</time>
      </trkpt>
      <trkpt lat="44.58617" lon="6.29506">
        <ele>1768.929199</ele>
        <time>2015-10-10T12:33:09Z</time>
      </trkpt>
      <trkpt lat="44.58618" lon="6.29506">
        <ele>1768.991699</ele>
        <time>2015-10-10T12:33:13Z</time>
      </trkpt>
      <trkpt lat="44.58618" lon="6.29507">
        <ele>1768.991699</ele>
        <time>2015-10-10T12:33:17Z</time>
      </trkpt>
      <trkpt lat="44.58618" lon="6.29507">
        <ele>1768.866699</ele>
        <time>2015-10-10T12:33:21Z</time>
      </trkpt>
      <trkpt lat="44.58618" lon="6.29507">
        <ele>1768.804199</ele>
        <time>2015-10-10T12:33:25Z</time>
      </trkpt>
      <trkpt lat="44.58618" lon="6.29507">
        <ele>1768.866699</ele>
        <time>2015-10-10T12:33:29Z</time>
      </trkpt>
      <trkpt lat="44.58618" lon="6.29507">
        <ele>1768.835449</ele>
        <time>2015-10-10T12:33:33Z</time>
      </trkpt>
      <trkpt lat="44.58618" lon="6.29507">
        <ele>1768.835449</ele>
        <time>2015-10-10T12:33:37Z</time>
      </trkpt>
      <trkpt lat="44.58618" lon="6.29507">
        <ele>1768.772949</ele>
        <time>2015-10-10T12:33:41Z</time>
      </trkpt>
      <trkpt lat="44.58618" lon="6.29507">
        <ele>1768.585449</ele>
        <time>2015-10-10T12:33:45Z</time>
      </trkpt>
      <trkpt lat="44.58616" lon="6.29509">
        <ele>1768.866699</ele>
        <time>2015-10-10T12:33:49Z</time>
      </trkpt>
      <trkpt lat="44.58609" lon="6.29517">
        <ele>1770.741699</ele>
        <time>2015-10-10T12:33:53Z</time>
      </trkpt>
      <trkpt lat="44.58608" lon="6.29533">
        <ele>1773.522949</ele>
        <time>2015-10-10T12:33:57Z</time>
      </trkpt>
      <trkpt lat="44.58604" lon="6.29548">
        <ele>1774.272949</ele>
        <time>2015-10-10T12:34:01Z</time>
      </trkpt>
      <trkpt lat="44.58603" lon="6.29563">
        <ele>1776.554199</ele>
        <time>2015-10-10T12:34:05Z</time>
      </trkpt>
      <trkpt lat="44.58595" lon="6.29573">
        <ele>1778.647949</ele>
        <time>2015-10-10T12:34:09Z</time>
      </trkpt>
      <trkpt lat="44.58585" lon="6.29576">
        <ele>1782.897949</ele>
        <time>2015-10-10T12:34:13Z</time>
      </trkpt>
      <trkpt lat="44.58575" lon="6.29584">
        <ele>1783.272949</ele>
        <time>2015-10-10T12:34:17Z</time>
      </trkpt>
      <trkpt lat="44.5857" lon="6.29593">
        <ele>1785.897949</ele>
        <time>2015-10-10T12:34:21Z</time>
      </trkpt>
      <trkpt lat="44.58563" lon="6.29602">
        <ele>1788.554199</ele>
        <time>2015-10-10T12:34:25Z</time>
      </trkpt>
      <trkpt lat="44.58557" lon="6.29613">
        <ele>1791.866699</ele>
        <time>2015-10-10T12:34:29Z</time>
      </trkpt>
      <trkpt lat="44.58557" lon="6.29625">
        <ele>1793.366699</ele>
        <time>2015-10-10T12:34:33Z</time>
      </trkpt>
      <trkpt lat="44.58563" lon="6.29633">
        <ele>1794.241699</ele>
        <time>2015-10-10T12:34:37Z</time>
      </trkpt>
      <trkpt lat="44.5857" lon="6.29642">
        <ele>1793.085449</ele>
        <time>2015-10-10T12:34:41Z</time>
      </trkpt>
      <trkpt lat="44.58576" lon="6.2965">
        <ele>1796.022949</ele>
        <time>2015-10-10T12:34:45Z</time>
      </trkpt>
      <trkpt lat="44.58583" lon="6.29656">
        <ele>1797.460449</ele>
        <time>2015-10-10T12:34:49Z</time>
      </trkpt>
      <trkpt lat="44.58587" lon="6.29661">
        <ele>1797.210449</ele>
        <time>2015-10-10T12:34:53Z</time>
      </trkpt>
      <trkpt lat="44.58595" lon="6.29666">
        <ele>1797.960449</ele>
        <time>2015-10-10T12:34:57Z</time>
      </trkpt>
      <trkpt lat="44.586" lon="6.29672">
        <ele>1800.210449</ele>
        <time>2015-10-10T12:35:01Z</time>
      </trkpt>
      <trkpt lat="44.586" lon="6.29682">
        <ele>1801.710449</ele>
        <time>2015-10-10T12:35:05Z</time>
      </trkpt>
      <trkpt lat="44.58598" lon="6.2969">
        <ele>1801.429199</ele>
        <time>2015-10-10T12:35:09Z</time>
      </trkpt>
      <trkpt lat="44.58596" lon="6.29696">
        <ele>1803.335449</ele>
        <time>2015-10-10T12:35:13Z</time>
      </trkpt>
      <trkpt lat="44.58595" lon="6.29708">
        <ele>1803.554199</ele>
        <time>2015-10-10T12:35:17Z</time>
      </trkpt>
      <trkpt lat="44.58595" lon="6.29718">
        <ele>1805.085449</ele>
        <time>2015-10-10T12:35:21Z</time>
      </trkpt>
      <trkpt lat="44.58596" lon="6.29728">
        <ele>1805.022949</ele>
        <time>2015-10-10T12:35:25Z</time>
      </trkpt>
      <trkpt lat="44.58599" lon="6.29736">
        <ele>1806.679199</ele>
        <time>2015-10-10T12:35:29Z</time>
      </trkpt>
      <trkpt lat="44.58602" lon="6.29744">
        <ele>1808.554199</ele>
        <time>2015-10-10T12:35:33Z</time>
      </trkpt>
      <trkpt lat="44.58604" lon="6.29753">
        <ele>1809.866699</ele>
        <time>2015-10-10T12:35:37Z</time>
      </trkpt>
      <trkpt lat="44.58602" lon="6.29762">
        <ele>1811.710449</ele>
        <time>2015-10-10T12:35:41Z</time>
      </trkpt>
      <trkpt lat="44.586" lon="6.2977">
        <ele>1813.835449</ele>
        <time>2015-10-10T12:35:45Z</time>
      </trkpt>
      <trkpt lat="44.58596" lon="6.29779">
        <ele>1817.179199</ele>
        <time>2015-10-10T12:35:49Z</time>
      </trkpt>
      <trkpt lat="44.58593" lon="6.29787">
        <ele>1818.804199</ele>
        <time>2015-10-10T12:35:53Z</time>
      </trkpt>
      <trkpt lat="44.58592" lon="6.29795">
        <ele>1820.554199</ele>
        <time>2015-10-10T12:35:57Z</time>
      </trkpt>
      <trkpt lat="44.5859" lon="6.29802">
        <ele>1821.179199</ele>
        <time>2015-10-10T12:36:01Z</time>
      </trkpt>
      <trkpt lat="44.58586" lon="6.29807">
        <ele>1821.179199</ele>
        <time>2015-10-10T12:36:05Z</time>
      </trkpt>
      <trkpt lat="44.58582" lon="6.29814">
        <ele>1822.054199</ele>
        <time>2015-10-10T12:36:09Z</time>
      </trkpt>
      <trkpt lat="44.58577" lon="6.29821">
        <ele>1823.304199</ele>
        <time>2015-10-10T12:36:13Z</time>
      </trkpt>
      <trkpt lat="44.58573" lon="6.29826">
        <ele>1823.772949</ele>
        <time>2015-10-10T12:36:17Z</time>
      </trkpt>
      <trkpt lat="44.58568" lon="6.29832">
        <ele>1825.022949</ele>
        <time>2015-10-10T12:36:21Z</time>
      </trkpt>
      <trkpt lat="44.58563" lon="6.29837">
        <ele>1826.741699</ele>
        <time>2015-10-10T12:36:25Z</time>
      </trkpt>
      <trkpt lat="44.58558" lon="6.29843">
        <ele>1828.460449</ele>
        <time>2015-10-10T12:36:29Z</time>
      </trkpt>
      <trkpt lat="44.58552" lon="6.29851">
        <ele>1829.179199</ele>
        <time>2015-10-10T12:36:33Z</time>
      </trkpt>
      <trkpt lat="44.58546" lon="6.29859">
        <ele>1828.960449</ele>
        <time>2015-10-10T12:36:37Z</time>
      </trkpt>
      <trkpt lat="44.5854" lon="6.29862">
        <ele>1828.835449</ele>
        <time>2015-10-10T12:36:41Z</time>
      </trkpt>
      <trkpt lat="44.58535" lon="6.29868">
        <ele>1829.866699</ele>
        <time>2015-10-10T12:36:45Z</time>
      </trkpt>
      <trkpt lat="44.58538" lon="6.29878">
        <ele>1831.116699</ele>
        <time>2015-10-10T12:36:49Z</time>
      </trkpt>
      <trkpt lat="44.58542" lon="6.29885">
        <ele>1832.054199</ele>
        <time>2015-10-10T12:36:53Z</time>
      </trkpt>
      <trkpt lat="44.58547" lon="6.29893">
        <ele>1833.960449</ele>
        <time>2015-10-10T12:36:57Z</time>
      </trkpt>
      <trkpt lat="44.58553" lon="6.299">
        <ele>1835.147949</ele>
        <time>2015-10-10T12:37:01Z</time>
      </trkpt>
      <trkpt lat="44.58559" lon="6.29902">
        <ele>1836.397949</ele>
        <time>2015-10-10T12:37:05Z</time>
      </trkpt>
      <trkpt lat="44.58567" lon="6.29903">
        <ele>1840.210449</ele>
        <time>2015-10-10T12:37:09Z</time>
      </trkpt>
      <trkpt lat="44.58575" lon="6.29899">
        <ele>1843.272949</ele>
        <time>2015-10-10T12:37:13Z</time>
      </trkpt>
      <trkpt lat="44.58582" lon="6.29896">
        <ele>1844.929199</ele>
        <time>2015-10-10T12:37:17Z</time>
      </trkpt>
      <trkpt lat="44.58591" lon="6.29894">
        <ele>1848.241699</ele>
        <time>2015-10-10T12:37:21Z</time>
      </trkpt>
      <trkpt lat="44.58598" lon="6.29897">
        <ele>1850.679199</ele>
        <time>2015-10-10T12:37:25Z</time>
      </trkpt>
      <trkpt lat="44.58606" lon="6.29897">
        <ele>1852.679199</ele>
        <time>2015-10-10T12:37:29Z</time>
      </trkpt>
      <trkpt lat="44.58613" lon="6.29898">
        <ele>1853.991699</ele>
        <time>2015-10-10T12:37:33Z</time>
      </trkpt>
      <trkpt lat="44.5862" lon="6.299">
        <ele>1855.835449</ele>
        <time>2015-10-10T12:37:37Z</time>
      </trkpt>
      <trkpt lat="44.58627" lon="6.29903">
        <ele>1857.741699</ele>
        <time>2015-10-10T12:37:41Z</time>
      </trkpt>
      <trkpt lat="44.58635" lon="6.29906">
        <ele>1859.304199</ele>
        <time>2015-10-10T12:37:45Z</time>
      </trkpt>
      <trkpt lat="44.58642" lon="6.29907">
        <ele>1860.710449</ele>
        <time>2015-10-10T12:37:49Z</time>
      </trkpt>
      <trkpt lat="44.58649" lon="6.29908">
        <ele>1862.897949</ele>
        <time>2015-10-10T12:37:53Z</time>
      </trkpt>
      <trkpt lat="44.58656" lon="6.2991">
        <ele>1864.647949</ele>
        <time>2015-10-10T12:37:57Z</time>
      </trkpt>
      <trkpt lat="44.58664" lon="6.29909">
        <ele>1865.585449</ele>
        <time>2015-10-10T12:38:01Z</time>
      </trkpt>
      <trkpt lat="44.58672" lon="6.29908">
        <ele>1866.647949</ele>
        <time>2015-10-10T12:38:05Z</time>
      </trkpt>
      <trkpt lat="44.58679" lon="6.29909">
        <ele>1867.710449</ele>
        <time>2015-10-10T12:38:09Z</time>
      </trkpt>
      <trkpt lat="44.58685" lon="6.29912">
        <ele>1869.710449</ele>
        <time>2015-10-10T12:38:13Z</time>
      </trkpt>
      <trkpt lat="44.58692" lon="6.29913">
        <ele>1870.835449</ele>
        <time>2015-10-10T12:38:17Z</time>
      </trkpt>
      <trkpt lat="44.58699" lon="6.29911">
        <ele>1872.460449</ele>
        <time>2015-10-10T12:38:21Z</time>
      </trkpt>
      <trkpt lat="44.58706" lon="6.29906">
        <ele>1873.772949</ele>
        <time>2015-10-10T12:38:25Z</time>
      </trkpt>
      <trkpt lat="44.58714" lon="6.29901">
        <ele>1874.022949</ele>
        <time>2015-10-10T12:38:29Z</time>
      </trkpt>
      <trkpt lat="44.58721" lon="6.29898">
        <ele>1875.304199</ele>
        <time>2015-10-10T12:38:33Z</time>
      </trkpt>
      <trkpt lat="44.58729" lon="6.29894">
        <ele>1876.241699</ele>
        <time>2015-10-10T12:38:37Z</time>
      </trkpt>
      <trkpt lat="44.58735" lon="6.2989">
        <ele>1877.491699</ele>
        <time>2015-10-10T12:38:41Z</time>
      </trkpt>
      <trkpt lat="44.58743" lon="6.29888">
        <ele>1877.866699</ele>
        <time>2015-10-10T12:38:45Z</time>
      </trkpt>
      <trkpt lat="44.5875" lon="6.29889">
        <ele>1880.241699</ele>
        <time>2015-10-10T12:38:49Z</time>
      </trkpt>
      <trkpt lat="44.58752" lon="6.29891">
        <ele>1881.054199</ele>
        <time>2015-10-10T12:38:53Z</time>
      </trkpt>
      <trkpt lat="44.58751" lon="6.2989">
        <ele>1881.585449</ele>
        <time>2015-10-10T12:38:57Z</time>
      </trkpt>
      <trkpt lat="44.58751" lon="6.2989">
        <ele>1881.647949</ele>
        <time>2015-10-10T12:39:01Z</time>
      </trkpt>
      <trkpt lat="44.58751" lon="6.2989">
        <ele>1881.522949</ele>
        <time>2015-10-10T12:39:05Z</time>
      </trkpt>
      <trkpt lat="44.58752" lon="6.2989">
        <ele>1880.991699</ele>
        <time>2015-10-10T12:39:09Z</time>
      </trkpt>
      <trkpt lat="44.58752" lon="6.2989">
        <ele>1880.991699</ele>
        <time>2015-10-10T12:39:13Z</time>
      </trkpt>
      <trkpt lat="44.58751" lon="6.2989">
        <ele>1880.991699</ele>
        <time>2015-10-10T12:39:17Z</time>
      </trkpt>
      <trkpt lat="44.58751" lon="6.2989">
        <ele>1881.022949</ele>
        <time>2015-10-10T12:39:21Z</time>
      </trkpt>
      <trkpt lat="44.58751" lon="6.2989">
        <ele>1881.022949</ele>
        <time>2015-10-10T12:39:25Z</time>
      </trkpt>
      <trkpt lat="44.58751" lon="6.2989">
        <ele>1881.116699</ele>
        <time>2015-10-10T12:39:29Z</time>
      </trkpt>
      <trkpt lat="44.58752" lon="6.2989">
        <ele>1881.116699</ele>
        <time>2015-10-10T12:39:33Z</time>
      </trkpt>
      <trkpt lat="44.58752" lon="6.2989">
        <ele>1881.085449</ele>
        <time>2015-10-10T12:39:37Z</time>
      </trkpt>
      <trkpt lat="44.58752" lon="6.2989">
        <ele>1881.054199</ele>
        <time>2015-10-10T12:39:41Z</time>
      </trkpt>
      <trkpt lat="44.58752" lon="6.2989">
        <ele>1881.054199</ele>
        <time>2015-10-10T12:39:45Z</time>
      </trkpt>
      <trkpt lat="44.58752" lon="6.2989">
        <ele>1881.085449</ele>
        <time>2015-10-10T12:39:49Z</time>
      </trkpt>
      <trkpt lat="44.58751" lon="6.2989">
        <ele>1881.179199</ele>
        <time>2015-10-10T12:39:53Z</time>
      </trkpt>
      <trkpt lat="44.5875" lon="6.29888">
        <ele>1881.272949</ele>
        <time>2015-10-10T12:39:57Z</time>
      </trkpt>
      <trkpt lat="44.58749" lon="6.29887">
        <ele>1881.272949</ele>
        <time>2015-10-10T12:40:01Z</time>
      </trkpt>
      <trkpt lat="44.5875" lon="6.29888">
        <ele>1881.272949</ele>
        <time>2015-10-10T12:40:05Z</time>
      </trkpt>
      <trkpt lat="44.58753" lon="6.29891">
        <ele>1882.022949</ele>
        <time>2015-10-10T12:40:09Z</time>
      </trkpt>
      <trkpt lat="44.58756" lon="6.29894">
        <ele>1882.554199</ele>
        <time>2015-10-10T12:40:13Z</time>
      </trkpt>
      <trkpt lat="44.58758" lon="6.29896">
        <ele>1882.647949</ele>
        <time>2015-10-10T12:40:17Z</time>
      </trkpt>
      <trkpt lat="44.5876" lon="6.29899">
        <ele>1883.147949</ele>
        <time>2015-10-10T12:40:21Z</time>
      </trkpt>
      <trkpt lat="44.58761" lon="6.299">
        <ele>1882.304199</ele>
        <time>2015-10-10T12:40:25Z</time>
      </trkpt>
      <trkpt lat="44.58765" lon="6.29903">
        <ele>1884.022949</ele>
        <time>2015-10-10T12:40:29Z</time>
      </trkpt>
      <trkpt lat="44.58768" lon="6.29904">
        <ele>1884.429199</ele>
        <time>2015-10-10T12:40:33Z</time>
      </trkpt>
      <trkpt lat="44.5877" lon="6.29906">
        <ele>1884.897949</ele>
        <time>2015-10-10T12:40:37Z</time>
      </trkpt>
      <trkpt lat="44.58774" lon="6.29908">
        <ele>1887.022949</ele>
        <time>2015-10-10T12:40:41Z</time>
      </trkpt>
      <trkpt lat="44.58777" lon="6.2991">
        <ele>1886.647949</ele>
        <time>2015-10-10T12:40:45Z</time>
      </trkpt>
      <trkpt lat="44.58781" lon="6.29909">
        <ele>1887.116699</ele>
        <time>2015-10-10T12:40:49Z</time>
      </trkpt>
      <trkpt lat="44.58783" lon="6.29907">
        <ele>1886.647949</ele>
        <time>2015-10-10T12:40:53Z</time>
      </trkpt>
      <trkpt lat="44.58783" lon="6.29906">
        <ele>1886.491699</ele>
        <time>2015-10-10T12:40:57Z</time>
      </trkpt>
      <trkpt lat="44.58783" lon="6.29906">
        <ele>1886.460449</ele>
        <time>2015-10-10T12:41:01Z</time>
      </trkpt>
      <trkpt lat="44.58783" lon="6.29906">
        <ele>1886.429199</ele>
        <time>2015-10-10T12:41:05Z</time>
      </trkpt>
      <trkpt lat="44.58783" lon="6.29906">
        <ele>1886.429199</ele>
        <time>2015-10-10T12:41:09Z</time>
      </trkpt>
      <trkpt lat="44.58783" lon="6.29906">
        <ele>1886.429199</ele>
        <time>2015-10-10T12:41:13Z</time>
      </trkpt>
      <trkpt lat="44.58783" lon="6.29906">
        <ele>1886.429199</ele>
        <time>2015-10-10T12:41:17Z</time>
      </trkpt>
      <trkpt lat="44.58783" lon="6.29906">
        <ele>1886.429199</ele>
        <time>2015-10-10T12:41:21Z</time>
      </trkpt>
      <trkpt lat="44.58783" lon="6.29906">
        <ele>1886.397949</ele>
        <time>2015-10-10T12:41:25Z</time>
      </trkpt>
      <trkpt lat="44.58783" lon="6.29906">
        <ele>1886.304199</ele>
        <time>2015-10-10T12:41:29Z</time>
      </trkpt>
      <trkpt lat="44.58791" lon="6.29905">
        <ele>1887.397949</ele>
        <time>2015-10-10T12:41:33Z</time>
      </trkpt>
      <trkpt lat="44.58799" lon="6.29904">
        <ele>1888.116699</ele>
        <time>2015-10-10T12:41:37Z</time>
      </trkpt>
      <trkpt lat="44.58806" lon="6.29906">
        <ele>1890.147949</ele>
        <time>2015-10-10T12:41:41Z</time>
      </trkpt>
      <trkpt lat="44.58813" lon="6.29906">
        <ele>1891.929199</ele>
        <time>2015-10-10T12:41:45Z</time>
      </trkpt>
      <trkpt lat="44.5882" lon="6.29905">
        <ele>1893.679199</ele>
        <time>2015-10-10T12:41:49Z</time>
      </trkpt>
      <trkpt lat="44.58826" lon="6.29901">
        <ele>1895.054199</ele>
        <time>2015-10-10T12:41:53Z</time>
      </trkpt>
      <trkpt lat="44.58834" lon="6.29898">
        <ele>1896.866699</ele>
        <time>2015-10-10T12:41:57Z</time>
      </trkpt>
      <trkpt lat="44.58842" lon="6.29892">
        <ele>1898.710449</ele>
        <time>2015-10-10T12:42:01Z</time>
      </trkpt>
      <trkpt lat="44.58849" lon="6.29886">
        <ele>1899.804199</ele>
        <time>2015-10-10T12:42:05Z</time>
      </trkpt>
      <trkpt lat="44.58856" lon="6.29881">
        <ele>1901.804199</ele>
        <time>2015-10-10T12:42:09Z</time>
      </trkpt>
      <trkpt lat="44.58863" lon="6.29875">
        <ele>1903.804199</ele>
        <time>2015-10-10T12:42:13Z</time>
      </trkpt>
      <trkpt lat="44.5887" lon="6.29871">
        <ele>1905.991699</ele>
        <time>2015-10-10T12:42:17Z</time>
      </trkpt>
      <trkpt lat="44.58877" lon="6.29872">
        <ele>1906.929199</ele>
        <time>2015-10-10T12:42:21Z</time>
      </trkpt>
      <trkpt lat="44.58886" lon="6.29877">
        <ele>1910.272949</ele>
        <time>2015-10-10T12:42:25Z</time>
      </trkpt>
      <trkpt lat="44.58892" lon="6.29882">
        <ele>1912.397949</ele>
        <time>2015-10-10T12:42:29Z</time>
      </trkpt>
      <trkpt lat="44.58898" lon="6.29888">
        <ele>1914.085449</ele>
        <time>2015-10-10T12:42:33Z</time>
      </trkpt>
      <trkpt lat="44.58904" lon="6.29897">
        <ele>1916.647949</ele>
        <time>2015-10-10T12:42:37Z</time>
      </trkpt>
      <trkpt lat="44.58905" lon="6.29907">
        <ele>1917.241699</ele>
        <time>2015-10-10T12:42:41Z</time>
      </trkpt>
      <trkpt lat="44.58907" lon="6.29916">
        <ele>1917.960449</ele>
        <time>2015-10-10T12:42:45Z</time>
      </trkpt>
      <trkpt lat="44.58906" lon="6.29916">
        <ele>1918.366699</ele>
        <time>2015-10-10T12:42:49Z</time>
      </trkpt>
      <trkpt lat="44.58906" lon="6.29916">
        <ele>1918.397949</ele>
        <time>2015-10-10T12:42:53Z</time>
      </trkpt>
      <trkpt lat="44.58906" lon="6.29916">
        <ele>1918.397949</ele>
        <time>2015-10-10T12:42:57Z</time>
      </trkpt>
      <trkpt lat="44.58906" lon="6.29916">
        <ele>1918.335449</ele>
        <time>2015-10-10T12:43:01Z</time>
      </trkpt>
      <trkpt lat="44.58906" lon="6.29916">
        <ele>1918.335449</ele>
        <time>2015-10-10T12:43:05Z</time>
      </trkpt>
      <trkpt lat="44.58906" lon="6.29916">
        <ele>1918.335449</ele>
        <time>2015-10-10T12:43:09Z</time>
      </trkpt>
      <trkpt lat="44.58906" lon="6.29916">
        <ele>1918.335449</ele>
        <time>2015-10-10T12:43:13Z</time>
      </trkpt>
      <trkpt lat="44.58906" lon="6.29916">
        <ele>1918.335449</ele>
        <time>2015-10-10T12:43:17Z</time>
      </trkpt>
      <trkpt lat="44.58906" lon="6.29916">
        <ele>1918.304199</ele>
        <time>2015-10-10T12:43:21Z</time>
      </trkpt>
      <trkpt lat="44.58906" lon="6.29919">
        <ele>1918.147949</ele>
        <time>2015-10-10T12:43:25Z</time>
      </trkpt>
      <trkpt lat="44.58907" lon="6.29924">
        <ele>1919.179199</ele>
        <time>2015-10-10T12:43:29Z</time>
      </trkpt>
      <trkpt lat="44.58908" lon="6.29928">
        <ele>1919.897949</ele>
        <time>2015-10-10T12:43:33Z</time>
      </trkpt>
      <trkpt lat="44.58908" lon="6.29932">
        <ele>1919.929199</ele>
        <time>2015-10-10T12:43:37Z</time>
      </trkpt>
      <trkpt lat="44.5891" lon="6.29937">
        <ele>1921.054199</ele>
        <time>2015-10-10T12:43:41Z</time>
      </trkpt>
      <trkpt lat="44.5891" lon="6.29941">
        <ele>1921.585449</ele>
        <time>2015-10-10T12:43:45Z</time>
      </trkpt>
      <trkpt lat="44.58911" lon="6.29946">
        <ele>1922.460449</ele>
        <time>2015-10-10T12:43:49Z</time>
      </trkpt>
      <trkpt lat="44.58911" lon="6.29951">
        <ele>1923.085449</ele>
        <time>2015-10-10T12:43:53Z</time>
      </trkpt>
      <trkpt lat="44.5891" lon="6.29957">
        <ele>1923.554199</ele>
        <time>2015-10-10T12:43:57Z</time>
      </trkpt>
      <trkpt lat="44.5891" lon="6.29962">
        <ele>1924.522949</ele>
        <time>2015-10-10T12:44:01Z</time>
      </trkpt>
      <trkpt lat="44.58911" lon="6.29967">
        <ele>1925.147949</ele>
        <time>2015-10-10T12:44:05Z</time>
      </trkpt>
      <trkpt lat="44.58911" lon="6.2997">
        <ele>1925.929199</ele>
        <time>2015-10-10T12:44:09Z</time>
      </trkpt>
      <trkpt lat="44.58912" lon="6.29973">
        <ele>1926.022949</ele>
        <time>2015-10-10T12:44:13Z</time>
      </trkpt>
      <trkpt lat="44.58913" lon="6.29977">
        <ele>1926.647949</ele>
        <time>2015-10-10T12:44:17Z</time>
      </trkpt>
      <trkpt lat="44.58913" lon="6.2998">
        <ele>1927.554199</ele>
        <time>2015-10-10T12:44:21Z</time>
      </trkpt>
      <trkpt lat="44.58914" lon="6.29984">
        <ele>1928.397949</ele>
        <time>2015-10-10T12:44:25Z</time>
      </trkpt>
      <trkpt lat="44.58916" lon="6.29987">
        <ele>1928.991699</ele>
        <time>2015-10-10T12:44:29Z</time>
      </trkpt>
      <trkpt lat="44.58917" lon="6.2999">
        <ele>1929.710449</ele>
        <time>2015-10-10T12:44:33Z</time>
      </trkpt>
      <trkpt lat="44.58918" lon="6.29994">
        <ele>1930.397949</ele>
        <time>2015-10-10T12:44:37Z</time>
      </trkpt>
      <trkpt lat="44.58918" lon="6.29998">
        <ele>1931.710449</ele>
        <time>2015-10-10T12:44:41Z</time>
      </trkpt>
      <trkpt lat="44.58918" lon="6.30002">
        <ele>1932.647949</ele>
        <time>2015-10-10T12:44:45Z</time>
      </trkpt>
      <trkpt lat="44.58918" lon="6.30007">
        <ele>1933.429199</ele>
        <time>2015-10-10T12:44:49Z</time>
      </trkpt>
      <trkpt lat="44.58918" lon="6.30011">
        <ele>1934.647949</ele>
        <time>2015-10-10T12:44:53Z</time>
      </trkpt>
      <trkpt lat="44.58917" lon="6.30012">
        <ele>1934.835449</ele>
        <time>2015-10-10T12:44:57Z</time>
      </trkpt>
      <trkpt lat="44.58917" lon="6.30009">
        <ele>1935.991699</ele>
        <time>2015-10-10T12:45:01Z</time>
      </trkpt>
      <trkpt lat="44.58917" lon="6.30009">
        <ele>1936.179199</ele>
        <time>2015-10-10T12:45:05Z</time>
      </trkpt>
      <trkpt lat="44.58917" lon="6.30009">
        <ele>1936.335449</ele>
        <time>2015-10-10T12:45:09Z</time>
      </trkpt>
      <trkpt lat="44.58917" lon="6.30009">
        <ele>1936.272949</ele>
        <time>2015-10-10T12:45:13Z</time>
      </trkpt>
      <trkpt lat="44.58916" lon="6.30009">
        <ele>1935.991699</ele>
        <time>2015-10-10T12:45:17Z</time>
      </trkpt>
      <trkpt lat="44.58912" lon="6.30016">
        <ele>1935.929199</ele>
        <time>2015-10-10T12:45:21Z</time>
      </trkpt>
      <trkpt lat="44.58909" lon="6.30025">
        <ele>1936.179199</ele>
        <time>2015-10-10T12:45:25Z</time>
      </trkpt>
      <trkpt lat="44.58906" lon="6.30034">
        <ele>1936.616699</ele>
        <time>2015-10-10T12:45:29Z</time>
      </trkpt>
      <trkpt lat="44.58902" lon="6.30043">
        <ele>1936.991699</ele>
        <time>2015-10-10T12:45:33Z</time>
      </trkpt>
      <trkpt lat="44.58897" lon="6.30053">
        <ele>1937.241699</ele>
        <time>2015-10-10T12:45:37Z</time>
      </trkpt>
      <trkpt lat="44.58892" lon="6.30062">
        <ele>1938.179199</ele>
        <time>2015-10-10T12:45:41Z</time>
      </trkpt>
      <trkpt lat="44.58886" lon="6.3007">
        <ele>1938.710449</ele>
        <time>2015-10-10T12:45:45Z</time>
      </trkpt>
      <trkpt lat="44.5888" lon="6.30078">
        <ele>1939.647949</ele>
        <time>2015-10-10T12:45:49Z</time>
      </trkpt>
      <trkpt lat="44.58876" lon="6.30086">
        <ele>1940.772949</ele>
        <time>2015-10-10T12:45:53Z</time>
      </trkpt>
      <trkpt lat="44.5887" lon="6.30092">
        <ele>1941.522949</ele>
        <time>2015-10-10T12:45:57Z</time>
      </trkpt>
      <trkpt lat="44.58865" lon="6.30099">
        <ele>1941.960449</ele>
        <time>2015-10-10T12:46:01Z</time>
      </trkpt>
      <trkpt lat="44.5886" lon="6.30106">
        <ele>1943.116699</ele>
        <time>2015-10-10T12:46:05Z</time>
      </trkpt>
      <trkpt lat="44.58854" lon="6.30112">
        <ele>1945.116699</ele>
        <time>2015-10-10T12:46:09Z</time>
      </trkpt>
      <trkpt lat="44.5885" lon="6.3012">
        <ele>1946.179199</ele>
        <time>2015-10-10T12:46:13Z</time>
      </trkpt>
      <trkpt lat="44.58846" lon="6.30128">
        <ele>1946.960449</ele>
        <time>2015-10-10T12:46:17Z</time>
      </trkpt>
      <trkpt lat="44.58846" lon="6.30135">
        <ele>1947.960449</ele>
        <time>2015-10-10T12:46:21Z</time>
      </trkpt>
      <trkpt lat="44.58846" lon="6.30136">
        <ele>1947.272949</ele>
        <time>2015-10-10T12:46:25Z</time>
      </trkpt>
      <trkpt lat="44.58846" lon="6.30136">
        <ele>1947.210449</ele>
        <time>2015-10-10T12:46:29Z</time>
      </trkpt>
      <trkpt lat="44.58846" lon="6.30137">
        <ele>1947.741699</ele>
        <time>2015-10-10T12:46:33Z</time>
      </trkpt>
      <trkpt lat="44.58845" lon="6.30141">
        <ele>1948.679199</ele>
        <time>2015-10-10T12:46:37Z</time>
      </trkpt>
      <trkpt lat="44.58844" lon="6.30147">
        <ele>1949.460449</ele>
        <time>2015-10-10T12:46:41Z</time>
      </trkpt>
      <trkpt lat="44.58844" lon="6.30151">
        <ele>1950.710449</ele>
        <time>2015-10-10T12:46:45Z</time>
      </trkpt>
      <trkpt lat="44.58844" lon="6.30155">
        <ele>1951.054199</ele>
        <time>2015-10-10T12:46:49Z</time>
      </trkpt>
      <trkpt lat="44.58844" lon="6.30158">
        <ele>1951.397949</ele>
        <time>2015-10-10T12:46:53Z</time>
      </trkpt>
      <trkpt lat="44.58843" lon="6.30161">
        <ele>1951.960449</ele>
        <time>2015-10-10T12:46:57Z</time>
      </trkpt>
      <trkpt lat="44.58843" lon="6.30165">
        <ele>1952.054199</ele>
        <time>2015-10-10T12:47:01Z</time>
      </trkpt>
      <trkpt lat="44.5884" lon="6.30167">
        <ele>1954.022949</ele>
        <time>2015-10-10T12:47:05Z</time>
      </trkpt>
      <trkpt lat="44.58838" lon="6.3017">
        <ele>1955.147949</ele>
        <time>2015-10-10T12:47:09Z</time>
      </trkpt>
      <trkpt lat="44.58837" lon="6.30174">
        <ele>1955.022949</ele>
        <time>2015-10-10T12:47:13Z</time>
      </trkpt>
      <trkpt lat="44.58836" lon="6.30178">
        <ele>1955.429199</ele>
        <time>2015-10-10T12:47:17Z</time>
      </trkpt>
      <trkpt lat="44.58835" lon="6.30183">
        <ele>1956.210449</ele>
        <time>2015-10-10T12:47:21Z</time>
      </trkpt>
      <trkpt lat="44.58834" lon="6.30187">
        <ele>1957.147949</ele>
        <time>2015-10-10T12:47:25Z</time>
      </trkpt>
      <trkpt lat="44.58834" lon="6.30192">
        <ele>1957.491699</ele>
        <time>2015-10-10T12:47:29Z</time>
      </trkpt>
      <trkpt lat="44.58834" lon="6.30197">
        <ele>1957.960449</ele>
        <time>2015-10-10T12:47:33Z</time>
      </trkpt>
      <trkpt lat="44.58832" lon="6.30201">
        <ele>1958.272949</ele>
        <time>2015-10-10T12:47:37Z</time>
      </trkpt>
      <trkpt lat="44.58832" lon="6.30205">
        <ele>1958.960449</ele>
        <time>2015-10-10T12:47:41Z</time>
      </trkpt>
      <trkpt lat="44.58832" lon="6.30209">
        <ele>1959.335449</ele>
        <time>2015-10-10T12:47:45Z</time>
      </trkpt>
      <trkpt lat="44.58831" lon="6.30212">
        <ele>1959.741699</ele>
        <time>2015-10-10T12:47:49Z</time>
      </trkpt>
      <trkpt lat="44.5883" lon="6.30215">
        <ele>1960.772949</ele>
        <time>2015-10-10T12:47:53Z</time>
      </trkpt>
      <trkpt lat="44.58829" lon="6.30218">
        <ele>1961.054199</ele>
        <time>2015-10-10T12:47:57Z</time>
      </trkpt>
      <trkpt lat="44.58829" lon="6.30223">
        <ele>1961.366699</ele>
        <time>2015-10-10T12:48:01Z</time>
      </trkpt>
      <trkpt lat="44.58829" lon="6.30228">
        <ele>1961.772949</ele>
        <time>2015-10-10T12:48:05Z</time>
      </trkpt>
      <trkpt lat="44.58828" lon="6.30231">
        <ele>1962.022949</ele>
        <time>2015-10-10T12:48:09Z</time>
      </trkpt>
      <trkpt lat="44.58827" lon="6.30234">
        <ele>1962.991699</ele>
        <time>2015-10-10T12:48:13Z</time>
      </trkpt>
      <trkpt lat="44.58825" lon="6.30238">
        <ele>1963.460449</ele>
        <time>2015-10-10T12:48:17Z</time>
      </trkpt>
      <trkpt lat="44.58824" lon="6.30242">
        <ele>1964.304199</ele>
        <time>2015-10-10T12:48:21Z</time>
      </trkpt>
      <trkpt lat="44.58823" lon="6.30245">
        <ele>1964.491699</ele>
        <time>2015-10-10T12:48:25Z</time>
      </trkpt>
      <trkpt lat="44.58823" lon="6.3025">
        <ele>1965.366699</ele>
        <time>2015-10-10T12:48:29Z</time>
      </trkpt>
      <trkpt lat="44.58824" lon="6.30254">
        <ele>1966.179199</ele>
        <time>2015-10-10T12:48:33Z</time>
      </trkpt>
      <trkpt lat="44.58825" lon="6.30258">
        <ele>1966.741699</ele>
        <time>2015-10-10T12:48:37Z</time>
      </trkpt>
      <trkpt lat="44.58826" lon="6.30263">
        <ele>1967.616699</ele>
        <time>2015-10-10T12:48:41Z</time>
      </trkpt>
      <trkpt lat="44.58826" lon="6.30267">
        <ele>1968.866699</ele>
        <time>2015-10-10T12:48:45Z</time>
      </trkpt>
      <trkpt lat="44.58829" lon="6.3027">
        <ele>1969.772949</ele>
        <time>2015-10-10T12:48:49Z</time>
      </trkpt>
      <trkpt lat="44.58831" lon="6.30271">
        <ele>1970.147949</ele>
        <time>2015-10-10T12:48:53Z</time>
      </trkpt>
      <trkpt lat="44.58833" lon="6.30274">
        <ele>1970.241699</ele>
        <time>2015-10-10T12:48:57Z</time>
      </trkpt>
      <trkpt lat="44.58836" lon="6.30277">
        <ele>1970.772949</ele>
        <time>2015-10-10T12:49:01Z</time>
      </trkpt>
      <trkpt lat="44.58839" lon="6.30278">
        <ele>1970.835449</ele>
        <time>2015-10-10T12:49:05Z</time>
      </trkpt>
      <trkpt lat="44.58841" lon="6.30278">
        <ele>1972.429199</ele>
        <time>2015-10-10T12:49:09Z</time>
      </trkpt>
      <trkpt lat="44.58844" lon="6.30277">
        <ele>1972.741699</ele>
        <time>2015-10-10T12:49:13Z</time>
      </trkpt>
      <trkpt lat="44.58847" lon="6.30276">
        <ele>1972.304199</ele>
        <time>2015-10-10T12:49:17Z</time>
      </trkpt>
      <trkpt lat="44.5885" lon="6.30275">
        <ele>1973.304199</ele>
        <time>2015-10-10T12:49:21Z</time>
      </trkpt>
      <trkpt lat="44.58851" lon="6.30274">
        <ele>1972.585449</ele>
        <time>2015-10-10T12:49:25Z</time>
      </trkpt>
      <trkpt lat="44.58851" lon="6.30274">
        <ele>1972.522949</ele>
        <time>2015-10-10T12:49:29Z</time>
      </trkpt>
      <trkpt lat="44.58851" lon="6.30274">
        <ele>1972.554199</ele>
        <time>2015-10-10T12:49:33Z</time>
      </trkpt>
      <trkpt lat="44.58851" lon="6.30275">
        <ele>1972.554199</ele>
        <time>2015-10-10T12:49:37Z</time>
      </trkpt>
      <trkpt lat="44.58851" lon="6.30275">
        <ele>1972.554199</ele>
        <time>2015-10-10T12:49:41Z</time>
      </trkpt>
      <trkpt lat="44.58851" lon="6.30275">
        <ele>1972.554199</ele>
        <time>2015-10-10T12:49:45Z</time>
      </trkpt>
      <trkpt lat="44.58851" lon="6.30275">
        <ele>1972.522949</ele>
        <time>2015-10-10T12:49:49Z</time>
      </trkpt>
      <trkpt lat="44.58851" lon="6.30275">
        <ele>1972.522949</ele>
        <time>2015-10-10T12:49:53Z</time>
      </trkpt>
      <trkpt lat="44.58851" lon="6.30275">
        <ele>1972.522949</ele>
        <time>2015-10-10T12:49:57Z</time>
      </trkpt>
      <trkpt lat="44.58851" lon="6.30275">
        <ele>1972.522949</ele>
        <time>2015-10-10T12:50:01Z</time>
      </trkpt>
      <trkpt lat="44.58852" lon="6.30274">
        <ele>1972.647949</ele>
        <time>2015-10-10T12:50:05Z</time>
      </trkpt>
      <trkpt lat="44.58855" lon="6.30273">
        <ele>1973.460449</ele>
        <time>2015-10-10T12:50:09Z</time>
      </trkpt>
      <trkpt lat="44.58859" lon="6.30273">
        <ele>1974.210449</ele>
        <time>2015-10-10T12:50:13Z</time>
      </trkpt>
      <trkpt lat="44.58862" lon="6.30272">
        <ele>1974.835449</ele>
        <time>2015-10-10T12:50:17Z</time>
      </trkpt>
      <trkpt lat="44.58865" lon="6.3027">
        <ele>1974.991699</ele>
        <time>2015-10-10T12:50:21Z</time>
      </trkpt>
      <trkpt lat="44.58869" lon="6.3027">
        <ele>1976.116699</ele>
        <time>2015-10-10T12:50:25Z</time>
      </trkpt>
      <trkpt lat="44.58872" lon="6.30269">
        <ele>1976.741699</ele>
        <time>2015-10-10T12:50:29Z</time>
      </trkpt>
      <trkpt lat="44.58874" lon="6.30269">
        <ele>1977.022949</ele>
        <time>2015-10-10T12:50:33Z</time>
      </trkpt>
      <trkpt lat="44.58877" lon="6.30269">
        <ele>1978.116699</ele>
        <time>2015-10-10T12:50:37Z</time>
      </trkpt>
      <trkpt lat="44.5888" lon="6.3027">
        <ele>1978.022949</ele>
        <time>2015-10-10T12:50:41Z</time>
      </trkpt>
      <trkpt lat="44.58882" lon="6.30271">
        <ele>1978.054199</ele>
        <time>2015-10-10T12:50:45Z</time>
      </trkpt>
      <trkpt lat="44.58883" lon="6.30273">
        <ele>1978.241699</ele>
        <time>2015-10-10T12:50:49Z</time>
      </trkpt>
      <trkpt lat="44.58886" lon="6.30275">
        <ele>1978.335449</ele>
        <time>2015-10-10T12:50:53Z</time>
      </trkpt>
      <trkpt lat="44.58889" lon="6.30276">
        <ele>1979.116699</ele>
        <time>2015-10-10T12:50:57Z</time>
      </trkpt>
      <trkpt lat="44.58893" lon="6.30273">
        <ele>1979.429199</ele>
        <time>2015-10-10T12:51:01Z</time>
      </trkpt>
      <trkpt lat="44.58894" lon="6.3027">
        <ele>1979.866699</ele>
        <time>2015-10-10T12:51:05Z</time>
      </trkpt>
      <trkpt lat="44.58894" lon="6.3027">
        <ele>1979.804199</ele>
        <time>2015-10-10T12:51:09Z</time>
      </trkpt>
      <trkpt lat="44.58897" lon="6.30266">
        <ele>1979.804199</ele>
        <time>2015-10-10T12:51:13Z</time>
      </trkpt>
      <trkpt lat="44.58903" lon="6.30261">
        <ele>1980.022949</ele>
        <time>2015-10-10T12:51:17Z</time>
      </trkpt>
      <trkpt lat="44.58911" lon="6.30256">
        <ele>1980.897949</ele>
        <time>2015-10-10T12:51:21Z</time>
      </trkpt>
      <trkpt lat="44.58918" lon="6.30253">
        <ele>1982.085449</ele>
        <time>2015-10-10T12:51:25Z</time>
      </trkpt>
      <trkpt lat="44.58924" lon="6.30245">
        <ele>1983.335449</ele>
        <time>2015-10-10T12:51:29Z</time>
      </trkpt>
      <trkpt lat="44.58929" lon="6.30237">
        <ele>1984.460449</ele>
        <time>2015-10-10T12:51:33Z</time>
      </trkpt>
      <trkpt lat="44.58934" lon="6.3023">
        <ele>1984.460449</ele>
        <time>2015-10-10T12:51:37Z</time>
      </trkpt>
      <trkpt lat="44.58941" lon="6.3023">
        <ele>1984.116699</ele>
        <time>2015-10-10T12:51:41Z</time>
      </trkpt>
      <trkpt lat="44.58947" lon="6.30238">
        <ele>1984.366699</ele>
        <time>2015-10-10T12:51:45Z</time>
      </trkpt>
      <trkpt lat="44.58947" lon="6.30249">
        <ele>1984.366699</ele>
        <time>2015-10-10T12:51:49Z</time>
      </trkpt>
      <trkpt lat="44.58945" lon="6.3026">
        <ele>1984.585449</ele>
        <time>2015-10-10T12:51:53Z</time>
      </trkpt>
      <trkpt lat="44.58943" lon="6.3027">
        <ele>1985.866699</ele>
        <time>2015-10-10T12:51:57Z</time>
      </trkpt>
      <trkpt lat="44.58942" lon="6.30272">
        <ele>1985.991699</ele>
        <time>2015-10-10T12:52:01Z</time>
      </trkpt>
      <trkpt lat="44.58941" lon="6.30273">
        <ele>1986.397949</ele>
        <time>2015-10-10T12:52:05Z</time>
      </trkpt>
      <trkpt lat="44.58941" lon="6.30276">
        <ele>1987.679199</ele>
        <time>2015-10-10T12:52:09Z</time>
      </trkpt>
      <trkpt lat="44.58941" lon="6.30276">
        <ele>1988.022949</ele>
        <time>2015-10-10T12:52:13Z</time>
      </trkpt>
      <trkpt lat="44.58942" lon="6.30276">
        <ele>1987.991699</ele>
        <time>2015-10-10T12:52:17Z</time>
      </trkpt>
      <trkpt lat="44.58941" lon="6.30279">
        <ele>1988.460449</ele>
        <time>2015-10-10T12:52:21Z</time>
      </trkpt>
      <trkpt lat="44.58941" lon="6.30283">
        <ele>1989.397949</ele>
        <time>2015-10-10T12:52:25Z</time>
      </trkpt>
      <trkpt lat="44.58941" lon="6.30287">
        <ele>1989.960449</ele>
        <time>2015-10-10T12:52:29Z</time>
      </trkpt>
      <trkpt lat="44.58941" lon="6.30292">
        <ele>1990.897949</ele>
        <time>2015-10-10T12:52:33Z</time>
      </trkpt>
      <trkpt lat="44.58941" lon="6.30296">
        <ele>1991.647949</ele>
        <time>2015-10-10T12:52:37Z</time>
      </trkpt>
      <trkpt lat="44.58941" lon="6.303">
        <ele>1993.491699</ele>
        <time>2015-10-10T12:52:41Z</time>
      </trkpt>
      <trkpt lat="44.58941" lon="6.30304">
        <ele>1994.210449</ele>
        <time>2015-10-10T12:52:45Z</time>
      </trkpt>
      <trkpt lat="44.58941" lon="6.30308">
        <ele>1995.710449</ele>
        <time>2015-10-10T12:52:49Z</time>
      </trkpt>
      <trkpt lat="44.5894" lon="6.30313">
        <ele>1996.897949</ele>
        <time>2015-10-10T12:52:53Z</time>
      </trkpt>
      <trkpt lat="44.58939" lon="6.30317">
        <ele>1997.897949</ele>
        <time>2015-10-10T12:52:57Z</time>
      </trkpt>
      <trkpt lat="44.58938" lon="6.30322">
        <ele>1998.647949</ele>
        <time>2015-10-10T12:53:01Z</time>
      </trkpt>
      <trkpt lat="44.58938" lon="6.30322">
        <ele>1999.335449</ele>
        <time>2015-10-10T12:53:05Z</time>
      </trkpt>
      <trkpt lat="44.58938" lon="6.30322">
        <ele>1999.147949</ele>
        <time>2015-10-10T12:53:09Z</time>
      </trkpt>
      <trkpt lat="44.58938" lon="6.30322">
        <ele>1999.179199</ele>
        <time>2015-10-10T12:53:13Z</time>
      </trkpt>
      <trkpt lat="44.58937" lon="6.30328">
        <ele>1998.804199</ele>
        <time>2015-10-10T12:53:17Z</time>
      </trkpt>
      <trkpt lat="44.58936" lon="6.30337">
        <ele>1999.366699</ele>
        <time>2015-10-10T12:53:21Z</time>
      </trkpt>
      <trkpt lat="44.58936" lon="6.30347">
        <ele>2000.491699</ele>
        <time>2015-10-10T12:53:25Z</time>
      </trkpt>
      <trkpt lat="44.5893" lon="6.30356">
        <ele>2000.397949</ele>
        <time>2015-10-10T12:53:29Z</time>
      </trkpt>
      <trkpt lat="44.58921" lon="6.3036">
        <ele>2002.085449</ele>
        <time>2015-10-10T12:53:33Z</time>
      </trkpt>
      <trkpt lat="44.58913" lon="6.30366">
        <ele>2002.335449</ele>
        <time>2015-10-10T12:53:37Z</time>
      </trkpt>
      <trkpt lat="44.58907" lon="6.30373">
        <ele>2003.460449</ele>
        <time>2015-10-10T12:53:41Z</time>
      </trkpt>
      <trkpt lat="44.58899" lon="6.30372">
        <ele>2003.335449</ele>
        <time>2015-10-10T12:53:45Z</time>
      </trkpt>
      <trkpt lat="44.5889" lon="6.30375">
        <ele>2004.116699</ele>
        <time>2015-10-10T12:53:49Z</time>
      </trkpt>
      <trkpt lat="44.58884" lon="6.3038">
        <ele>2005.366699</ele>
        <time>2015-10-10T12:53:53Z</time>
      </trkpt>
      <trkpt lat="44.58877" lon="6.30385">
        <ele>2006.429199</ele>
        <time>2015-10-10T12:53:57Z</time>
      </trkpt>
      <trkpt lat="44.58872" lon="6.30388">
        <ele>2007.522949</ele>
        <time>2015-10-10T12:54:01Z</time>
      </trkpt>
      <trkpt lat="44.58864" lon="6.30393">
        <ele>2008.366699</ele>
        <time>2015-10-10T12:54:05Z</time>
      </trkpt>
      <trkpt lat="44.58857" lon="6.30399">
        <ele>2009.710449</ele>
        <time>2015-10-10T12:54:09Z</time>
      </trkpt>
      <trkpt lat="44.58849" lon="6.30402">
        <ele>2009.710449</ele>
        <time>2015-10-10T12:54:13Z</time>
      </trkpt>
      <trkpt lat="44.58843" lon="6.3041">
        <ele>2010.335449</ele>
        <time>2015-10-10T12:54:17Z</time>
      </trkpt>
      <trkpt lat="44.58839" lon="6.30421">
        <ele>2011.022949</ele>
        <time>2015-10-10T12:54:21Z</time>
      </trkpt>
      <trkpt lat="44.58841" lon="6.30433">
        <ele>2011.741699</ele>
        <time>2015-10-10T12:54:25Z</time>
      </trkpt>
      <trkpt lat="44.58841" lon="6.30444">
        <ele>2012.179199</ele>
        <time>2015-10-10T12:54:29Z</time>
      </trkpt>
      <trkpt lat="44.58838" lon="6.30456">
        <ele>2012.929199</ele>
        <time>2015-10-10T12:54:33Z</time>
      </trkpt>
      <trkpt lat="44.58839" lon="6.30467">
        <ele>2013.022949</ele>
        <time>2015-10-10T12:54:37Z</time>
      </trkpt>
      <trkpt lat="44.58837" lon="6.30477">
        <ele>2012.804199</ele>
        <time>2015-10-10T12:54:41Z</time>
      </trkpt>
      <trkpt lat="44.58831" lon="6.30488">
        <ele>2012.491699</ele>
        <time>2015-10-10T12:54:45Z</time>
      </trkpt>
      <trkpt lat="44.58825" lon="6.30498">
        <ele>2014.210449</ele>
        <time>2015-10-10T12:54:49Z</time>
      </trkpt>
      <trkpt lat="44.58818" lon="6.30502">
        <ele>2015.460449</ele>
        <time>2015-10-10T12:54:53Z</time>
      </trkpt>
      <trkpt lat="44.5881" lon="6.30509">
        <ele>2016.147949</ele>
        <time>2015-10-10T12:54:57Z</time>
      </trkpt>
      <trkpt lat="44.58801" lon="6.30513">
        <ele>2019.147949</ele>
        <time>2015-10-10T12:55:01Z</time>
      </trkpt>
      <trkpt lat="44.58793" lon="6.30517">
        <ele>2021.616699</ele>
        <time>2015-10-10T12:55:05Z</time>
      </trkpt>
      <trkpt lat="44.58786" lon="6.30516">
        <ele>2024.366699</ele>
        <time>2015-10-10T12:55:09Z</time>
      </trkpt>
      <trkpt lat="44.58778" lon="6.30515">
        <ele>2026.397949</ele>
        <time>2015-10-10T12:55:13Z</time>
      </trkpt>
      <trkpt lat="44.5877" lon="6.30513">
        <ele>2028.054199</ele>
        <time>2015-10-10T12:55:17Z</time>
      </trkpt>
      <trkpt lat="44.58761" lon="6.30515">
        <ele>2029.772949</ele>
        <time>2015-10-10T12:55:21Z</time>
      </trkpt>
      <trkpt lat="44.58752" lon="6.30519">
        <ele>2030.272949</ele>
        <time>2015-10-10T12:55:25Z</time>
      </trkpt>
      <trkpt lat="44.58745" lon="6.30528">
        <ele>2031.460449</ele>
        <time>2015-10-10T12:55:29Z</time>
      </trkpt>
      <trkpt lat="44.58736" lon="6.30538">
        <ele>2033.272949</ele>
        <time>2015-10-10T12:55:33Z</time>
      </trkpt>
      <trkpt lat="44.58731" lon="6.30548">
        <ele>2033.991699</ele>
        <time>2015-10-10T12:55:37Z</time>
      </trkpt>
      <trkpt lat="44.5873" lon="6.30548">
        <ele>2033.366699</ele>
        <time>2015-10-10T12:55:41Z</time>
      </trkpt>
      <trkpt lat="44.5873" lon="6.30548">
        <ele>2033.085449</ele>
        <time>2015-10-10T12:55:45Z</time>
      </trkpt>
      <trkpt lat="44.5873" lon="6.30548">
        <ele>2033.054199</ele>
        <time>2015-10-10T12:55:49Z</time>
      </trkpt>
      <trkpt lat="44.5873" lon="6.30549">
        <ele>2032.710449</ele>
        <time>2015-10-10T12:55:53Z</time>
      </trkpt>
      <trkpt lat="44.58727" lon="6.30552">
        <ele>2032.772949</ele>
        <time>2015-10-10T12:55:57Z</time>
      </trkpt>
      <trkpt lat="44.58727" lon="6.30554">
        <ele>2033.866699</ele>
        <time>2015-10-10T12:56:01Z</time>
      </trkpt>
      <trkpt lat="44.58727" lon="6.30558">
        <ele>2034.991699</ele>
        <time>2015-10-10T12:56:05Z</time>
      </trkpt>
      <trkpt lat="44.58727" lon="6.30561">
        <ele>2035.866699</ele>
        <time>2015-10-10T12:56:09Z</time>
      </trkpt>
      <trkpt lat="44.58727" lon="6.30565">
        <ele>2036.929199</ele>
        <time>2015-10-10T12:56:13Z</time>
      </trkpt>
      <trkpt lat="44.58728" lon="6.30569">
        <ele>2037.460449</ele>
        <time>2015-10-10T12:56:17Z</time>
      </trkpt>
      <trkpt lat="44.58728" lon="6.30574">
        <ele>2038.804199</ele>
        <time>2015-10-10T12:56:21Z</time>
      </trkpt>
      <trkpt lat="44.58729" lon="6.30578">
        <ele>2039.554199</ele>
        <time>2015-10-10T12:56:25Z</time>
      </trkpt>
      <trkpt lat="44.58728" lon="6.30581">
        <ele>2040.397949</ele>
        <time>2015-10-10T12:56:29Z</time>
      </trkpt>
      <trkpt lat="44.58726" lon="6.30583">
        <ele>2040.741699</ele>
        <time>2015-10-10T12:56:33Z</time>
      </trkpt>
      <trkpt lat="44.58724" lon="6.30586">
        <ele>2041.522949</ele>
        <time>2015-10-10T12:56:37Z</time>
      </trkpt>
      <trkpt lat="44.58722" lon="6.30589">
        <ele>2042.272949</ele>
        <time>2015-10-10T12:56:41Z</time>
      </trkpt>
      <trkpt lat="44.58719" lon="6.30591">
        <ele>2042.897949</ele>
        <time>2015-10-10T12:56:45Z</time>
      </trkpt>
      <trkpt lat="44.58715" lon="6.30593">
        <ele>2043.179199</ele>
        <time>2015-10-10T12:56:49Z</time>
      </trkpt>
      <trkpt lat="44.58715" lon="6.30592">
        <ele>2042.772949</ele>
        <time>2015-10-10T12:56:53Z</time>
      </trkpt>
      <trkpt lat="44.58715" lon="6.30592">
        <ele>2042.679199</ele>
        <time>2015-10-10T12:56:57Z</time>
      </trkpt>
      <trkpt lat="44.58715" lon="6.30592">
        <ele>2043.491699</ele>
        <time>2015-10-10T12:57:01Z</time>
      </trkpt>
      <trkpt lat="44.58717" lon="6.30589">
        <ele>2043.616699</ele>
        <time>2015-10-10T12:57:05Z</time>
      </trkpt>
      <trkpt lat="44.58714" lon="6.30589">
        <ele>2043.554199</ele>
        <time>2015-10-10T12:57:09Z</time>
      </trkpt>
      <trkpt lat="44.58706" lon="6.30594">
        <ele>2044.741699</ele>
        <time>2015-10-10T12:57:13Z</time>
      </trkpt>
      <trkpt lat="44.587" lon="6.30603">
        <ele>2044.835449</ele>
        <time>2015-10-10T12:57:17Z</time>
      </trkpt>
      <trkpt lat="44.58694" lon="6.30614">
        <ele>2045.304199</ele>
        <time>2015-10-10T12:57:21Z</time>
      </trkpt>
      <trkpt lat="44.58686" lon="6.30622">
        <ele>2045.522949</ele>
        <time>2015-10-10T12:57:25Z</time>
      </trkpt>
      <trkpt lat="44.58678" lon="6.30626">
        <ele>2046.210449</ele>
        <time>2015-10-10T12:57:29Z</time>
      </trkpt>
      <trkpt lat="44.5867" lon="6.30625">
        <ele>2047.585449</ele>
        <time>2015-10-10T12:57:33Z</time>
      </trkpt>
      <trkpt lat="44.58664" lon="6.30619">
        <ele>2049.295898</ele>
        <time>2015-10-10T12:57:37Z</time>
      </trkpt>
      <trkpt lat="44.58658" lon="6.30612">
        <ele>2051.608398</ele>
        <time>2015-10-10T12:57:41Z</time>
      </trkpt>
      <trkpt lat="44.58651" lon="6.30603">
        <ele>2053.733398</ele>
        <time>2015-10-10T12:57:45Z</time>
      </trkpt>
      <trkpt lat="44.58645" lon="6.30597">
        <ele>2055.045898</ele>
        <time>2015-10-10T12:57:49Z</time>
      </trkpt>
      <trkpt lat="44.58638" lon="6.30591">
        <ele>2056.233398</ele>
        <time>2015-10-10T12:57:53Z</time>
      </trkpt>
      <trkpt lat="44.58631" lon="6.30588">
        <ele>2058.670898</ele>
        <time>2015-10-10T12:57:57Z</time>
      </trkpt>
      <trkpt lat="44.58624" lon="6.30587">
        <ele>2061.545898</ele>
        <time>2015-10-10T12:58:01Z</time>
      </trkpt>
      <trkpt lat="44.58616" lon="6.3059">
        <ele>2063.795898</ele>
        <time>2015-10-10T12:58:05Z</time>
      </trkpt>
      <trkpt lat="44.58605" lon="6.30594">
        <ele>2067.233398</ele>
        <time>2015-10-10T12:58:09Z</time>
      </trkpt>
      <trkpt lat="44.58598" lon="6.30601">
        <ele>2069.545898</ele>
        <time>2015-10-10T12:58:13Z</time>
      </trkpt>
      <trkpt lat="44.5859" lon="6.3061">
        <ele>2071.920898</ele>
        <time>2015-10-10T12:58:17Z</time>
      </trkpt>
      <trkpt lat="44.58585" lon="6.30621">
        <ele>2074.045898</ele>
        <time>2015-10-10T12:58:21Z</time>
      </trkpt>
      <trkpt lat="44.58584" lon="6.30632">
        <ele>2075.358398</ele>
        <time>2015-10-10T12:58:25Z</time>
      </trkpt>
      <trkpt lat="44.58586" lon="6.30642">
        <ele>2075.608398</ele>
        <time>2015-10-10T12:58:29Z</time>
      </trkpt>
      <trkpt lat="44.58585" lon="6.30652">
        <ele>2076.170898</ele>
        <time>2015-10-10T12:58:33Z</time>
      </trkpt>
      <trkpt lat="44.58588" lon="6.30661">
        <ele>2077.420898</ele>
        <time>2015-10-10T12:58:37Z</time>
      </trkpt>
      <trkpt lat="44.58593" lon="6.30666">
        <ele>2078.295898</ele>
        <time>2015-10-10T12:58:41Z</time>
      </trkpt>
      <trkpt lat="44.58597" lon="6.30674">
        <ele>2079.670898</ele>
        <time>2015-10-10T12:58:45Z</time>
      </trkpt>
      <trkpt lat="44.58601" lon="6.3068">
        <ele>2079.170898</ele>
        <time>2015-10-10T12:58:49Z</time>
      </trkpt>
      <trkpt lat="44.58605" lon="6.30688">
        <ele>2079.920898</ele>
        <time>2015-10-10T12:58:53Z</time>
      </trkpt>
      <trkpt lat="44.5861" lon="6.30696">
        <ele>2079.983398</ele>
        <time>2015-10-10T12:58:57Z</time>
      </trkpt>
      <trkpt lat="44.58613" lon="6.30704">
        <ele>2080.483398</ele>
        <time>2015-10-10T12:59:01Z</time>
      </trkpt>
      <trkpt lat="44.58616" lon="6.30712">
        <ele>2080.545898</ele>
        <time>2015-10-10T12:59:05Z</time>
      </trkpt>
      <trkpt lat="44.5862" lon="6.30721">
        <ele>2080.670898</ele>
        <time>2015-10-10T12:59:09Z</time>
      </trkpt>
      <trkpt lat="44.58623" lon="6.30731">
        <ele>2080.483398</ele>
        <time>2015-10-10T12:59:13Z</time>
      </trkpt>
      <trkpt lat="44.58625" lon="6.30741">
        <ele>2080.608398</ele>
        <time>2015-10-10T12:59:17Z</time>
      </trkpt>
      <trkpt lat="44.58632" lon="6.30748">
        <ele>2080.920898</ele>
        <time>2015-10-10T12:59:21Z</time>
      </trkpt>
      <trkpt lat="44.58637" lon="6.30753">
        <ele>2081.295898</ele>
        <time>2015-10-10T12:59:25Z</time>
      </trkpt>
      <trkpt lat="44.58643" lon="6.30758">
        <ele>2081.608398</ele>
        <time>2015-10-10T12:59:29Z</time>
      </trkpt>
      <trkpt lat="44.5865" lon="6.30761">
        <ele>2081.983398</ele>
        <time>2015-10-10T12:59:33Z</time>
      </trkpt>
      <trkpt lat="44.58658" lon="6.30759">
        <ele>2082.233398</ele>
        <time>2015-10-10T12:59:37Z</time>
      </trkpt>
      <trkpt lat="44.58667" lon="6.30754">
        <ele>2082.608398</ele>
        <time>2015-10-10T12:59:41Z</time>
      </trkpt>
      <trkpt lat="44.58675" lon="6.30751">
        <ele>2082.233398</ele>
        <time>2015-10-10T12:59:45Z</time>
      </trkpt>
      <trkpt lat="44.58685" lon="6.30749">
        <ele>2082.733398</ele>
        <time>2015-10-10T12:59:49Z</time>
      </trkpt>
      <trkpt lat="44.58694" lon="6.30747">
        <ele>2084.295898</ele>
        <time>2015-10-10T12:59:53Z</time>
      </trkpt>
      <trkpt lat="44.58698" lon="6.30748">
        <ele>2084.795898</ele>
        <time>2015-10-10T12:59:57Z</time>
      </trkpt>
      <trkpt lat="44.58699" lon="6.30748">
        <ele>2083.608398</ele>
        <time>2015-10-10T13:00:01Z</time>
      </trkpt>
      <trkpt lat="44.58699" lon="6.30748">
        <ele>2083.420898</ele>
        <time>2015-10-10T13:00:05Z</time>
      </trkpt>
      <trkpt lat="44.58699" lon="6.30748">
        <ele>2083.420898</ele>
        <time>2015-10-10T13:00:09Z</time>
      </trkpt>
      <trkpt lat="44.587" lon="6.30749">
        <ele>2082.858398</ele>
        <time>2015-10-10T13:00:13Z</time>
      </trkpt>
      <trkpt lat="44.58702" lon="6.30749">
        <ele>2082.858398</ele>
        <time>2015-10-10T13:00:17Z</time>
      </trkpt>
      <trkpt lat="44.58704" lon="6.3075">
        <ele>2082.920898</ele>
        <time>2015-10-10T13:00:21Z</time>
      </trkpt>
      <trkpt lat="44.58707" lon="6.30751">
        <ele>2082.795898</ele>
        <time>2015-10-10T13:00:25Z</time>
      </trkpt>
      <trkpt lat="44.58708" lon="6.30751">
        <ele>2082.483398</ele>
        <time>2015-10-10T13:00:29Z</time>
      </trkpt>
      <trkpt lat="44.58709" lon="6.30754">
        <ele>2081.983398</ele>
        <time>2015-10-10T13:00:33Z</time>
      </trkpt>
      <trkpt lat="44.58709" lon="6.30758">
        <ele>2080.483398</ele>
        <time>2015-10-10T13:00:37Z</time>
      </trkpt>
      <trkpt lat="44.58711" lon="6.30763">
        <ele>2081.045898</ele>
        <time>2015-10-10T13:00:41Z</time>
      </trkpt>
      <trkpt lat="44.58711" lon="6.30767">
        <ele>2082.670898</ele>
        <time>2015-10-10T13:00:45Z</time>
      </trkpt>
      <trkpt lat="44.58713" lon="6.30772">
        <ele>2084.170898</ele>
        <time>2015-10-10T13:00:49Z</time>
      </trkpt>
      <trkpt lat="44.58714" lon="6.30776">
        <ele>2085.795898</ele>
        <time>2015-10-10T13:00:53Z</time>
      </trkpt>
      <trkpt lat="44.58713" lon="6.30781">
        <ele>2087.295898</ele>
        <time>2015-10-10T13:00:57Z</time>
      </trkpt>
      <trkpt lat="44.58714" lon="6.30784">
        <ele>2088.545898</ele>
        <time>2015-10-10T13:01:01Z</time>
      </trkpt>
      <trkpt lat="44.58714" lon="6.30785">
        <ele>2089.545898</ele>
        <time>2015-10-10T13:01:05Z</time>
      </trkpt>
      <trkpt lat="44.58714" lon="6.30785">
        <ele>2089.545898</ele>
        <time>2015-10-10T13:01:09Z</time>
      </trkpt>
      <trkpt lat="44.58714" lon="6.30785">
        <ele>2089.608398</ele>
        <time>2015-10-10T13:01:13Z</time>
      </trkpt>
      <trkpt lat="44.58714" lon="6.30785">
        <ele>2090.670898</ele>
        <time>2015-10-10T13:01:17Z</time>
      </trkpt>
      <trkpt lat="44.58715" lon="6.30786">
        <ele>2091.045898</ele>
        <time>2015-10-10T13:01:21Z</time>
      </trkpt>
      <trkpt lat="44.58716" lon="6.30788">
        <ele>2091.295898</ele>
        <time>2015-10-10T13:01:25Z</time>
      </trkpt>
      <trkpt lat="44.58716" lon="6.3079">
        <ele>2091.920898</ele>
        <time>2015-10-10T13:01:29Z</time>
      </trkpt>
      <trkpt lat="44.58718" lon="6.30792">
        <ele>2092.420898</ele>
        <time>2015-10-10T13:01:33Z</time>
      </trkpt>
      <trkpt lat="44.5872" lon="6.30794">
        <ele>2092.670898</ele>
        <time>2015-10-10T13:01:37Z</time>
      </trkpt>
      <trkpt lat="44.5872" lon="6.30794">
        <ele>2092.983398</ele>
        <time>2015-10-10T13:01:41Z</time>
      </trkpt>
      <trkpt lat="44.58722" lon="6.30795">
        <ele>2092.858398</ele>
        <time>2015-10-10T13:01:45Z</time>
      </trkpt>
      <trkpt lat="44.58723" lon="6.30797">
        <ele>2093.545898</ele>
        <time>2015-10-10T13:01:49Z</time>
      </trkpt>
      <trkpt lat="44.58724" lon="6.308">
        <ele>2093.920898</ele>
        <time>2015-10-10T13:01:53Z</time>
      </trkpt>
      <trkpt lat="44.58726" lon="6.30804">
        <ele>2095.170898</ele>
        <time>2015-10-10T13:01:57Z</time>
      </trkpt>
      <trkpt lat="44.5873" lon="6.30808">
        <ele>2097.795898</ele>
        <time>2015-10-10T13:02:01Z</time>
      </trkpt>
      <trkpt lat="44.58733" lon="6.30811">
        <ele>2099.733398</ele>
        <time>2015-10-10T13:02:05Z</time>
      </trkpt>
      <trkpt lat="44.58734" lon="6.30813">
        <ele>2100.420898</ele>
        <time>2015-10-10T13:02:09Z</time>
      </trkpt>
      <trkpt lat="44.58737" lon="6.30814">
        <ele>2099.233398</ele>
        <time>2015-10-10T13:02:13Z</time>
      </trkpt>
      <trkpt lat="44.58737" lon="6.30813">
        <ele>2100.358398</ele>
        <time>2015-10-10T13:02:17Z</time>
      </trkpt>
      <trkpt lat="44.58737" lon="6.30813">
        <ele>2101.170898</ele>
        <time>2015-10-10T13:02:21Z</time>
      </trkpt>
      <trkpt lat="44.58737" lon="6.30813">
        <ele>2101.420898</ele>
        <time>2015-10-10T13:02:25Z</time>
      </trkpt>
      <trkpt lat="44.58737" lon="6.30813">
        <ele>2101.733398</ele>
        <time>2015-10-10T13:02:29Z</time>
      </trkpt>
      <trkpt lat="44.58737" lon="6.30813">
        <ele>2101.920898</ele>
        <time>2015-10-10T13:02:33Z</time>
      </trkpt>
      <trkpt lat="44.58738" lon="6.30813">
        <ele>2100.858398</ele>
        <time>2015-10-10T13:02:37Z</time>
      </trkpt>
      <trkpt lat="44.5874" lon="6.30815">
        <ele>2100.608398</ele>
        <time>2015-10-10T13:02:41Z</time>
      </trkpt>
      <trkpt lat="44.58742" lon="6.30816">
        <ele>2100.795898</ele>
        <time>2015-10-10T13:02:45Z</time>
      </trkpt>
      <trkpt lat="44.58744" lon="6.30817">
        <ele>2101.233398</ele>
        <time>2015-10-10T13:02:49Z</time>
      </trkpt>
      <trkpt lat="44.58747" lon="6.30818">
        <ele>2101.670898</ele>
        <time>2015-10-10T13:02:53Z</time>
      </trkpt>
      <trkpt lat="44.58749" lon="6.30819">
        <ele>2101.733398</ele>
        <time>2015-10-10T13:02:57Z</time>
      </trkpt>
      <trkpt lat="44.58751" lon="6.30821">
        <ele>2102.170898</ele>
        <time>2015-10-10T13:03:01Z</time>
      </trkpt>
      <trkpt lat="44.58753" lon="6.30822">
        <ele>2102.858398</ele>
        <time>2015-10-10T13:03:05Z</time>
      </trkpt>
      <trkpt lat="44.58755" lon="6.30823">
        <ele>2103.670898</ele>
        <time>2015-10-10T13:03:09Z</time>
      </trkpt>
      <trkpt lat="44.58756" lon="6.30825">
        <ele>2102.670898</ele>
        <time>2015-10-10T13:03:13Z</time>
      </trkpt>
      <trkpt lat="44.58758" lon="6.30826">
        <ele>2103.483398</ele>
        <time>2015-10-10T13:03:17Z</time>
      </trkpt>
      <trkpt lat="44.58761" lon="6.30826">
        <ele>2104.233398</ele>
        <time>2015-10-10T13:03:21Z</time>
      </trkpt>
      <trkpt lat="44.58763" lon="6.30825">
        <ele>2105.545898</ele>
        <time>2015-10-10T13:03:25Z</time>
      </trkpt>
      <trkpt lat="44.58766" lon="6.30826">
        <ele>2106.858398</ele>
        <time>2015-10-10T13:03:29Z</time>
      </trkpt>
      <trkpt lat="44.58769" lon="6.30826">
        <ele>2107.795898</ele>
        <time>2015-10-10T13:03:33Z</time>
      </trkpt>
      <trkpt lat="44.5877" lon="6.30825">
        <ele>2110.108398</ele>
        <time>2015-10-10T13:03:37Z</time>
      </trkpt>
      <trkpt lat="44.58773" lon="6.30826">
        <ele>2111.795898</ele>
        <time>2015-10-10T13:03:41Z</time>
      </trkpt>
      <trkpt lat="44.58777" lon="6.30826">
        <ele>2111.733398</ele>
        <time>2015-10-10T13:03:45Z</time>
      </trkpt>
      <trkpt lat="44.58779" lon="6.30826">
        <ele>2114.170898</ele>
        <time>2015-10-10T13:03:49Z</time>
      </trkpt>
      <trkpt lat="44.58781" lon="6.30827">
        <ele>2114.670898</ele>
        <time>2015-10-10T13:03:53Z</time>
      </trkpt>
      <trkpt lat="44.58783" lon="6.30827">
        <ele>2114.670898</ele>
        <time>2015-10-10T13:03:57Z</time>
      </trkpt>
      <trkpt lat="44.58786" lon="6.30828">
        <ele>2115.733398</ele>
        <time>2015-10-10T13:04:01Z</time>
      </trkpt>
      <trkpt lat="44.58789" lon="6.30828">
        <ele>2117.483398</ele>
        <time>2015-10-10T13:04:05Z</time>
      </trkpt>
      <trkpt lat="44.58792" lon="6.30828">
        <ele>2116.733398</ele>
        <time>2015-10-10T13:04:09Z</time>
      </trkpt>
      <trkpt lat="44.58795" lon="6.30829">
        <ele>2118.108398</ele>
        <time>2015-10-10T13:04:13Z</time>
      </trkpt>
      <trkpt lat="44.58798" lon="6.30828">
        <ele>2119.295898</ele>
        <time>2015-10-10T13:04:17Z</time>
      </trkpt>
      <trkpt lat="44.58799" lon="6.30824">
        <ele>2123.420898</ele>
        <time>2015-10-10T13:04:21Z</time>
      </trkpt>
      <trkpt lat="44.58799" lon="6.30823">
        <ele>2124.983398</ele>
        <time>2015-10-10T13:04:25Z</time>
      </trkpt>
      <trkpt lat="44.58799" lon="6.30823">
        <ele>2125.295898</ele>
        <time>2015-10-10T13:04:29Z</time>
      </trkpt>
      <trkpt lat="44.58799" lon="6.30823">
        <ele>2125.545898</ele>
        <time>2015-10-10T13:04:33Z</time>
      </trkpt>
      <trkpt lat="44.58799" lon="6.30823">
        <ele>2125.795898</ele>
        <time>2015-10-10T13:04:37Z</time>
      </trkpt>
      <trkpt lat="44.58799" lon="6.30823">
        <ele>2125.920898</ele>
        <time>2015-10-10T13:04:41Z</time>
      </trkpt>
      <trkpt lat="44.58799" lon="6.30824">
        <ele>2125.983398</ele>
        <time>2015-10-10T13:04:45Z</time>
      </trkpt>
      <trkpt lat="44.58799" lon="6.30825">
        <ele>2126.608398</ele>
        <time>2015-10-10T13:04:49Z</time>
      </trkpt>
      <trkpt lat="44.58799" lon="6.30825">
        <ele>2126.608398</ele>
        <time>2015-10-10T13:04:53Z</time>
      </trkpt>
      <trkpt lat="44.58799" lon="6.30825">
        <ele>2126.608398</ele>
        <time>2015-10-10T13:04:57Z</time>
      </trkpt>
      <trkpt lat="44.58799" lon="6.30825">
        <ele>2126.608398</ele>
        <time>2015-10-10T13:05:01Z</time>
      </trkpt>
      <trkpt lat="44.58799" lon="6.30825">
        <ele>2126.608398</ele>
        <time>2015-10-10T13:05:05Z</time>
      </trkpt>
      <trkpt lat="44.58799" lon="6.30825">
        <ele>2126.608398</ele>
        <time>2015-10-10T13:05:09Z</time>
      </trkpt>
      <trkpt lat="44.58799" lon="6.30825">
        <ele>2126.670898</ele>
        <time>2015-10-10T13:05:13Z</time>
      </trkpt>
      <trkpt lat="44.58799" lon="6.30825">
        <ele>2126.670898</ele>
        <time>2015-10-10T13:05:17Z</time>
      </trkpt>
      <trkpt lat="44.58799" lon="6.30825">
        <ele>2126.670898</ele>
        <time>2015-10-10T13:05:21Z</time>
      </trkpt>
      <trkpt lat="44.58799" lon="6.30825">
        <ele>2126.670898</ele>
        <time>2015-10-10T13:05:25Z</time>
      </trkpt>
      <trkpt lat="44.58799" lon="6.30825">
        <ele>2126.670898</ele>
        <time>2015-10-10T13:05:29Z</time>
      </trkpt>
      <trkpt lat="44.58799" lon="6.30825">
        <ele>2126.733398</ele>
        <time>2015-10-10T13:05:33Z</time>
      </trkpt>
      <trkpt lat="44.58799" lon="6.30825">
        <ele>2126.733398</ele>
        <time>2015-10-10T13:05:37Z</time>
      </trkpt>
      <trkpt lat="44.58799" lon="6.30825">
        <ele>2126.733398</ele>
        <time>2015-10-10T13:05:41Z</time>
      </trkpt>
      <trkpt lat="44.58799" lon="6.30825">
        <ele>2126.733398</ele>
        <time>2015-10-10T13:05:45Z</time>
      </trkpt>
      <trkpt lat="44.58798" lon="6.30825">
        <ele>2126.733398</ele>
        <time>2015-10-10T13:05:49Z</time>
      </trkpt>
      <trkpt lat="44.58798" lon="6.30823">
        <ele>2127.295898</ele>
        <time>2015-10-10T13:05:53Z</time>
      </trkpt>
      <trkpt lat="44.58798" lon="6.30822">
        <ele>2128.108398</ele>
        <time>2015-10-10T13:05:57Z</time>
      </trkpt>
      <trkpt lat="44.58796" lon="6.30826">
        <ele>2129.483398</ele>
        <time>2015-10-10T13:06:01Z</time>
      </trkpt>
      <trkpt lat="44.58795" lon="6.30829">
        <ele>2129.983398</ele>
        <time>2015-10-10T13:06:05Z</time>
      </trkpt>
      <trkpt lat="44.58796" lon="6.30831">
        <ele>2129.983398</ele>
        <time>2015-10-10T13:06:09Z</time>
      </trkpt>
      <trkpt lat="44.588" lon="6.30834">
        <ele>2129.358398</ele>
        <time>2015-10-10T13:06:13Z</time>
      </trkpt>
      <trkpt lat="44.58802" lon="6.30841">
        <ele>2129.795898</ele>
        <time>2015-10-10T13:06:17Z</time>
      </trkpt>
      <trkpt lat="44.58804" lon="6.30847">
        <ele>2130.108398</ele>
        <time>2015-10-10T13:06:21Z</time>
      </trkpt>
      <trkpt lat="44.58804" lon="6.30854">
        <ele>2130.920898</ele>
        <time>2015-10-10T13:06:25Z</time>
      </trkpt>
      <trkpt lat="44.588" lon="6.30858">
        <ele>2132.045898</ele>
        <time>2015-10-10T13:06:29Z</time>
      </trkpt>
      <trkpt lat="44.58799" lon="6.30856">
        <ele>2133.670898</ele>
        <time>2015-10-10T13:06:33Z</time>
      </trkpt>
      <trkpt lat="44.588" lon="6.30857">
        <ele>2133.670898</ele>
        <time>2015-10-10T13:06:37Z</time>
      </trkpt>
      <trkpt lat="44.58801" lon="6.30857">
        <ele>2133.920898</ele>
        <time>2015-10-10T13:06:41Z</time>
      </trkpt>
      <trkpt lat="44.58801" lon="6.30857">
        <ele>2134.045898</ele>
        <time>2015-10-10T13:06:45Z</time>
      </trkpt>
      <trkpt lat="44.58801" lon="6.30858">
        <ele>2134.045898</ele>
        <time>2015-10-10T13:06:49Z</time>
      </trkpt>
      <trkpt lat="44.58801" lon="6.30859">
        <ele>2134.233398</ele>
        <time>2015-10-10T13:06:53Z</time>
      </trkpt>
      <trkpt lat="44.58801" lon="6.30858">
        <ele>2135.295898</ele>
        <time>2015-10-10T13:06:57Z</time>
      </trkpt>
      <trkpt lat="44.588" lon="6.30859">
        <ele>2135.170898</ele>
        <time>2015-10-10T13:07:01Z</time>
      </trkpt>
      <trkpt lat="44.588" lon="6.30859">
        <ele>2135.358398</ele>
        <time>2015-10-10T13:07:05Z</time>
      </trkpt>
      <trkpt lat="44.58799" lon="6.30859">
        <ele>2135.608398</ele>
        <time>2015-10-10T13:07:09Z</time>
      </trkpt>
      <trkpt lat="44.58799" lon="6.30859">
        <ele>2135.733398</ele>
        <time>2015-10-10T13:07:13Z</time>
      </trkpt>
      <trkpt lat="44.58799" lon="6.30859">
        <ele>2135.733398</ele>
        <time>2015-10-10T13:07:17Z</time>
      </trkpt>
      <trkpt lat="44.58799" lon="6.30859">
        <ele>2135.733398</ele>
        <time>2015-10-10T13:07:21Z</time>
      </trkpt>
      <trkpt lat="44.58799" lon="6.30859">
        <ele>2135.733398</ele>
        <time>2015-10-10T13:07:25Z</time>
      </trkpt>
      <trkpt lat="44.58799" lon="6.30859">
        <ele>2135.795898</ele>
        <time>2015-10-10T13:07:29Z</time>
      </trkpt>
      <trkpt lat="44.58799" lon="6.30859">
        <ele>2135.795898</ele>
        <time>2015-10-10T13:07:33Z</time>
      </trkpt>
      <trkpt lat="44.58799" lon="6.30859">
        <ele>2135.795898</ele>
        <time>2015-10-10T13:07:37Z</time>
      </trkpt>
      <trkpt lat="44.58799" lon="6.30859">
        <ele>2135.795898</ele>
        <time>2015-10-10T13:07:41Z</time>
      </trkpt>
      <trkpt lat="44.58799" lon="6.30859">
        <ele>2135.795898</ele>
        <time>2015-10-10T13:07:45Z</time>
      </trkpt>
      <trkpt lat="44.58799" lon="6.30858">
        <ele>2135.795898</ele>
        <time>2015-10-10T13:07:49Z</time>
      </trkpt>
      <trkpt lat="44.58799" lon="6.30858">
        <ele>2135.920898</ele>
        <time>2015-10-10T13:07:53Z</time>
      </trkpt>
      <trkpt lat="44.58798" lon="6.30864">
        <ele>2136.608398</ele>
        <time>2015-10-10T13:07:57Z</time>
      </trkpt>
      <trkpt lat="44.58796" lon="6.30865">
        <ele>2137.733398</ele>
        <time>2015-10-10T13:08:01Z</time>
      </trkpt>
      <trkpt lat="44.58796" lon="6.30864">
        <ele>2138.233398</ele>
        <time>2015-10-10T13:08:05Z</time>
      </trkpt>
      <trkpt lat="44.58797" lon="6.30864">
        <ele>2138.483398</ele>
        <time>2015-10-10T13:08:09Z</time>
      </trkpt>
      <trkpt lat="44.58797" lon="6.30865">
        <ele>2138.608398</ele>
        <time>2015-10-10T13:08:13Z</time>
      </trkpt>
      <trkpt lat="44.58797" lon="6.30865">
        <ele>2138.670898</ele>
        <time>2015-10-10T13:08:17Z</time>
      </trkpt>
      <trkpt lat="44.58797" lon="6.30865">
        <ele>2138.670898</ele>
        <time>2015-10-10T13:08:21Z</time>
      </trkpt>
      <trkpt lat="44.58797" lon="6.30865">
        <ele>2138.670898</ele>
        <time>2015-10-10T13:08:25Z</time>
      </trkpt>
      <trkpt lat="44.58797" lon="6.30865">
        <ele>2138.670898</ele>
        <time>2015-10-10T13:08:29Z</time>
      </trkpt>
      <trkpt lat="44.58797" lon="6.30865">
        <ele>2138.670898</ele>
        <time>2015-10-10T13:08:33Z</time>
      </trkpt>
      <trkpt lat="44.58796" lon="6.30865">
        <ele>2138.670898</ele>
        <time>2015-10-10T13:08:37Z</time>
      </trkpt>
      <trkpt lat="44.58796" lon="6.30865">
        <ele>2138.670898</ele>
        <time>2015-10-10T13:08:41Z</time>
      </trkpt>
      <trkpt lat="44.58796" lon="6.30865">
        <ele>2138.608398</ele>
        <time>2015-10-10T13:08:45Z</time>
      </trkpt>
      <trkpt lat="44.58796" lon="6.30865">
        <ele>2138.608398</ele>
        <time>2015-10-10T13:08:49Z</time>
      </trkpt>
      <trkpt lat="44.58796" lon="6.30865">
        <ele>2138.608398</ele>
        <time>2015-10-10T13:08:53Z</time>
      </trkpt>
      <trkpt lat="44.58796" lon="6.30865">
        <ele>2138.608398</ele>
        <time>2015-10-10T13:08:57Z</time>
      </trkpt>
      <trkpt lat="44.58796" lon="6.30865">
        <ele>2138.545898</ele>
        <time>2015-10-10T13:09:01Z</time>
      </trkpt>
      <trkpt lat="44.58796" lon="6.30865">
        <ele>2138.545898</ele>
        <time>2015-10-10T13:09:05Z</time>
      </trkpt>
      <trkpt lat="44.58796" lon="6.30865">
        <ele>2138.545898</ele>
        <time>2015-10-10T13:09:09Z</time>
      </trkpt>
      <trkpt lat="44.58796" lon="6.30865">
        <ele>2138.545898</ele>
        <time>2015-10-10T13:09:13Z</time>
      </trkpt>
      <trkpt lat="44.58796" lon="6.30865">
        <ele>2138.545898</ele>
        <time>2015-10-10T13:09:17Z</time>
      </trkpt>
      <trkpt lat="44.58796" lon="6.30865">
        <ele>2138.545898</ele>
        <time>2015-10-10T13:09:21Z</time>
      </trkpt>
      <trkpt lat="44.58796" lon="6.30865">
        <ele>2138.545898</ele>
        <time>2015-10-10T13:09:25Z</time>
      </trkpt>
      <trkpt lat="44.58796" lon="6.30865">
        <ele>2138.545898</ele>
        <time>2015-10-10T13:09:29Z</time>
      </trkpt>
      <trkpt lat="44.58796" lon="6.30865">
        <ele>2138.483398</ele>
        <time>2015-10-10T13:09:33Z</time>
      </trkpt>
      <trkpt lat="44.58796" lon="6.30865">
        <ele>2138.483398</ele>
        <time>2015-10-10T13:09:37Z</time>
      </trkpt>
      <trkpt lat="44.58796" lon="6.30865">
        <ele>2138.420898</ele>
        <time>2015-10-10T13:09:41Z</time>
      </trkpt>
      <trkpt lat="44.58796" lon="6.30865">
        <ele>2138.420898</ele>
        <time>2015-10-10T13:09:45Z</time>
      </trkpt>
      <trkpt lat="44.58796" lon="6.30864">
        <ele>2138.420898</ele>
        <time>2015-10-10T13:09:49Z</time>
      </trkpt>
      <trkpt lat="44.58796" lon="6.30864">
        <ele>2138.358398</ele>
        <time>2015-10-10T13:09:53Z</time>
      </trkpt>
      <trkpt lat="44.58796" lon="6.30864">
        <ele>2138.358398</ele>
        <time>2015-10-10T13:09:57Z</time>
      </trkpt>
      <trkpt lat="44.58796" lon="6.30864">
        <ele>2138.295898</ele>
        <time>2015-10-10T13:10:01Z</time>
      </trkpt>
      <trkpt lat="44.58796" lon="6.30864">
        <ele>2138.295898</ele>
        <time>2015-10-10T13:10:05Z</time>
      </trkpt>
      <trkpt lat="44.58796" lon="6.30864">
        <ele>2138.295898</ele>
        <time>2015-10-10T13:10:09Z</time>
      </trkpt>
      <trkpt lat="44.58796" lon="6.30864">
        <ele>2138.233398</ele>
        <time>2015-10-10T13:10:13Z</time>
      </trkpt>
      <trkpt lat="44.58796" lon="6.30864">
        <ele>2138.233398</ele>
        <time>2015-10-10T13:10:17Z</time>
      </trkpt>
      <trkpt lat="44.58796" lon="6.30864">
        <ele>2138.170898</ele>
        <time>2015-10-10T13:10:21Z</time>
      </trkpt>
      <trkpt lat="44.58796" lon="6.30864">
        <ele>2138.170898</ele>
        <time>2015-10-10T13:10:25Z</time>
      </trkpt>
      <trkpt lat="44.58796" lon="6.30864">
        <ele>2138.170898</ele>
        <time>2015-10-10T13:10:29Z</time>
      </trkpt>
      <trkpt lat="44.58797" lon="6.30864">
        <ele>2138.108398</ele>
        <time>2015-10-10T13:10:33Z</time>
      </trkpt>
      <trkpt lat="44.58797" lon="6.30864">
        <ele>2138.108398</ele>
        <time>2015-10-10T13:10:37Z</time>
      </trkpt>
      <trkpt lat="44.58796" lon="6.30864">
        <ele>2138.108398</ele>
        <time>2015-10-10T13:10:41Z</time>
      </trkpt>
      <trkpt lat="44.58796" lon="6.30864">
        <ele>2138.108398</ele>
        <time>2015-10-10T13:10:45Z</time>
      </trkpt>
      <trkpt lat="44.58796" lon="6.30864">
        <ele>2138.108398</ele>
        <time>2015-10-10T13:10:49Z</time>
      </trkpt>
      <trkpt lat="44.58797" lon="6.30864">
        <ele>2138.108398</ele>
        <time>2015-10-10T13:10:53Z</time>
      </trkpt>
      <trkpt lat="44.58797" lon="6.30864">
        <ele>2138.108398</ele>
        <time>2015-10-10T13:10:57Z</time>
      </trkpt>
      <trkpt lat="44.58797" lon="6.30864">
        <ele>2138.045898</ele>
        <time>2015-10-10T13:11:01Z</time>
      </trkpt>
      <trkpt lat="44.58797" lon="6.30864">
        <ele>2138.045898</ele>
        <time>2015-10-10T13:11:05Z</time>
      </trkpt>
      <trkpt lat="44.58797" lon="6.30864">
        <ele>2138.045898</ele>
        <time>2015-10-10T13:11:09Z</time>
      </trkpt>
      <trkpt lat="44.58797" lon="6.30864">
        <ele>2138.045898</ele>
        <time>2015-10-10T13:11:13Z</time>
      </trkpt>
      <trkpt lat="44.58797" lon="6.30864">
        <ele>2138.045898</ele>
        <time>2015-10-10T13:11:17Z</time>
      </trkpt>
      <trkpt lat="44.58797" lon="6.30864">
        <ele>2138.045898</ele>
        <time>2015-10-10T13:11:21Z</time>
      </trkpt>
      <trkpt lat="44.58797" lon="6.30864">
        <ele>2137.983398</ele>
        <time>2015-10-10T13:11:25Z</time>
      </trkpt>
      <trkpt lat="44.58797" lon="6.30864">
        <ele>2137.983398</ele>
        <time>2015-10-10T13:11:29Z</time>
      </trkpt>
      <trkpt lat="44.58797" lon="6.30864">
        <ele>2137.983398</ele>
        <time>2015-10-10T13:11:33Z</time>
      </trkpt>
      <trkpt lat="44.58797" lon="6.30864">
        <ele>2137.983398</ele>
        <time>2015-10-10T13:11:37Z</time>
      </trkpt>
      <trkpt lat="44.58797" lon="6.30864">
        <ele>2137.983398</ele>
        <time>2015-10-10T13:11:41Z</time>
      </trkpt>
      <trkpt lat="44.58797" lon="6.30864">
        <ele>2137.983398</ele>
        <time>2015-10-10T13:11:45Z</time>
      </trkpt>
      <trkpt lat="44.58797" lon="6.30864">
        <ele>2137.983398</ele>
        <time>2015-10-10T13:11:49Z</time>
      </trkpt>
      <trkpt lat="44.58796" lon="6.30864">
        <ele>2137.983398</ele>
        <time>2015-10-10T13:11:53Z</time>
      </trkpt>
      <trkpt lat="44.58796" lon="6.30864">
        <ele>2137.983398</ele>
        <time>2015-10-10T13:11:57Z</time>
      </trkpt>
      <trkpt lat="44.58796" lon="6.30864">
        <ele>2137.920898</ele>
        <time>2015-10-10T13:12:01Z</time>
      </trkpt>
      <trkpt lat="44.58796" lon="6.30864">
        <ele>2137.920898</ele>
        <time>2015-10-10T13:12:05Z</time>
      </trkpt>
      <trkpt lat="44.58796" lon="6.30864">
        <ele>2137.920898</ele>
        <time>2015-10-10T13:12:09Z</time>
      </trkpt>
      <trkpt lat="44.58796" lon="6.30864">
        <ele>2137.920898</ele>
        <time>2015-10-10T13:12:13Z</time>
      </trkpt>
      <trkpt lat="44.58796" lon="6.30864">
        <ele>2137.920898</ele>
        <time>2015-10-10T13:12:17Z</time>
      </trkpt>
      <trkpt lat="44.58796" lon="6.30864">
        <ele>2137.920898</ele>
        <time>2015-10-10T13:12:21Z</time>
      </trkpt>
      <trkpt lat="44.58796" lon="6.30864">
        <ele>2137.920898</ele>
        <time>2015-10-10T13:12:25Z</time>
      </trkpt>
      <trkpt lat="44.58796" lon="6.30864">
        <ele>2137.920898</ele>
        <time>2015-10-10T13:12:29Z</time>
      </trkpt>
      <trkpt lat="44.58796" lon="6.30864">
        <ele>2137.920898</ele>
        <time>2015-10-10T13:12:33Z</time>
      </trkpt>
      <trkpt lat="44.58796" lon="6.30864">
        <ele>2137.920898</ele>
        <time>2015-10-10T13:12:37Z</time>
      </trkpt>
      <trkpt lat="44.58796" lon="6.30864">
        <ele>2137.920898</ele>
        <time>2015-10-10T13:12:41Z</time>
      </trkpt>
      <trkpt lat="44.58796" lon="6.30864">
        <ele>2137.920898</ele>
        <time>2015-10-10T13:12:45Z</time>
      </trkpt>
      <trkpt lat="44.58796" lon="6.30864">
        <ele>2137.858398</ele>
        <time>2015-10-10T13:12:49Z</time>
      </trkpt>
      <trkpt lat="44.58796" lon="6.30864">
        <ele>2137.858398</ele>
        <time>2015-10-10T13:12:53Z</time>
      </trkpt>
      <trkpt lat="44.58796" lon="6.30864">
        <ele>2137.858398</ele>
        <time>2015-10-10T13:12:57Z</time>
      </trkpt>
      <trkpt lat="44.58796" lon="6.30864">
        <ele>2137.858398</ele>
        <time>2015-10-10T13:13:01Z</time>
      </trkpt>
      <trkpt lat="44.58796" lon="6.30864">
        <ele>2137.858398</ele>
        <time>2015-10-10T13:13:05Z</time>
      </trkpt>
      <trkpt lat="44.58796" lon="6.30864">
        <ele>2137.858398</ele>
        <time>2015-10-10T13:13:09Z</time>
      </trkpt>
      <trkpt lat="44.58796" lon="6.30864">
        <ele>2137.795898</ele>
        <time>2015-10-10T13:13:13Z</time>
      </trkpt>
      <trkpt lat="44.58796" lon="6.30864">
        <ele>2137.795898</ele>
        <time>2015-10-10T13:13:17Z</time>
      </trkpt>
      <trkpt lat="44.58796" lon="6.30864">
        <ele>2137.733398</ele>
        <time>2015-10-10T13:13:21Z</time>
      </trkpt>
      <trkpt lat="44.58796" lon="6.30864">
        <ele>2137.670898</ele>
        <time>2015-10-10T13:13:25Z</time>
      </trkpt>
      <trkpt lat="44.58796" lon="6.30864">
        <ele>2137.670898</ele>
        <time>2015-10-10T13:13:29Z</time>
      </trkpt>
      <trkpt lat="44.58797" lon="6.30864">
        <ele>2137.608398</ele>
        <time>2015-10-10T13:13:33Z</time>
      </trkpt>
      <trkpt lat="44.58797" lon="6.30864">
        <ele>2137.608398</ele>
        <time>2015-10-10T13:13:37Z</time>
      </trkpt>
      <trkpt lat="44.58797" lon="6.30864">
        <ele>2137.608398</ele>
        <time>2015-10-10T13:13:41Z</time>
      </trkpt>
      <trkpt lat="44.58797" lon="6.30864">
        <ele>2137.545898</ele>
        <time>2015-10-10T13:13:45Z</time>
      </trkpt>
      <trkpt lat="44.58797" lon="6.30864">
        <ele>2137.545898</ele>
        <time>2015-10-10T13:13:49Z</time>
      </trkpt>
      <trkpt lat="44.58797" lon="6.30864">
        <ele>2137.483398</ele>
        <time>2015-10-10T13:13:53Z</time>
      </trkpt>
      <trkpt lat="44.58797" lon="6.30864">
        <ele>2137.483398</ele>
        <time>2015-10-10T13:13:57Z</time>
      </trkpt>
      <trkpt lat="44.58797" lon="6.30864">
        <ele>2137.483398</ele>
        <time>2015-10-10T13:14:01Z</time>
      </trkpt>
      <trkpt lat="44.58797" lon="6.30864">
        <ele>2137.420898</ele>
        <time>2015-10-10T13:14:05Z</time>
      </trkpt>
      <trkpt lat="44.58797" lon="6.30864">
        <ele>2137.420898</ele>
        <time>2015-10-10T13:14:09Z</time>
      </trkpt>
      <trkpt lat="44.58797" lon="6.30864">
        <ele>2137.420898</ele>
        <time>2015-10-10T13:14:13Z</time>
      </trkpt>
      <trkpt lat="44.58797" lon="6.30864">
        <ele>2137.420898</ele>
        <time>2015-10-10T13:14:17Z</time>
      </trkpt>
      <trkpt lat="44.58797" lon="6.30864">
        <ele>2137.420898</ele>
        <time>2015-10-10T13:14:21Z</time>
      </trkpt>
      <trkpt lat="44.58797" lon="6.30864">
        <ele>2137.420898</ele>
        <time>2015-10-10T13:14:25Z</time>
      </trkpt>
      <trkpt lat="44.58797" lon="6.30864">
        <ele>2137.420898</ele>
        <time>2015-10-10T13:14:29Z</time>
      </trkpt>
      <trkpt lat="44.58797" lon="6.30864">
        <ele>2137.420898</ele>
        <time>2015-10-10T13:14:33Z</time>
      </trkpt>
      <trkpt lat="44.58797" lon="6.30864">
        <ele>2137.420898</ele>
        <time>2015-10-10T13:14:37Z</time>
      </trkpt>
      <trkpt lat="44.58797" lon="6.30864">
        <ele>2137.420898</ele>
        <time>2015-10-10T13:14:41Z</time>
      </trkpt>
      <trkpt lat="44.58797" lon="6.30864">
        <ele>2137.420898</ele>
        <time>2015-10-10T13:14:45Z</time>
      </trkpt>
      <trkpt lat="44.58797" lon="6.30864">
        <ele>2137.420898</ele>
        <time>2015-10-10T13:14:49Z</time>
      </trkpt>
      <trkpt lat="44.58797" lon="6.30864">
        <ele>2137.420898</ele>
        <time>2015-10-10T13:14:53Z</time>
      </trkpt>
      <trkpt lat="44.58797" lon="6.30864">
        <ele>2137.420898</ele>
        <time>2015-10-10T13:14:57Z</time>
      </trkpt>
      <trkpt lat="44.58797" lon="6.30864">
        <ele>2137.420898</ele>
        <time>2015-10-10T13:15:01Z</time>
      </trkpt>
      <trkpt lat="44.58797" lon="6.30864">
        <ele>2137.420898</ele>
        <time>2015-10-10T13:15:05Z</time>
      </trkpt>
      <trkpt lat="44.58797" lon="6.30864">
        <ele>2137.420898</ele>
        <time>2015-10-10T13:15:09Z</time>
      </trkpt>
      <trkpt lat="44.58797" lon="6.30864">
        <ele>2137.420898</ele>
        <time>2015-10-10T13:15:13Z</time>
      </trkpt>
      <trkpt lat="44.58797" lon="6.30864">
        <ele>2137.358398</ele>
        <time>2015-10-10T13:15:17Z</time>
      </trkpt>
      <trkpt lat="44.58797" lon="6.30864">
        <ele>2137.420898</ele>
        <time>2015-10-10T13:15:21Z</time>
      </trkpt>
      <trkpt lat="44.58797" lon="6.30864">
        <ele>2137.420898</ele>
        <time>2015-10-10T13:15:25Z</time>
      </trkpt>
      <trkpt lat="44.58797" lon="6.30865">
        <ele>2137.420898</ele>
        <time>2015-10-10T13:15:29Z</time>
      </trkpt>
      <trkpt lat="44.58797" lon="6.30865">
        <ele>2137.420898</ele>
        <time>2015-10-10T13:15:33Z</time>
      </trkpt>
      <trkpt lat="44.58797" lon="6.30865">
        <ele>2137.420898</ele>
        <time>2015-10-10T13:15:37Z</time>
      </trkpt>
      <trkpt lat="44.58797" lon="6.30865">
        <ele>2137.420898</ele>
        <time>2015-10-10T13:15:41Z</time>
      </trkpt>
      <trkpt lat="44.58797" lon="6.30865">
        <ele>2137.420898</ele>
        <time>2015-10-10T13:15:45Z</time>
      </trkpt>
      <trkpt lat="44.58797" lon="6.30865">
        <ele>2137.420898</ele>
        <time>2015-10-10T13:15:49Z</time>
      </trkpt>
      <trkpt lat="44.58797" lon="6.30865">
        <ele>2137.420898</ele>
        <time>2015-10-10T13:15:53Z</time>
      </trkpt>
      <trkpt lat="44.58797" lon="6.30865">
        <ele>2137.358398</ele>
        <time>2015-10-10T13:15:57Z</time>
      </trkpt>
      <trkpt lat="44.58797" lon="6.30865">
        <ele>2137.358398</ele>
        <time>2015-10-10T13:16:01Z</time>
      </trkpt>
      <trkpt lat="44.58797" lon="6.30865">
        <ele>2137.358398</ele>
        <time>2015-10-10T13:16:05Z</time>
      </trkpt>
      <trkpt lat="44.58797" lon="6.30865">
        <ele>2137.295898</ele>
        <time>2015-10-10T13:16:09Z</time>
      </trkpt>
      <trkpt lat="44.58797" lon="6.30865">
        <ele>2137.233398</ele>
        <time>2015-10-10T13:16:13Z</time>
      </trkpt>
      <trkpt lat="44.58797" lon="6.30865">
        <ele>2137.233398</ele>
        <time>2015-10-10T13:16:17Z</time>
      </trkpt>
      <trkpt lat="44.58797" lon="6.30865">
        <ele>2137.170898</ele>
        <time>2015-10-10T13:16:21Z</time>
      </trkpt>
      <trkpt lat="44.58797" lon="6.30865">
        <ele>2137.108398</ele>
        <time>2015-10-10T13:16:25Z</time>
      </trkpt>
      <trkpt lat="44.58797" lon="6.30865">
        <ele>2137.045898</ele>
        <time>2015-10-10T13:16:29Z</time>
      </trkpt>
      <trkpt lat="44.58797" lon="6.30865">
        <ele>2136.983398</ele>
        <time>2015-10-10T13:16:33Z</time>
      </trkpt>
      <trkpt lat="44.58797" lon="6.30865">
        <ele>2136.920898</ele>
        <time>2015-10-10T13:16:37Z</time>
      </trkpt>
      <trkpt lat="44.58797" lon="6.30865">
        <ele>2136.920898</ele>
        <time>2015-10-10T13:16:41Z</time>
      </trkpt>
      <trkpt lat="44.58797" lon="6.30865">
        <ele>2136.858398</ele>
        <time>2015-10-10T13:16:45Z</time>
      </trkpt>
      <trkpt lat="44.58797" lon="6.30865">
        <ele>2136.795898</ele>
        <time>2015-10-10T13:16:49Z</time>
      </trkpt>
      <trkpt lat="44.58797" lon="6.30865">
        <ele>2136.733398</ele>
        <time>2015-10-10T13:16:53Z</time>
      </trkpt>
      <trkpt lat="44.58797" lon="6.30865">
        <ele>2136.733398</ele>
        <time>2015-10-10T13:16:57Z</time>
      </trkpt>
      <trkpt lat="44.58797" lon="6.30865">
        <ele>2136.670898</ele>
        <time>2015-10-10T13:17:01Z</time>
      </trkpt>
      <trkpt lat="44.58797" lon="6.30865">
        <ele>2136.670898</ele>
        <time>2015-10-10T13:17:05Z</time>
      </trkpt>
      <trkpt lat="44.58797" lon="6.30865">
        <ele>2136.608398</ele>
        <time>2015-10-10T13:17:09Z</time>
      </trkpt>
      <trkpt lat="44.58797" lon="6.30865">
        <ele>2136.608398</ele>
        <time>2015-10-10T13:17:13Z</time>
      </trkpt>
      <trkpt lat="44.58797" lon="6.30865">
        <ele>2136.545898</ele>
        <time>2015-10-10T13:17:17Z</time>
      </trkpt>
      <trkpt lat="44.58797" lon="6.30865">
        <ele>2136.545898</ele>
        <time>2015-10-10T13:17:21Z</time>
      </trkpt>
      <trkpt lat="44.58797" lon="6.30865">
        <ele>2136.483398</ele>
        <time>2015-10-10T13:17:25Z</time>
      </trkpt>
      <trkpt lat="44.58797" lon="6.30865">
        <ele>2136.483398</ele>
        <time>2015-10-10T13:17:29Z</time>
      </trkpt>
      <trkpt lat="44.58797" lon="6.30865">
        <ele>2136.420898</ele>
        <time>2015-10-10T13:17:33Z</time>
      </trkpt>
      <trkpt lat="44.58797" lon="6.30865">
        <ele>2136.420898</ele>
        <time>2015-10-10T13:17:37Z</time>
      </trkpt>
      <trkpt lat="44.58797" lon="6.30865">
        <ele>2136.358398</ele>
        <time>2015-10-10T13:17:41Z</time>
      </trkpt>
      <trkpt lat="44.58797" lon="6.30865">
        <ele>2136.295898</ele>
        <time>2015-10-10T13:17:45Z</time>
      </trkpt>
      <trkpt lat="44.58797" lon="6.30865">
        <ele>2136.295898</ele>
        <time>2015-10-10T13:17:49Z</time>
      </trkpt>
      <trkpt lat="44.58797" lon="6.30865">
        <ele>2136.233398</ele>
        <time>2015-10-10T13:17:53Z</time>
      </trkpt>
      <trkpt lat="44.58797" lon="6.30865">
        <ele>2136.233398</ele>
        <time>2015-10-10T13:17:57Z</time>
      </trkpt>
      <trkpt lat="44.58797" lon="6.30865">
        <ele>2136.170898</ele>
        <time>2015-10-10T13:18:01Z</time>
      </trkpt>
      <trkpt lat="44.58797" lon="6.30865">
        <ele>2136.170898</ele>
        <time>2015-10-10T13:18:05Z</time>
      </trkpt>
      <trkpt lat="44.58797" lon="6.30865">
        <ele>2136.108398</ele>
        <time>2015-10-10T13:18:09Z</time>
      </trkpt>
      <trkpt lat="44.58797" lon="6.30865">
        <ele>2136.108398</ele>
        <time>2015-10-10T13:18:13Z</time>
      </trkpt>
      <trkpt lat="44.58797" lon="6.30865">
        <ele>2136.045898</ele>
        <time>2015-10-10T13:18:17Z</time>
      </trkpt>
      <trkpt lat="44.58797" lon="6.30865">
        <ele>2135.983398</ele>
        <time>2015-10-10T13:18:21Z</time>
      </trkpt>
      <trkpt lat="44.58797" lon="6.30865">
        <ele>2135.983398</ele>
        <time>2015-10-10T13:18:25Z</time>
      </trkpt>
      <trkpt lat="44.58797" lon="6.30865">
        <ele>2135.920898</ele>
        <time>2015-10-10T13:18:29Z</time>
      </trkpt>
      <trkpt lat="44.58797" lon="6.30865">
        <ele>2135.920898</ele>
        <time>2015-10-10T13:18:33Z</time>
      </trkpt>
      <trkpt lat="44.58797" lon="6.30865">
        <ele>2135.858398</ele>
        <time>2015-10-10T13:18:37Z</time>
      </trkpt>
      <trkpt lat="44.58797" lon="6.30865">
        <ele>2135.858398</ele>
        <time>2015-10-10T13:18:41Z</time>
      </trkpt>
      <trkpt lat="44.58797" lon="6.30865">
        <ele>2135.795898</ele>
        <time>2015-10-10T13:18:45Z</time>
      </trkpt>
      <trkpt lat="44.58797" lon="6.30865">
        <ele>2135.795898</ele>
        <time>2015-10-10T13:18:49Z</time>
      </trkpt>
      <trkpt lat="44.58797" lon="6.30865">
        <ele>2135.733398</ele>
        <time>2015-10-10T13:18:53Z</time>
      </trkpt>
      <trkpt lat="44.58797" lon="6.30865">
        <ele>2135.670898</ele>
        <time>2015-10-10T13:18:57Z</time>
      </trkpt>
      <trkpt lat="44.58797" lon="6.30865">
        <ele>2135.670898</ele>
        <time>2015-10-10T13:19:01Z</time>
      </trkpt>
      <trkpt lat="44.58797" lon="6.30865">
        <ele>2135.608398</ele>
        <time>2015-10-10T13:19:05Z</time>
      </trkpt>
      <trkpt lat="44.58797" lon="6.30865">
        <ele>2135.608398</ele>
        <time>2015-10-10T13:19:09Z</time>
      </trkpt>
      <trkpt lat="44.58797" lon="6.30865">
        <ele>2135.545898</ele>
        <time>2015-10-10T13:19:13Z</time>
      </trkpt>
      <trkpt lat="44.58797" lon="6.30865">
        <ele>2135.545898</ele>
        <time>2015-10-10T13:19:17Z</time>
      </trkpt>
      <trkpt lat="44.58797" lon="6.30865">
        <ele>2135.483398</ele>
        <time>2015-10-10T13:19:21Z</time>
      </trkpt>
      <trkpt lat="44.58797" lon="6.30865">
        <ele>2135.483398</ele>
        <time>2015-10-10T13:19:25Z</time>
      </trkpt>
      <trkpt lat="44.58797" lon="6.30865">
        <ele>2135.420898</ele>
        <time>2015-10-10T13:19:29Z</time>
      </trkpt>
      <trkpt lat="44.58797" lon="6.30865">
        <ele>2135.358398</ele>
        <time>2015-10-10T13:19:33Z</time>
      </trkpt>
      <trkpt lat="44.58797" lon="6.30865">
        <ele>2135.358398</ele>
        <time>2015-10-10T13:19:37Z</time>
      </trkpt>
      <trkpt lat="44.58797" lon="6.30865">
        <ele>2135.295898</ele>
        <time>2015-10-10T13:19:41Z</time>
      </trkpt>
      <trkpt lat="44.58797" lon="6.30865">
        <ele>2135.295898</ele>
        <time>2015-10-10T13:19:45Z</time>
      </trkpt>
      <trkpt lat="44.58797" lon="6.30865">
        <ele>2135.233398</ele>
        <time>2015-10-10T13:19:49Z</time>
      </trkpt>
      <trkpt lat="44.58797" lon="6.30865">
        <ele>2135.170898</ele>
        <time>2015-10-10T13:19:53Z</time>
      </trkpt>
      <trkpt lat="44.58797" lon="6.30865">
        <ele>2135.170898</ele>
        <time>2015-10-10T13:19:57Z</time>
      </trkpt>
      <trkpt lat="44.58797" lon="6.30865">
        <ele>2135.108398</ele>
        <time>2015-10-10T13:20:01Z</time>
      </trkpt>
      <trkpt lat="44.58797" lon="6.30865">
        <ele>2135.108398</ele>
        <time>2015-10-10T13:20:05Z</time>
      </trkpt>
      <trkpt lat="44.58797" lon="6.30865">
        <ele>2135.045898</ele>
        <time>2015-10-10T13:20:09Z</time>
      </trkpt>
      <trkpt lat="44.58797" lon="6.30865">
        <ele>2135.045898</ele>
        <time>2015-10-10T13:20:13Z</time>
      </trkpt>
      <trkpt lat="44.58797" lon="6.30865">
        <ele>2134.983398</ele>
        <time>2015-10-10T13:20:17Z</time>
      </trkpt>
      <trkpt lat="44.58797" lon="6.30865">
        <ele>2134.983398</ele>
        <time>2015-10-10T13:20:21Z</time>
      </trkpt>
      <trkpt lat="44.58797" lon="6.30865">
        <ele>2134.920898</ele>
        <time>2015-10-10T13:20:25Z</time>
      </trkpt>
      <trkpt lat="44.58797" lon="6.30865">
        <ele>2134.920898</ele>
        <time>2015-10-10T13:20:29Z</time>
      </trkpt>
      <trkpt lat="44.58797" lon="6.30865">
        <ele>2134.858398</ele>
        <time>2015-10-10T13:20:33Z</time>
      </trkpt>
      <trkpt lat="44.58797" lon="6.30865">
        <ele>2134.795898</ele>
        <time>2015-10-10T13:20:37Z</time>
      </trkpt>
      <trkpt lat="44.58797" lon="6.30865">
        <ele>2134.795898</ele>
        <time>2015-10-10T13:20:41Z</time>
      </trkpt>
      <trkpt lat="44.58797" lon="6.30865">
        <ele>2134.733398</ele>
        <time>2015-10-10T13:20:45Z</time>
      </trkpt>
      <trkpt lat="44.58797" lon="6.30865">
        <ele>2134.733398</ele>
        <time>2015-10-10T13:20:49Z</time>
      </trkpt>
      <trkpt lat="44.58797" lon="6.30865">
        <ele>2134.670898</ele>
        <time>2015-10-10T13:20:53Z</time>
      </trkpt>
      <trkpt lat="44.58797" lon="6.30865">
        <ele>2134.670898</ele>
        <time>2015-10-10T13:20:57Z</time>
      </trkpt>
      <trkpt lat="44.58797" lon="6.30865">
        <ele>2134.608398</ele>
        <time>2015-10-10T13:21:01Z</time>
      </trkpt>
      <trkpt lat="44.58797" lon="6.30865">
        <ele>2134.608398</ele>
        <time>2015-10-10T13:21:05Z</time>
      </trkpt>
      <trkpt lat="44.58797" lon="6.30865">
        <ele>2134.545898</ele>
        <time>2015-10-10T13:21:09Z</time>
      </trkpt>
      <trkpt lat="44.58797" lon="6.30865">
        <ele>2134.545898</ele>
        <time>2015-10-10T13:21:13Z</time>
      </trkpt>
      <trkpt lat="44.58797" lon="6.30865">
        <ele>2134.483398</ele>
        <time>2015-10-10T13:21:17Z</time>
      </trkpt>
      <trkpt lat="44.58797" lon="6.30865">
        <ele>2134.420898</ele>
        <time>2015-10-10T13:21:21Z</time>
      </trkpt>
      <trkpt lat="44.58797" lon="6.30865">
        <ele>2134.420898</ele>
        <time>2015-10-10T13:21:25Z</time>
      </trkpt>
      <trkpt lat="44.58797" lon="6.30865">
        <ele>2134.358398</ele>
        <time>2015-10-10T13:21:29Z</time>
      </trkpt>
      <trkpt lat="44.58797" lon="6.30864">
        <ele>2134.358398</ele>
        <time>2015-10-10T13:21:33Z</time>
      </trkpt>
      <trkpt lat="44.58797" lon="6.30865">
        <ele>2134.358398</ele>
        <time>2015-10-10T13:21:37Z</time>
      </trkpt>
      <trkpt lat="44.58797" lon="6.30865">
        <ele>2134.295898</ele>
        <time>2015-10-10T13:21:41Z</time>
      </trkpt>
      <trkpt lat="44.58797" lon="6.30864">
        <ele>2134.295898</ele>
        <time>2015-10-10T13:21:45Z</time>
      </trkpt>
      <trkpt lat="44.58797" lon="6.30864">
        <ele>2134.295898</ele>
        <time>2015-10-10T13:21:49Z</time>
      </trkpt>
      <trkpt lat="44.58797" lon="6.30864">
        <ele>2134.233398</ele>
        <time>2015-10-10T13:21:53Z</time>
      </trkpt>
      <trkpt lat="44.58797" lon="6.30864">
        <ele>2134.233398</ele>
        <time>2015-10-10T13:21:57Z</time>
      </trkpt>
      <trkpt lat="44.58797" lon="6.30864">
        <ele>2134.170898</ele>
        <time>2015-10-10T13:22:01Z</time>
      </trkpt>
      <trkpt lat="44.58797" lon="6.30864">
        <ele>2134.170898</ele>
        <time>2015-10-10T13:22:05Z</time>
      </trkpt>
      <trkpt lat="44.58797" lon="6.30864">
        <ele>2134.170898</ele>
        <time>2015-10-10T13:22:09Z</time>
      </trkpt>
      <trkpt lat="44.58797" lon="6.30864">
        <ele>2134.108398</ele>
        <time>2015-10-10T13:22:13Z</time>
      </trkpt>
      <trkpt lat="44.58797" lon="6.30864">
        <ele>2134.108398</ele>
        <time>2015-10-10T13:22:17Z</time>
      </trkpt>
      <trkpt lat="44.58797" lon="6.30864">
        <ele>2134.045898</ele>
        <time>2015-10-10T13:22:21Z</time>
      </trkpt>
      <trkpt lat="44.58797" lon="6.30864">
        <ele>2134.045898</ele>
        <time>2015-10-10T13:22:25Z</time>
      </trkpt>
      <trkpt lat="44.58797" lon="6.30864">
        <ele>2133.983398</ele>
        <time>2015-10-10T13:22:29Z</time>
      </trkpt>
      <trkpt lat="44.58797" lon="6.30864">
        <ele>2133.983398</ele>
        <time>2015-10-10T13:22:33Z</time>
      </trkpt>
      <trkpt lat="44.58797" lon="6.30864">
        <ele>2133.983398</ele>
        <time>2015-10-10T13:22:37Z</time>
      </trkpt>
      <trkpt lat="44.58797" lon="6.30864">
        <ele>2133.920898</ele>
        <time>2015-10-10T13:22:41Z</time>
      </trkpt>
      <trkpt lat="44.58797" lon="6.30864">
        <ele>2133.858398</ele>
        <time>2015-10-10T13:22:45Z</time>
      </trkpt>
      <trkpt lat="44.58797" lon="6.30864">
        <ele>2133.858398</ele>
        <time>2015-10-10T13:22:49Z</time>
      </trkpt>
      <trkpt lat="44.58797" lon="6.30864">
        <ele>2133.858398</ele>
        <time>2015-10-10T13:22:53Z</time>
      </trkpt>
      <trkpt lat="44.58797" lon="6.30864">
        <ele>2133.795898</ele>
        <time>2015-10-10T13:22:57Z</time>
      </trkpt>
      <trkpt lat="44.58797" lon="6.30864">
        <ele>2133.795898</ele>
        <time>2015-10-10T13:23:01Z</time>
      </trkpt>
      <trkpt lat="44.58797" lon="6.30864">
        <ele>2133.795898</ele>
        <time>2015-10-10T13:23:05Z</time>
      </trkpt>
      <trkpt lat="44.58799" lon="6.30861">
        <ele>2132.858398</ele>
        <time>2015-10-10T13:23:09Z</time>
      </trkpt>
      <trkpt lat="44.588" lon="6.30858">
        <ele>2133.108398</ele>
        <time>2015-10-10T13:23:13Z</time>
      </trkpt>
      <trkpt lat="44.588" lon="6.30854">
        <ele>2133.483398</ele>
        <time>2015-10-10T13:23:17Z</time>
      </trkpt>
      <trkpt lat="44.58799" lon="6.30853">
        <ele>2133.545898</ele>
        <time>2015-10-10T13:23:21Z</time>
      </trkpt>
      <trkpt lat="44.58799" lon="6.30853">
        <ele>2132.983398</ele>
        <time>2015-10-10T13:23:25Z</time>
      </trkpt>
      <trkpt lat="44.58799" lon="6.30853">
        <ele>2132.983398</ele>
        <time>2015-10-10T13:23:29Z</time>
      </trkpt>
      <trkpt lat="44.58798" lon="6.30853">
        <ele>2132.920898</ele>
        <time>2015-10-10T13:23:33Z</time>
      </trkpt>
      <trkpt lat="44.58798" lon="6.30853">
        <ele>2132.858398</ele>
        <time>2015-10-10T13:23:37Z</time>
      </trkpt>
      <trkpt lat="44.58798" lon="6.30853">
        <ele>2132.858398</ele>
        <time>2015-10-10T13:23:41Z</time>
      </trkpt>
      <trkpt lat="44.58798" lon="6.30853">
        <ele>2132.858398</ele>
        <time>2015-10-10T13:23:45Z</time>
      </trkpt>
      <trkpt lat="44.58798" lon="6.30853">
        <ele>2132.858398</ele>
        <time>2015-10-10T13:23:49Z</time>
      </trkpt>
      <trkpt lat="44.58798" lon="6.30853">
        <ele>2132.795898</ele>
        <time>2015-10-10T13:23:53Z</time>
      </trkpt>
      <trkpt lat="44.58805" lon="6.30854">
        <ele>2132.170898</ele>
        <time>2015-10-10T13:23:57Z</time>
      </trkpt>
      <trkpt lat="44.58812" lon="6.30847">
        <ele>2131.608398</ele>
        <time>2015-10-10T13:24:01Z</time>
      </trkpt>
      <trkpt lat="44.58824" lon="6.30849">
        <ele>2130.545898</ele>
        <time>2015-10-10T13:24:05Z</time>
      </trkpt>
      <trkpt lat="44.58837" lon="6.30856">
        <ele>2130.358398</ele>
        <time>2015-10-10T13:24:09Z</time>
      </trkpt>
      <trkpt lat="44.58853" lon="6.30867">
        <ele>2130.045898</ele>
        <time>2015-10-10T13:24:13Z</time>
      </trkpt>
      <trkpt lat="44.58871" lon="6.30859">
        <ele>2130.045898</ele>
        <time>2015-10-10T13:24:17Z</time>
      </trkpt>
      <trkpt lat="44.58888" lon="6.30848">
        <ele>2129.483398</ele>
        <time>2015-10-10T13:24:21Z</time>
      </trkpt>
      <trkpt lat="44.58903" lon="6.3084">
        <ele>2128.545898</ele>
        <time>2015-10-10T13:24:25Z</time>
      </trkpt>
      <trkpt lat="44.58917" lon="6.30827">
        <ele>2126.670898</ele>
        <time>2015-10-10T13:24:29Z</time>
      </trkpt>
      <trkpt lat="44.58932" lon="6.30813">
        <ele>2125.858398</ele>
        <time>2015-10-10T13:24:33Z</time>
      </trkpt>
      <trkpt lat="44.58943" lon="6.30805">
        <ele>2124.358398</ele>
        <time>2015-10-10T13:24:37Z</time>
      </trkpt>
      <trkpt lat="44.58959" lon="6.30791">
        <ele>2122.170898</ele>
        <time>2015-10-10T13:24:41Z</time>
      </trkpt>
      <trkpt lat="44.5898" lon="6.30786">
        <ele>2121.420898</ele>
        <time>2015-10-10T13:24:45Z</time>
      </trkpt>
      <trkpt lat="44.58998" lon="6.3079">
        <ele>2122.045898</ele>
        <time>2015-10-10T13:24:49Z</time>
      </trkpt>
      <trkpt lat="44.59011" lon="6.30794">
        <ele>2121.920898</ele>
        <time>2015-10-10T13:24:53Z</time>
      </trkpt>
      <trkpt lat="44.59024" lon="6.30797">
        <ele>2122.420898</ele>
        <time>2015-10-10T13:24:57Z</time>
      </trkpt>
      <trkpt lat="44.59039" lon="6.30802">
        <ele>2121.920898</ele>
        <time>2015-10-10T13:25:01Z</time>
      </trkpt>
      <trkpt lat="44.59057" lon="6.30807">
        <ele>2121.920898</ele>
        <time>2015-10-10T13:25:05Z</time>
      </trkpt>
      <trkpt lat="44.59075" lon="6.30815">
        <ele>2121.420898</ele>
        <time>2015-10-10T13:25:09Z</time>
      </trkpt>
      <trkpt lat="44.59095" lon="6.3082">
        <ele>2120.295898</ele>
        <time>2015-10-10T13:25:13Z</time>
      </trkpt>
      <trkpt lat="44.59117" lon="6.30813">
        <ele>2119.920898</ele>
        <time>2015-10-10T13:25:17Z</time>
      </trkpt>
      <trkpt lat="44.59136" lon="6.30805">
        <ele>2119.983398</ele>
        <time>2015-10-10T13:25:21Z</time>
      </trkpt>
      <trkpt lat="44.59152" lon="6.30797">
        <ele>2119.358398</ele>
        <time>2015-10-10T13:25:25Z</time>
      </trkpt>
      <trkpt lat="44.59169" lon="6.30791">
        <ele>2118.858398</ele>
        <time>2015-10-10T13:25:29Z</time>
      </trkpt>
      <trkpt lat="44.59186" lon="6.30793">
        <ele>2119.295898</ele>
        <time>2015-10-10T13:25:33Z</time>
      </trkpt>
      <trkpt lat="44.59206" lon="6.308">
        <ele>2121.483398</ele>
        <time>2015-10-10T13:25:37Z</time>
      </trkpt>
      <trkpt lat="44.59224" lon="6.30806">
        <ele>2125.483398</ele>
        <time>2015-10-10T13:25:41Z</time>
      </trkpt>
      <trkpt lat="44.5924" lon="6.30803">
        <ele>2125.170898</ele>
        <time>2015-10-10T13:25:45Z</time>
      </trkpt>
      <trkpt lat="44.5926" lon="6.30801">
        <ele>2123.733398</ele>
        <time>2015-10-10T13:25:49Z</time>
      </trkpt>
      <trkpt lat="44.59281" lon="6.3081">
        <ele>2123.045898</ele>
        <time>2015-10-10T13:25:53Z</time>
      </trkpt>
      <trkpt lat="44.59304" lon="6.30809">
        <ele>2122.233398</ele>
        <time>2015-10-10T13:25:57Z</time>
      </trkpt>
      <trkpt lat="44.59328" lon="6.30809">
        <ele>2122.358398</ele>
        <time>2015-10-10T13:26:01Z</time>
      </trkpt>
      <trkpt lat="44.59348" lon="6.30805">
        <ele>2121.358398</ele>
        <time>2015-10-10T13:26:05Z</time>
      </trkpt>
      <trkpt lat="44.59367" lon="6.30802">
        <ele>2120.858398</ele>
        <time>2015-10-10T13:26:09Z</time>
      </trkpt>
      <trkpt lat="44.59383" lon="6.30804">
        <ele>2121.670898</ele>
        <time>2015-10-10T13:26:13Z</time>
      </trkpt>
      <trkpt lat="44.59395" lon="6.30803">
        <ele>2122.858398</ele>
        <time>2015-10-10T13:26:17Z</time>
      </trkpt>
      <trkpt lat="44.59404" lon="6.30806">
        <ele>2125.045898</ele>
        <time>2015-10-10T13:26:21Z</time>
      </trkpt>
      <trkpt lat="44.59414" lon="6.30805">
        <ele>2125.358398</ele>
        <time>2015-10-10T13:26:25Z</time>
      </trkpt>
      <trkpt lat="44.59425" lon="6.30811">
        <ele>2126.108398</ele>
        <time>2015-10-10T13:26:29Z</time>
      </trkpt>
      <trkpt lat="44.59435" lon="6.30821">
        <ele>2127.420898</ele>
        <time>2015-10-10T13:26:33Z</time>
      </trkpt>
      <trkpt lat="44.59445" lon="6.3083">
        <ele>2128.233398</ele>
        <time>2015-10-10T13:26:37Z</time>
      </trkpt>
      <trkpt lat="44.59454" lon="6.30836">
        <ele>2129.420898</ele>
        <time>2015-10-10T13:26:41Z</time>
      </trkpt>
      <trkpt lat="44.59464" lon="6.30839">
        <ele>2128.733398</ele>
        <time>2015-10-10T13:26:45Z</time>
      </trkpt>
      <trkpt lat="44.59467" lon="6.30839">
        <ele>2128.983398</ele>
        <time>2015-10-10T13:26:49Z</time>
      </trkpt>
      <trkpt lat="44.59466" lon="6.30837">
        <ele>2129.545898</ele>
        <time>2015-10-10T13:26:53Z</time>
      </trkpt>
      <trkpt lat="44.59466" lon="6.30837">
        <ele>2129.733398</ele>
        <time>2015-10-10T13:26:57Z</time>
      </trkpt>
      <trkpt lat="44.59466" lon="6.30837">
        <ele>2129.920898</ele>
        <time>2015-10-10T13:27:01Z</time>
      </trkpt>
      <trkpt lat="44.59466" lon="6.30837">
        <ele>2130.108398</ele>
        <time>2015-10-10T13:27:05Z</time>
      </trkpt>
      <trkpt lat="44.59466" lon="6.30838">
        <ele>2130.170898</ele>
        <time>2015-10-10T13:27:09Z</time>
      </trkpt>
      <trkpt lat="44.59466" lon="6.30838">
        <ele>2130.170898</ele>
        <time>2015-10-10T13:27:13Z</time>
      </trkpt>
      <trkpt lat="44.59466" lon="6.30837">
        <ele>2130.233398</ele>
        <time>2015-10-10T13:27:17Z</time>
      </trkpt>
      <trkpt lat="44.59465" lon="6.30837">
        <ele>2130.358398</ele>
        <time>2015-10-10T13:27:21Z</time>
      </trkpt>
      <trkpt lat="44.59465" lon="6.30837">
        <ele>2130.420898</ele>
        <time>2015-10-10T13:27:25Z</time>
      </trkpt>
      <trkpt lat="44.59469" lon="6.30837">
        <ele>2130.170898</ele>
        <time>2015-10-10T13:27:29Z</time>
      </trkpt>
      <trkpt lat="44.59477" lon="6.30838">
        <ele>2130.295898</ele>
        <time>2015-10-10T13:27:33Z</time>
      </trkpt>
      <trkpt lat="44.59486" lon="6.30848">
        <ele>2129.858398</ele>
        <time>2015-10-10T13:27:37Z</time>
      </trkpt>
      <trkpt lat="44.59493" lon="6.30854">
        <ele>2129.608398</ele>
        <time>2015-10-10T13:27:41Z</time>
      </trkpt>
      <trkpt lat="44.59499" lon="6.30866">
        <ele>2129.358398</ele>
        <time>2015-10-10T13:27:45Z</time>
      </trkpt>
      <trkpt lat="44.59502" lon="6.30879">
        <ele>2129.045898</ele>
        <time>2015-10-10T13:27:49Z</time>
      </trkpt>
      <trkpt lat="44.59506" lon="6.30891">
        <ele>2128.358398</ele>
        <time>2015-10-10T13:27:53Z</time>
      </trkpt>
      <trkpt lat="44.59512" lon="6.30899">
        <ele>2127.983398</ele>
        <time>2015-10-10T13:27:57Z</time>
      </trkpt>
      <trkpt lat="44.59519" lon="6.30904">
        <ele>2128.858398</ele>
        <time>2015-10-10T13:28:01Z</time>
      </trkpt>
      <trkpt lat="44.59523" lon="6.30907">
        <ele>2128.608398</ele>
        <time>2015-10-10T13:28:05Z</time>
      </trkpt>
      <trkpt lat="44.59525" lon="6.30905">
        <ele>2132.608398</ele>
        <time>2015-10-10T13:28:09Z</time>
      </trkpt>
      <trkpt lat="44.59525" lon="6.30905">
        <ele>2132.733398</ele>
        <time>2015-10-10T13:28:13Z</time>
      </trkpt>
      <trkpt lat="44.59525" lon="6.30905">
        <ele>2132.858398</ele>
        <time>2015-10-10T13:28:17Z</time>
      </trkpt>
      <trkpt lat="44.59524" lon="6.30905">
        <ele>2132.920898</ele>
        <time>2015-10-10T13:28:21Z</time>
      </trkpt>
      <trkpt lat="44.59524" lon="6.30905">
        <ele>2132.920898</ele>
        <time>2015-10-10T13:28:25Z</time>
      </trkpt>
      <trkpt lat="44.59524" lon="6.30905">
        <ele>2132.983398</ele>
        <time>2015-10-10T13:28:29Z</time>
      </trkpt>
      <trkpt lat="44.59524" lon="6.30905">
        <ele>2132.983398</ele>
        <time>2015-10-10T13:28:33Z</time>
      </trkpt>
      <trkpt lat="44.59524" lon="6.30905">
        <ele>2132.983398</ele>
        <time>2015-10-10T13:28:37Z</time>
      </trkpt>
      <trkpt lat="44.59524" lon="6.30905">
        <ele>2133.045898</ele>
        <time>2015-10-10T13:28:41Z</time>
      </trkpt>
      <trkpt lat="44.59524" lon="6.30905">
        <ele>2133.045898</ele>
        <time>2015-10-10T13:28:45Z</time>
      </trkpt>
      <trkpt lat="44.59524" lon="6.30905">
        <ele>2133.045898</ele>
        <time>2015-10-10T13:28:49Z</time>
      </trkpt>
      <trkpt lat="44.59524" lon="6.30905">
        <ele>2133.045898</ele>
        <time>2015-10-10T13:28:53Z</time>
      </trkpt>
      <trkpt lat="44.59524" lon="6.30905">
        <ele>2133.108398</ele>
        <time>2015-10-10T13:28:57Z</time>
      </trkpt>
      <trkpt lat="44.59524" lon="6.30905">
        <ele>2133.108398</ele>
        <time>2015-10-10T13:29:01Z</time>
      </trkpt>
      <trkpt lat="44.59524" lon="6.30905">
        <ele>2133.108398</ele>
        <time>2015-10-10T13:29:05Z</time>
      </trkpt>
      <trkpt lat="44.59524" lon="6.30905">
        <ele>2133.170898</ele>
        <time>2015-10-10T13:29:09Z</time>
      </trkpt>
      <trkpt lat="44.59524" lon="6.30905">
        <ele>2133.170898</ele>
        <time>2015-10-10T13:29:13Z</time>
      </trkpt>
      <trkpt lat="44.59524" lon="6.30905">
        <ele>2133.233398</ele>
        <time>2015-10-10T13:29:17Z</time>
      </trkpt>
      <trkpt lat="44.59524" lon="6.30905">
        <ele>2133.233398</ele>
        <time>2015-10-10T13:29:21Z</time>
      </trkpt>
      <trkpt lat="44.59524" lon="6.30905">
        <ele>2133.295898</ele>
        <time>2015-10-10T13:29:25Z</time>
      </trkpt>
      <trkpt lat="44.59524" lon="6.30905">
        <ele>2133.295898</ele>
        <time>2015-10-10T13:29:29Z</time>
      </trkpt>
      <trkpt lat="44.59524" lon="6.30905">
        <ele>2133.295898</ele>
        <time>2015-10-10T13:29:33Z</time>
      </trkpt>
      <trkpt lat="44.59524" lon="6.30905">
        <ele>2133.358398</ele>
        <time>2015-10-10T13:29:37Z</time>
      </trkpt>
      <trkpt lat="44.59524" lon="6.30905">
        <ele>2133.358398</ele>
        <time>2015-10-10T13:29:41Z</time>
      </trkpt>
      <trkpt lat="44.59524" lon="6.30905">
        <ele>2133.358398</ele>
        <time>2015-10-10T13:29:45Z</time>
      </trkpt>
      <trkpt lat="44.59524" lon="6.30905">
        <ele>2133.358398</ele>
        <time>2015-10-10T13:29:49Z</time>
      </trkpt>
      <trkpt lat="44.59524" lon="6.30905">
        <ele>2133.358398</ele>
        <time>2015-10-10T13:29:53Z</time>
      </trkpt>
      <trkpt lat="44.59524" lon="6.30905">
        <ele>2133.358398</ele>
        <time>2015-10-10T13:29:57Z</time>
      </trkpt>
      <trkpt lat="44.59524" lon="6.30905">
        <ele>2133.420898</ele>
        <time>2015-10-10T13:30:01Z</time>
      </trkpt>
      <trkpt lat="44.59524" lon="6.30905">
        <ele>2133.420898</ele>
        <time>2015-10-10T13:30:05Z</time>
      </trkpt>
      <trkpt lat="44.59524" lon="6.30905">
        <ele>2133.420898</ele>
        <time>2015-10-10T13:30:09Z</time>
      </trkpt>
      <trkpt lat="44.59524" lon="6.30905">
        <ele>2133.483398</ele>
        <time>2015-10-10T13:30:13Z</time>
      </trkpt>
      <trkpt lat="44.59524" lon="6.30905">
        <ele>2133.545898</ele>
        <time>2015-10-10T13:30:17Z</time>
      </trkpt>
      <trkpt lat="44.59524" lon="6.30905">
        <ele>2133.545898</ele>
        <time>2015-10-10T13:30:21Z</time>
      </trkpt>
      <trkpt lat="44.59524" lon="6.30905">
        <ele>2133.608398</ele>
        <time>2015-10-10T13:30:25Z</time>
      </trkpt>
      <trkpt lat="44.59524" lon="6.30905">
        <ele>2133.608398</ele>
        <time>2015-10-10T13:30:29Z</time>
      </trkpt>
      <trkpt lat="44.59524" lon="6.30905">
        <ele>2133.670898</ele>
        <time>2015-10-10T13:30:33Z</time>
      </trkpt>
      <trkpt lat="44.59523" lon="6.30905">
        <ele>2133.670898</ele>
        <time>2015-10-10T13:30:37Z</time>
      </trkpt>
      <trkpt lat="44.59523" lon="6.30905">
        <ele>2133.733398</ele>
        <time>2015-10-10T13:30:41Z</time>
      </trkpt>
      <trkpt lat="44.59523" lon="6.30905">
        <ele>2133.733398</ele>
        <time>2015-10-10T13:30:45Z</time>
      </trkpt>
      <trkpt lat="44.59523" lon="6.30907">
        <ele>2133.358398</ele>
        <time>2015-10-10T13:30:49Z</time>
      </trkpt>
      <trkpt lat="44.59512" lon="6.30914">
        <ele>2130.608398</ele>
        <time>2015-10-10T13:30:53Z</time>
      </trkpt>
      <trkpt lat="44.59498" lon="6.30917">
        <ele>2129.608398</ele>
        <time>2015-10-10T13:30:57Z</time>
      </trkpt>
      <trkpt lat="44.59486" lon="6.3092">
        <ele>2128.545898</ele>
        <time>2015-10-10T13:31:01Z</time>
      </trkpt>
      <trkpt lat="44.59475" lon="6.30923">
        <ele>2127.858398</ele>
        <time>2015-10-10T13:31:05Z</time>
      </trkpt>
      <trkpt lat="44.59465" lon="6.30921">
        <ele>2127.420898</ele>
        <time>2015-10-10T13:31:09Z</time>
      </trkpt>
      <trkpt lat="44.59452" lon="6.30924">
        <ele>2124.858398</ele>
        <time>2015-10-10T13:31:13Z</time>
      </trkpt>
      <trkpt lat="44.59443" lon="6.30931">
        <ele>2123.358398</ele>
        <time>2015-10-10T13:31:17Z</time>
      </trkpt>
      <trkpt lat="44.59437" lon="6.30941">
        <ele>2121.858398</ele>
        <time>2015-10-10T13:31:21Z</time>
      </trkpt>
      <trkpt lat="44.59425" lon="6.30941">
        <ele>2120.295898</ele>
        <time>2015-10-10T13:31:25Z</time>
      </trkpt>
      <trkpt lat="44.59417" lon="6.30936">
        <ele>2121.420898</ele>
        <time>2015-10-10T13:31:29Z</time>
      </trkpt>
      <trkpt lat="44.59411" lon="6.30935">
        <ele>2124.108398</ele>
        <time>2015-10-10T13:31:33Z</time>
      </trkpt>
      <trkpt lat="44.59409" lon="6.30936">
        <ele>2125.358398</ele>
        <time>2015-10-10T13:31:37Z</time>
      </trkpt>
      <trkpt lat="44.59409" lon="6.30937">
        <ele>2125.545898</ele>
        <time>2015-10-10T13:31:41Z</time>
      </trkpt>
      <trkpt lat="44.59409" lon="6.30937">
        <ele>2125.670898</ele>
        <time>2015-10-10T13:31:45Z</time>
      </trkpt>
      <trkpt lat="44.59409" lon="6.30937">
        <ele>2125.670898</ele>
        <time>2015-10-10T13:31:49Z</time>
      </trkpt>
      <trkpt lat="44.59409" lon="6.30937">
        <ele>2125.733398</ele>
        <time>2015-10-10T13:31:53Z</time>
      </trkpt>
      <trkpt lat="44.59409" lon="6.30937">
        <ele>2125.733398</ele>
        <time>2015-10-10T13:31:57Z</time>
      </trkpt>
      <trkpt lat="44.59409" lon="6.30937">
        <ele>2125.733398</ele>
        <time>2015-10-10T13:32:01Z</time>
      </trkpt>
      <trkpt lat="44.59409" lon="6.30937">
        <ele>2125.670898</ele>
        <time>2015-10-10T13:32:05Z</time>
      </trkpt>
      <trkpt lat="44.59409" lon="6.30937">
        <ele>2125.670898</ele>
        <time>2015-10-10T13:32:09Z</time>
      </trkpt>
      <trkpt lat="44.59409" lon="6.30937">
        <ele>2125.670898</ele>
        <time>2015-10-10T13:32:13Z</time>
      </trkpt>
      <trkpt lat="44.59409" lon="6.30937">
        <ele>2125.670898</ele>
        <time>2015-10-10T13:32:17Z</time>
      </trkpt>
      <trkpt lat="44.59409" lon="6.30938">
        <ele>2125.670898</ele>
        <time>2015-10-10T13:32:21Z</time>
      </trkpt>
      <trkpt lat="44.59407" lon="6.30927">
        <ele>2125.233398</ele>
        <time>2015-10-10T13:32:25Z</time>
      </trkpt>
      <trkpt lat="44.59407" lon="6.3091">
        <ele>2124.233398</ele>
        <time>2015-10-10T13:32:29Z</time>
      </trkpt>
      <trkpt lat="44.59402" lon="6.30886">
        <ele>2123.420898</ele>
        <time>2015-10-10T13:32:33Z</time>
      </trkpt>
      <trkpt lat="44.59398" lon="6.30875">
        <ele>2124.358398</ele>
        <time>2015-10-10T13:32:37Z</time>
      </trkpt>
      <trkpt lat="44.59397" lon="6.30862">
        <ele>2126.295898</ele>
        <time>2015-10-10T13:32:41Z</time>
      </trkpt>
      <trkpt lat="44.59396" lon="6.3085">
        <ele>2127.545898</ele>
        <time>2015-10-10T13:32:45Z</time>
      </trkpt>
      <trkpt lat="44.59401" lon="6.30838">
        <ele>2128.733398</ele>
        <time>2015-10-10T13:32:49Z</time>
      </trkpt>
      <trkpt lat="44.59406" lon="6.30826">
        <ele>2129.170898</ele>
        <time>2015-10-10T13:32:53Z</time>
      </trkpt>
      <trkpt lat="44.59408" lon="6.30814">
        <ele>2128.295898</ele>
        <time>2015-10-10T13:32:57Z</time>
      </trkpt>
      <trkpt lat="44.59405" lon="6.30803">
        <ele>2126.170898</ele>
        <time>2015-10-10T13:33:01Z</time>
      </trkpt>
      <trkpt lat="44.59389" lon="6.30792">
        <ele>2120.420898</ele>
        <time>2015-10-10T13:33:05Z</time>
      </trkpt>
      <trkpt lat="44.59357" lon="6.30789">
        <ele>2115.670898</ele>
        <time>2015-10-10T13:33:09Z</time>
      </trkpt>
      <trkpt lat="44.59328" lon="6.30798">
        <ele>2115.233398</ele>
        <time>2015-10-10T13:33:13Z</time>
      </trkpt>
      <trkpt lat="44.59306" lon="6.30798">
        <ele>2114.233398</ele>
        <time>2015-10-10T13:33:17Z</time>
      </trkpt>
      <trkpt lat="44.59286" lon="6.30801">
        <ele>2114.858398</ele>
        <time>2015-10-10T13:33:21Z</time>
      </trkpt>
      <trkpt lat="44.59266" lon="6.30799">
        <ele>2116.608398</ele>
        <time>2015-10-10T13:33:25Z</time>
      </trkpt>
      <trkpt lat="44.59249" lon="6.30794">
        <ele>2119.045898</ele>
        <time>2015-10-10T13:33:29Z</time>
      </trkpt>
      <trkpt lat="44.59229" lon="6.30796">
        <ele>2119.545898</ele>
        <time>2015-10-10T13:33:33Z</time>
      </trkpt>
      <trkpt lat="44.59211" lon="6.30796">
        <ele>2118.420898</ele>
        <time>2015-10-10T13:33:37Z</time>
      </trkpt>
      <trkpt lat="44.59187" lon="6.30789">
        <ele>2115.045898</ele>
        <time>2015-10-10T13:33:41Z</time>
      </trkpt>
      <trkpt lat="44.59161" lon="6.30785">
        <ele>2115.545898</ele>
        <time>2015-10-10T13:33:45Z</time>
      </trkpt>
      <trkpt lat="44.59139" lon="6.30792">
        <ele>2115.795898</ele>
        <time>2015-10-10T13:33:49Z</time>
      </trkpt>
      <trkpt lat="44.59119" lon="6.30801">
        <ele>2115.483398</ele>
        <time>2015-10-10T13:33:53Z</time>
      </trkpt>
      <trkpt lat="44.591" lon="6.30809">
        <ele>2116.483398</ele>
        <time>2015-10-10T13:33:57Z</time>
      </trkpt>
      <trkpt lat="44.59081" lon="6.30818">
        <ele>2116.920898</ele>
        <time>2015-10-10T13:34:01Z</time>
      </trkpt>
      <trkpt lat="44.59066" lon="6.30812">
        <ele>2119.483398</ele>
        <time>2015-10-10T13:34:05Z</time>
      </trkpt>
      <trkpt lat="44.59053" lon="6.30805">
        <ele>2121.108398</ele>
        <time>2015-10-10T13:34:09Z</time>
      </trkpt>
      <trkpt lat="44.59039" lon="6.308">
        <ele>2123.983398</ele>
        <time>2015-10-10T13:34:13Z</time>
      </trkpt>
      <trkpt lat="44.59023" lon="6.30792">
        <ele>2124.233398</ele>
        <time>2015-10-10T13:34:17Z</time>
      </trkpt>
      <trkpt lat="44.59007" lon="6.3079">
        <ele>2125.420898</ele>
        <time>2015-10-10T13:34:21Z</time>
      </trkpt>
      <trkpt lat="44.58992" lon="6.30789">
        <ele>2126.858398</ele>
        <time>2015-10-10T13:34:25Z</time>
      </trkpt>
      <trkpt lat="44.58976" lon="6.30785">
        <ele>2126.358398</ele>
        <time>2015-10-10T13:34:29Z</time>
      </trkpt>
      <trkpt lat="44.58957" lon="6.30784">
        <ele>2125.920898</ele>
        <time>2015-10-10T13:34:33Z</time>
      </trkpt>
      <trkpt lat="44.58939" lon="6.30796">
        <ele>2126.358398</ele>
        <time>2015-10-10T13:34:37Z</time>
      </trkpt>
      <trkpt lat="44.58925" lon="6.30809">
        <ele>2125.920898</ele>
        <time>2015-10-10T13:34:41Z</time>
      </trkpt>
      <trkpt lat="44.58908" lon="6.3082">
        <ele>2124.358398</ele>
        <time>2015-10-10T13:34:45Z</time>
      </trkpt>
      <trkpt lat="44.5889" lon="6.30839">
        <ele>2123.670898</ele>
        <time>2015-10-10T13:34:49Z</time>
      </trkpt>
      <trkpt lat="44.58869" lon="6.30852">
        <ele>2123.233398</ele>
        <time>2015-10-10T13:34:53Z</time>
      </trkpt>
      <trkpt lat="44.58854" lon="6.30865">
        <ele>2123.295898</ele>
        <time>2015-10-10T13:34:57Z</time>
      </trkpt>
      <trkpt lat="44.58839" lon="6.30866">
        <ele>2126.108398</ele>
        <time>2015-10-10T13:35:01Z</time>
      </trkpt>
      <trkpt lat="44.58833" lon="6.30858">
        <ele>2128.670898</ele>
        <time>2015-10-10T13:35:05Z</time>
      </trkpt>
      <trkpt lat="44.58831" lon="6.30856">
        <ele>2129.108398</ele>
        <time>2015-10-10T13:35:09Z</time>
      </trkpt>
      <trkpt lat="44.58832" lon="6.30856">
        <ele>2129.045898</ele>
        <time>2015-10-10T13:35:13Z</time>
      </trkpt>
      <trkpt lat="44.58832" lon="6.30856">
        <ele>2128.983398</ele>
        <time>2015-10-10T13:35:17Z</time>
      </trkpt>
      <trkpt lat="44.58832" lon="6.30856">
        <ele>2128.983398</ele>
        <time>2015-10-10T13:35:21Z</time>
      </trkpt>
      <trkpt lat="44.58833" lon="6.30856">
        <ele>2128.920898</ele>
        <time>2015-10-10T13:35:25Z</time>
      </trkpt>
      <trkpt lat="44.58832" lon="6.30856">
        <ele>2128.795898</ele>
        <time>2015-10-10T13:35:29Z</time>
      </trkpt>
      <trkpt lat="44.58832" lon="6.30856">
        <ele>2128.733398</ele>
        <time>2015-10-10T13:35:33Z</time>
      </trkpt>
      <trkpt lat="44.58832" lon="6.30856">
        <ele>2128.733398</ele>
        <time>2015-10-10T13:35:37Z</time>
      </trkpt>
      <trkpt lat="44.58832" lon="6.30858">
        <ele>2128.733398</ele>
        <time>2015-10-10T13:35:41Z</time>
      </trkpt>
      <trkpt lat="44.58832" lon="6.30858">
        <ele>2128.983398</ele>
        <time>2015-10-10T13:35:45Z</time>
      </trkpt>
      <trkpt lat="44.58832" lon="6.30858">
        <ele>2128.983398</ele>
        <time>2015-10-10T13:35:49Z</time>
      </trkpt>
      <trkpt lat="44.58832" lon="6.30858">
        <ele>2128.920898</ele>
        <time>2015-10-10T13:35:53Z</time>
      </trkpt>
      <trkpt lat="44.58831" lon="6.30858">
        <ele>2128.858398</ele>
        <time>2015-10-10T13:35:57Z</time>
      </trkpt>
      <trkpt lat="44.58831" lon="6.30858">
        <ele>2128.795898</ele>
        <time>2015-10-10T13:36:01Z</time>
      </trkpt>
      <trkpt lat="44.58831" lon="6.30858">
        <ele>2128.795898</ele>
        <time>2015-10-10T13:36:05Z</time>
      </trkpt>
      <trkpt lat="44.58831" lon="6.30861">
        <ele>2128.295898</ele>
        <time>2015-10-10T13:36:09Z</time>
      </trkpt>
      <trkpt lat="44.58828" lon="6.30871">
        <ele>2124.108398</ele>
        <time>2015-10-10T13:36:13Z</time>
      </trkpt>
      <trkpt lat="44.58815" lon="6.30886">
        <ele>2119.608398</ele>
        <time>2015-10-10T13:36:17Z</time>
      </trkpt>
      <trkpt lat="44.58803" lon="6.30902">
        <ele>2115.670898</ele>
        <time>2015-10-10T13:36:21Z</time>
      </trkpt>
      <trkpt lat="44.58794" lon="6.30913">
        <ele>2113.233398</ele>
        <time>2015-10-10T13:36:25Z</time>
      </trkpt>
      <trkpt lat="44.58791" lon="6.30921">
        <ele>2111.608398</ele>
        <time>2015-10-10T13:36:29Z</time>
      </trkpt>
      <trkpt lat="44.58798" lon="6.30929">
        <ele>2109.983398</ele>
        <time>2015-10-10T13:36:33Z</time>
      </trkpt>
      <trkpt lat="44.58808" lon="6.30938">
        <ele>2109.233398</ele>
        <time>2015-10-10T13:36:37Z</time>
      </trkpt>
      <trkpt lat="44.58818" lon="6.30946">
        <ele>2107.733398</ele>
        <time>2015-10-10T13:36:41Z</time>
      </trkpt>
      <trkpt lat="44.58825" lon="6.30958">
        <ele>2104.483398</ele>
        <time>2015-10-10T13:36:45Z</time>
      </trkpt>
      <trkpt lat="44.5883" lon="6.30969">
        <ele>2101.983398</ele>
        <time>2015-10-10T13:36:49Z</time>
      </trkpt>
      <trkpt lat="44.58832" lon="6.30983">
        <ele>2098.608398</ele>
        <time>2015-10-10T13:36:53Z</time>
      </trkpt>
      <trkpt lat="44.58838" lon="6.30994">
        <ele>2096.608398</ele>
        <time>2015-10-10T13:36:57Z</time>
      </trkpt>
      <trkpt lat="44.58843" lon="6.31005">
        <ele>2093.795898</ele>
        <time>2015-10-10T13:37:01Z</time>
      </trkpt>
      <trkpt lat="44.58844" lon="6.31006">
        <ele>2092.045898</ele>
        <time>2015-10-10T13:37:05Z</time>
      </trkpt>
      <trkpt lat="44.58843" lon="6.31006">
        <ele>2091.608398</ele>
        <time>2015-10-10T13:37:09Z</time>
      </trkpt>
      <trkpt lat="44.58843" lon="6.31006">
        <ele>2091.483398</ele>
        <time>2015-10-10T13:37:13Z</time>
      </trkpt>
      <trkpt lat="44.58843" lon="6.31006">
        <ele>2091.483398</ele>
        <time>2015-10-10T13:37:17Z</time>
      </trkpt>
      <trkpt lat="44.58844" lon="6.31006">
        <ele>2091.545898</ele>
        <time>2015-10-10T13:37:21Z</time>
      </trkpt>
      <trkpt lat="44.58844" lon="6.31006">
        <ele>2091.545898</ele>
        <time>2015-10-10T13:37:25Z</time>
      </trkpt>
      <trkpt lat="44.58843" lon="6.31005">
        <ele>2091.733398</ele>
        <time>2015-10-10T13:37:29Z</time>
      </trkpt>
      <trkpt lat="44.58844" lon="6.31005">
        <ele>2091.795898</ele>
        <time>2015-10-10T13:37:33Z</time>
      </trkpt>
      <trkpt lat="44.58851" lon="6.31014">
        <ele>2090.233398</ele>
        <time>2015-10-10T13:37:37Z</time>
      </trkpt>
      <trkpt lat="44.58861" lon="6.31025">
        <ele>2087.733398</ele>
        <time>2015-10-10T13:37:41Z</time>
      </trkpt>
      <trkpt lat="44.58869" lon="6.31036">
        <ele>2086.545898</ele>
        <time>2015-10-10T13:37:45Z</time>
      </trkpt>
      <trkpt lat="44.58874" lon="6.31047">
        <ele>2085.108398</ele>
        <time>2015-10-10T13:37:49Z</time>
      </trkpt>
      <trkpt lat="44.58879" lon="6.31057">
        <ele>2082.733398</ele>
        <time>2015-10-10T13:37:53Z</time>
      </trkpt>
      <trkpt lat="44.58883" lon="6.31068">
        <ele>2081.920898</ele>
        <time>2015-10-10T13:37:57Z</time>
      </trkpt>
      <trkpt lat="44.58886" lon="6.31078">
        <ele>2079.483398</ele>
        <time>2015-10-10T13:38:01Z</time>
      </trkpt>
      <trkpt lat="44.58891" lon="6.31087">
        <ele>2077.483398</ele>
        <time>2015-10-10T13:38:05Z</time>
      </trkpt>
      <trkpt lat="44.58896" lon="6.31095">
        <ele>2074.795898</ele>
        <time>2015-10-10T13:38:09Z</time>
      </trkpt>
      <trkpt lat="44.58886" lon="6.31103">
        <ele>2069.733398</ele>
        <time>2015-10-10T13:38:13Z</time>
      </trkpt>
      <trkpt lat="44.58887" lon="6.31123">
        <ele>2066.045898</ele>
        <time>2015-10-10T13:38:17Z</time>
      </trkpt>
      <trkpt lat="44.58893" lon="6.3114">
        <ele>2064.295898</ele>
        <time>2015-10-10T13:38:21Z</time>
      </trkpt>
      <trkpt lat="44.58884" lon="6.31153">
        <ele>2060.045898</ele>
        <time>2015-10-10T13:38:25Z</time>
      </trkpt>
      <trkpt lat="44.58875" lon="6.31162">
        <ele>2055.233398</ele>
        <time>2015-10-10T13:38:29Z</time>
      </trkpt>
      <trkpt lat="44.5886" lon="6.31168">
        <ele>2051.295898</ele>
        <time>2015-10-10T13:38:33Z</time>
      </trkpt>
      <trkpt lat="44.58854" lon="6.31181">
        <ele>2049.983398</ele>
        <time>2015-10-10T13:38:37Z</time>
      </trkpt>
      <trkpt lat="44.58851" lon="6.31196">
        <ele>2050.983398</ele>
        <time>2015-10-10T13:38:41Z</time>
      </trkpt>
      <trkpt lat="44.58848" lon="6.31214">
        <ele>2049.858398</ele>
        <time>2015-10-10T13:38:45Z</time>
      </trkpt>
      <trkpt lat="44.58841" lon="6.31242">
        <ele>2046.679199</ele>
        <time>2015-10-10T13:38:49Z</time>
      </trkpt>
      <trkpt lat="44.58841" lon="6.31284">
        <ele>2044.460449</ele>
        <time>2015-10-10T13:38:53Z</time>
      </trkpt>
      <trkpt lat="44.58851" lon="6.31315">
        <ele>2044.147949</ele>
        <time>2015-10-10T13:38:57Z</time>
      </trkpt>
      <trkpt lat="44.58859" lon="6.31335">
        <ele>2043.366699</ele>
        <time>2015-10-10T13:39:01Z</time>
      </trkpt>
      <trkpt lat="44.58862" lon="6.31353">
        <ele>2043.897949</ele>
        <time>2015-10-10T13:39:05Z</time>
      </trkpt>
      <trkpt lat="44.58865" lon="6.31374">
        <ele>2043.241699</ele>
        <time>2015-10-10T13:39:09Z</time>
      </trkpt>
      <trkpt lat="44.5887" lon="6.31395">
        <ele>2042.397949</ele>
        <time>2015-10-10T13:39:13Z</time>
      </trkpt>
      <trkpt lat="44.58879" lon="6.3141">
        <ele>2042.241699</ele>
        <time>2015-10-10T13:39:17Z</time>
      </trkpt>
      <trkpt lat="44.58881" lon="6.31424">
        <ele>2042.460449</ele>
        <time>2015-10-10T13:39:21Z</time>
      </trkpt>
      <trkpt lat="44.58883" lon="6.31439">
        <ele>2044.054199</ele>
        <time>2015-10-10T13:39:25Z</time>
      </trkpt>
      <trkpt lat="44.58892" lon="6.31447">
        <ele>2044.991699</ele>
        <time>2015-10-10T13:39:29Z</time>
      </trkpt>
      <trkpt lat="44.58898" lon="6.31452">
        <ele>2045.960449</ele>
        <time>2015-10-10T13:39:33Z</time>
      </trkpt>
      <trkpt lat="44.58898" lon="6.31451">
        <ele>2047.491699</ele>
        <time>2015-10-10T13:39:37Z</time>
      </trkpt>
      <trkpt lat="44.58898" lon="6.31451">
        <ele>2047.522949</ele>
        <time>2015-10-10T13:39:41Z</time>
      </trkpt>
      <trkpt lat="44.58898" lon="6.31451">
        <ele>2047.491699</ele>
        <time>2015-10-10T13:39:45Z</time>
      </trkpt>
      <trkpt lat="44.58898" lon="6.31451">
        <ele>2047.429199</ele>
        <time>2015-10-10T13:39:49Z</time>
      </trkpt>
      <trkpt lat="44.58898" lon="6.31451">
        <ele>2047.460449</ele>
        <time>2015-10-10T13:39:53Z</time>
      </trkpt>
      <trkpt lat="44.58898" lon="6.31451">
        <ele>2047.429199</ele>
        <time>2015-10-10T13:39:57Z</time>
      </trkpt>
      <trkpt lat="44.58898" lon="6.31451">
        <ele>2047.429199</ele>
        <time>2015-10-10T13:40:01Z</time>
      </trkpt>
      <trkpt lat="44.58898" lon="6.31451">
        <ele>2047.460449</ele>
        <time>2015-10-10T13:40:05Z</time>
      </trkpt>
      <trkpt lat="44.58898" lon="6.31451">
        <ele>2047.397949</ele>
        <time>2015-10-10T13:40:09Z</time>
      </trkpt>
      <trkpt lat="44.58898" lon="6.31451">
        <ele>2047.335449</ele>
        <time>2015-10-10T13:40:13Z</time>
      </trkpt>
      <trkpt lat="44.58898" lon="6.31452">
        <ele>2047.304199</ele>
        <time>2015-10-10T13:40:17Z</time>
      </trkpt>
      <trkpt lat="44.58898" lon="6.31452">
        <ele>2047.272949</ele>
        <time>2015-10-10T13:40:21Z</time>
      </trkpt>
      <trkpt lat="44.58898" lon="6.31452">
        <ele>2047.304199</ele>
        <time>2015-10-10T13:40:25Z</time>
      </trkpt>
      <trkpt lat="44.58898" lon="6.31452">
        <ele>2047.397949</ele>
        <time>2015-10-10T13:40:29Z</time>
      </trkpt>
      <trkpt lat="44.58897" lon="6.31452">
        <ele>2047.397949</ele>
        <time>2015-10-10T13:40:33Z</time>
      </trkpt>
      <trkpt lat="44.58889" lon="6.31448">
        <ele>2046.022949</ele>
        <time>2015-10-10T13:40:37Z</time>
      </trkpt>
      <trkpt lat="44.58886" lon="6.31462">
        <ele>2044.054199</ele>
        <time>2015-10-10T13:40:41Z</time>
      </trkpt>
      <trkpt lat="44.58894" lon="6.31486">
        <ele>2042.710449</ele>
        <time>2015-10-10T13:40:45Z</time>
      </trkpt>
      <trkpt lat="44.58902" lon="6.31502">
        <ele>2042.929199</ele>
        <time>2015-10-10T13:40:49Z</time>
      </trkpt>
      <trkpt lat="44.58906" lon="6.31518">
        <ele>2042.241699</ele>
        <time>2015-10-10T13:40:53Z</time>
      </trkpt>
      <trkpt lat="44.58906" lon="6.3154">
        <ele>2041.929199</ele>
        <time>2015-10-10T13:40:57Z</time>
      </trkpt>
      <trkpt lat="44.5891" lon="6.31554">
        <ele>2040.491699</ele>
        <time>2015-10-10T13:41:01Z</time>
      </trkpt>
      <trkpt lat="44.58909" lon="6.31569">
        <ele>2039.647949</ele>
        <time>2015-10-10T13:41:05Z</time>
      </trkpt>
      <trkpt lat="44.58909" lon="6.31585">
        <ele>2039.210449</ele>
        <time>2015-10-10T13:41:09Z</time>
      </trkpt>
      <trkpt lat="44.58915" lon="6.31604">
        <ele>2036.241699</ele>
        <time>2015-10-10T13:41:13Z</time>
      </trkpt>
      <trkpt lat="44.58926" lon="6.31626">
        <ele>2032.741699</ele>
        <time>2015-10-10T13:41:17Z</time>
      </trkpt>
      <trkpt lat="44.58939" lon="6.31643">
        <ele>2028.522949</ele>
        <time>2015-10-10T13:41:21Z</time>
      </trkpt>
      <trkpt lat="44.5895" lon="6.31658">
        <ele>2024.991699</ele>
        <time>2015-10-10T13:41:25Z</time>
      </trkpt>
      <trkpt lat="44.58961" lon="6.31666">
        <ele>2020.460449</ele>
        <time>2015-10-10T13:41:29Z</time>
      </trkpt>
      <trkpt lat="44.5897" lon="6.31679">
        <ele>2016.710449</ele>
        <time>2015-10-10T13:41:33Z</time>
      </trkpt>
      <trkpt lat="44.58985" lon="6.3169">
        <ele>2010.491699</ele>
        <time>2015-10-10T13:41:37Z</time>
      </trkpt>
      <trkpt lat="44.58998" lon="6.31702">
        <ele>2006.866699</ele>
        <time>2015-10-10T13:41:41Z</time>
      </trkpt>
      <trkpt lat="44.59007" lon="6.31715">
        <ele>2004.647949</ele>
        <time>2015-10-10T13:41:45Z</time>
      </trkpt>
      <trkpt lat="44.59014" lon="6.31733">
        <ele>2002.429199</ele>
        <time>2015-10-10T13:41:49Z</time>
      </trkpt>
      <trkpt lat="44.59012" lon="6.31766">
        <ele>2000.335449</ele>
        <time>2015-10-10T13:41:53Z</time>
      </trkpt>
      <trkpt lat="44.59013" lon="6.31801">
        <ele>1997.304199</ele>
        <time>2015-10-10T13:41:57Z</time>
      </trkpt>
      <trkpt lat="44.59017" lon="6.31825">
        <ele>1996.085449</ele>
        <time>2015-10-10T13:42:01Z</time>
      </trkpt>
      <trkpt lat="44.59024" lon="6.31846">
        <ele>1994.460449</ele>
        <time>2015-10-10T13:42:05Z</time>
      </trkpt>
      <trkpt lat="44.5904" lon="6.31862">
        <ele>1994.085449</ele>
        <time>2015-10-10T13:42:09Z</time>
      </trkpt>
      <trkpt lat="44.59055" lon="6.31869">
        <ele>1988.460449</ele>
        <time>2015-10-10T13:42:13Z</time>
      </trkpt>
      <trkpt lat="44.59071" lon="6.31872">
        <ele>1981.460449</ele>
        <time>2015-10-10T13:42:17Z</time>
      </trkpt>
      <trkpt lat="44.59086" lon="6.3188">
        <ele>1977.272949</ele>
        <time>2015-10-10T13:42:21Z</time>
      </trkpt>
      <trkpt lat="44.59099" lon="6.31891">
        <ele>1972.147949</ele>
        <time>2015-10-10T13:42:25Z</time>
      </trkpt>
      <trkpt lat="44.59109" lon="6.31909">
        <ele>1965.897949</ele>
        <time>2015-10-10T13:42:29Z</time>
      </trkpt>
      <trkpt lat="44.59118" lon="6.31931">
        <ele>1960.022949</ele>
        <time>2015-10-10T13:42:33Z</time>
      </trkpt>
      <trkpt lat="44.59132" lon="6.31943">
        <ele>1954.835449</ele>
        <time>2015-10-10T13:42:37Z</time>
      </trkpt>
      <trkpt lat="44.59148" lon="6.31948">
        <ele>1949.616699</ele>
        <time>2015-10-10T13:42:41Z</time>
      </trkpt>
      <trkpt lat="44.59157" lon="6.31959">
        <ele>1947.335449</ele>
        <time>2015-10-10T13:42:45Z</time>
      </trkpt>
      <trkpt lat="44.59167" lon="6.3197">
        <ele>1945.022949</ele>
        <time>2015-10-10T13:42:49Z</time>
      </trkpt>
      <trkpt lat="44.59179" lon="6.31975">
        <ele>1940.210449</ele>
        <time>2015-10-10T13:42:53Z</time>
      </trkpt>
      <trkpt lat="44.59187" lon="6.31976">
        <ele>1936.585449</ele>
        <time>2015-10-10T13:42:57Z</time>
      </trkpt>
      <trkpt lat="44.59196" lon="6.31972">
        <ele>1932.741699</ele>
        <time>2015-10-10T13:43:01Z</time>
      </trkpt>
      <trkpt lat="44.5921" lon="6.31963">
        <ele>1929.335449</ele>
        <time>2015-10-10T13:43:05Z</time>
      </trkpt>
      <trkpt lat="44.59224" lon="6.31952">
        <ele>1926.210449</ele>
        <time>2015-10-10T13:43:09Z</time>
      </trkpt>
      <trkpt lat="44.59233" lon="6.31951">
        <ele>1924.835449</ele>
        <time>2015-10-10T13:43:13Z</time>
      </trkpt>
      <trkpt lat="44.59236" lon="6.3195">
        <ele>1925.179199</ele>
        <time>2015-10-10T13:43:17Z</time>
      </trkpt>
      <trkpt lat="44.59236" lon="6.3195">
        <ele>1924.991699</ele>
        <time>2015-10-10T13:43:21Z</time>
      </trkpt>
      <trkpt lat="44.59236" lon="6.3195">
        <ele>1924.960449</ele>
        <time>2015-10-10T13:43:25Z</time>
      </trkpt>
      <trkpt lat="44.59236" lon="6.3195">
        <ele>1924.960449</ele>
        <time>2015-10-10T13:43:29Z</time>
      </trkpt>
      <trkpt lat="44.59236" lon="6.3195">
        <ele>1924.991699</ele>
        <time>2015-10-10T13:43:33Z</time>
      </trkpt>
      <trkpt lat="44.59242" lon="6.31952">
        <ele>1924.554199</ele>
        <time>2015-10-10T13:43:37Z</time>
      </trkpt>
      <trkpt lat="44.59259" lon="6.31963">
        <ele>1921.929199</ele>
        <time>2015-10-10T13:43:41Z</time>
      </trkpt>
      <trkpt lat="44.5928" lon="6.31975">
        <ele>1919.304199</ele>
        <time>2015-10-10T13:43:45Z</time>
      </trkpt>
      <trkpt lat="44.59303" lon="6.31991">
        <ele>1917.429199</ele>
        <time>2015-10-10T13:43:49Z</time>
      </trkpt>
      <trkpt lat="44.59316" lon="6.32019">
        <ele>1916.585449</ele>
        <time>2015-10-10T13:43:53Z</time>
      </trkpt>
      <trkpt lat="44.59319" lon="6.32045">
        <ele>1916.304199</ele>
        <time>2015-10-10T13:43:57Z</time>
      </trkpt>
      <trkpt lat="44.59324" lon="6.32062">
        <ele>1914.429199</ele>
        <time>2015-10-10T13:44:01Z</time>
      </trkpt>
      <trkpt lat="44.59334" lon="6.3208">
        <ele>1911.522949</ele>
        <time>2015-10-10T13:44:05Z</time>
      </trkpt>
      <trkpt lat="44.59346" lon="6.3209">
        <ele>1907.929199</ele>
        <time>2015-10-10T13:44:09Z</time>
      </trkpt>
      <trkpt lat="44.59358" lon="6.32089">
        <ele>1904.866699</ele>
        <time>2015-10-10T13:44:13Z</time>
      </trkpt>
      <trkpt lat="44.59371" lon="6.32088">
        <ele>1901.304199</ele>
        <time>2015-10-10T13:44:17Z</time>
      </trkpt>
      <trkpt lat="44.59377" lon="6.32092">
        <ele>1899.866699</ele>
        <time>2015-10-10T13:44:21Z</time>
      </trkpt>
      <trkpt lat="44.59377" lon="6.32094">
        <ele>1899.960449</ele>
        <time>2015-10-10T13:44:25Z</time>
      </trkpt>
      <trkpt lat="44.59377" lon="6.32094">
        <ele>1899.647949</ele>
        <time>2015-10-10T13:44:29Z</time>
      </trkpt>
      <trkpt lat="44.59377" lon="6.32095">
        <ele>1899.522949</ele>
        <time>2015-10-10T13:44:33Z</time>
      </trkpt>
      <trkpt lat="44.59377" lon="6.32095">
        <ele>1899.491699</ele>
        <time>2015-10-10T13:44:37Z</time>
      </trkpt>
      <trkpt lat="44.59377" lon="6.32095">
        <ele>1899.522949</ele>
        <time>2015-10-10T13:44:41Z</time>
      </trkpt>
      <trkpt lat="44.59377" lon="6.32095">
        <ele>1899.522949</ele>
        <time>2015-10-10T13:44:45Z</time>
      </trkpt>
      <trkpt lat="44.59377" lon="6.32095">
        <ele>1899.522949</ele>
        <time>2015-10-10T13:44:49Z</time>
      </trkpt>
      <trkpt lat="44.59378" lon="6.321">
        <ele>1899.897949</ele>
        <time>2015-10-10T13:44:53Z</time>
      </trkpt>
      <trkpt lat="44.5938" lon="6.32115">
        <ele>1897.866699</ele>
        <time>2015-10-10T13:44:57Z</time>
      </trkpt>
      <trkpt lat="44.59396" lon="6.32116">
        <ele>1893.585449</ele>
        <time>2015-10-10T13:45:01Z</time>
      </trkpt>
      <trkpt lat="44.59412" lon="6.32122">
        <ele>1890.085449</ele>
        <time>2015-10-10T13:45:05Z</time>
      </trkpt>
      <trkpt lat="44.5943" lon="6.32129">
        <ele>1886.897949</ele>
        <time>2015-10-10T13:45:09Z</time>
      </trkpt>
      <trkpt lat="44.59447" lon="6.32126">
        <ele>1886.491699</ele>
        <time>2015-10-10T13:45:13Z</time>
      </trkpt>
      <trkpt lat="44.59467" lon="6.32109">
        <ele>1882.991699</ele>
        <time>2015-10-10T13:45:17Z</time>
      </trkpt>
      <trkpt lat="44.5948" lon="6.32096">
        <ele>1883.741699</ele>
        <time>2015-10-10T13:45:21Z</time>
      </trkpt>
      <trkpt lat="44.59491" lon="6.32091">
        <ele>1884.554199</ele>
        <time>2015-10-10T13:45:25Z</time>
      </trkpt>
      <trkpt lat="44.59499" lon="6.32094">
        <ele>1882.585449</ele>
        <time>2015-10-10T13:45:29Z</time>
      </trkpt>
      <trkpt lat="44.59499" lon="6.32096">
        <ele>1883.054199</ele>
        <time>2015-10-10T13:45:33Z</time>
      </trkpt>
      <trkpt lat="44.59499" lon="6.32096">
        <ele>1882.929199</ele>
        <time>2015-10-10T13:45:37Z</time>
      </trkpt>
      <trkpt lat="44.59499" lon="6.32096">
        <ele>1882.929199</ele>
        <time>2015-10-10T13:45:41Z</time>
      </trkpt>
      <trkpt lat="44.59499" lon="6.32097">
        <ele>1882.929199</ele>
        <time>2015-10-10T13:45:45Z</time>
      </trkpt>
      <trkpt lat="44.59499" lon="6.32097">
        <ele>1882.929199</ele>
        <time>2015-10-10T13:45:49Z</time>
      </trkpt>
      <trkpt lat="44.59505" lon="6.32105">
        <ele>1882.491699</ele>
        <time>2015-10-10T13:45:53Z</time>
      </trkpt>
      <trkpt lat="44.59524" lon="6.32127">
        <ele>1880.616699</ele>
        <time>2015-10-10T13:45:57Z</time>
      </trkpt>
      <trkpt lat="44.59539" lon="6.32128">
        <ele>1880.741699</ele>
        <time>2015-10-10T13:46:01Z</time>
      </trkpt>
      <trkpt lat="44.59548" lon="6.32128">
        <ele>1880.866699</ele>
        <time>2015-10-10T13:46:05Z</time>
      </trkpt>
      <trkpt lat="44.59549" lon="6.32127">
        <ele>1882.054199</ele>
        <time>2015-10-10T13:46:09Z</time>
      </trkpt>
      <trkpt lat="44.59549" lon="6.32127">
        <ele>1882.054199</ele>
        <time>2015-10-10T13:46:13Z</time>
      </trkpt>
      <trkpt lat="44.59549" lon="6.32127">
        <ele>1882.054199</ele>
        <time>2015-10-10T13:46:17Z</time>
      </trkpt>
      <trkpt lat="44.59549" lon="6.32127">
        <ele>1882.116699</ele>
        <time>2015-10-10T13:46:21Z</time>
      </trkpt>
      <trkpt lat="44.59549" lon="6.32127">
        <ele>1882.147949</ele>
        <time>2015-10-10T13:46:25Z</time>
      </trkpt>
      <trkpt lat="44.59549" lon="6.32127">
        <ele>1882.116699</ele>
        <time>2015-10-10T13:46:29Z</time>
      </trkpt>
      <trkpt lat="44.59549" lon="6.32127">
        <ele>1882.147949</ele>
        <time>2015-10-10T13:46:33Z</time>
      </trkpt>
      <trkpt lat="44.59548" lon="6.32127">
        <ele>1882.147949</ele>
        <time>2015-10-10T13:46:37Z</time>
      </trkpt>
      <trkpt lat="44.5955" lon="6.32119">
        <ele>1882.085449</ele>
        <time>2015-10-10T13:46:41Z</time>
      </trkpt>
      <trkpt lat="44.59549" lon="6.32101">
        <ele>1881.960449</ele>
        <time>2015-10-10T13:46:45Z</time>
      </trkpt>
      <trkpt lat="44.59552" lon="6.3209">
        <ele>1881.991699</ele>
        <time>2015-10-10T13:46:49Z</time>
      </trkpt>
      <trkpt lat="44.59552" lon="6.3209">
        <ele>1882.397949</ele>
        <time>2015-10-10T13:46:53Z</time>
      </trkpt>
      <trkpt lat="44.59552" lon="6.3209">
        <ele>1882.241699</ele>
        <time>2015-10-10T13:46:57Z</time>
      </trkpt>
      <trkpt lat="44.59553" lon="6.32091">
        <ele>1882.147949</ele>
        <time>2015-10-10T13:47:01Z</time>
      </trkpt>
      <trkpt lat="44.59553" lon="6.32091">
        <ele>1882.085449</ele>
        <time>2015-10-10T13:47:05Z</time>
      </trkpt>
      <trkpt lat="44.59553" lon="6.32091">
        <ele>1882.085449</ele>
        <time>2015-10-10T13:47:09Z</time>
      </trkpt>
      <trkpt lat="44.59554" lon="6.32088">
        <ele>1882.147949</ele>
        <time>2015-10-10T13:47:13Z</time>
      </trkpt>
      <trkpt lat="44.59562" lon="6.32078">
        <ele>1881.147949</ele>
        <time>2015-10-10T13:47:17Z</time>
      </trkpt>
      <trkpt lat="44.59576" lon="6.32079">
        <ele>1878.647949</ele>
        <time>2015-10-10T13:47:21Z</time>
      </trkpt>
      <trkpt lat="44.59583" lon="6.32094">
        <ele>1877.522949</ele>
        <time>2015-10-10T13:47:25Z</time>
      </trkpt>
      <trkpt lat="44.59589" lon="6.32122">
        <ele>1874.710449</ele>
        <time>2015-10-10T13:47:29Z</time>
      </trkpt>
      <trkpt lat="44.59596" lon="6.32151">
        <ele>1874.304199</ele>
        <time>2015-10-10T13:47:33Z</time>
      </trkpt>
      <trkpt lat="44.5959" lon="6.32183">
        <ele>1870.585449</ele>
        <time>2015-10-10T13:47:37Z</time>
      </trkpt>
      <trkpt lat="44.59592" lon="6.32217">
        <ele>1867.929199</ele>
        <time>2015-10-10T13:47:41Z</time>
      </trkpt>
      <trkpt lat="44.59596" lon="6.32235">
        <ele>1865.304199</ele>
        <time>2015-10-10T13:47:45Z</time>
      </trkpt>
      <trkpt lat="44.59597" lon="6.32236">
        <ele>1863.616699</ele>
        <time>2015-10-10T13:47:49Z</time>
      </trkpt>
      <trkpt lat="44.59596" lon="6.32236">
        <ele>1862.897949</ele>
        <time>2015-10-10T13:47:53Z</time>
      </trkpt>
      <trkpt lat="44.59597" lon="6.32236">
        <ele>1862.679199</ele>
        <time>2015-10-10T13:47:57Z</time>
      </trkpt>
      <trkpt lat="44.59597" lon="6.32236">
        <ele>1862.554199</ele>
        <time>2015-10-10T13:48:01Z</time>
      </trkpt>
      <trkpt lat="44.59596" lon="6.32237">
        <ele>1862.616699</ele>
        <time>2015-10-10T13:48:05Z</time>
      </trkpt>
      <trkpt lat="44.59597" lon="6.32236">
        <ele>1862.679199</ele>
        <time>2015-10-10T13:48:09Z</time>
      </trkpt>
      <trkpt lat="44.59597" lon="6.32236">
        <ele>1862.647949</ele>
        <time>2015-10-10T13:48:13Z</time>
      </trkpt>
      <trkpt lat="44.59592" lon="6.32241">
        <ele>1862.429199</ele>
        <time>2015-10-10T13:48:17Z</time>
      </trkpt>
      <trkpt lat="44.59575" lon="6.32261">
        <ele>1859.397949</ele>
        <time>2015-10-10T13:48:21Z</time>
      </trkpt>
      <trkpt lat="44.59563" lon="6.32287">
        <ele>1857.147949</ele>
        <time>2015-10-10T13:48:25Z</time>
      </trkpt>
      <trkpt lat="44.59566" lon="6.32318">
        <ele>1855.835449</ele>
        <time>2015-10-10T13:48:29Z</time>
      </trkpt>
      <trkpt lat="44.59563" lon="6.3235">
        <ele>1851.960449</ele>
        <time>2015-10-10T13:48:33Z</time>
      </trkpt>
      <trkpt lat="44.5956" lon="6.32382">
        <ele>1849.679199</ele>
        <time>2015-10-10T13:48:37Z</time>
      </trkpt>
      <trkpt lat="44.59559" lon="6.32411">
        <ele>1848.366699</ele>
        <time>2015-10-10T13:48:41Z</time>
      </trkpt>
      <trkpt lat="44.59558" lon="6.32434">
        <ele>1844.804199</ele>
        <time>2015-10-10T13:48:45Z</time>
      </trkpt>
      <trkpt lat="44.59563" lon="6.32457">
        <ele>1842.522949</ele>
        <time>2015-10-10T13:48:49Z</time>
      </trkpt>
      <trkpt lat="44.59569" lon="6.32481">
        <ele>1840.647949</ele>
        <time>2015-10-10T13:48:53Z</time>
      </trkpt>
      <trkpt lat="44.59576" lon="6.32506">
        <ele>1837.897949</ele>
        <time>2015-10-10T13:48:57Z</time>
      </trkpt>
      <trkpt lat="44.59584" lon="6.32532">
        <ele>1834.272949</ele>
        <time>2015-10-10T13:49:01Z</time>
      </trkpt>
      <trkpt lat="44.59594" lon="6.32557">
        <ele>1830.179199</ele>
        <time>2015-10-10T13:49:05Z</time>
      </trkpt>
      <trkpt lat="44.59602" lon="6.32586">
        <ele>1827.647949</ele>
        <time>2015-10-10T13:49:09Z</time>
      </trkpt>
      <trkpt lat="44.59607" lon="6.32614">
        <ele>1825.679199</ele>
        <time>2015-10-10T13:49:13Z</time>
      </trkpt>
      <trkpt lat="44.5961" lon="6.32632">
        <ele>1823.397949</ele>
        <time>2015-10-10T13:49:17Z</time>
      </trkpt>
      <trkpt lat="44.59612" lon="6.3263">
        <ele>1821.022949</ele>
        <time>2015-10-10T13:49:21Z</time>
      </trkpt>
      <trkpt lat="44.59611" lon="6.3263">
        <ele>1820.741699</ele>
        <time>2015-10-10T13:49:25Z</time>
      </trkpt>
      <trkpt lat="44.59611" lon="6.3263">
        <ele>1820.679199</ele>
        <time>2015-10-10T13:49:29Z</time>
      </trkpt>
      <trkpt lat="44.59612" lon="6.3263">
        <ele>1820.616699</ele>
        <time>2015-10-10T13:49:33Z</time>
      </trkpt>
      <trkpt lat="44.59612" lon="6.3263">
        <ele>1820.679199</ele>
        <time>2015-10-10T13:49:37Z</time>
      </trkpt>
      <trkpt lat="44.59612" lon="6.3263">
        <ele>1820.647949</ele>
        <time>2015-10-10T13:49:41Z</time>
      </trkpt>
      <trkpt lat="44.59611" lon="6.3263">
        <ele>1820.616699</ele>
        <time>2015-10-10T13:49:45Z</time>
      </trkpt>
      <trkpt lat="44.59612" lon="6.3263">
        <ele>1820.585449</ele>
        <time>2015-10-10T13:49:49Z</time>
      </trkpt>
      <trkpt lat="44.59612" lon="6.32631">
        <ele>1820.585449</ele>
        <time>2015-10-10T13:49:53Z</time>
      </trkpt>
      <trkpt lat="44.59614" lon="6.32645">
        <ele>1818.710449</ele>
        <time>2015-10-10T13:49:57Z</time>
      </trkpt>
      <trkpt lat="44.59623" lon="6.32677">
        <ele>1815.241699</ele>
        <time>2015-10-10T13:50:01Z</time>
      </trkpt>
      <trkpt lat="44.59639" lon="6.32709">
        <ele>1811.366699</ele>
        <time>2015-10-10T13:50:05Z</time>
      </trkpt>
      <trkpt lat="44.59665" lon="6.3273">
        <ele>1807.679199</ele>
        <time>2015-10-10T13:50:09Z</time>
      </trkpt>
      <trkpt lat="44.59684" lon="6.32754">
        <ele>1803.866699</ele>
        <time>2015-10-10T13:50:13Z</time>
      </trkpt>
      <trkpt lat="44.59702" lon="6.32787">
        <ele>1799.241699</ele>
        <time>2015-10-10T13:50:17Z</time>
      </trkpt>
      <trkpt lat="44.59718" lon="6.3282">
        <ele>1796.710449</ele>
        <time>2015-10-10T13:50:21Z</time>
      </trkpt>
      <trkpt lat="44.59728" lon="6.32863">
        <ele>1792.460449</ele>
        <time>2015-10-10T13:50:25Z</time>
      </trkpt>
      <trkpt lat="44.59729" lon="6.32906">
        <ele>1788.554199</ele>
        <time>2015-10-10T13:50:29Z</time>
      </trkpt>
      <trkpt lat="44.59727" lon="6.32948">
        <ele>1785.710449</ele>
        <time>2015-10-10T13:50:33Z</time>
      </trkpt>
      <trkpt lat="44.59728" lon="6.32992">
        <ele>1782.772949</ele>
        <time>2015-10-10T13:50:37Z</time>
      </trkpt>
      <trkpt lat="44.59728" lon="6.33034">
        <ele>1778.616699</ele>
        <time>2015-10-10T13:50:41Z</time>
      </trkpt>
      <trkpt lat="44.59716" lon="6.33057">
        <ele>1777.491699</ele>
        <time>2015-10-10T13:50:45Z</time>
      </trkpt>
      <trkpt lat="44.59715" lon="6.3307">
        <ele>1777.460449</ele>
        <time>2015-10-10T13:50:49Z</time>
      </trkpt>
      <trkpt lat="44.59728" lon="6.33061">
        <ele>1776.897949</ele>
        <time>2015-10-10T13:50:53Z</time>
      </trkpt>
      <trkpt lat="44.5974" lon="6.3304">
        <ele>1777.866699</ele>
        <time>2015-10-10T13:50:57Z</time>
      </trkpt>
      <trkpt lat="44.59745" lon="6.33025">
        <ele>1777.960449</ele>
        <time>2015-10-10T13:51:01Z</time>
      </trkpt>
      <trkpt lat="44.59745" lon="6.33024">
        <ele>1777.647949</ele>
        <time>2015-10-10T13:51:05Z</time>
      </trkpt>
      <trkpt lat="44.59745" lon="6.33024">
        <ele>1777.522949</ele>
        <time>2015-10-10T13:51:09Z</time>
      </trkpt>
      <trkpt lat="44.59745" lon="6.33025">
        <ele>1777.522949</ele>
        <time>2015-10-10T13:51:13Z</time>
      </trkpt>
      <trkpt lat="44.59745" lon="6.33025">
        <ele>1777.429199</ele>
        <time>2015-10-10T13:51:17Z</time>
      </trkpt>
      <trkpt lat="44.59745" lon="6.33025">
        <ele>1777.460449</ele>
        <time>2015-10-10T13:51:21Z</time>
      </trkpt>
      <trkpt lat="44.59745" lon="6.33025">
        <ele>1777.491699</ele>
        <time>2015-10-10T13:51:25Z</time>
      </trkpt>
      <trkpt lat="44.59745" lon="6.33025">
        <ele>1777.429199</ele>
        <time>2015-10-10T13:51:29Z</time>
      </trkpt>
      <trkpt lat="44.59747" lon="6.3301">
        <ele>1776.710449</ele>
        <time>2015-10-10T13:51:33Z</time>
      </trkpt>
      <trkpt lat="44.5975" lon="6.32982">
        <ele>1775.897949</ele>
        <time>2015-10-10T13:51:37Z</time>
      </trkpt>
      <trkpt lat="44.59757" lon="6.3295">
        <ele>1773.772949</ele>
        <time>2015-10-10T13:51:41Z</time>
      </trkpt>
      <trkpt lat="44.59768" lon="6.32918">
        <ele>1771.616699</ele>
        <time>2015-10-10T13:51:45Z</time>
      </trkpt>
      <trkpt lat="44.59777" lon="6.32888">
        <ele>1769.897949</ele>
        <time>2015-10-10T13:51:49Z</time>
      </trkpt>
      <trkpt lat="44.59783" lon="6.32848">
        <ele>1767.741699</ele>
        <time>2015-10-10T13:51:53Z</time>
      </trkpt>
      <trkpt lat="44.59781" lon="6.32811">
        <ele>1764.429199</ele>
        <time>2015-10-10T13:51:57Z</time>
      </trkpt>
      <trkpt lat="44.59774" lon="6.32777">
        <ele>1764.210449</ele>
        <time>2015-10-10T13:52:01Z</time>
      </trkpt>
      <trkpt lat="44.59778" lon="6.32752">
        <ele>1761.929199</ele>
        <time>2015-10-10T13:52:05Z</time>
      </trkpt>
      <trkpt lat="44.59782" lon="6.32728">
        <ele>1760.929199</ele>
        <time>2015-10-10T13:52:09Z</time>
      </trkpt>
      <trkpt lat="44.59779" lon="6.32703">
        <ele>1759.179199</ele>
        <time>2015-10-10T13:52:13Z</time>
      </trkpt>
      <trkpt lat="44.59772" lon="6.32674">
        <ele>1756.866699</ele>
        <time>2015-10-10T13:52:17Z</time>
      </trkpt>
      <trkpt lat="44.59783" lon="6.32648">
        <ele>1755.960449</ele>
        <time>2015-10-10T13:52:21Z</time>
      </trkpt>
      <trkpt lat="44.59796" lon="6.32626">
        <ele>1754.304199</ele>
        <time>2015-10-10T13:52:25Z</time>
      </trkpt>
      <trkpt lat="44.59795" lon="6.32591">
        <ele>1751.679199</ele>
        <time>2015-10-10T13:52:29Z</time>
      </trkpt>
      <trkpt lat="44.59795" lon="6.32559">
        <ele>1748.022949</ele>
        <time>2015-10-10T13:52:33Z</time>
      </trkpt>
      <trkpt lat="44.59804" lon="6.32532">
        <ele>1747.960449</ele>
        <time>2015-10-10T13:52:37Z</time>
      </trkpt>
      <trkpt lat="44.5981" lon="6.32511">
        <ele>1746.522949</ele>
        <time>2015-10-10T13:52:41Z</time>
      </trkpt>
      <trkpt lat="44.5981" lon="6.32497">
        <ele>1746.241699</ele>
        <time>2015-10-10T13:52:45Z</time>
      </trkpt>
      <trkpt lat="44.5981" lon="6.32484">
        <ele>1744.647949</ele>
        <time>2015-10-10T13:52:49Z</time>
      </trkpt>
      <trkpt lat="44.59812" lon="6.32465">
        <ele>1743.272949</ele>
        <time>2015-10-10T13:52:53Z</time>
      </trkpt>
      <trkpt lat="44.59814" lon="6.32456">
        <ele>1741.397949</ele>
        <time>2015-10-10T13:52:57Z</time>
      </trkpt>
      <trkpt lat="44.59813" lon="6.32457">
        <ele>1741.866699</ele>
        <time>2015-10-10T13:53:01Z</time>
      </trkpt>
      <trkpt lat="44.59813" lon="6.32457">
        <ele>1741.897949</ele>
        <time>2015-10-10T13:53:05Z</time>
      </trkpt>
      <trkpt lat="44.59813" lon="6.32457">
        <ele>1741.866699</ele>
        <time>2015-10-10T13:53:09Z</time>
      </trkpt>
      <trkpt lat="44.59813" lon="6.32457">
        <ele>1741.866699</ele>
        <time>2015-10-10T13:53:13Z</time>
      </trkpt>
      <trkpt lat="44.59813" lon="6.32457">
        <ele>1741.804199</ele>
        <time>2015-10-10T13:53:17Z</time>
      </trkpt>
      <trkpt lat="44.59813" lon="6.32458">
        <ele>1741.679199</ele>
        <time>2015-10-10T13:53:21Z</time>
      </trkpt>
      <trkpt lat="44.59813" lon="6.32458">
        <ele>1741.772949</ele>
        <time>2015-10-10T13:53:25Z</time>
      </trkpt>
      <trkpt lat="44.59813" lon="6.32458">
        <ele>1741.741699</ele>
        <time>2015-10-10T13:53:29Z</time>
      </trkpt>
      <trkpt lat="44.59813" lon="6.32458">
        <ele>1741.710449</ele>
        <time>2015-10-10T13:53:33Z</time>
      </trkpt>
      <trkpt lat="44.59813" lon="6.32458">
        <ele>1741.616699</ele>
        <time>2015-10-10T13:53:37Z</time>
      </trkpt>
      <trkpt lat="44.59813" lon="6.32458">
        <ele>1741.554199</ele>
        <time>2015-10-10T13:53:41Z</time>
      </trkpt>
      <trkpt lat="44.59813" lon="6.32458">
        <ele>1741.429199</ele>
        <time>2015-10-10T13:53:45Z</time>
      </trkpt>
      <trkpt lat="44.59813" lon="6.32458">
        <ele>1741.272949</ele>
        <time>2015-10-10T13:53:49Z</time>
      </trkpt>
      <trkpt lat="44.59813" lon="6.32458">
        <ele>1741.241699</ele>
        <time>2015-10-10T13:53:53Z</time>
      </trkpt>
      <trkpt lat="44.59813" lon="6.32459">
        <ele>1741.210449</ele>
        <time>2015-10-10T13:53:57Z</time>
      </trkpt>
      <trkpt lat="44.59813" lon="6.32459">
        <ele>1741.210449</ele>
        <time>2015-10-10T13:54:01Z</time>
      </trkpt>
      <trkpt lat="44.59813" lon="6.32459">
        <ele>1741.241699</ele>
        <time>2015-10-10T13:54:05Z</time>
      </trkpt>
      <trkpt lat="44.59813" lon="6.32459">
        <ele>1741.272949</ele>
        <time>2015-10-10T13:54:09Z</time>
      </trkpt>
      <trkpt lat="44.59812" lon="6.32459">
        <ele>1741.366699</ele>
        <time>2015-10-10T13:54:13Z</time>
      </trkpt>
      <trkpt lat="44.59812" lon="6.32459">
        <ele>1741.460449</ele>
        <time>2015-10-10T13:54:17Z</time>
      </trkpt>
      <trkpt lat="44.59812" lon="6.32459">
        <ele>1741.522949</ele>
        <time>2015-10-10T13:54:21Z</time>
      </trkpt>
      <trkpt lat="44.59812" lon="6.32459">
        <ele>1741.585449</ele>
        <time>2015-10-10T13:54:25Z</time>
      </trkpt>
      <trkpt lat="44.59808" lon="6.32444">
        <ele>1741.710449</ele>
        <time>2015-10-10T13:54:29Z</time>
      </trkpt>
      <trkpt lat="44.59798" lon="6.32421">
        <ele>1741.554199</ele>
        <time>2015-10-10T13:54:33Z</time>
      </trkpt>
      <trkpt lat="44.59795" lon="6.32395">
        <ele>1741.804199</ele>
        <time>2015-10-10T13:54:37Z</time>
      </trkpt>
      <trkpt lat="44.5981" lon="6.32396">
        <ele>1736.804199</ele>
        <time>2015-10-10T13:54:41Z</time>
      </trkpt>
      <trkpt lat="44.59829" lon="6.32404">
        <ele>1732.397949</ele>
        <time>2015-10-10T13:54:45Z</time>
      </trkpt>
      <trkpt lat="44.59847" lon="6.32403">
        <ele>1729.710449</ele>
        <time>2015-10-10T13:54:49Z</time>
      </trkpt>
      <trkpt lat="44.59856" lon="6.32414">
        <ele>1729.710449</ele>
        <time>2015-10-10T13:54:53Z</time>
      </trkpt>
      <trkpt lat="44.59846" lon="6.32428">
        <ele>1728.522949</ele>
        <time>2015-10-10T13:54:57Z</time>
      </trkpt>
      <trkpt lat="44.59843" lon="6.32446">
        <ele>1727.304199</ele>
        <time>2015-10-10T13:55:01Z</time>
      </trkpt>
      <trkpt lat="44.59855" lon="6.32461">
        <ele>1725.335449</ele>
        <time>2015-10-10T13:55:05Z</time>
      </trkpt>
      <trkpt lat="44.59864" lon="6.3248">
        <ele>1725.116699</ele>
        <time>2015-10-10T13:55:09Z</time>
      </trkpt>
      <trkpt lat="44.59872" lon="6.32498">
        <ele>1721.679199</ele>
        <time>2015-10-10T13:55:13Z</time>
      </trkpt>
      <trkpt lat="44.59881" lon="6.32518">
        <ele>1719.116699</ele>
        <time>2015-10-10T13:55:17Z</time>
      </trkpt>
      <trkpt lat="44.59885" lon="6.32546">
        <ele>1716.554199</ele>
        <time>2015-10-10T13:55:21Z</time>
      </trkpt>
      <trkpt lat="44.5989" lon="6.32574">
        <ele>1712.804199</ele>
        <time>2015-10-10T13:55:25Z</time>
      </trkpt>
      <trkpt lat="44.59898" lon="6.32594">
        <ele>1710.054199</ele>
        <time>2015-10-10T13:55:29Z</time>
      </trkpt>
      <trkpt lat="44.59896" lon="6.32618">
        <ele>1710.429199</ele>
        <time>2015-10-10T13:55:33Z</time>
      </trkpt>
      <trkpt lat="44.59892" lon="6.32645">
        <ele>1708.679199</ele>
        <time>2015-10-10T13:55:37Z</time>
      </trkpt>
      <trkpt lat="44.59886" lon="6.32667">
        <ele>1710.647949</ele>
        <time>2015-10-10T13:55:41Z</time>
      </trkpt>
      <trkpt lat="44.59882" lon="6.32691">
        <ele>1711.522949</ele>
        <time>2015-10-10T13:55:45Z</time>
      </trkpt>
      <trkpt lat="44.59891" lon="6.32712">
        <ele>1708.991699</ele>
        <time>2015-10-10T13:55:49Z</time>
      </trkpt>
      <trkpt lat="44.59901" lon="6.32732">
        <ele>1706.679199</ele>
        <time>2015-10-10T13:55:53Z</time>
      </trkpt>
      <trkpt lat="44.59915" lon="6.32751">
        <ele>1703.210449</ele>
        <time>2015-10-10T13:55:57Z</time>
      </trkpt>
      <trkpt lat="44.59929" lon="6.32767">
        <ele>1700.085449</ele>
        <time>2015-10-10T13:56:01Z</time>
      </trkpt>
      <trkpt lat="44.59937" lon="6.32774">
        <ele>1696.866699</ele>
        <time>2015-10-10T13:56:05Z</time>
      </trkpt>
      <trkpt lat="44.59945" lon="6.32784">
        <ele>1696.085449</ele>
        <time>2015-10-10T13:56:09Z</time>
      </trkpt>
      <trkpt lat="44.59946" lon="6.3278">
        <ele>1697.491699</ele>
        <time>2015-10-10T13:56:13Z</time>
      </trkpt>
      <trkpt lat="44.59945" lon="6.32772">
        <ele>1698.679199</ele>
        <time>2015-10-10T13:56:17Z</time>
      </trkpt>
      <trkpt lat="44.59946" lon="6.32769">
        <ele>1699.804199</ele>
        <time>2015-10-10T13:56:21Z</time>
      </trkpt>
      <trkpt lat="44.59946" lon="6.32769">
        <ele>1700.085449</ele>
        <time>2015-10-10T13:56:25Z</time>
      </trkpt>
      <trkpt lat="44.59946" lon="6.32769">
        <ele>1700.147949</ele>
        <time>2015-10-10T13:56:29Z</time>
      </trkpt>
      <trkpt lat="44.59945" lon="6.32768">
        <ele>1700.179199</ele>
        <time>2015-10-10T13:56:33Z</time>
      </trkpt>
      <trkpt lat="44.59942" lon="6.32758">
        <ele>1700.210449</ele>
        <time>2015-10-10T13:56:37Z</time>
      </trkpt>
      <trkpt lat="44.59943" lon="6.32739">
        <ele>1697.241699</ele>
        <time>2015-10-10T13:56:41Z</time>
      </trkpt>
      <trkpt lat="44.59959" lon="6.3272">
        <ele>1693.991699</ele>
        <time>2015-10-10T13:56:45Z</time>
      </trkpt>
      <trkpt lat="44.59974" lon="6.32703">
        <ele>1693.304199</ele>
        <time>2015-10-10T13:56:49Z</time>
      </trkpt>
      <trkpt lat="44.59987" lon="6.32706">
        <ele>1693.679199</ele>
        <time>2015-10-10T13:56:53Z</time>
      </trkpt>
      <trkpt lat="44.59992" lon="6.32718">
        <ele>1691.960449</ele>
        <time>2015-10-10T13:56:57Z</time>
      </trkpt>
      <trkpt lat="44.59999" lon="6.32734">
        <ele>1690.397949</ele>
        <time>2015-10-10T13:57:01Z</time>
      </trkpt>
      <trkpt lat="44.60005" lon="6.32743">
        <ele>1686.929199</ele>
        <time>2015-10-10T13:57:05Z</time>
      </trkpt>
      <trkpt lat="44.60006" lon="6.32744">
        <ele>1686.147949</ele>
        <time>2015-10-10T13:57:09Z</time>
      </trkpt>
      <trkpt lat="44.60007" lon="6.32744">
        <ele>1685.116699</ele>
        <time>2015-10-10T13:57:13Z</time>
      </trkpt>
      <trkpt lat="44.60007" lon="6.32744">
        <ele>1684.710449</ele>
        <time>2015-10-10T13:57:17Z</time>
      </trkpt>
      <trkpt lat="44.60007" lon="6.32744">
        <ele>1684.554199</ele>
        <time>2015-10-10T13:57:21Z</time>
      </trkpt>
      <trkpt lat="44.60007" lon="6.32744">
        <ele>1684.522949</ele>
        <time>2015-10-10T13:57:25Z</time>
      </trkpt>
      <trkpt lat="44.60008" lon="6.32744">
        <ele>1684.522949</ele>
        <time>2015-10-10T13:57:29Z</time>
      </trkpt>
      <trkpt lat="44.60008" lon="6.32744">
        <ele>1684.491699</ele>
        <time>2015-10-10T13:57:33Z</time>
      </trkpt>
      <trkpt lat="44.60007" lon="6.32744">
        <ele>1684.366699</ele>
        <time>2015-10-10T13:57:37Z</time>
      </trkpt>
      <trkpt lat="44.60007" lon="6.32744">
        <ele>1684.460449</ele>
        <time>2015-10-10T13:57:41Z</time>
      </trkpt>
      <trkpt lat="44.60008" lon="6.32744">
        <ele>1684.397949</ele>
        <time>2015-10-10T13:57:45Z</time>
      </trkpt>
      <trkpt lat="44.60008" lon="6.32743">
        <ele>1685.147949</ele>
        <time>2015-10-10T13:57:49Z</time>
      </trkpt>
      <trkpt lat="44.60019" lon="6.32746">
        <ele>1683.679199</ele>
        <time>2015-10-10T13:57:53Z</time>
      </trkpt>
      <trkpt lat="44.6003" lon="6.32752">
        <ele>1683.085449</ele>
        <time>2015-10-10T13:57:57Z</time>
      </trkpt>
      <trkpt lat="44.60027" lon="6.32762">
        <ele>1681.179199</ele>
        <time>2015-10-10T13:58:01Z</time>
      </trkpt>
      <trkpt lat="44.60025" lon="6.32774">
        <ele>1678.366699</ele>
        <time>2015-10-10T13:58:05Z</time>
      </trkpt>
      <trkpt lat="44.60025" lon="6.32788">
        <ele>1677.616699</ele>
        <time>2015-10-10T13:58:09Z</time>
      </trkpt>
      <trkpt lat="44.60035" lon="6.32801">
        <ele>1673.022949</ele>
        <time>2015-10-10T13:58:13Z</time>
      </trkpt>
      <trkpt lat="44.60043" lon="6.32809">
        <ele>1669.491699</ele>
        <time>2015-10-10T13:58:17Z</time>
      </trkpt>
      <trkpt lat="44.60047" lon="6.32821">
        <ele>1665.616699</ele>
        <time>2015-10-10T13:58:21Z</time>
      </trkpt>
      <trkpt lat="44.60052" lon="6.32839">
        <ele>1658.522949</ele>
        <time>2015-10-10T13:58:25Z</time>
      </trkpt>
      <trkpt lat="44.60055" lon="6.32863">
        <ele>1654.179199</ele>
        <time>2015-10-10T13:58:29Z</time>
      </trkpt>
      <trkpt lat="44.60052" lon="6.32887">
        <ele>1650.429199</ele>
        <time>2015-10-10T13:58:33Z</time>
      </trkpt>
      <trkpt lat="44.60048" lon="6.32909">
        <ele>1647.022949</ele>
        <time>2015-10-10T13:58:37Z</time>
      </trkpt>
      <trkpt lat="44.60043" lon="6.32933">
        <ele>1644.804199</ele>
        <time>2015-10-10T13:58:41Z</time>
      </trkpt>
      <trkpt lat="44.60041" lon="6.32959">
        <ele>1644.210449</ele>
        <time>2015-10-10T13:58:45Z</time>
      </trkpt>
      <trkpt lat="44.6004" lon="6.32982">
        <ele>1640.991699</ele>
        <time>2015-10-10T13:58:49Z</time>
      </trkpt>
      <trkpt lat="44.60039" lon="6.33">
        <ele>1636.054199</ele>
        <time>2015-10-10T13:58:53Z</time>
      </trkpt>
      <trkpt lat="44.60043" lon="6.33019">
        <ele>1633.022949</ele>
        <time>2015-10-10T13:58:57Z</time>
      </trkpt>
      <trkpt lat="44.60043" lon="6.33037">
        <ele>1630.210449</ele>
        <time>2015-10-10T13:59:01Z</time>
      </trkpt>
      <trkpt lat="44.60043" lon="6.33049">
        <ele>1628.054199</ele>
        <time>2015-10-10T13:59:05Z</time>
      </trkpt>
      <trkpt lat="44.60043" lon="6.33058">
        <ele>1627.022949</ele>
        <time>2015-10-10T13:59:09Z</time>
      </trkpt>
      <trkpt lat="44.60043" lon="6.33063">
        <ele>1626.116699</ele>
        <time>2015-10-10T13:59:13Z</time>
      </trkpt>
      <trkpt lat="44.60042" lon="6.33071">
        <ele>1624.397949</ele>
        <time>2015-10-10T13:59:17Z</time>
      </trkpt>
      <trkpt lat="44.60043" lon="6.33079">
        <ele>1622.960449</ele>
        <time>2015-10-10T13:59:21Z</time>
      </trkpt>
      <trkpt lat="44.60046" lon="6.33091">
        <ele>1620.616699</ele>
        <time>2015-10-10T13:59:25Z</time>
      </trkpt>
      <trkpt lat="44.60051" lon="6.3311">
        <ele>1616.897949</ele>
        <time>2015-10-10T13:59:29Z</time>
      </trkpt>
      <trkpt lat="44.60054" lon="6.33129">
        <ele>1612.741699</ele>
        <time>2015-10-10T13:59:33Z</time>
      </trkpt>
      <trkpt lat="44.60062" lon="6.33142">
        <ele>1609.085449</ele>
        <time>2015-10-10T13:59:37Z</time>
      </trkpt>
      <trkpt lat="44.60064" lon="6.33161">
        <ele>1604.929199</ele>
        <time>2015-10-10T13:59:41Z</time>
      </trkpt>
      <trkpt lat="44.60066" lon="6.33178">
        <ele>1602.179199</ele>
        <time>2015-10-10T13:59:45Z</time>
      </trkpt>
      <trkpt lat="44.60066" lon="6.33194">
        <ele>1600.116699</ele>
        <time>2015-10-10T13:59:49Z</time>
      </trkpt>
      <trkpt lat="44.60068" lon="6.33205">
        <ele>1598.147949</ele>
        <time>2015-10-10T13:59:53Z</time>
      </trkpt>
      <trkpt lat="44.6007" lon="6.33215">
        <ele>1595.272949</ele>
        <time>2015-10-10T13:59:57Z</time>
      </trkpt>
      <trkpt lat="44.60069" lon="6.33215">
        <ele>1594.960449</ele>
        <time>2015-10-10T14:00:01Z</time>
      </trkpt>
      <trkpt lat="44.60069" lon="6.33216">
        <ele>1594.741699</ele>
        <time>2015-10-10T14:00:05Z</time>
      </trkpt>
      <trkpt lat="44.60073" lon="6.33226">
        <ele>1593.616699</ele>
        <time>2015-10-10T14:00:09Z</time>
      </trkpt>
      <trkpt lat="44.60078" lon="6.33246">
        <ele>1590.522949</ele>
        <time>2015-10-10T14:00:13Z</time>
      </trkpt>
      <trkpt lat="44.6008" lon="6.33252">
        <ele>1588.366699</ele>
        <time>2015-10-10T14:00:17Z</time>
      </trkpt>
      <trkpt lat="44.60081" lon="6.33251">
        <ele>1588.366699</ele>
        <time>2015-10-10T14:00:21Z</time>
      </trkpt>
      <trkpt lat="44.60081" lon="6.33251">
        <ele>1588.210449</ele>
        <time>2015-10-10T14:00:25Z</time>
      </trkpt>
      <trkpt lat="44.60082" lon="6.3325">
        <ele>1588.241699</ele>
        <time>2015-10-10T14:00:29Z</time>
      </trkpt>
      <trkpt lat="44.60082" lon="6.3325">
        <ele>1588.147949</ele>
        <time>2015-10-10T14:00:33Z</time>
      </trkpt>
      <trkpt lat="44.60082" lon="6.3325">
        <ele>1588.210449</ele>
        <time>2015-10-10T14:00:37Z</time>
      </trkpt>
      <trkpt lat="44.60083" lon="6.3325">
        <ele>1588.210449</ele>
        <time>2015-10-10T14:00:41Z</time>
      </trkpt>
      <trkpt lat="44.60083" lon="6.3325">
        <ele>1588.210449</ele>
        <time>2015-10-10T14:00:45Z</time>
      </trkpt>
      <trkpt lat="44.60083" lon="6.3325">
        <ele>1588.147949</ele>
        <time>2015-10-10T14:00:49Z</time>
      </trkpt>
      <trkpt lat="44.60085" lon="6.33253">
        <ele>1588.241699</ele>
        <time>2015-10-10T14:00:53Z</time>
      </trkpt>
      <trkpt lat="44.60093" lon="6.33264">
        <ele>1584.772949</ele>
        <time>2015-10-10T14:00:57Z</time>
      </trkpt>
      <trkpt lat="44.60099" lon="6.33274">
        <ele>1583.491699</ele>
        <time>2015-10-10T14:01:01Z</time>
      </trkpt>
      <trkpt lat="44.60105" lon="6.33277">
        <ele>1581.679199</ele>
        <time>2015-10-10T14:01:05Z</time>
      </trkpt>
      <trkpt lat="44.60106" lon="6.33277">
        <ele>1582.147949</ele>
        <time>2015-10-10T14:01:09Z</time>
      </trkpt>
      <trkpt lat="44.60106" lon="6.33277">
        <ele>1582.054199</ele>
        <time>2015-10-10T14:01:13Z</time>
      </trkpt>
      <trkpt lat="44.60106" lon="6.33277">
        <ele>1582.054199</ele>
        <time>2015-10-10T14:01:17Z</time>
      </trkpt>
      <trkpt lat="44.60106" lon="6.33277">
        <ele>1582.085449</ele>
        <time>2015-10-10T14:01:21Z</time>
      </trkpt>
      <trkpt lat="44.60106" lon="6.33277">
        <ele>1582.179199</ele>
        <time>2015-10-10T14:01:25Z</time>
      </trkpt>
      <trkpt lat="44.60106" lon="6.33277">
        <ele>1582.210449</ele>
        <time>2015-10-10T14:01:29Z</time>
      </trkpt>
      <trkpt lat="44.60108" lon="6.33287">
        <ele>1582.272949</ele>
        <time>2015-10-10T14:01:33Z</time>
      </trkpt>
      <trkpt lat="44.60113" lon="6.33314">
        <ele>1579.272949</ele>
        <time>2015-10-10T14:01:37Z</time>
      </trkpt>
      <trkpt lat="44.60117" lon="6.33332">
        <ele>1576.647949</ele>
        <time>2015-10-10T14:01:41Z</time>
      </trkpt>
      <trkpt lat="44.60119" lon="6.33347">
        <ele>1573.241699</ele>
        <time>2015-10-10T14:01:45Z</time>
      </trkpt>
      <trkpt lat="44.60121" lon="6.33362">
        <ele>1570.554199</ele>
        <time>2015-10-10T14:01:49Z</time>
      </trkpt>
      <trkpt lat="44.60123" lon="6.33379">
        <ele>1566.679199</ele>
        <time>2015-10-10T14:01:53Z</time>
      </trkpt>
      <trkpt lat="44.60122" lon="6.33391">
        <ele>1564.335449</ele>
        <time>2015-10-10T14:01:57Z</time>
      </trkpt>
      <trkpt lat="44.60123" lon="6.33402">
        <ele>1562.272949</ele>
        <time>2015-10-10T14:02:01Z</time>
      </trkpt>
      <trkpt lat="44.60123" lon="6.33415">
        <ele>1560.616699</ele>
        <time>2015-10-10T14:02:05Z</time>
      </trkpt>
      <trkpt lat="44.60119" lon="6.33422">
        <ele>1560.116699</ele>
        <time>2015-10-10T14:02:09Z</time>
      </trkpt>
      <trkpt lat="44.60115" lon="6.33435">
        <ele>1558.897949</ele>
        <time>2015-10-10T14:02:13Z</time>
      </trkpt>
      <trkpt lat="44.60109" lon="6.33459">
        <ele>1556.804199</ele>
        <time>2015-10-10T14:02:17Z</time>
      </trkpt>
      <trkpt lat="44.60091" lon="6.33479">
        <ele>1554.397949</ele>
        <time>2015-10-10T14:02:21Z</time>
      </trkpt>
      <trkpt lat="44.60073" lon="6.335">
        <ele>1552.647949</ele>
        <time>2015-10-10T14:02:25Z</time>
      </trkpt>
      <trkpt lat="44.60054" lon="6.33522">
        <ele>1550.929199</ele>
        <time>2015-10-10T14:02:29Z</time>
      </trkpt>
      <trkpt lat="44.60035" lon="6.33547">
        <ele>1549.991699</ele>
        <time>2015-10-10T14:02:33Z</time>
      </trkpt>
      <trkpt lat="44.60018" lon="6.33572">
        <ele>1547.054199</ele>
        <time>2015-10-10T14:02:37Z</time>
      </trkpt>
      <trkpt lat="44.60016" lon="6.33602">
        <ele>1543.522949</ele>
        <time>2015-10-10T14:02:41Z</time>
      </trkpt>
      <trkpt lat="44.60017" lon="6.33631">
        <ele>1540.929199</ele>
        <time>2015-10-10T14:02:45Z</time>
      </trkpt>
      <trkpt lat="44.60009" lon="6.3365">
        <ele>1538.554199</ele>
        <time>2015-10-10T14:02:49Z</time>
      </trkpt>
      <trkpt lat="44.59996" lon="6.33672">
        <ele>1537.272949</ele>
        <time>2015-10-10T14:02:53Z</time>
      </trkpt>
      <trkpt lat="44.5999" lon="6.33698">
        <ele>1535.929199</ele>
        <time>2015-10-10T14:02:57Z</time>
      </trkpt>
      <trkpt lat="44.59985" lon="6.33718">
        <ele>1534.335449</ele>
        <time>2015-10-10T14:03:01Z</time>
      </trkpt>
      <trkpt lat="44.59977" lon="6.33739">
        <ele>1533.304199</ele>
        <time>2015-10-10T14:03:05Z</time>
      </trkpt>
      <trkpt lat="44.59969" lon="6.33764">
        <ele>1533.772949</ele>
        <time>2015-10-10T14:03:09Z</time>
      </trkpt>
      <trkpt lat="44.59959" lon="6.3378">
        <ele>1532.366699</ele>
        <time>2015-10-10T14:03:13Z</time>
      </trkpt>
      <trkpt lat="44.59943" lon="6.33795">
        <ele>1531.616699</ele>
        <time>2015-10-10T14:03:17Z</time>
      </trkpt>
      <trkpt lat="44.59927" lon="6.33815">
        <ele>1530.397949</ele>
        <time>2015-10-10T14:03:21Z</time>
      </trkpt>
      <trkpt lat="44.59913" lon="6.3384">
        <ele>1526.991699</ele>
        <time>2015-10-10T14:03:25Z</time>
      </trkpt>
      <trkpt lat="44.59901" lon="6.33866">
        <ele>1523.397949</ele>
        <time>2015-10-10T14:03:29Z</time>
      </trkpt>
      <trkpt lat="44.5989" lon="6.3389">
        <ele>1520.147949</ele>
        <time>2015-10-10T14:03:33Z</time>
      </trkpt>
      <trkpt lat="44.59874" lon="6.33911">
        <ele>1516.991699</ele>
        <time>2015-10-10T14:03:37Z</time>
      </trkpt>
      <trkpt lat="44.5986" lon="6.33932">
        <ele>1511.710449</ele>
        <time>2015-10-10T14:03:41Z</time>
      </trkpt>
      <trkpt lat="44.59844" lon="6.33954">
        <ele>1505.054199</ele>
        <time>2015-10-10T14:03:45Z</time>
      </trkpt>
      <trkpt lat="44.59839" lon="6.33958">
        <ele>1505.710449</ele>
        <time>2015-10-10T14:03:49Z</time>
      </trkpt>
      <trkpt lat="44.5984" lon="6.33957">
        <ele>1507.397949</ele>
        <time>2015-10-10T14:03:53Z</time>
      </trkpt>
      <trkpt lat="44.5984" lon="6.33957">
        <ele>1507.241699</ele>
        <time>2015-10-10T14:03:57Z</time>
      </trkpt>
      <trkpt lat="44.5984" lon="6.33957">
        <ele>1507.085449</ele>
        <time>2015-10-10T14:04:01Z</time>
      </trkpt>
      <trkpt lat="44.5984" lon="6.33957">
        <ele>1507.116699</ele>
        <time>2015-10-10T14:04:05Z</time>
      </trkpt>
      <trkpt lat="44.5984" lon="6.33957">
        <ele>1506.710449</ele>
        <time>2015-10-10T14:04:09Z</time>
      </trkpt>
      <trkpt lat="44.5984" lon="6.33957">
        <ele>1506.522949</ele>
        <time>2015-10-10T14:04:13Z</time>
      </trkpt>
      <trkpt lat="44.5984" lon="6.33957">
        <ele>1506.304199</ele>
        <time>2015-10-10T14:04:17Z</time>
      </trkpt>
      <trkpt lat="44.59835" lon="6.33967">
        <ele>1504.741699</ele>
        <time>2015-10-10T14:04:21Z</time>
      </trkpt>
      <trkpt lat="44.59827" lon="6.33992">
        <ele>1503.585449</ele>
        <time>2015-10-10T14:04:25Z</time>
      </trkpt>
      <trkpt lat="44.59818" lon="6.34028">
        <ele>1501.335449</ele>
        <time>2015-10-10T14:04:29Z</time>
      </trkpt>
      <trkpt lat="44.5981" lon="6.34061">
        <ele>1498.741699</ele>
        <time>2015-10-10T14:04:33Z</time>
      </trkpt>
      <trkpt lat="44.59805" lon="6.34075">
        <ele>1497.210449</ele>
        <time>2015-10-10T14:04:37Z</time>
      </trkpt>
      <trkpt lat="44.59802" lon="6.34075">
        <ele>1495.804199</ele>
        <time>2015-10-10T14:04:41Z</time>
      </trkpt>
      <trkpt lat="44.59802" lon="6.34075">
        <ele>1495.647949</ele>
        <time>2015-10-10T14:04:45Z</time>
      </trkpt>
      <trkpt lat="44.59802" lon="6.34075">
        <ele>1495.616699</ele>
        <time>2015-10-10T14:04:49Z</time>
      </trkpt>
      <trkpt lat="44.59802" lon="6.34075">
        <ele>1495.554199</ele>
        <time>2015-10-10T14:04:53Z</time>
      </trkpt>
      <trkpt lat="44.59801" lon="6.34075">
        <ele>1495.366699</ele>
        <time>2015-10-10T14:04:57Z</time>
      </trkpt>
      <trkpt lat="44.598" lon="6.34076">
        <ele>1495.179199</ele>
        <time>2015-10-10T14:05:01Z</time>
      </trkpt>
      <trkpt lat="44.598" lon="6.34077">
        <ele>1495.054199</ele>
        <time>2015-10-10T14:05:05Z</time>
      </trkpt>
      <trkpt lat="44.59799" lon="6.34083">
        <ele>1496.397949</ele>
        <time>2015-10-10T14:05:09Z</time>
      </trkpt>
      <trkpt lat="44.59796" lon="6.341">
        <ele>1496.116699</ele>
        <time>2015-10-10T14:05:13Z</time>
      </trkpt>
      <trkpt lat="44.59787" lon="6.34123">
        <ele>1494.585449</ele>
        <time>2015-10-10T14:05:17Z</time>
      </trkpt>
      <trkpt lat="44.59776" lon="6.34147">
        <ele>1486.679199</ele>
        <time>2015-10-10T14:05:21Z</time>
      </trkpt>
      <trkpt lat="44.59766" lon="6.34173">
        <ele>1484.960449</ele>
        <time>2015-10-10T14:05:25Z</time>
      </trkpt>
      <trkpt lat="44.59748" lon="6.34189">
        <ele>1483.741699</ele>
        <time>2015-10-10T14:05:29Z</time>
      </trkpt>
      <trkpt lat="44.59736" lon="6.34206">
        <ele>1482.710449</ele>
        <time>2015-10-10T14:05:33Z</time>
      </trkpt>
      <trkpt lat="44.59725" lon="6.34222">
        <ele>1482.866699</ele>
        <time>2015-10-10T14:05:37Z</time>
      </trkpt>
      <trkpt lat="44.59718" lon="6.34228">
        <ele>1482.366699</ele>
        <time>2015-10-10T14:05:41Z</time>
      </trkpt>
      <trkpt lat="44.59718" lon="6.34227">
        <ele>1482.710449</ele>
        <time>2015-10-10T14:05:45Z</time>
      </trkpt>
      <trkpt lat="44.59718" lon="6.34228">
        <ele>1482.647949</ele>
        <time>2015-10-10T14:05:49Z</time>
      </trkpt>
      <trkpt lat="44.59713" lon="6.34237">
        <ele>1483.022949</ele>
        <time>2015-10-10T14:05:53Z</time>
      </trkpt>
      <trkpt lat="44.59701" lon="6.34254">
        <ele>1485.866699</ele>
        <time>2015-10-10T14:05:57Z</time>
      </trkpt>
      <trkpt lat="44.59683" lon="6.34263">
        <ele>1485.679199</ele>
        <time>2015-10-10T14:06:01Z</time>
      </trkpt>
      <trkpt lat="44.59661" lon="6.34266">
        <ele>1485.679199</ele>
        <time>2015-10-10T14:06:05Z</time>
      </trkpt>
      <trkpt lat="44.59644" lon="6.34289">
        <ele>1485.897949</ele>
        <time>2015-10-10T14:06:09Z</time>
      </trkpt>
      <trkpt lat="44.59633" lon="6.34313">
        <ele>1485.804199</ele>
        <time>2015-10-10T14:06:13Z</time>
      </trkpt>
      <trkpt lat="44.5962" lon="6.3433">
        <ele>1486.866699</ele>
        <time>2015-10-10T14:06:17Z</time>
      </trkpt>
      <trkpt lat="44.5961" lon="6.34348">
        <ele>1487.710449</ele>
        <time>2015-10-10T14:06:21Z</time>
      </trkpt>
      <trkpt lat="44.59609" lon="6.34373">
        <ele>1488.460449</ele>
        <time>2015-10-10T14:06:25Z</time>
      </trkpt>
      <trkpt lat="44.5961" lon="6.344">
        <ele>1489.241699</ele>
        <time>2015-10-10T14:06:29Z</time>
      </trkpt>
      <trkpt lat="44.5961" lon="6.34425">
        <ele>1491.116699</ele>
        <time>2015-10-10T14:06:33Z</time>
      </trkpt>
      <trkpt lat="44.59604" lon="6.34452">
        <ele>1492.304199</ele>
        <time>2015-10-10T14:06:37Z</time>
      </trkpt>
      <trkpt lat="44.59595" lon="6.34482">
        <ele>1492.647949</ele>
        <time>2015-10-10T14:06:41Z</time>
      </trkpt>
      <trkpt lat="44.5959" lon="6.34513">
        <ele>1493.085449</ele>
        <time>2015-10-10T14:06:45Z</time>
      </trkpt>
      <trkpt lat="44.59586" lon="6.34545">
        <ele>1493.335449</ele>
        <time>2015-10-10T14:06:49Z</time>
      </trkpt>
      <trkpt lat="44.59576" lon="6.34571">
        <ele>1492.460449</ele>
        <time>2015-10-10T14:06:53Z</time>
      </trkpt>
      <trkpt lat="44.59559" lon="6.34592">
        <ele>1491.679199</ele>
        <time>2015-10-10T14:06:57Z</time>
      </trkpt>
      <trkpt lat="44.59538" lon="6.34605">
        <ele>1491.397949</ele>
        <time>2015-10-10T14:07:01Z</time>
      </trkpt>
      <trkpt lat="44.59524" lon="6.34634">
        <ele>1490.085449</ele>
        <time>2015-10-10T14:07:05Z</time>
      </trkpt>
      <trkpt lat="44.59507" lon="6.34659">
        <ele>1489.772949</ele>
        <time>2015-10-10T14:07:09Z</time>
      </trkpt>
      <trkpt lat="44.59492" lon="6.34685">
        <ele>1489.491699</ele>
        <time>2015-10-10T14:07:13Z</time>
      </trkpt>
      <trkpt lat="44.59474" lon="6.34701">
        <ele>1488.679199</ele>
        <time>2015-10-10T14:07:17Z</time>
      </trkpt>
      <trkpt lat="44.59457" lon="6.34721">
        <ele>1488.804199</ele>
        <time>2015-10-10T14:07:21Z</time>
      </trkpt>
      <trkpt lat="44.59449" lon="6.34749">
        <ele>1490.960449</ele>
        <time>2015-10-10T14:07:25Z</time>
      </trkpt>
      <trkpt lat="44.59449" lon="6.34779">
        <ele>1491.710449</ele>
        <time>2015-10-10T14:07:29Z</time>
      </trkpt>
      <trkpt lat="44.59453" lon="6.34808">
        <ele>1493.054199</ele>
        <time>2015-10-10T14:07:33Z</time>
      </trkpt>
      <trkpt lat="44.59455" lon="6.34833">
        <ele>1493.929199</ele>
        <time>2015-10-10T14:07:37Z</time>
      </trkpt>
      <trkpt lat="44.59451" lon="6.34858">
        <ele>1496.241699</ele>
        <time>2015-10-10T14:07:41Z</time>
      </trkpt>
      <trkpt lat="44.59448" lon="6.34884">
        <ele>1494.866699</ele>
        <time>2015-10-10T14:07:45Z</time>
      </trkpt>
      <trkpt lat="44.59442" lon="6.34913">
        <ele>1494.241699</ele>
        <time>2015-10-10T14:07:49Z</time>
      </trkpt>
      <trkpt lat="44.59432" lon="6.34943">
        <ele>1492.366699</ele>
        <time>2015-10-10T14:07:53Z</time>
      </trkpt>
      <trkpt lat="44.59419" lon="6.34977">
        <ele>1490.241699</ele>
        <time>2015-10-10T14:07:57Z</time>
      </trkpt>
      <trkpt lat="44.59407" lon="6.35006">
        <ele>1489.116699</ele>
        <time>2015-10-10T14:08:01Z</time>
      </trkpt>
      <trkpt lat="44.59395" lon="6.35029">
        <ele>1489.022949</ele>
        <time>2015-10-10T14:08:05Z</time>
      </trkpt>
      <trkpt lat="44.59381" lon="6.35052">
        <ele>1488.241699</ele>
        <time>2015-10-10T14:08:09Z</time>
      </trkpt>
      <trkpt lat="44.59367" lon="6.35074">
        <ele>1487.366699</ele>
        <time>2015-10-10T14:08:13Z</time>
      </trkpt>
      <trkpt lat="44.59352" lon="6.35099">
        <ele>1485.272949</ele>
        <time>2015-10-10T14:08:17Z</time>
      </trkpt>
      <trkpt lat="44.59338" lon="6.35132">
        <ele>1482.929199</ele>
        <time>2015-10-10T14:08:21Z</time>
      </trkpt>
      <trkpt lat="44.59332" lon="6.35175">
        <ele>1481.929199</ele>
        <time>2015-10-10T14:08:25Z</time>
      </trkpt>
      <trkpt lat="44.59327" lon="6.35214">
        <ele>1481.460449</ele>
        <time>2015-10-10T14:08:29Z</time>
      </trkpt>
      <trkpt lat="44.59317" lon="6.35248">
        <ele>1482.116699</ele>
        <time>2015-10-10T14:08:33Z</time>
      </trkpt>
      <trkpt lat="44.59306" lon="6.35282">
        <ele>1481.835449</ele>
        <time>2015-10-10T14:08:37Z</time>
      </trkpt>
      <trkpt lat="44.59294" lon="6.35314">
        <ele>1481.866699</ele>
        <time>2015-10-10T14:08:41Z</time>
      </trkpt>
      <trkpt lat="44.59283" lon="6.35342">
        <ele>1481.397949</ele>
        <time>2015-10-10T14:08:45Z</time>
      </trkpt>
      <trkpt lat="44.59272" lon="6.35368">
        <ele>1480.491699</ele>
        <time>2015-10-10T14:08:49Z</time>
      </trkpt>
      <trkpt lat="44.59256" lon="6.35388">
        <ele>1479.241699</ele>
        <time>2015-10-10T14:08:53Z</time>
      </trkpt>
      <trkpt lat="44.59236" lon="6.35405">
        <ele>1477.147949</ele>
        <time>2015-10-10T14:08:57Z</time>
      </trkpt>
      <trkpt lat="44.59214" lon="6.35419">
        <ele>1476.679199</ele>
        <time>2015-10-10T14:09:01Z</time>
      </trkpt>
      <trkpt lat="44.59193" lon="6.35433">
        <ele>1477.397949</ele>
        <time>2015-10-10T14:09:05Z</time>
      </trkpt>
      <trkpt lat="44.59177" lon="6.35451">
        <ele>1478.085449</ele>
        <time>2015-10-10T14:09:09Z</time>
      </trkpt>
      <trkpt lat="44.59162" lon="6.35472">
        <ele>1478.179199</ele>
        <time>2015-10-10T14:09:13Z</time>
      </trkpt>
      <trkpt lat="44.5915" lon="6.35491">
        <ele>1480.241699</ele>
        <time>2015-10-10T14:09:17Z</time>
      </trkpt>
      <trkpt lat="44.59139" lon="6.35508">
        <ele>1481.991699</ele>
        <time>2015-10-10T14:09:21Z</time>
      </trkpt>
      <trkpt lat="44.59128" lon="6.35524">
        <ele>1483.522949</ele>
        <time>2015-10-10T14:09:25Z</time>
      </trkpt>
      <trkpt lat="44.59119" lon="6.35538">
        <ele>1484.710449</ele>
        <time>2015-10-10T14:09:29Z</time>
      </trkpt>
      <trkpt lat="44.59111" lon="6.35547">
        <ele>1485.304199</ele>
        <time>2015-10-10T14:09:33Z</time>
      </trkpt>
      <trkpt lat="44.5911" lon="6.35547">
        <ele>1486.022949</ele>
        <time>2015-10-10T14:09:37Z</time>
      </trkpt>
      <trkpt lat="44.5911" lon="6.35547">
        <ele>1485.741699</ele>
        <time>2015-10-10T14:09:41Z</time>
      </trkpt>
      <trkpt lat="44.5911" lon="6.35547">
        <ele>1485.429199</ele>
        <time>2015-10-10T14:09:45Z</time>
      </trkpt>
      <trkpt lat="44.5911" lon="6.35547">
        <ele>1485.241699</ele>
        <time>2015-10-10T14:09:49Z</time>
      </trkpt>
      <trkpt lat="44.5911" lon="6.35547">
        <ele>1485.147949</ele>
        <time>2015-10-10T14:09:53Z</time>
      </trkpt>
      <trkpt lat="44.59109" lon="6.35547">
        <ele>1484.929199</ele>
        <time>2015-10-10T14:09:57Z</time>
      </trkpt>
      <trkpt lat="44.59109" lon="6.35548">
        <ele>1484.554199</ele>
        <time>2015-10-10T14:10:01Z</time>
      </trkpt>
      <trkpt lat="44.59109" lon="6.35548">
        <ele>1484.460449</ele>
        <time>2015-10-10T14:10:05Z</time>
      </trkpt>
      <trkpt lat="44.59105" lon="6.35548">
        <ele>1483.304199</ele>
        <time>2015-10-10T14:10:09Z</time>
      </trkpt>
      <trkpt lat="44.59094" lon="6.3556">
        <ele>1483.429199</ele>
        <time>2015-10-10T14:10:13Z</time>
      </trkpt>
      <trkpt lat="44.59072" lon="6.35569">
        <ele>1482.022949</ele>
        <time>2015-10-10T14:10:17Z</time>
      </trkpt>
      <trkpt lat="44.5905" lon="6.35578">
        <ele>1483.022949</ele>
        <time>2015-10-10T14:10:21Z</time>
      </trkpt>
      <trkpt lat="44.59034" lon="6.35592">
        <ele>1484.116699</ele>
        <time>2015-10-10T14:10:25Z</time>
      </trkpt>
      <trkpt lat="44.5902" lon="6.3561">
        <ele>1486.366699</ele>
        <time>2015-10-10T14:10:29Z</time>
      </trkpt>
      <trkpt lat="44.5901" lon="6.35633">
        <ele>1487.804199</ele>
        <time>2015-10-10T14:10:33Z</time>
      </trkpt>
      <trkpt lat="44.59002" lon="6.35658">
        <ele>1487.304199</ele>
        <time>2015-10-10T14:10:37Z</time>
      </trkpt>
      <trkpt lat="44.58991" lon="6.35681">
        <ele>1487.397949</ele>
        <time>2015-10-10T14:10:41Z</time>
      </trkpt>
      <trkpt lat="44.58977" lon="6.35701">
        <ele>1487.366699</ele>
        <time>2015-10-10T14:10:45Z</time>
      </trkpt>
      <trkpt lat="44.5896" lon="6.35718">
        <ele>1485.554199</ele>
        <time>2015-10-10T14:10:49Z</time>
      </trkpt>
      <trkpt lat="44.58941" lon="6.35729">
        <ele>1485.085449</ele>
        <time>2015-10-10T14:10:53Z</time>
      </trkpt>
      <trkpt lat="44.58917" lon="6.35732">
        <ele>1485.116699</ele>
        <time>2015-10-10T14:10:57Z</time>
      </trkpt>
      <trkpt lat="44.58897" lon="6.35736">
        <ele>1486.585449</ele>
        <time>2015-10-10T14:11:01Z</time>
      </trkpt>
      <trkpt lat="44.58878" lon="6.35743">
        <ele>1487.804199</ele>
        <time>2015-10-10T14:11:05Z</time>
      </trkpt>
      <trkpt lat="44.5886" lon="6.35752">
        <ele>1487.772949</ele>
        <time>2015-10-10T14:11:09Z</time>
      </trkpt>
      <trkpt lat="44.58844" lon="6.35764">
        <ele>1488.679199</ele>
        <time>2015-10-10T14:11:13Z</time>
      </trkpt>
      <trkpt lat="44.58832" lon="6.35783">
        <ele>1488.210449</ele>
        <time>2015-10-10T14:11:17Z</time>
      </trkpt>
      <trkpt lat="44.58821" lon="6.35806">
        <ele>1488.929199</ele>
        <time>2015-10-10T14:11:21Z</time>
      </trkpt>
      <trkpt lat="44.58807" lon="6.35828">
        <ele>1489.085449</ele>
        <time>2015-10-10T14:11:25Z</time>
      </trkpt>
      <trkpt lat="44.58789" lon="6.35837">
        <ele>1489.460449</ele>
        <time>2015-10-10T14:11:29Z</time>
      </trkpt>
      <trkpt lat="44.58771" lon="6.35842">
        <ele>1490.991699</ele>
        <time>2015-10-10T14:11:33Z</time>
      </trkpt>
      <trkpt lat="44.58757" lon="6.35853">
        <ele>1491.491699</ele>
        <time>2015-10-10T14:11:37Z</time>
      </trkpt>
      <trkpt lat="44.58749" lon="6.35867">
        <ele>1493.460449</ele>
        <time>2015-10-10T14:11:41Z</time>
      </trkpt>
      <trkpt lat="44.58743" lon="6.35867">
        <ele>1492.460449</ele>
        <time>2015-10-10T14:11:45Z</time>
      </trkpt>
      <trkpt lat="44.58739" lon="6.35866">
        <ele>1492.272949</ele>
        <time>2015-10-10T14:11:49Z</time>
      </trkpt>
      <trkpt lat="44.5874" lon="6.35866">
        <ele>1492.429199</ele>
        <time>2015-10-10T14:11:53Z</time>
      </trkpt>
      <trkpt lat="44.58738" lon="6.3587">
        <ele>1492.366699</ele>
        <time>2015-10-10T14:11:57Z</time>
      </trkpt>
      <trkpt lat="44.58728" lon="6.35877">
        <ele>1493.272949</ele>
        <time>2015-10-10T14:12:01Z</time>
      </trkpt>
      <trkpt lat="44.58716" lon="6.35878">
        <ele>1494.022949</ele>
        <time>2015-10-10T14:12:05Z</time>
      </trkpt>
      <trkpt lat="44.58704" lon="6.35879">
        <ele>1496.241699</ele>
        <time>2015-10-10T14:12:09Z</time>
      </trkpt>
      <trkpt lat="44.58692" lon="6.35885">
        <ele>1498.522949</ele>
        <time>2015-10-10T14:12:13Z</time>
      </trkpt>
      <trkpt lat="44.58682" lon="6.35897">
        <ele>1500.679199</ele>
        <time>2015-10-10T14:12:17Z</time>
      </trkpt>
      <trkpt lat="44.58671" lon="6.35911">
        <ele>1502.116699</ele>
        <time>2015-10-10T14:12:21Z</time>
      </trkpt>
      <trkpt lat="44.58663" lon="6.35924">
        <ele>1503.616699</ele>
        <time>2015-10-10T14:12:25Z</time>
      </trkpt>
      <trkpt lat="44.58651" lon="6.35936">
        <ele>1505.710449</ele>
        <time>2015-10-10T14:12:29Z</time>
      </trkpt>
      <trkpt lat="44.5864" lon="6.35938">
        <ele>1507.179199</ele>
        <time>2015-10-10T14:12:33Z</time>
      </trkpt>
      <trkpt lat="44.58628" lon="6.35939">
        <ele>1508.179199</ele>
        <time>2015-10-10T14:12:37Z</time>
      </trkpt>
      <trkpt lat="44.58615" lon="6.35939">
        <ele>1509.991699</ele>
        <time>2015-10-10T14:12:41Z</time>
      </trkpt>
      <trkpt lat="44.58602" lon="6.35942">
        <ele>1511.991699</ele>
        <time>2015-10-10T14:12:45Z</time>
      </trkpt>
      <trkpt lat="44.58589" lon="6.35948">
        <ele>1514.335449</ele>
        <time>2015-10-10T14:12:49Z</time>
      </trkpt>
      <trkpt lat="44.58575" lon="6.35951">
        <ele>1516.491699</ele>
        <time>2015-10-10T14:12:53Z</time>
      </trkpt>
      <trkpt lat="44.58563" lon="6.35957">
        <ele>1517.429199</ele>
        <time>2015-10-10T14:12:57Z</time>
      </trkpt>
      <trkpt lat="44.58552" lon="6.35966">
        <ele>1518.179199</ele>
        <time>2015-10-10T14:13:01Z</time>
      </trkpt>
      <trkpt lat="44.5854" lon="6.35977">
        <ele>1518.522949</ele>
        <time>2015-10-10T14:13:05Z</time>
      </trkpt>
      <trkpt lat="44.58529" lon="6.35987">
        <ele>1518.741699</ele>
        <time>2015-10-10T14:13:09Z</time>
      </trkpt>
      <trkpt lat="44.58519" lon="6.35993">
        <ele>1518.554199</ele>
        <time>2015-10-10T14:13:13Z</time>
      </trkpt>
      <trkpt lat="44.58511" lon="6.36001">
        <ele>1518.647949</ele>
        <time>2015-10-10T14:13:17Z</time>
      </trkpt>
      <trkpt lat="44.58497" lon="6.36">
        <ele>1517.585449</ele>
        <time>2015-10-10T14:13:21Z</time>
      </trkpt>
      <trkpt lat="44.58483" lon="6.35999">
        <ele>1517.241699</ele>
        <time>2015-10-10T14:13:25Z</time>
      </trkpt>
      <trkpt lat="44.58473" lon="6.35995">
        <ele>1518.397949</ele>
        <time>2015-10-10T14:13:29Z</time>
      </trkpt>
      <trkpt lat="44.58465" lon="6.35983">
        <ele>1520.397949</ele>
        <time>2015-10-10T14:13:33Z</time>
      </trkpt>
      <trkpt lat="44.58459" lon="6.35968">
        <ele>1522.522949</ele>
        <time>2015-10-10T14:13:37Z</time>
      </trkpt>
      <trkpt lat="44.58455" lon="6.35958">
        <ele>1523.741699</ele>
        <time>2015-10-10T14:13:41Z</time>
      </trkpt>
      <trkpt lat="44.58455" lon="6.35958">
        <ele>1524.491699</ele>
        <time>2015-10-10T14:13:45Z</time>
      </trkpt>
      <trkpt lat="44.58455" lon="6.35958">
        <ele>1524.522949</ele>
        <time>2015-10-10T14:13:49Z</time>
      </trkpt>
      <trkpt lat="44.58455" lon="6.35959">
        <ele>1524.429199</ele>
        <time>2015-10-10T14:13:53Z</time>
      </trkpt>
      <trkpt lat="44.58455" lon="6.35959">
        <ele>1524.335449</ele>
        <time>2015-10-10T14:13:57Z</time>
      </trkpt>
      <trkpt lat="44.58455" lon="6.35959">
        <ele>1524.241699</ele>
        <time>2015-10-10T14:14:01Z</time>
      </trkpt>
      <trkpt lat="44.58455" lon="6.35959">
        <ele>1524.147949</ele>
        <time>2015-10-10T14:14:05Z</time>
      </trkpt>
      <trkpt lat="44.58454" lon="6.35959">
        <ele>1524.085449</ele>
        <time>2015-10-10T14:14:09Z</time>
      </trkpt>
      <trkpt lat="44.58447" lon="6.3595">
        <ele>1525.460449</ele>
        <time>2015-10-10T14:14:13Z</time>
      </trkpt>
      <trkpt lat="44.58435" lon="6.35939">
        <ele>1525.210449</ele>
        <time>2015-10-10T14:14:17Z</time>
      </trkpt>
      <trkpt lat="44.58417" lon="6.35943">
        <ele>1524.491699</ele>
        <time>2015-10-10T14:14:21Z</time>
      </trkpt>
      <trkpt lat="44.584" lon="6.35964">
        <ele>1524.897949</ele>
        <time>2015-10-10T14:14:25Z</time>
      </trkpt>
      <trkpt lat="44.58381" lon="6.35982">
        <ele>1523.054199</ele>
        <time>2015-10-10T14:14:29Z</time>
      </trkpt>
      <trkpt lat="44.58365" lon="6.36008">
        <ele>1522.554199</ele>
        <time>2015-10-10T14:14:33Z</time>
      </trkpt>
      <trkpt lat="44.5835" lon="6.36037">
        <ele>1521.647949</ele>
        <time>2015-10-10T14:14:37Z</time>
      </trkpt>
      <trkpt lat="44.58338" lon="6.36066">
        <ele>1523.741699</ele>
        <time>2015-10-10T14:14:41Z</time>
      </trkpt>
      <trkpt lat="44.5833" lon="6.36098">
        <ele>1526.054199</ele>
        <time>2015-10-10T14:14:45Z</time>
      </trkpt>
      <trkpt lat="44.58319" lon="6.36128">
        <ele>1527.679199</ele>
        <time>2015-10-10T14:14:49Z</time>
      </trkpt>
      <trkpt lat="44.58308" lon="6.36157">
        <ele>1526.335449</ele>
        <time>2015-10-10T14:14:53Z</time>
      </trkpt>
      <trkpt lat="44.58296" lon="6.36184">
        <ele>1527.866699</ele>
        <time>2015-10-10T14:14:57Z</time>
      </trkpt>
      <trkpt lat="44.58286" lon="6.36207">
        <ele>1530.647949</ele>
        <time>2015-10-10T14:15:01Z</time>
      </trkpt>
      <trkpt lat="44.58277" lon="6.36225">
        <ele>1531.991699</ele>
        <time>2015-10-10T14:15:05Z</time>
      </trkpt>
      <trkpt lat="44.58265" lon="6.36242">
        <ele>1534.647949</ele>
        <time>2015-10-10T14:15:09Z</time>
      </trkpt>
      <trkpt lat="44.5825" lon="6.36251">
        <ele>1533.366699</ele>
        <time>2015-10-10T14:15:13Z</time>
      </trkpt>
      <trkpt lat="44.58235" lon="6.3626">
        <ele>1532.554199</ele>
        <time>2015-10-10T14:15:17Z</time>
      </trkpt>
      <trkpt lat="44.58221" lon="6.36269">
        <ele>1532.866699</ele>
        <time>2015-10-10T14:15:21Z</time>
      </trkpt>
      <trkpt lat="44.58203" lon="6.36281">
        <ele>1533.491699</ele>
        <time>2015-10-10T14:15:25Z</time>
      </trkpt>
      <trkpt lat="44.58186" lon="6.36293">
        <ele>1533.804199</ele>
        <time>2015-10-10T14:15:29Z</time>
      </trkpt>
      <trkpt lat="44.58169" lon="6.3631">
        <ele>1535.179199</ele>
        <time>2015-10-10T14:15:33Z</time>
      </trkpt>
      <trkpt lat="44.58154" lon="6.36321">
        <ele>1536.366699</ele>
        <time>2015-10-10T14:15:37Z</time>
      </trkpt>
      <trkpt lat="44.58141" lon="6.36326">
        <ele>1537.679199</ele>
        <time>2015-10-10T14:15:41Z</time>
      </trkpt>
      <trkpt lat="44.58126" lon="6.3633">
        <ele>1537.272949</ele>
        <time>2015-10-10T14:15:45Z</time>
      </trkpt>
      <trkpt lat="44.58111" lon="6.36327">
        <ele>1537.241699</ele>
        <time>2015-10-10T14:15:49Z</time>
      </trkpt>
      <trkpt lat="44.58102" lon="6.36321">
        <ele>1538.366699</ele>
        <time>2015-10-10T14:15:53Z</time>
      </trkpt>
      <trkpt lat="44.58103" lon="6.36318">
        <ele>1538.772949</ele>
        <time>2015-10-10T14:15:57Z</time>
      </trkpt>
      <trkpt lat="44.58103" lon="6.36318">
        <ele>1538.741699</ele>
        <time>2015-10-10T14:16:01Z</time>
      </trkpt>
      <trkpt lat="44.58103" lon="6.36318">
        <ele>1538.772949</ele>
        <time>2015-10-10T14:16:05Z</time>
      </trkpt>
      <trkpt lat="44.58103" lon="6.36318">
        <ele>1538.835449</ele>
        <time>2015-10-10T14:16:09Z</time>
      </trkpt>
      <trkpt lat="44.58103" lon="6.36318">
        <ele>1538.835449</ele>
        <time>2015-10-10T14:16:13Z</time>
      </trkpt>
      <trkpt lat="44.58104" lon="6.36318">
        <ele>1538.929199</ele>
        <time>2015-10-10T14:16:17Z</time>
      </trkpt>
      <trkpt lat="44.58103" lon="6.36318">
        <ele>1538.804199</ele>
        <time>2015-10-10T14:16:21Z</time>
      </trkpt>
      <trkpt lat="44.58103" lon="6.36319">
        <ele>1538.741699</ele>
        <time>2015-10-10T14:16:25Z</time>
      </trkpt>
      <trkpt lat="44.58102" lon="6.36319">
        <ele>1538.772949</ele>
        <time>2015-10-10T14:16:29Z</time>
      </trkpt>
      <trkpt lat="44.58094" lon="6.36311">
        <ele>1538.960449</ele>
        <time>2015-10-10T14:16:33Z</time>
      </trkpt>
      <trkpt lat="44.58079" lon="6.36298">
        <ele>1540.179199</ele>
        <time>2015-10-10T14:16:37Z</time>
      </trkpt>
      <trkpt lat="44.58064" lon="6.36293">
        <ele>1542.116699</ele>
        <time>2015-10-10T14:16:41Z</time>
      </trkpt>
      <trkpt lat="44.58056" lon="6.36293">
        <ele>1544.116699</ele>
        <time>2015-10-10T14:16:45Z</time>
      </trkpt>
      <trkpt lat="44.58056" lon="6.36292">
        <ele>1544.397949</ele>
        <time>2015-10-10T14:16:49Z</time>
      </trkpt>
      <trkpt lat="44.58054" lon="6.36295">
        <ele>1543.960449</ele>
        <time>2015-10-10T14:16:53Z</time>
      </trkpt>
      <trkpt lat="44.58049" lon="6.36302">
        <ele>1543.804199</ele>
        <time>2015-10-10T14:16:57Z</time>
      </trkpt>
      <trkpt lat="44.58043" lon="6.3631">
        <ele>1543.272949</ele>
        <time>2015-10-10T14:17:01Z</time>
      </trkpt>
      <trkpt lat="44.5804" lon="6.36312">
        <ele>1543.054199</ele>
        <time>2015-10-10T14:17:05Z</time>
      </trkpt>
      <trkpt lat="44.58042" lon="6.36311">
        <ele>1543.522949</ele>
        <time>2015-10-10T14:17:09Z</time>
      </trkpt>
      <trkpt lat="44.58042" lon="6.36311">
        <ele>1543.397949</ele>
        <time>2015-10-10T14:17:13Z</time>
      </trkpt>
      <trkpt lat="44.58042" lon="6.36311">
        <ele>1543.304199</ele>
        <time>2015-10-10T14:17:17Z</time>
      </trkpt>
      <trkpt lat="44.58042" lon="6.36311">
        <ele>1543.304199</ele>
        <time>2015-10-10T14:17:21Z</time>
      </trkpt>
      <trkpt lat="44.5804" lon="6.36313">
        <ele>1543.022949</ele>
        <time>2015-10-10T14:17:25Z</time>
      </trkpt>
      <trkpt lat="44.58029" lon="6.36321">
        <ele>1542.366699</ele>
        <time>2015-10-10T14:17:29Z</time>
      </trkpt>
      <trkpt lat="44.58015" lon="6.36329">
        <ele>1541.116699</ele>
        <time>2015-10-10T14:17:33Z</time>
      </trkpt>
      <trkpt lat="44.57998" lon="6.36334">
        <ele>1539.991699</ele>
        <time>2015-10-10T14:17:37Z</time>
      </trkpt>
      <trkpt lat="44.57984" lon="6.36346">
        <ele>1538.366699</ele>
        <time>2015-10-10T14:17:41Z</time>
      </trkpt>
      <trkpt lat="44.57971" lon="6.36359">
        <ele>1536.991699</ele>
        <time>2015-10-10T14:17:45Z</time>
      </trkpt>
      <trkpt lat="44.57962" lon="6.36361">
        <ele>1535.866699</ele>
        <time>2015-10-10T14:17:49Z</time>
      </trkpt>
      <trkpt lat="44.57955" lon="6.3634">
        <ele>1535.210449</ele>
        <time>2015-10-10T14:17:53Z</time>
      </trkpt>
      <trkpt lat="44.57941" lon="6.36323">
        <ele>1534.804199</ele>
        <time>2015-10-10T14:17:57Z</time>
      </trkpt>
      <trkpt lat="44.57924" lon="6.36317">
        <ele>1536.679199</ele>
        <time>2015-10-10T14:18:01Z</time>
      </trkpt>
      <trkpt lat="44.57912" lon="6.36314">
        <ele>1539.116699</ele>
        <time>2015-10-10T14:18:05Z</time>
      </trkpt>
      <trkpt lat="44.57901" lon="6.36313">
        <ele>1541.710449</ele>
        <time>2015-10-10T14:18:09Z</time>
      </trkpt>
      <trkpt lat="44.57888" lon="6.36313">
        <ele>1542.991699</ele>
        <time>2015-10-10T14:18:13Z</time>
      </trkpt>
      <trkpt lat="44.57876" lon="6.3632">
        <ele>1545.804199</ele>
        <time>2015-10-10T14:18:17Z</time>
      </trkpt>
      <trkpt lat="44.57864" lon="6.36325">
        <ele>1547.272949</ele>
        <time>2015-10-10T14:18:21Z</time>
      </trkpt>
      <trkpt lat="44.57852" lon="6.36328">
        <ele>1548.897949</ele>
        <time>2015-10-10T14:18:25Z</time>
      </trkpt>
      <trkpt lat="44.57838" lon="6.36326">
        <ele>1550.647949</ele>
        <time>2015-10-10T14:18:29Z</time>
      </trkpt>
      <trkpt lat="44.57831" lon="6.36316">
        <ele>1552.804199</ele>
        <time>2015-10-10T14:18:33Z</time>
      </trkpt>
      <trkpt lat="44.57829" lon="6.36306">
        <ele>1553.335449</ele>
        <time>2015-10-10T14:18:37Z</time>
      </trkpt>
      <trkpt lat="44.57823" lon="6.36297">
        <ele>1553.804199</ele>
        <time>2015-10-10T14:18:41Z</time>
      </trkpt>
      <trkpt lat="44.57814" lon="6.36291">
        <ele>1554.179199</ele>
        <time>2015-10-10T14:18:45Z</time>
      </trkpt>
      <trkpt lat="44.57804" lon="6.36288">
        <ele>1553.929199</ele>
        <time>2015-10-10T14:18:49Z</time>
      </trkpt>
      <trkpt lat="44.57793" lon="6.36288">
        <ele>1553.522949</ele>
        <time>2015-10-10T14:18:53Z</time>
      </trkpt>
      <trkpt lat="44.57782" lon="6.36297">
        <ele>1551.554199</ele>
        <time>2015-10-10T14:18:57Z</time>
      </trkpt>
      <trkpt lat="44.57772" lon="6.36308">
        <ele>1550.022949</ele>
        <time>2015-10-10T14:19:01Z</time>
      </trkpt>
      <trkpt lat="44.57761" lon="6.36325">
        <ele>1549.429199</ele>
        <time>2015-10-10T14:19:05Z</time>
      </trkpt>
      <trkpt lat="44.57746" lon="6.36333">
        <ele>1549.616699</ele>
        <time>2015-10-10T14:19:09Z</time>
      </trkpt>
      <trkpt lat="44.57733" lon="6.36324">
        <ele>1549.304199</ele>
        <time>2015-10-10T14:19:13Z</time>
      </trkpt>
      <trkpt lat="44.57728" lon="6.36311">
        <ele>1550.335449</ele>
        <time>2015-10-10T14:19:17Z</time>
      </trkpt>
      <trkpt lat="44.57727" lon="6.36291">
        <ele>1551.366699</ele>
        <time>2015-10-10T14:19:21Z</time>
      </trkpt>
      <trkpt lat="44.57721" lon="6.3627">
        <ele>1551.897949</ele>
        <time>2015-10-10T14:19:25Z</time>
      </trkpt>
      <trkpt lat="44.57713" lon="6.36249">
        <ele>1551.897949</ele>
        <time>2015-10-10T14:19:29Z</time>
      </trkpt>
      <trkpt lat="44.57702" lon="6.36228">
        <ele>1551.960449</ele>
        <time>2015-10-10T14:19:33Z</time>
      </trkpt>
      <trkpt lat="44.57689" lon="6.36213">
        <ele>1553.085449</ele>
        <time>2015-10-10T14:19:37Z</time>
      </trkpt>
      <trkpt lat="44.57678" lon="6.36196">
        <ele>1553.554199</ele>
        <time>2015-10-10T14:19:41Z</time>
      </trkpt>
      <trkpt lat="44.57666" lon="6.3618">
        <ele>1553.460449</ele>
        <time>2015-10-10T14:19:45Z</time>
      </trkpt>
      <trkpt lat="44.57659" lon="6.36178">
        <ele>1553.179199</ele>
        <time>2015-10-10T14:19:49Z</time>
      </trkpt>
      <trkpt lat="44.57654" lon="6.36175">
        <ele>1552.210449</ele>
        <time>2015-10-10T14:19:53Z</time>
      </trkpt>
      <trkpt lat="44.57636" lon="6.36168">
        <ele>1550.085449</ele>
        <time>2015-10-10T14:19:57Z</time>
      </trkpt>
      <trkpt lat="44.57616" lon="6.36152">
        <ele>1549.054199</ele>
        <time>2015-10-10T14:20:01Z</time>
      </trkpt>
      <trkpt lat="44.57599" lon="6.3613">
        <ele>1548.960449</ele>
        <time>2015-10-10T14:20:05Z</time>
      </trkpt>
      <trkpt lat="44.57588" lon="6.36107">
        <ele>1549.710449</ele>
        <time>2015-10-10T14:20:09Z</time>
      </trkpt>
      <trkpt lat="44.57588" lon="6.36089">
        <ele>1551.335449</ele>
        <time>2015-10-10T14:20:13Z</time>
      </trkpt>
      <trkpt lat="44.57585" lon="6.36089">
        <ele>1551.272949</ele>
        <time>2015-10-10T14:20:17Z</time>
      </trkpt>
      <trkpt lat="44.57585" lon="6.36089">
        <ele>1551.147949</ele>
        <time>2015-10-10T14:20:21Z</time>
      </trkpt>
      <trkpt lat="44.57586" lon="6.36088">
        <ele>1551.116699</ele>
        <time>2015-10-10T14:20:25Z</time>
      </trkpt>
      <trkpt lat="44.57589" lon="6.36094">
        <ele>1550.616699</ele>
        <time>2015-10-10T14:20:29Z</time>
      </trkpt>
      <trkpt lat="44.57589" lon="6.36113">
        <ele>1548.741699</ele>
        <time>2015-10-10T14:20:33Z</time>
      </trkpt>
      <trkpt lat="44.57588" lon="6.36128">
        <ele>1547.929199</ele>
        <time>2015-10-10T14:20:37Z</time>
      </trkpt>
      <trkpt lat="44.57582" lon="6.36138">
        <ele>1547.335449</ele>
        <time>2015-10-10T14:20:41Z</time>
      </trkpt>
      <trkpt lat="44.57575" lon="6.3615">
        <ele>1547.616699</ele>
        <time>2015-10-10T14:20:45Z</time>
      </trkpt>
      <trkpt lat="44.57566" lon="6.36154">
        <ele>1548.460449</ele>
        <time>2015-10-10T14:20:49Z</time>
      </trkpt>
      <trkpt lat="44.57564" lon="6.36144">
        <ele>1549.241699</ele>
        <time>2015-10-10T14:20:53Z</time>
      </trkpt>
      <trkpt lat="44.57564" lon="6.36122">
        <ele>1550.085449</ele>
        <time>2015-10-10T14:20:57Z</time>
      </trkpt>
      <trkpt lat="44.57563" lon="6.36101">
        <ele>1551.335449</ele>
        <time>2015-10-10T14:21:01Z</time>
      </trkpt>
      <trkpt lat="44.57571" lon="6.36084">
        <ele>1552.991699</ele>
        <time>2015-10-10T14:21:05Z</time>
      </trkpt>
      <trkpt lat="44.57583" lon="6.36073">
        <ele>1553.991699</ele>
        <time>2015-10-10T14:21:09Z</time>
      </trkpt>
      <trkpt lat="44.57578" lon="6.36062">
        <ele>1555.866699</ele>
        <time>2015-10-10T14:21:13Z</time>
      </trkpt>
      <trkpt lat="44.57566" lon="6.36072">
        <ele>1556.304199</ele>
        <time>2015-10-10T14:21:17Z</time>
      </trkpt>
      <trkpt lat="44.57555" lon="6.36087">
        <ele>1556.647949</ele>
        <time>2015-10-10T14:21:21Z</time>
      </trkpt>
      <trkpt lat="44.57543" lon="6.36103">
        <ele>1558.085449</ele>
        <time>2015-10-10T14:21:25Z</time>
      </trkpt>
      <trkpt lat="44.57533" lon="6.36122">
        <ele>1559.616699</ele>
        <time>2015-10-10T14:21:29Z</time>
      </trkpt>
      <trkpt lat="44.57523" lon="6.36139">
        <ele>1561.366699</ele>
        <time>2015-10-10T14:21:33Z</time>
      </trkpt>
      <trkpt lat="44.57509" lon="6.36157">
        <ele>1563.272949</ele>
        <time>2015-10-10T14:21:37Z</time>
      </trkpt>
      <trkpt lat="44.57494" lon="6.3617">
        <ele>1563.772949</ele>
        <time>2015-10-10T14:21:41Z</time>
      </trkpt>
      <trkpt lat="44.57478" lon="6.3618">
        <ele>1564.960449</ele>
        <time>2015-10-10T14:21:45Z</time>
      </trkpt>
      <trkpt lat="44.57465" lon="6.36196">
        <ele>1566.241699</ele>
        <time>2015-10-10T14:21:49Z</time>
      </trkpt>
      <trkpt lat="44.57454" lon="6.36214">
        <ele>1568.210449</ele>
        <time>2015-10-10T14:21:53Z</time>
      </trkpt>
      <trkpt lat="44.5744" lon="6.36231">
        <ele>1569.335449</ele>
        <time>2015-10-10T14:21:57Z</time>
      </trkpt>
      <trkpt lat="44.57428" lon="6.36253">
        <ele>1570.085449</ele>
        <time>2015-10-10T14:22:01Z</time>
      </trkpt>
      <trkpt lat="44.5742" lon="6.36276">
        <ele>1572.022949</ele>
        <time>2015-10-10T14:22:05Z</time>
      </trkpt>
      <trkpt lat="44.57412" lon="6.36298">
        <ele>1573.460449</ele>
        <time>2015-10-10T14:22:09Z</time>
      </trkpt>
      <trkpt lat="44.574" lon="6.36318">
        <ele>1573.991699</ele>
        <time>2015-10-10T14:22:13Z</time>
      </trkpt>
      <trkpt lat="44.57385" lon="6.36333">
        <ele>1574.772949</ele>
        <time>2015-10-10T14:22:17Z</time>
      </trkpt>
      <trkpt lat="44.5737" lon="6.36349">
        <ele>1577.335449</ele>
        <time>2015-10-10T14:22:21Z</time>
      </trkpt>
      <trkpt lat="44.57356" lon="6.36366">
        <ele>1579.054199</ele>
        <time>2015-10-10T14:22:25Z</time>
      </trkpt>
      <trkpt lat="44.57344" lon="6.36386">
        <ele>1578.522949</ele>
        <time>2015-10-10T14:22:29Z</time>
      </trkpt>
      <trkpt lat="44.57328" lon="6.36387">
        <ele>1579.272949</ele>
        <time>2015-10-10T14:22:33Z</time>
      </trkpt>
      <trkpt lat="44.57312" lon="6.36381">
        <ele>1580.835449</ele>
        <time>2015-10-10T14:22:37Z</time>
      </trkpt>
      <trkpt lat="44.573" lon="6.36396">
        <ele>1582.335449</ele>
        <time>2015-10-10T14:22:41Z</time>
      </trkpt>
      <trkpt lat="44.57287" lon="6.36409">
        <ele>1583.397949</ele>
        <time>2015-10-10T14:22:45Z</time>
      </trkpt>
      <trkpt lat="44.5727" lon="6.36413">
        <ele>1584.366699</ele>
        <time>2015-10-10T14:22:49Z</time>
      </trkpt>
      <trkpt lat="44.57253" lon="6.36417">
        <ele>1584.866699</ele>
        <time>2015-10-10T14:22:53Z</time>
      </trkpt>
      <trkpt lat="44.57237" lon="6.36422">
        <ele>1586.710449</ele>
        <time>2015-10-10T14:22:57Z</time>
      </trkpt>
      <trkpt lat="44.57221" lon="6.36427">
        <ele>1588.116699</ele>
        <time>2015-10-10T14:23:01Z</time>
      </trkpt>
      <trkpt lat="44.57205" lon="6.36436">
        <ele>1590.804199</ele>
        <time>2015-10-10T14:23:05Z</time>
      </trkpt>
      <trkpt lat="44.57199" lon="6.36457">
        <ele>1592.679199</ele>
        <time>2015-10-10T14:23:09Z</time>
      </trkpt>
      <trkpt lat="44.57191" lon="6.36475">
        <ele>1592.679199</ele>
        <time>2015-10-10T14:23:13Z</time>
      </trkpt>
      <trkpt lat="44.57175" lon="6.36486">
        <ele>1592.804199</ele>
        <time>2015-10-10T14:23:17Z</time>
      </trkpt>
      <trkpt lat="44.57157" lon="6.3649">
        <ele>1593.085449</ele>
        <time>2015-10-10T14:23:21Z</time>
      </trkpt>
      <trkpt lat="44.57138" lon="6.365">
        <ele>1594.054199</ele>
        <time>2015-10-10T14:23:25Z</time>
      </trkpt>
      <trkpt lat="44.57121" lon="6.36506">
        <ele>1595.585449</ele>
        <time>2015-10-10T14:23:29Z</time>
      </trkpt>
      <trkpt lat="44.57104" lon="6.36512">
        <ele>1596.054199</ele>
        <time>2015-10-10T14:23:33Z</time>
      </trkpt>
      <trkpt lat="44.57085" lon="6.36514">
        <ele>1594.772949</ele>
        <time>2015-10-10T14:23:37Z</time>
      </trkpt>
      <trkpt lat="44.5706" lon="6.36512">
        <ele>1593.397949</ele>
        <time>2015-10-10T14:23:41Z</time>
      </trkpt>
      <trkpt lat="44.57031" lon="6.3651">
        <ele>1591.397949</ele>
        <time>2015-10-10T14:23:45Z</time>
      </trkpt>
      <trkpt lat="44.57001" lon="6.36513">
        <ele>1590.866699</ele>
        <time>2015-10-10T14:23:49Z</time>
      </trkpt>
      <trkpt lat="44.56974" lon="6.36508">
        <ele>1589.366699</ele>
        <time>2015-10-10T14:23:53Z</time>
      </trkpt>
      <trkpt lat="44.56951" lon="6.36492">
        <ele>1588.554199</ele>
        <time>2015-10-10T14:23:57Z</time>
      </trkpt>
      <trkpt lat="44.5693" lon="6.36476">
        <ele>1588.710449</ele>
        <time>2015-10-10T14:24:01Z</time>
      </trkpt>
      <trkpt lat="44.56909" lon="6.36464">
        <ele>1588.866699</ele>
        <time>2015-10-10T14:24:05Z</time>
      </trkpt>
      <trkpt lat="44.56884" lon="6.36451">
        <ele>1588.366699</ele>
        <time>2015-10-10T14:24:09Z</time>
      </trkpt>
      <trkpt lat="44.5686" lon="6.36432">
        <ele>1588.929199</ele>
        <time>2015-10-10T14:24:13Z</time>
      </trkpt>
      <trkpt lat="44.56839" lon="6.36413">
        <ele>1589.929199</ele>
        <time>2015-10-10T14:24:17Z</time>
      </trkpt>
      <trkpt lat="44.5682" lon="6.36395">
        <ele>1590.960449</ele>
        <time>2015-10-10T14:24:21Z</time>
      </trkpt>
      <trkpt lat="44.56799" lon="6.36379">
        <ele>1591.991699</ele>
        <time>2015-10-10T14:24:25Z</time>
      </trkpt>
      <trkpt lat="44.56779" lon="6.36356">
        <ele>1593.429199</ele>
        <time>2015-10-10T14:24:29Z</time>
      </trkpt>
      <trkpt lat="44.56762" lon="6.36333">
        <ele>1594.866699</ele>
        <time>2015-10-10T14:24:33Z</time>
      </trkpt>
      <trkpt lat="44.56747" lon="6.36311">
        <ele>1595.991699</ele>
        <time>2015-10-10T14:24:37Z</time>
      </trkpt>
      <trkpt lat="44.56732" lon="6.36289">
        <ele>1596.335449</ele>
        <time>2015-10-10T14:24:41Z</time>
      </trkpt>
      <trkpt lat="44.56715" lon="6.36269">
        <ele>1596.741699</ele>
        <time>2015-10-10T14:24:45Z</time>
      </trkpt>
      <trkpt lat="44.56695" lon="6.36255">
        <ele>1597.366699</ele>
        <time>2015-10-10T14:24:49Z</time>
      </trkpt>
      <trkpt lat="44.56673" lon="6.36247">
        <ele>1597.835449</ele>
        <time>2015-10-10T14:24:53Z</time>
      </trkpt>
      <trkpt lat="44.56652" lon="6.36241">
        <ele>1599.241699</ele>
        <time>2015-10-10T14:24:57Z</time>
      </trkpt>
      <trkpt lat="44.5664" lon="6.36244">
        <ele>1600.616699</ele>
        <time>2015-10-10T14:25:01Z</time>
      </trkpt>
      <trkpt lat="44.56632" lon="6.36252">
        <ele>1600.991699</ele>
        <time>2015-10-10T14:25:05Z</time>
      </trkpt>
      <trkpt lat="44.56627" lon="6.3626">
        <ele>1600.616699</ele>
        <time>2015-10-10T14:25:09Z</time>
      </trkpt>
      <trkpt lat="44.56626" lon="6.36263">
        <ele>1600.054199</ele>
        <time>2015-10-10T14:25:13Z</time>
      </trkpt>
      <trkpt lat="44.56626" lon="6.36263">
        <ele>1600.085449</ele>
        <time>2015-10-10T14:25:17Z</time>
      </trkpt>
      <trkpt lat="44.56626" lon="6.36263">
        <ele>1600.085449</ele>
        <time>2015-10-10T14:25:21Z</time>
      </trkpt>
      <trkpt lat="44.56625" lon="6.36263">
        <ele>1600.147949</ele>
        <time>2015-10-10T14:25:25Z</time>
      </trkpt>
      <trkpt lat="44.56626" lon="6.36266">
        <ele>1599.022949</ele>
        <time>2015-10-10T14:25:29Z</time>
      </trkpt>
      <trkpt lat="44.56624" lon="6.36275">
        <ele>1598.616699</ele>
        <time>2015-10-10T14:25:33Z</time>
      </trkpt>
      <trkpt lat="44.56623" lon="6.3628">
        <ele>1597.147949</ele>
        <time>2015-10-10T14:25:37Z</time>
      </trkpt>
      <trkpt lat="44.56623" lon="6.36285">
        <ele>1595.710449</ele>
        <time>2015-10-10T14:25:41Z</time>
      </trkpt>
      <trkpt lat="44.56624" lon="6.36289">
        <ele>1594.397949</ele>
        <time>2015-10-10T14:25:45Z</time>
      </trkpt>
      <trkpt lat="44.56624" lon="6.36289">
        <ele>1594.522949</ele>
        <time>2015-10-10T14:25:49Z</time>
      </trkpt>
      <trkpt lat="44.56621" lon="6.36293">
        <ele>1594.397949</ele>
        <time>2015-10-10T14:25:53Z</time>
      </trkpt>
      <trkpt lat="44.56621" lon="6.36292">
        <ele>1594.710449</ele>
        <time>2015-10-10T14:25:57Z</time>
      </trkpt>
      <trkpt lat="44.56621" lon="6.36294">
        <ele>1594.960449</ele>
        <time>2015-10-10T14:26:01Z</time>
      </trkpt>
      <trkpt lat="44.56622" lon="6.36295">
        <ele>1594.991699</ele>
        <time>2015-10-10T14:26:05Z</time>
      </trkpt>
      <trkpt lat="44.56622" lon="6.36297">
        <ele>1594.960449</ele>
        <time>2015-10-10T14:26:09Z</time>
      </trkpt>
      <trkpt lat="44.56624" lon="6.36298">
        <ele>1594.991699</ele>
        <time>2015-10-10T14:26:13Z</time>
      </trkpt>
      <trkpt lat="44.56626" lon="6.36299">
        <ele>1595.179199</ele>
        <time>2015-10-10T14:26:17Z</time>
      </trkpt>
      <trkpt lat="44.56627" lon="6.36298">
        <ele>1595.272949</ele>
        <time>2015-10-10T14:26:21Z</time>
      </trkpt>
      <trkpt lat="44.56627" lon="6.36298">
        <ele>1595.335449</ele>
        <time>2015-10-10T14:26:25Z</time>
      </trkpt>
      <trkpt lat="44.56626" lon="6.36298">
        <ele>1595.429199</ele>
        <time>2015-10-10T14:26:29Z</time>
      </trkpt>
      <trkpt lat="44.56627" lon="6.36298">
        <ele>1595.585449</ele>
        <time>2015-10-10T14:26:33Z</time>
      </trkpt>
      <trkpt lat="44.56626" lon="6.36298">
        <ele>1595.647949</ele>
        <time>2015-10-10T14:26:37Z</time>
      </trkpt>
      <trkpt lat="44.56627" lon="6.36298">
        <ele>1595.647949</ele>
        <time>2015-10-10T14:26:41Z</time>
      </trkpt>
      <trkpt lat="44.56627" lon="6.36297">
        <ele>1595.429199</ele>
        <time>2015-10-10T14:26:45Z</time>
      </trkpt>
      <trkpt lat="44.56627" lon="6.36294">
        <ele>1595.897949</ele>
        <time>2015-10-10T14:26:49Z</time>
      </trkpt>
      <trkpt lat="44.56629" lon="6.36285">
        <ele>1598.335449</ele>
        <time>2015-10-10T14:26:53Z</time>
      </trkpt>
      <trkpt lat="44.56631" lon="6.36276">
        <ele>1599.929199</ele>
        <time>2015-10-10T14:26:57Z</time>
      </trkpt>
      <trkpt lat="44.56632" lon="6.36268">
        <ele>1601.804199</ele>
        <time>2015-10-10T14:27:01Z</time>
      </trkpt>
      <trkpt lat="44.56633" lon="6.36263">
        <ele>1603.741699</ele>
        <time>2015-10-10T14:27:05Z</time>
      </trkpt>
      <trkpt lat="44.56631" lon="6.36262">
        <ele>1605.866699</ele>
        <time>2015-10-10T14:27:09Z</time>
      </trkpt>
      <trkpt lat="44.56631" lon="6.36262">
        <ele>1605.897949</ele>
        <time>2015-10-10T14:27:13Z</time>
      </trkpt>
      <trkpt lat="44.56631" lon="6.36262">
        <ele>1606.147949</ele>
        <time>2015-10-10T14:27:17Z</time>
      </trkpt>
      <trkpt lat="44.56631" lon="6.36262">
        <ele>1606.272949</ele>
        <time>2015-10-10T14:27:21Z</time>
      </trkpt>
      <trkpt lat="44.56631" lon="6.36262">
        <ele>1606.397949</ele>
        <time>2015-10-10T14:27:25Z</time>
      </trkpt>
      <trkpt lat="44.5663" lon="6.36261">
        <ele>1606.429199</ele>
        <time>2015-10-10T14:27:29Z</time>
      </trkpt>
      <trkpt lat="44.56627" lon="6.3626">
        <ele>1607.054199</ele>
        <time>2015-10-10T14:27:33Z</time>
      </trkpt>
      <trkpt lat="44.56627" lon="6.36265">
        <ele>1606.710449</ele>
        <time>2015-10-10T14:27:37Z</time>
      </trkpt>
      <trkpt lat="44.56625" lon="6.36258">
        <ele>1606.616699</ele>
        <time>2015-10-10T14:27:41Z</time>
      </trkpt>
      <trkpt lat="44.56621" lon="6.36248">
        <ele>1607.147949</ele>
        <time>2015-10-10T14:27:45Z</time>
      </trkpt>
      <trkpt lat="44.56617" lon="6.36239">
        <ele>1606.804199</ele>
        <time>2015-10-10T14:27:49Z</time>
      </trkpt>
      <trkpt lat="44.56609" lon="6.36234">
        <ele>1606.241699</ele>
        <time>2015-10-10T14:27:53Z</time>
      </trkpt>
      <trkpt lat="44.56603" lon="6.36224">
        <ele>1603.804199</ele>
        <time>2015-10-10T14:27:57Z</time>
      </trkpt>
      <trkpt lat="44.56597" lon="6.36209">
        <ele>1603.647949</ele>
        <time>2015-10-10T14:28:01Z</time>
      </trkpt>
      <trkpt lat="44.56587" lon="6.36195">
        <ele>1601.929199</ele>
        <time>2015-10-10T14:28:05Z</time>
      </trkpt>
      <trkpt lat="44.56572" lon="6.3618">
        <ele>1603.022949</ele>
        <time>2015-10-10T14:28:09Z</time>
      </trkpt>
      <trkpt lat="44.56559" lon="6.36164">
        <ele>1604.085449</ele>
        <time>2015-10-10T14:28:13Z</time>
      </trkpt>
      <trkpt lat="44.56545" lon="6.36147">
        <ele>1604.991699</ele>
        <time>2015-10-10T14:28:17Z</time>
      </trkpt>
      <trkpt lat="44.56532" lon="6.36135">
        <ele>1605.741699</ele>
        <time>2015-10-10T14:28:21Z</time>
      </trkpt>
      <trkpt lat="44.56524" lon="6.36116">
        <ele>1605.429199</ele>
        <time>2015-10-10T14:28:25Z</time>
      </trkpt>
      <trkpt lat="44.56517" lon="6.36094">
        <ele>1604.616699</ele>
        <time>2015-10-10T14:28:29Z</time>
      </trkpt>
      <trkpt lat="44.5651" lon="6.36071">
        <ele>1604.897949</ele>
        <time>2015-10-10T14:28:33Z</time>
      </trkpt>
      <trkpt lat="44.56505" lon="6.36047">
        <ele>1604.241699</ele>
        <time>2015-10-10T14:28:37Z</time>
      </trkpt>
      <trkpt lat="44.565" lon="6.36024">
        <ele>1605.522949</ele>
        <time>2015-10-10T14:28:41Z</time>
      </trkpt>
      <trkpt lat="44.56495" lon="6.36001">
        <ele>1604.741699</ele>
        <time>2015-10-10T14:28:45Z</time>
      </trkpt>
      <trkpt lat="44.56492" lon="6.35978">
        <ele>1606.335449</ele>
        <time>2015-10-10T14:28:49Z</time>
      </trkpt>
      <trkpt lat="44.56496" lon="6.35957">
        <ele>1602.491699</ele>
        <time>2015-10-10T14:28:53Z</time>
      </trkpt>
      <trkpt lat="44.56498" lon="6.35941">
        <ele>1602.710449</ele>
        <time>2015-10-10T14:28:57Z</time>
      </trkpt>
      <trkpt lat="44.56499" lon="6.35921">
        <ele>1602.616699</ele>
        <time>2015-10-10T14:29:01Z</time>
      </trkpt>
      <trkpt lat="44.56498" lon="6.359">
        <ele>1602.085449</ele>
        <time>2015-10-10T14:29:05Z</time>
      </trkpt>
      <trkpt lat="44.56498" lon="6.35875">
        <ele>1601.272949</ele>
        <time>2015-10-10T14:29:09Z</time>
      </trkpt>
      <trkpt lat="44.565" lon="6.35849">
        <ele>1601.522949</ele>
        <time>2015-10-10T14:29:13Z</time>
      </trkpt>
      <trkpt lat="44.56505" lon="6.35825">
        <ele>1601.585449</ele>
        <time>2015-10-10T14:29:17Z</time>
      </trkpt>
      <trkpt lat="44.56514" lon="6.35803">
        <ele>1602.835449</ele>
        <time>2015-10-10T14:29:21Z</time>
      </trkpt>
      <trkpt lat="44.56525" lon="6.35779">
        <ele>1603.991699</ele>
        <time>2015-10-10T14:29:25Z</time>
      </trkpt>
      <trkpt lat="44.5653" lon="6.35751">
        <ele>1604.554199</ele>
        <time>2015-10-10T14:29:29Z</time>
      </trkpt>
      <trkpt lat="44.56533" lon="6.35724">
        <ele>1605.054199</ele>
        <time>2015-10-10T14:29:33Z</time>
      </trkpt>
      <trkpt lat="44.56533" lon="6.35696">
        <ele>1606.272949</ele>
        <time>2015-10-10T14:29:37Z</time>
      </trkpt>
      <trkpt lat="44.5653" lon="6.35669">
        <ele>1605.460449</ele>
        <time>2015-10-10T14:29:41Z</time>
      </trkpt>
      <trkpt lat="44.56524" lon="6.35646">
        <ele>1605.835449</ele>
        <time>2015-10-10T14:29:45Z</time>
      </trkpt>
      <trkpt lat="44.56521" lon="6.35624">
        <ele>1603.054199</ele>
        <time>2015-10-10T14:29:49Z</time>
      </trkpt>
      <trkpt lat="44.56527" lon="6.35601">
        <ele>1600.741699</ele>
        <time>2015-10-10T14:29:53Z</time>
      </trkpt>
      <trkpt lat="44.56535" lon="6.35577">
        <ele>1600.116699</ele>
        <time>2015-10-10T14:29:57Z</time>
      </trkpt>
      <trkpt lat="44.56542" lon="6.3555">
        <ele>1599.679199</ele>
        <time>2015-10-10T14:30:01Z</time>
      </trkpt>
      <trkpt lat="44.56548" lon="6.35522">
        <ele>1598.741699</ele>
        <time>2015-10-10T14:30:05Z</time>
      </trkpt>
      <trkpt lat="44.56551" lon="6.35492">
        <ele>1597.866699</ele>
        <time>2015-10-10T14:30:09Z</time>
      </trkpt>
      <trkpt lat="44.56549" lon="6.35468">
        <ele>1601.022949</ele>
        <time>2015-10-10T14:30:13Z</time>
      </trkpt>
      <trkpt lat="44.56552" lon="6.35456">
        <ele>1603.304199</ele>
        <time>2015-10-10T14:30:17Z</time>
      </trkpt>
      <trkpt lat="44.56554" lon="6.35453">
        <ele>1604.835449</ele>
        <time>2015-10-10T14:30:21Z</time>
      </trkpt>
      <trkpt lat="44.56554" lon="6.35453">
        <ele>1604.897949</ele>
        <time>2015-10-10T14:30:25Z</time>
      </trkpt>
      <trkpt lat="44.56554" lon="6.35453">
        <ele>1605.054199</ele>
        <time>2015-10-10T14:30:29Z</time>
      </trkpt>
      <trkpt lat="44.56556" lon="6.35449">
        <ele>1606.491699</ele>
        <time>2015-10-10T14:30:33Z</time>
      </trkpt>
      <trkpt lat="44.56562" lon="6.35437">
        <ele>1607.397949</ele>
        <time>2015-10-10T14:30:37Z</time>
      </trkpt>
      <trkpt lat="44.56574" lon="6.35414">
        <ele>1608.054199</ele>
        <time>2015-10-10T14:30:41Z</time>
      </trkpt>
      <trkpt lat="44.56582" lon="6.35384">
        <ele>1608.554199</ele>
        <time>2015-10-10T14:30:45Z</time>
      </trkpt>
      <trkpt lat="44.5659" lon="6.35355">
        <ele>1610.210449</ele>
        <time>2015-10-10T14:30:49Z</time>
      </trkpt>
      <trkpt lat="44.56601" lon="6.35327">
        <ele>1611.741699</ele>
        <time>2015-10-10T14:30:53Z</time>
      </trkpt>
      <trkpt lat="44.56609" lon="6.35298">
        <ele>1612.929199</ele>
        <time>2015-10-10T14:30:57Z</time>
      </trkpt>
      <trkpt lat="44.56614" lon="6.35267">
        <ele>1614.179199</ele>
        <time>2015-10-10T14:31:01Z</time>
      </trkpt>
      <trkpt lat="44.56619" lon="6.35236">
        <ele>1614.991699</ele>
        <time>2015-10-10T14:31:05Z</time>
      </trkpt>
      <trkpt lat="44.56635" lon="6.35216">
        <ele>1616.366699</ele>
        <time>2015-10-10T14:31:09Z</time>
      </trkpt>
      <trkpt lat="44.56654" lon="6.35205">
        <ele>1619.304199</ele>
        <time>2015-10-10T14:31:13Z</time>
      </trkpt>
      <trkpt lat="44.56671" lon="6.35177">
        <ele>1619.147949</ele>
        <time>2015-10-10T14:31:17Z</time>
      </trkpt>
      <trkpt lat="44.56677" lon="6.35152">
        <ele>1621.397949</ele>
        <time>2015-10-10T14:31:21Z</time>
      </trkpt>
      <trkpt lat="44.56677" lon="6.35127">
        <ele>1623.710449</ele>
        <time>2015-10-10T14:31:25Z</time>
      </trkpt>
      <trkpt lat="44.56674" lon="6.35097">
        <ele>1622.241699</ele>
        <time>2015-10-10T14:31:29Z</time>
      </trkpt>
      <trkpt lat="44.56677" lon="6.35068">
        <ele>1621.960449</ele>
        <time>2015-10-10T14:31:33Z</time>
      </trkpt>
      <trkpt lat="44.56696" lon="6.35049">
        <ele>1618.522949</ele>
        <time>2015-10-10T14:31:37Z</time>
      </trkpt>
      <trkpt lat="44.56717" lon="6.35031">
        <ele>1614.397949</ele>
        <time>2015-10-10T14:31:41Z</time>
      </trkpt>
      <trkpt lat="44.56734" lon="6.35009">
        <ele>1617.835449</ele>
        <time>2015-10-10T14:31:45Z</time>
      </trkpt>
      <trkpt lat="44.56752" lon="6.34986">
        <ele>1621.147949</ele>
        <time>2015-10-10T14:31:49Z</time>
      </trkpt>
      <trkpt lat="44.56766" lon="6.34961">
        <ele>1624.272949</ele>
        <time>2015-10-10T14:31:53Z</time>
      </trkpt>
      <trkpt lat="44.5678" lon="6.34936">
        <ele>1621.772949</ele>
        <time>2015-10-10T14:31:57Z</time>
      </trkpt>
      <trkpt lat="44.56776" lon="6.34906">
        <ele>1623.054199</ele>
        <time>2015-10-10T14:32:01Z</time>
      </trkpt>
      <trkpt lat="44.56766" lon="6.34883">
        <ele>1626.522949</ele>
        <time>2015-10-10T14:32:05Z</time>
      </trkpt>
      <trkpt lat="44.56752" lon="6.34867">
        <ele>1628.272949</ele>
        <time>2015-10-10T14:32:09Z</time>
      </trkpt>
      <trkpt lat="44.56735" lon="6.34856">
        <ele>1630.241699</ele>
        <time>2015-10-10T14:32:13Z</time>
      </trkpt>
      <trkpt lat="44.56722" lon="6.34843">
        <ele>1632.116699</ele>
        <time>2015-10-10T14:32:17Z</time>
      </trkpt>
      <trkpt lat="44.56714" lon="6.34823">
        <ele>1633.960449</ele>
        <time>2015-10-10T14:32:21Z</time>
      </trkpt>
      <trkpt lat="44.56703" lon="6.34805">
        <ele>1636.179199</ele>
        <time>2015-10-10T14:32:25Z</time>
      </trkpt>
      <trkpt lat="44.56697" lon="6.34785">
        <ele>1638.397949</ele>
        <time>2015-10-10T14:32:29Z</time>
      </trkpt>
      <trkpt lat="44.56699" lon="6.34768">
        <ele>1638.522949</ele>
        <time>2015-10-10T14:32:33Z</time>
      </trkpt>
      <trkpt lat="44.56703" lon="6.34757">
        <ele>1637.897949</ele>
        <time>2015-10-10T14:32:37Z</time>
      </trkpt>
      <trkpt lat="44.56704" lon="6.34755">
        <ele>1639.210449</ele>
        <time>2015-10-10T14:32:41Z</time>
      </trkpt>
      <trkpt lat="44.56704" lon="6.34755">
        <ele>1640.210449</ele>
        <time>2015-10-10T14:32:45Z</time>
      </trkpt>
      <trkpt lat="44.56704" lon="6.34755">
        <ele>1640.272949</ele>
        <time>2015-10-10T14:32:49Z</time>
      </trkpt>
      <trkpt lat="44.56703" lon="6.34754">
        <ele>1640.366699</ele>
        <time>2015-10-10T14:32:53Z</time>
      </trkpt>
      <trkpt lat="44.56698" lon="6.34751">
        <ele>1639.554199</ele>
        <time>2015-10-10T14:32:57Z</time>
      </trkpt>
      <trkpt lat="44.56694" lon="6.34746">
        <ele>1640.272949</ele>
        <time>2015-10-10T14:33:01Z</time>
      </trkpt>
      <trkpt lat="44.5669" lon="6.34743">
        <ele>1640.147949</ele>
        <time>2015-10-10T14:33:05Z</time>
      </trkpt>
      <trkpt lat="44.5669" lon="6.34745">
        <ele>1640.585449</ele>
        <time>2015-10-10T14:33:09Z</time>
      </trkpt>
      <trkpt lat="44.56689" lon="6.34743">
        <ele>1640.585449</ele>
        <time>2015-10-10T14:33:13Z</time>
      </trkpt>
      <trkpt lat="44.56678" lon="6.34735">
        <ele>1639.179199</ele>
        <time>2015-10-10T14:33:17Z</time>
      </trkpt>
      <trkpt lat="44.56667" lon="6.34725">
        <ele>1637.897949</ele>
        <time>2015-10-10T14:33:21Z</time>
      </trkpt>
      <trkpt lat="44.56658" lon="6.34715">
        <ele>1636.804199</ele>
        <time>2015-10-10T14:33:25Z</time>
      </trkpt>
      <trkpt lat="44.56657" lon="6.34713">
        <ele>1635.241699</ele>
        <time>2015-10-10T14:33:29Z</time>
      </trkpt>
      <trkpt lat="44.56657" lon="6.34713">
        <ele>1635.054199</ele>
        <time>2015-10-10T14:33:33Z</time>
      </trkpt>
      <trkpt lat="44.56657" lon="6.34713">
        <ele>1634.960449</ele>
        <time>2015-10-10T14:33:37Z</time>
      </trkpt>
      <trkpt lat="44.56657" lon="6.34713">
        <ele>1634.897949</ele>
        <time>2015-10-10T14:33:41Z</time>
      </trkpt>
      <trkpt lat="44.56657" lon="6.34713">
        <ele>1634.835449</ele>
        <time>2015-10-10T14:33:45Z</time>
      </trkpt>
      <trkpt lat="44.56657" lon="6.34713">
        <ele>1634.741699</ele>
        <time>2015-10-10T14:33:49Z</time>
      </trkpt>
      <trkpt lat="44.56658" lon="6.34712">
        <ele>1634.772949</ele>
        <time>2015-10-10T14:33:53Z</time>
      </trkpt>
      <trkpt lat="44.56658" lon="6.34712">
        <ele>1634.772949</ele>
        <time>2015-10-10T14:33:57Z</time>
      </trkpt>
      <trkpt lat="44.56651" lon="6.34705">
        <ele>1633.366699</ele>
        <time>2015-10-10T14:34:01Z</time>
      </trkpt>
      <trkpt lat="44.56641" lon="6.34694">
        <ele>1631.460449</ele>
        <time>2015-10-10T14:34:05Z</time>
      </trkpt>
      <trkpt lat="44.56632" lon="6.34674">
        <ele>1629.835449</ele>
        <time>2015-10-10T14:34:09Z</time>
      </trkpt>
      <trkpt lat="44.56621" lon="6.34672">
        <ele>1632.491699</ele>
        <time>2015-10-10T14:34:13Z</time>
      </trkpt>
      <trkpt lat="44.56616" lon="6.34692">
        <ele>1634.491699</ele>
        <time>2015-10-10T14:34:17Z</time>
      </trkpt>
      <trkpt lat="44.56614" lon="6.34716">
        <ele>1632.960449</ele>
        <time>2015-10-10T14:34:21Z</time>
      </trkpt>
      <trkpt lat="44.56618" lon="6.34741">
        <ele>1630.585449</ele>
        <time>2015-10-10T14:34:25Z</time>
      </trkpt>
      <trkpt lat="44.56629" lon="6.34774">
        <ele>1628.179199</ele>
        <time>2015-10-10T14:34:29Z</time>
      </trkpt>
      <trkpt lat="44.56634" lon="6.34791">
        <ele>1626.397949</ele>
        <time>2015-10-10T14:34:33Z</time>
      </trkpt>
      <trkpt lat="44.56619" lon="6.34784">
        <ele>1627.085449</ele>
        <time>2015-10-10T14:34:37Z</time>
      </trkpt>
      <trkpt lat="44.56598" lon="6.34773">
        <ele>1633.960449</ele>
        <time>2015-10-10T14:34:41Z</time>
      </trkpt>
      <trkpt lat="44.56578" lon="6.34763">
        <ele>1629.772949</ele>
        <time>2015-10-10T14:34:45Z</time>
      </trkpt>
      <trkpt lat="44.56559" lon="6.34757">
        <ele>1626.241699</ele>
        <time>2015-10-10T14:34:49Z</time>
      </trkpt>
      <trkpt lat="44.56546" lon="6.34753">
        <ele>1623.397949</ele>
        <time>2015-10-10T14:34:53Z</time>
      </trkpt>
      <trkpt lat="44.56541" lon="6.3475">
        <ele>1623.241699</ele>
        <time>2015-10-10T14:34:57Z</time>
      </trkpt>
      <trkpt lat="44.56541" lon="6.3475">
        <ele>1623.147949</ele>
        <time>2015-10-10T14:35:01Z</time>
      </trkpt>
      <trkpt lat="44.56541" lon="6.3475">
        <ele>1623.210449</ele>
        <time>2015-10-10T14:35:05Z</time>
      </trkpt>
      <trkpt lat="44.56541" lon="6.34751">
        <ele>1623.179199</ele>
        <time>2015-10-10T14:35:09Z</time>
      </trkpt>
      <trkpt lat="44.56541" lon="6.34751">
        <ele>1623.304199</ele>
        <time>2015-10-10T14:35:13Z</time>
      </trkpt>
      <trkpt lat="44.5654" lon="6.3475">
        <ele>1623.616699</ele>
        <time>2015-10-10T14:35:17Z</time>
      </trkpt>
      <trkpt lat="44.56533" lon="6.34746">
        <ele>1621.679199</ele>
        <time>2015-10-10T14:35:21Z</time>
      </trkpt>
      <trkpt lat="44.56533" lon="6.34745">
        <ele>1622.085449</ele>
        <time>2015-10-10T14:35:25Z</time>
      </trkpt>
      <trkpt lat="44.56534" lon="6.34745">
        <ele>1621.960449</ele>
        <time>2015-10-10T14:35:29Z</time>
      </trkpt>
      <trkpt lat="44.56534" lon="6.34745">
        <ele>1621.866699</ele>
        <time>2015-10-10T14:35:33Z</time>
      </trkpt>
      <trkpt lat="44.56534" lon="6.34745">
        <ele>1621.647949</ele>
        <time>2015-10-10T14:35:37Z</time>
      </trkpt>
      <trkpt lat="44.56534" lon="6.34746">
        <ele>1621.554199</ele>
        <time>2015-10-10T14:35:41Z</time>
      </trkpt>
      <trkpt lat="44.56535" lon="6.34746">
        <ele>1621.429199</ele>
        <time>2015-10-10T14:35:45Z</time>
      </trkpt>
      <trkpt lat="44.56535" lon="6.34746">
        <ele>1621.429199</ele>
        <time>2015-10-10T14:35:49Z</time>
      </trkpt>
      <trkpt lat="44.56535" lon="6.34746">
        <ele>1621.491699</ele>
        <time>2015-10-10T14:35:53Z</time>
      </trkpt>
      <trkpt lat="44.56535" lon="6.34746">
        <ele>1621.491699</ele>
        <time>2015-10-10T14:35:57Z</time>
      </trkpt>
      <trkpt lat="44.56535" lon="6.34746">
        <ele>1621.522949</ele>
        <time>2015-10-10T14:36:01Z</time>
      </trkpt>
      <trkpt lat="44.56534" lon="6.34747">
        <ele>1621.210449</ele>
        <time>2015-10-10T14:36:05Z</time>
      </trkpt>
      <trkpt lat="44.56538" lon="6.34768">
        <ele>1619.429199</ele>
        <time>2015-10-10T14:36:09Z</time>
      </trkpt>
      <trkpt lat="44.56546" lon="6.34793">
        <ele>1616.304199</ele>
        <time>2015-10-10T14:36:13Z</time>
      </trkpt>
      <trkpt lat="44.56545" lon="6.34818">
        <ele>1613.960449</ele>
        <time>2015-10-10T14:36:17Z</time>
      </trkpt>
      <trkpt lat="44.56541" lon="6.34837">
        <ele>1611.304199</ele>
        <time>2015-10-10T14:36:21Z</time>
      </trkpt>
      <trkpt lat="44.5654" lon="6.34857">
        <ele>1607.429199</ele>
        <time>2015-10-10T14:36:25Z</time>
      </trkpt>
      <trkpt lat="44.56537" lon="6.34864">
        <ele>1604.022949</ele>
        <time>2015-10-10T14:36:29Z</time>
      </trkpt>
      <trkpt lat="44.56526" lon="6.3485">
        <ele>1602.147949</ele>
        <time>2015-10-10T14:36:33Z</time>
      </trkpt>
      <trkpt lat="44.56517" lon="6.34845">
        <ele>1598.866699</ele>
        <time>2015-10-10T14:36:37Z</time>
      </trkpt>
      <trkpt lat="44.56508" lon="6.34836">
        <ele>1597.741699</ele>
        <time>2015-10-10T14:36:41Z</time>
      </trkpt>
      <trkpt lat="44.56495" lon="6.3482">
        <ele>1596.147949</ele>
        <time>2015-10-10T14:36:45Z</time>
      </trkpt>
      <trkpt lat="44.56485" lon="6.34805">
        <ele>1592.585449</ele>
        <time>2015-10-10T14:36:49Z</time>
      </trkpt>
      <trkpt lat="44.56489" lon="6.34782">
        <ele>1589.616699</ele>
        <time>2015-10-10T14:36:53Z</time>
      </trkpt>
      <trkpt lat="44.56486" lon="6.34766">
        <ele>1586.585449</ele>
        <time>2015-10-10T14:36:57Z</time>
      </trkpt>
      <trkpt lat="44.56475" lon="6.34768">
        <ele>1584.929199</ele>
        <time>2015-10-10T14:37:01Z</time>
      </trkpt>
      <trkpt lat="44.56458" lon="6.34781">
        <ele>1583.929199</ele>
        <time>2015-10-10T14:37:05Z</time>
      </trkpt>
      <trkpt lat="44.56442" lon="6.34776">
        <ele>1581.147949</ele>
        <time>2015-10-10T14:37:09Z</time>
      </trkpt>
      <trkpt lat="44.56432" lon="6.3476">
        <ele>1574.554199</ele>
        <time>2015-10-10T14:37:13Z</time>
      </trkpt>
      <trkpt lat="44.56432" lon="6.34741">
        <ele>1568.866699</ele>
        <time>2015-10-10T14:37:17Z</time>
      </trkpt>
      <trkpt lat="44.5643" lon="6.34719">
        <ele>1562.272949</ele>
        <time>2015-10-10T14:37:21Z</time>
      </trkpt>
      <trkpt lat="44.56426" lon="6.34707">
        <ele>1560.179199</ele>
        <time>2015-10-10T14:37:25Z</time>
      </trkpt>
      <trkpt lat="44.56418" lon="6.34703">
        <ele>1557.554199</ele>
        <time>2015-10-10T14:37:29Z</time>
      </trkpt>
      <trkpt lat="44.5641" lon="6.34695">
        <ele>1553.397949</ele>
        <time>2015-10-10T14:37:33Z</time>
      </trkpt>
      <trkpt lat="44.56408" lon="6.34691">
        <ele>1551.772949</ele>
        <time>2015-10-10T14:37:37Z</time>
      </trkpt>
      <trkpt lat="44.56407" lon="6.34693">
        <ele>1550.522949</ele>
        <time>2015-10-10T14:37:41Z</time>
      </trkpt>
      <trkpt lat="44.56407" lon="6.34693">
        <ele>1550.054199</ele>
        <time>2015-10-10T14:37:45Z</time>
      </trkpt>
      <trkpt lat="44.56407" lon="6.34693">
        <ele>1549.929199</ele>
        <time>2015-10-10T14:37:49Z</time>
      </trkpt>
      <trkpt lat="44.56407" lon="6.34693">
        <ele>1549.866699</ele>
        <time>2015-10-10T14:37:53Z</time>
      </trkpt>
      <trkpt lat="44.56407" lon="6.34694">
        <ele>1549.804199</ele>
        <time>2015-10-10T14:37:57Z</time>
      </trkpt>
      <trkpt lat="44.56408" lon="6.34694">
        <ele>1549.772949</ele>
        <time>2015-10-10T14:38:01Z</time>
      </trkpt>
      <trkpt lat="44.56408" lon="6.34695">
        <ele>1549.772949</ele>
        <time>2015-10-10T14:38:05Z</time>
      </trkpt>
      <trkpt lat="44.56408" lon="6.34695">
        <ele>1549.741699</ele>
        <time>2015-10-10T14:38:09Z</time>
      </trkpt>
      <trkpt lat="44.56408" lon="6.34696">
        <ele>1549.772949</ele>
        <time>2015-10-10T14:38:13Z</time>
      </trkpt>
      <trkpt lat="44.56409" lon="6.34696">
        <ele>1549.679199</ele>
        <time>2015-10-10T14:38:17Z</time>
      </trkpt>
      <trkpt lat="44.56407" lon="6.347">
        <ele>1549.585449</ele>
        <time>2015-10-10T14:38:21Z</time>
      </trkpt>
      <trkpt lat="44.56399" lon="6.34709">
        <ele>1547.460449</ele>
        <time>2015-10-10T14:38:25Z</time>
      </trkpt>
      <trkpt lat="44.56392" lon="6.3471">
        <ele>1544.991699</ele>
        <time>2015-10-10T14:38:29Z</time>
      </trkpt>
      <trkpt lat="44.56389" lon="6.34716">
        <ele>1543.710449</ele>
        <time>2015-10-10T14:38:33Z</time>
      </trkpt>
      <trkpt lat="44.56387" lon="6.34723">
        <ele>1541.585449</ele>
        <time>2015-10-10T14:38:37Z</time>
      </trkpt>
      <trkpt lat="44.56383" lon="6.34732">
        <ele>1537.929199</ele>
        <time>2015-10-10T14:38:41Z</time>
      </trkpt>
      <trkpt lat="44.56373" lon="6.34735">
        <ele>1534.241699</ele>
        <time>2015-10-10T14:38:45Z</time>
      </trkpt>
      <trkpt lat="44.56366" lon="6.34737">
        <ele>1532.679199</ele>
        <time>2015-10-10T14:38:49Z</time>
      </trkpt>
      <trkpt lat="44.56363" lon="6.34733">
        <ele>1530.897949</ele>
        <time>2015-10-10T14:38:53Z</time>
      </trkpt>
      <trkpt lat="44.56359" lon="6.34732">
        <ele>1528.022949</ele>
        <time>2015-10-10T14:38:57Z</time>
      </trkpt>
      <trkpt lat="44.5635" lon="6.34727">
        <ele>1525.554199</ele>
        <time>2015-10-10T14:39:01Z</time>
      </trkpt>
      <trkpt lat="44.56342" lon="6.34729">
        <ele>1523.710449</ele>
        <time>2015-10-10T14:39:05Z</time>
      </trkpt>
      <trkpt lat="44.56341" lon="6.34729">
        <ele>1522.491699</ele>
        <time>2015-10-10T14:39:09Z</time>
      </trkpt>
      <trkpt lat="44.56339" lon="6.3473">
        <ele>1521.772949</ele>
        <time>2015-10-10T14:39:13Z</time>
      </trkpt>
      <trkpt lat="44.56338" lon="6.34732">
        <ele>1520.866699</ele>
        <time>2015-10-10T14:39:17Z</time>
      </trkpt>
      <trkpt lat="44.56335" lon="6.34738">
        <ele>1518.897949</ele>
        <time>2015-10-10T14:39:21Z</time>
      </trkpt>
      <trkpt lat="44.5633" lon="6.34747">
        <ele>1516.147949</ele>
        <time>2015-10-10T14:39:25Z</time>
      </trkpt>
      <trkpt lat="44.56322" lon="6.34749">
        <ele>1514.116699</ele>
        <time>2015-10-10T14:39:29Z</time>
      </trkpt>
      <trkpt lat="44.56314" lon="6.34746">
        <ele>1510.616699</ele>
        <time>2015-10-10T14:39:33Z</time>
      </trkpt>
      <trkpt lat="44.56312" lon="6.34729">
        <ele>1506.335449</ele>
        <time>2015-10-10T14:39:37Z</time>
      </trkpt>
      <trkpt lat="44.56319" lon="6.34705">
        <ele>1502.835449</ele>
        <time>2015-10-10T14:39:41Z</time>
      </trkpt>
      <trkpt lat="44.56317" lon="6.3469">
        <ele>1500.116699</ele>
        <time>2015-10-10T14:39:45Z</time>
      </trkpt>
      <trkpt lat="44.56307" lon="6.34694">
        <ele>1499.116699</ele>
        <time>2015-10-10T14:39:49Z</time>
      </trkpt>
      <trkpt lat="44.56297" lon="6.347">
        <ele>1497.616699</ele>
        <time>2015-10-10T14:39:53Z</time>
      </trkpt>
      <trkpt lat="44.56289" lon="6.34706">
        <ele>1493.741699</ele>
        <time>2015-10-10T14:39:57Z</time>
      </trkpt>
      <trkpt lat="44.56276" lon="6.34712">
        <ele>1486.647949</ele>
        <time>2015-10-10T14:40:01Z</time>
      </trkpt>
      <trkpt lat="44.56265" lon="6.347">
        <ele>1482.054199</ele>
        <time>2015-10-10T14:40:05Z</time>
      </trkpt>
      <trkpt lat="44.56262" lon="6.34687">
        <ele>1481.741699</ele>
        <time>2015-10-10T14:40:09Z</time>
      </trkpt>
      <trkpt lat="44.56256" lon="6.3468">
        <ele>1481.679199</ele>
        <time>2015-10-10T14:40:13Z</time>
      </trkpt>
      <trkpt lat="44.56255" lon="6.34679">
        <ele>1481.304199</ele>
        <time>2015-10-10T14:40:17Z</time>
      </trkpt>
      <trkpt lat="44.56255" lon="6.34679">
        <ele>1481.304199</ele>
        <time>2015-10-10T14:40:21Z</time>
      </trkpt>
      <trkpt lat="44.56255" lon="6.34679">
        <ele>1481.335449</ele>
        <time>2015-10-10T14:40:25Z</time>
      </trkpt>
      <trkpt lat="44.56255" lon="6.34679">
        <ele>1481.491699</ele>
        <time>2015-10-10T14:40:29Z</time>
      </trkpt>
      <trkpt lat="44.56255" lon="6.34679">
        <ele>1481.585449</ele>
        <time>2015-10-10T14:40:33Z</time>
      </trkpt>
      <trkpt lat="44.56253" lon="6.3467">
        <ele>1480.679199</ele>
        <time>2015-10-10T14:40:37Z</time>
      </trkpt>
      <trkpt lat="44.5625" lon="6.34665">
        <ele>1480.522949</ele>
        <time>2015-10-10T14:40:41Z</time>
      </trkpt>
      <trkpt lat="44.5625" lon="6.34664">
        <ele>1479.866699</ele>
        <time>2015-10-10T14:40:45Z</time>
      </trkpt>
      <trkpt lat="44.5625" lon="6.34664">
        <ele>1479.647949</ele>
        <time>2015-10-10T14:40:49Z</time>
      </trkpt>
      <trkpt lat="44.5625" lon="6.34664">
        <ele>1479.522949</ele>
        <time>2015-10-10T14:40:53Z</time>
      </trkpt>
      <trkpt lat="44.5625" lon="6.34664">
        <ele>1479.522949</ele>
        <time>2015-10-10T14:40:57Z</time>
      </trkpt>
      <trkpt lat="44.5625" lon="6.34664">
        <ele>1479.522949</ele>
        <time>2015-10-10T14:41:01Z</time>
      </trkpt>
      <trkpt lat="44.5625" lon="6.34664">
        <ele>1479.460449</ele>
        <time>2015-10-10T14:41:05Z</time>
      </trkpt>
      <trkpt lat="44.5625" lon="6.34664">
        <ele>1479.429199</ele>
        <time>2015-10-10T14:41:09Z</time>
      </trkpt>
      <trkpt lat="44.5625" lon="6.34664">
        <ele>1479.397949</ele>
        <time>2015-10-10T14:41:13Z</time>
      </trkpt>
      <trkpt lat="44.5625" lon="6.34664">
        <ele>1479.366699</ele>
        <time>2015-10-10T14:41:17Z</time>
      </trkpt>
      <trkpt lat="44.5625" lon="6.34664">
        <ele>1479.366699</ele>
        <time>2015-10-10T14:41:21Z</time>
      </trkpt>
      <trkpt lat="44.5625" lon="6.34664">
        <ele>1479.366699</ele>
        <time>2015-10-10T14:41:25Z</time>
      </trkpt>
      <trkpt lat="44.5625" lon="6.34664">
        <ele>1479.366699</ele>
        <time>2015-10-10T14:41:29Z</time>
      </trkpt>
      <trkpt lat="44.5625" lon="6.34664">
        <ele>1479.335449</ele>
        <time>2015-10-10T14:41:33Z</time>
      </trkpt>
      <trkpt lat="44.5625" lon="6.34664">
        <ele>1479.335449</ele>
        <time>2015-10-10T14:41:37Z</time>
      </trkpt>
      <trkpt lat="44.56251" lon="6.34664">
        <ele>1479.241699</ele>
        <time>2015-10-10T14:41:41Z</time>
      </trkpt>
      <trkpt lat="44.56251" lon="6.34664">
        <ele>1479.241699</ele>
        <time>2015-10-10T14:41:45Z</time>
      </trkpt>
      <trkpt lat="44.56251" lon="6.34664">
        <ele>1479.241699</ele>
        <time>2015-10-10T14:41:49Z</time>
      </trkpt>
      <trkpt lat="44.56251" lon="6.34664">
        <ele>1479.241699</ele>
        <time>2015-10-10T14:41:53Z</time>
      </trkpt>
      <trkpt lat="44.56251" lon="6.34664">
        <ele>1479.241699</ele>
        <time>2015-10-10T14:41:57Z</time>
      </trkpt>
      <trkpt lat="44.56251" lon="6.34664">
        <ele>1479.241699</ele>
        <time>2015-10-10T14:42:01Z</time>
      </trkpt>
      <trkpt lat="44.56251" lon="6.34664">
        <ele>1479.241699</ele>
        <time>2015-10-10T14:42:05Z</time>
      </trkpt>
      <trkpt lat="44.56251" lon="6.34664">
        <ele>1479.241699</ele>
        <time>2015-10-10T14:42:09Z</time>
      </trkpt>
      <trkpt lat="44.56251" lon="6.34664">
        <ele>1479.210449</ele>
        <time>2015-10-10T14:42:13Z</time>
      </trkpt>
      <trkpt lat="44.56251" lon="6.34664">
        <ele>1479.210449</ele>
        <time>2015-10-10T14:42:17Z</time>
      </trkpt>
      <trkpt lat="44.56251" lon="6.34664">
        <ele>1479.210449</ele>
        <time>2015-10-10T14:42:21Z</time>
      </trkpt>
      <trkpt lat="44.56251" lon="6.34664">
        <ele>1479.241699</ele>
        <time>2015-10-10T14:42:25Z</time>
      </trkpt>
      <trkpt lat="44.56251" lon="6.34664">
        <ele>1479.241699</ele>
        <time>2015-10-10T14:42:29Z</time>
      </trkpt>
      <trkpt lat="44.56251" lon="6.34664">
        <ele>1479.241699</ele>
        <time>2015-10-10T14:42:33Z</time>
      </trkpt>
      <trkpt lat="44.56251" lon="6.34664">
        <ele>1479.241699</ele>
        <time>2015-10-10T14:42:37Z</time>
      </trkpt>
      <trkpt lat="44.56251" lon="6.34664">
        <ele>1479.272949</ele>
        <time>2015-10-10T14:42:41Z</time>
      </trkpt>
      <trkpt lat="44.56251" lon="6.34664">
        <ele>1479.272949</ele>
        <time>2015-10-10T14:42:45Z</time>
      </trkpt>
      <trkpt lat="44.56251" lon="6.34664">
        <ele>1479.241699</ele>
        <time>2015-10-10T14:42:49Z</time>
      </trkpt>
      <trkpt lat="44.56251" lon="6.34664">
        <ele>1479.241699</ele>
        <time>2015-10-10T14:42:53Z</time>
      </trkpt>
      <trkpt lat="44.56251" lon="6.34664">
        <ele>1479.241699</ele>
        <time>2015-10-10T14:42:57Z</time>
      </trkpt>
      <trkpt lat="44.56251" lon="6.34664">
        <ele>1479.241699</ele>
        <time>2015-10-10T14:43:01Z</time>
      </trkpt>
      <trkpt lat="44.56251" lon="6.34664">
        <ele>1479.210449</ele>
        <time>2015-10-10T14:43:05Z</time>
      </trkpt>
      <trkpt lat="44.56251" lon="6.34664">
        <ele>1479.210449</ele>
        <time>2015-10-10T14:43:09Z</time>
      </trkpt>
      <trkpt lat="44.56251" lon="6.34664">
        <ele>1479.210449</ele>
        <time>2015-10-10T14:43:13Z</time>
      </trkpt>
      <trkpt lat="44.56251" lon="6.34664">
        <ele>1479.210449</ele>
        <time>2015-10-10T14:43:17Z</time>
      </trkpt>
      <trkpt lat="44.56251" lon="6.34664">
        <ele>1479.210449</ele>
        <time>2015-10-10T14:43:21Z</time>
      </trkpt>
      <trkpt lat="44.56251" lon="6.34664">
        <ele>1479.241699</ele>
        <time>2015-10-10T14:43:25Z</time>
      </trkpt>
      <trkpt lat="44.56251" lon="6.34664">
        <ele>1479.241699</ele>
        <time>2015-10-10T14:43:29Z</time>
      </trkpt>
      <trkpt lat="44.56251" lon="6.34664">
        <ele>1479.241699</ele>
        <time>2015-10-10T14:43:33Z</time>
      </trkpt>
      <trkpt lat="44.56251" lon="6.34664">
        <ele>1479.179199</ele>
        <time>2015-10-10T14:43:37Z</time>
      </trkpt>
      <trkpt lat="44.56251" lon="6.34664">
        <ele>1479.116699</ele>
        <time>2015-10-10T14:43:41Z</time>
      </trkpt>
      <trkpt lat="44.56252" lon="6.34664">
        <ele>1479.085449</ele>
        <time>2015-10-10T14:43:45Z</time>
      </trkpt>
      <trkpt lat="44.56252" lon="6.34663">
        <ele>1479.022949</ele>
        <time>2015-10-10T14:43:49Z</time>
      </trkpt>
      <trkpt lat="44.56249" lon="6.34658">
        <ele>1476.616699</ele>
        <time>2015-10-10T14:43:53Z</time>
      </trkpt>
      <trkpt lat="44.56242" lon="6.34652">
        <ele>1474.710449</ele>
        <time>2015-10-10T14:43:57Z</time>
      </trkpt>
      <trkpt lat="44.56234" lon="6.34639">
        <ele>1473.960449</ele>
        <time>2015-10-10T14:44:01Z</time>
      </trkpt>
      <trkpt lat="44.56225" lon="6.34628">
        <ele>1473.897949</ele>
        <time>2015-10-10T14:44:05Z</time>
      </trkpt>
      <trkpt lat="44.56219" lon="6.34616">
        <ele>1473.335449</ele>
        <time>2015-10-10T14:44:09Z</time>
      </trkpt>
      <trkpt lat="44.5622" lon="6.34607">
        <ele>1472.085449</ele>
        <time>2015-10-10T14:44:13Z</time>
      </trkpt>
      <trkpt lat="44.56223" lon="6.34606">
        <ele>1472.241699</ele>
        <time>2015-10-10T14:44:17Z</time>
      </trkpt>
      <trkpt lat="44.56223" lon="6.34605">
        <ele>1472.616699</ele>
        <time>2015-10-10T14:44:21Z</time>
      </trkpt>
      <trkpt lat="44.56225" lon="6.34605">
        <ele>1472.835449</ele>
        <time>2015-10-10T14:44:25Z</time>
      </trkpt>
      <trkpt lat="44.56225" lon="6.34605">
        <ele>1472.929199</ele>
        <time>2015-10-10T14:44:29Z</time>
      </trkpt>
      <trkpt lat="44.56225" lon="6.34603">
        <ele>1472.960449</ele>
        <time>2015-10-10T14:44:33Z</time>
      </trkpt>
      <trkpt lat="44.56224" lon="6.34601">
        <ele>1472.991699</ele>
        <time>2015-10-10T14:44:37Z</time>
      </trkpt>
      <trkpt lat="44.56224" lon="6.346">
        <ele>1473.054199</ele>
        <time>2015-10-10T14:44:41Z</time>
      </trkpt>
      <trkpt lat="44.56226" lon="6.34593">
        <ele>1472.210449</ele>
        <time>2015-10-10T14:44:45Z</time>
      </trkpt>
      <trkpt lat="44.5623" lon="6.34588">
        <ele>1470.554199</ele>
        <time>2015-10-10T14:44:49Z</time>
      </trkpt>
      <trkpt lat="44.56232" lon="6.34582">
        <ele>1469.804199</ele>
        <time>2015-10-10T14:44:53Z</time>
      </trkpt>
      <trkpt lat="44.56235" lon="6.34578">
        <ele>1468.022949</ele>
        <time>2015-10-10T14:44:57Z</time>
      </trkpt>
      <trkpt lat="44.56235" lon="6.34579">
        <ele>1465.116699</ele>
        <time>2015-10-10T14:45:01Z</time>
      </trkpt>
      <trkpt lat="44.56236" lon="6.34578">
        <ele>1464.616699</ele>
        <time>2015-10-10T14:45:05Z</time>
      </trkpt>
      <trkpt lat="44.56237" lon="6.3457">
        <ele>1464.835449</ele>
        <time>2015-10-10T14:45:09Z</time>
      </trkpt>
      <trkpt lat="44.5624" lon="6.34564">
        <ele>1465.991699</ele>
        <time>2015-10-10T14:45:13Z</time>
      </trkpt>
      <trkpt lat="44.56241" lon="6.34564">
        <ele>1465.022949</ele>
        <time>2015-10-10T14:45:17Z</time>
      </trkpt>
      <trkpt lat="44.56241" lon="6.34564">
        <ele>1464.491699</ele>
        <time>2015-10-10T14:45:21Z</time>
      </trkpt>
      <trkpt lat="44.56241" lon="6.34564">
        <ele>1463.679199</ele>
        <time>2015-10-10T14:45:25Z</time>
      </trkpt>
      <trkpt lat="44.56241" lon="6.34564">
        <ele>1463.647949</ele>
        <time>2015-10-10T14:45:29Z</time>
      </trkpt>
      <trkpt lat="44.56241" lon="6.34566">
        <ele>1462.647949</ele>
        <time>2015-10-10T14:45:33Z</time>
      </trkpt>
      <trkpt lat="44.56241" lon="6.34568">
        <ele>1462.804199</ele>
        <time>2015-10-10T14:45:37Z</time>
      </trkpt>
      <trkpt lat="44.56239" lon="6.34573">
        <ele>1462.897949</ele>
        <time>2015-10-10T14:45:41Z</time>
      </trkpt>
      <trkpt lat="44.56237" lon="6.34573">
        <ele>1462.304199</ele>
        <time>2015-10-10T14:45:45Z</time>
      </trkpt>
      <trkpt lat="44.56234" lon="6.34576">
        <ele>1461.491699</ele>
        <time>2015-10-10T14:45:49Z</time>
      </trkpt>
      <trkpt lat="44.56232" lon="6.34581">
        <ele>1461.804199</ele>
        <time>2015-10-10T14:45:53Z</time>
      </trkpt>
      <trkpt lat="44.56229" lon="6.34585">
        <ele>1461.491699</ele>
        <time>2015-10-10T14:45:57Z</time>
      </trkpt>
      <trkpt lat="44.56227" lon="6.34589">
        <ele>1460.679199</ele>
        <time>2015-10-10T14:46:01Z</time>
      </trkpt>
      <trkpt lat="44.56224" lon="6.34595">
        <ele>1461.116699</ele>
        <time>2015-10-10T14:46:05Z</time>
      </trkpt>
      <trkpt lat="44.56222" lon="6.34601">
        <ele>1462.241699</ele>
        <time>2015-10-10T14:46:09Z</time>
      </trkpt>
      <trkpt lat="44.5622" lon="6.34606">
        <ele>1462.772949</ele>
        <time>2015-10-10T14:46:13Z</time>
      </trkpt>
      <trkpt lat="44.56222" lon="6.34612">
        <ele>1462.304199</ele>
        <time>2015-10-10T14:46:17Z</time>
      </trkpt>
      <trkpt lat="44.56224" lon="6.34614">
        <ele>1462.772949</ele>
        <time>2015-10-10T14:46:21Z</time>
      </trkpt>
      <trkpt lat="44.56224" lon="6.34614">
        <ele>1462.647949</ele>
        <time>2015-10-10T14:46:25Z</time>
      </trkpt>
      <trkpt lat="44.56224" lon="6.34614">
        <ele>1462.741699</ele>
        <time>2015-10-10T14:46:29Z</time>
      </trkpt>
      <trkpt lat="44.56224" lon="6.34614">
        <ele>1462.741699</ele>
        <time>2015-10-10T14:46:33Z</time>
      </trkpt>
      <trkpt lat="44.56224" lon="6.34614">
        <ele>1462.741699</ele>
        <time>2015-10-10T14:46:37Z</time>
      </trkpt>
      <trkpt lat="44.56224" lon="6.34614">
        <ele>1462.741699</ele>
        <time>2015-10-10T14:46:41Z</time>
      </trkpt>
      <trkpt lat="44.56224" lon="6.34614">
        <ele>1462.741699</ele>
        <time>2015-10-10T14:46:45Z</time>
      </trkpt>
      <trkpt lat="44.56223" lon="6.34612">
        <ele>1463.022949</ele>
        <time>2015-10-10T14:46:49Z</time>
      </trkpt>
      <trkpt lat="44.56218" lon="6.34609">
        <ele>1463.054199</ele>
        <time>2015-10-10T14:46:53Z</time>
      </trkpt>
      <trkpt lat="44.56215" lon="6.34611">
        <ele>1462.054199</ele>
        <time>2015-10-10T14:46:57Z</time>
      </trkpt>
      <trkpt lat="44.56216" lon="6.34611">
        <ele>1461.585449</ele>
        <time>2015-10-10T14:47:01Z</time>
      </trkpt>
      <trkpt lat="44.56215" lon="6.34611">
        <ele>1461.554199</ele>
        <time>2015-10-10T14:47:05Z</time>
      </trkpt>
      <trkpt lat="44.56214" lon="6.34613">
        <ele>1461.585449</ele>
        <time>2015-10-10T14:47:09Z</time>
      </trkpt>
      <trkpt lat="44.56215" lon="6.34608">
        <ele>1461.022949</ele>
        <time>2015-10-10T14:47:13Z</time>
      </trkpt>
      <trkpt lat="44.56222" lon="6.34607">
        <ele>1459.491699</ele>
        <time>2015-10-10T14:47:17Z</time>
      </trkpt>
      <trkpt lat="44.56229" lon="6.34589">
        <ele>1459.272949</ele>
        <time>2015-10-10T14:47:21Z</time>
      </trkpt>
      <trkpt lat="44.56236" lon="6.34569">
        <ele>1459.241699</ele>
        <time>2015-10-10T14:47:25Z</time>
      </trkpt>
      <trkpt lat="44.56244" lon="6.34555">
        <ele>1459.554199</ele>
        <time>2015-10-10T14:47:29Z</time>
      </trkpt>
      <trkpt lat="44.56257" lon="6.34549">
        <ele>1458.335449</ele>
        <time>2015-10-10T14:47:33Z</time>
      </trkpt>
      <trkpt lat="44.5627" lon="6.3454">
        <ele>1459.210449</ele>
        <time>2015-10-10T14:47:37Z</time>
      </trkpt>
      <trkpt lat="44.56281" lon="6.34526">
        <ele>1459.210449</ele>
        <time>2015-10-10T14:47:41Z</time>
      </trkpt>
      <trkpt lat="44.56292" lon="6.34526">
        <ele>1457.585449</ele>
        <time>2015-10-10T14:47:45Z</time>
      </trkpt>
      <trkpt lat="44.56301" lon="6.3453">
        <ele>1456.147949</ele>
        <time>2015-10-10T14:47:49Z</time>
      </trkpt>
      <trkpt lat="44.56306" lon="6.34535">
        <ele>1457.429199</ele>
        <time>2015-10-10T14:47:53Z</time>
      </trkpt>
      <trkpt lat="44.56311" lon="6.34542">
        <ele>1456.429199</ele>
        <time>2015-10-10T14:47:57Z</time>
      </trkpt>
      <trkpt lat="44.56317" lon="6.34551">
        <ele>1456.897949</ele>
        <time>2015-10-10T14:48:01Z</time>
      </trkpt>
      <trkpt lat="44.56318" lon="6.34575">
        <ele>1460.897949</ele>
        <time>2015-10-10T14:48:05Z</time>
      </trkpt>
      <trkpt lat="44.56311" lon="6.34593">
        <ele>1464.741699</ele>
        <time>2015-10-10T14:48:09Z</time>
      </trkpt>
      <trkpt lat="44.56302" lon="6.34603">
        <ele>1464.929199</ele>
        <time>2015-10-10T14:48:13Z</time>
      </trkpt>
      <trkpt lat="44.56298" lon="6.34622">
        <ele>1465.804199</ele>
        <time>2015-10-10T14:48:17Z</time>
      </trkpt>
      <trkpt lat="44.56293" lon="6.34638">
        <ele>1469.554199</ele>
        <time>2015-10-10T14:48:21Z</time>
      </trkpt>
      <trkpt lat="44.56289" lon="6.34642">
        <ele>1472.522949</ele>
        <time>2015-10-10T14:48:25Z</time>
      </trkpt>
      <trkpt lat="44.56286" lon="6.34644">
        <ele>1472.772949</ele>
        <time>2015-10-10T14:48:29Z</time>
      </trkpt>
      <trkpt lat="44.56282" lon="6.34651">
        <ele>1473.335449</ele>
        <time>2015-10-10T14:48:33Z</time>
      </trkpt>
      <trkpt lat="44.56288" lon="6.34661">
        <ele>1469.741699</ele>
        <time>2015-10-10T14:48:37Z</time>
      </trkpt>
      <trkpt lat="44.56281" lon="6.3467">
        <ele>1468.960449</ele>
        <time>2015-10-10T14:48:41Z</time>
      </trkpt>
      <trkpt lat="44.56271" lon="6.34664">
        <ele>1463.710449</ele>
        <time>2015-10-10T14:48:45Z</time>
      </trkpt>
      <trkpt lat="44.56256" lon="6.34654">
        <ele>1462.616699</ele>
        <time>2015-10-10T14:48:49Z</time>
      </trkpt>
      <trkpt lat="44.56241" lon="6.34654">
        <ele>1464.710449</ele>
        <time>2015-10-10T14:48:53Z</time>
      </trkpt>
      <trkpt lat="44.56228" lon="6.34656">
        <ele>1463.804199</ele>
        <time>2015-10-10T14:48:57Z</time>
      </trkpt>
      <trkpt lat="44.56221" lon="6.3464">
        <ele>1462.054199</ele>
        <time>2015-10-10T14:49:01Z</time>
      </trkpt>
      <trkpt lat="44.56215" lon="6.34617">
        <ele>1463.085449</ele>
        <time>2015-10-10T14:49:05Z</time>
      </trkpt>
      <trkpt lat="44.56206" lon="6.34597">
        <ele>1463.741699</ele>
        <time>2015-10-10T14:49:09Z</time>
      </trkpt>
      <trkpt lat="44.56186" lon="6.34594">
        <ele>1462.835449</ele>
        <time>2015-10-10T14:49:13Z</time>
      </trkpt>
      <trkpt lat="44.56162" lon="6.34612">
        <ele>1460.585449</ele>
        <time>2015-10-10T14:49:17Z</time>
      </trkpt>
      <trkpt lat="44.56153" lon="6.34656">
        <ele>1456.304199</ele>
        <time>2015-10-10T14:49:21Z</time>
      </trkpt>
      <trkpt lat="44.56155" lon="6.34709">
        <ele>1451.679199</ele>
        <time>2015-10-10T14:49:25Z</time>
      </trkpt>
      <trkpt lat="44.56163" lon="6.34759">
        <ele>1448.647949</ele>
        <time>2015-10-10T14:49:29Z</time>
      </trkpt>
      <trkpt lat="44.56162" lon="6.34787">
        <ele>1445.147949</ele>
        <time>2015-10-10T14:49:33Z</time>
      </trkpt>
      <trkpt lat="44.56142" lon="6.34768">
        <ele>1439.804199</ele>
        <time>2015-10-10T14:49:37Z</time>
      </trkpt>
      <trkpt lat="44.56119" lon="6.34732">
        <ele>1435.272949</ele>
        <time>2015-10-10T14:49:41Z</time>
      </trkpt>
      <trkpt lat="44.56083" lon="6.34713">
        <ele>1432.272949</ele>
        <time>2015-10-10T14:49:45Z</time>
      </trkpt>
      <trkpt lat="44.56049" lon="6.34708">
        <ele>1429.366699</ele>
        <time>2015-10-10T14:49:49Z</time>
      </trkpt>
      <trkpt lat="44.56029" lon="6.3471">
        <ele>1428.085449</ele>
        <time>2015-10-10T14:49:53Z</time>
      </trkpt>
      <trkpt lat="44.56026" lon="6.34714">
        <ele>1427.960449</ele>
        <time>2015-10-10T14:49:57Z</time>
      </trkpt>
      <trkpt lat="44.5603" lon="6.34723">
        <ele>1426.616699</ele>
        <time>2015-10-10T14:50:01Z</time>
      </trkpt>
      <trkpt lat="44.56043" lon="6.3474">
        <ele>1424.585449</ele>
        <time>2015-10-10T14:50:05Z</time>
      </trkpt>
      <trkpt lat="44.56062" lon="6.34757">
        <ele>1423.179199</ele>
        <time>2015-10-10T14:50:09Z</time>
      </trkpt>
      <trkpt lat="44.56088" lon="6.34775">
        <ele>1420.835449</ele>
        <time>2015-10-10T14:50:13Z</time>
      </trkpt>
      <trkpt lat="44.56101" lon="6.34819">
        <ele>1414.304199</ele>
        <time>2015-10-10T14:50:17Z</time>
      </trkpt>
      <trkpt lat="44.56103" lon="6.34871">
        <ele>1410.647949</ele>
        <time>2015-10-10T14:50:21Z</time>
      </trkpt>
      <trkpt lat="44.56125" lon="6.34914">
        <ele>1408.772949</ele>
        <time>2015-10-10T14:50:25Z</time>
      </trkpt>
      <trkpt lat="44.56144" lon="6.34951">
        <ele>1407.335449</ele>
        <time>2015-10-10T14:50:29Z</time>
      </trkpt>
      <trkpt lat="44.56141" lon="6.34997">
        <ele>1403.772949</ele>
        <time>2015-10-10T14:50:33Z</time>
      </trkpt>
      <trkpt lat="44.56144" lon="6.3503">
        <ele>1402.491699</ele>
        <time>2015-10-10T14:50:37Z</time>
      </trkpt>
      <trkpt lat="44.56147" lon="6.3505">
        <ele>1402.460449</ele>
        <time>2015-10-10T14:50:41Z</time>
      </trkpt>
      <trkpt lat="44.56147" lon="6.3507">
        <ele>1401.866699</ele>
        <time>2015-10-10T14:50:45Z</time>
      </trkpt>
      <trkpt lat="44.56138" lon="6.35081">
        <ele>1400.460449</ele>
        <time>2015-10-10T14:50:49Z</time>
      </trkpt>
      <trkpt lat="44.56121" lon="6.3509">
        <ele>1399.772949</ele>
        <time>2015-10-10T14:50:53Z</time>
      </trkpt>
      <trkpt lat="44.56097" lon="6.35102">
        <ele>1395.554199</ele>
        <time>2015-10-10T14:50:57Z</time>
      </trkpt>
      <trkpt lat="44.56069" lon="6.3512">
        <ele>1393.929199</ele>
        <time>2015-10-10T14:51:01Z</time>
      </trkpt>
      <trkpt lat="44.56043" lon="6.35137">
        <ele>1392.272949</ele>
        <time>2015-10-10T14:51:05Z</time>
      </trkpt>
      <trkpt lat="44.56018" lon="6.35157">
        <ele>1391.304199</ele>
        <time>2015-10-10T14:51:09Z</time>
      </trkpt>
      <trkpt lat="44.56003" lon="6.35189">
        <ele>1390.022949</ele>
        <time>2015-10-10T14:51:13Z</time>
      </trkpt>
      <trkpt lat="44.56" lon="6.35233">
        <ele>1387.804199</ele>
        <time>2015-10-10T14:51:17Z</time>
      </trkpt>
      <trkpt lat="44.55991" lon="6.35279">
        <ele>1385.366699</ele>
        <time>2015-10-10T14:51:21Z</time>
      </trkpt>
      <trkpt lat="44.55971" lon="6.35321">
        <ele>1385.085449</ele>
        <time>2015-10-10T14:51:25Z</time>
      </trkpt>
      <trkpt lat="44.55962" lon="6.3537">
        <ele>1382.647949</ele>
        <time>2015-10-10T14:51:29Z</time>
      </trkpt>
      <trkpt lat="44.55953" lon="6.35425">
        <ele>1380.585449</ele>
        <time>2015-10-10T14:51:33Z</time>
      </trkpt>
      <trkpt lat="44.55928" lon="6.35477">
        <ele>1378.866699</ele>
        <time>2015-10-10T14:51:37Z</time>
      </trkpt>
      <trkpt lat="44.55899" lon="6.35516">
        <ele>1372.897949</ele>
        <time>2015-10-10T14:51:41Z</time>
      </trkpt>
      <trkpt lat="44.55884" lon="6.35536">
        <ele>1368.304199</ele>
        <time>2015-10-10T14:51:45Z</time>
      </trkpt>
      <trkpt lat="44.55883" lon="6.3554">
        <ele>1367.897949</ele>
        <time>2015-10-10T14:51:49Z</time>
      </trkpt>
      <trkpt lat="44.55883" lon="6.35539">
        <ele>1367.929199</ele>
        <time>2015-10-10T14:51:53Z</time>
      </trkpt>
      <trkpt lat="44.55883" lon="6.35539">
        <ele>1367.522949</ele>
        <time>2015-10-10T14:51:57Z</time>
      </trkpt>
      <trkpt lat="44.55883" lon="6.35539">
        <ele>1367.397949</ele>
        <time>2015-10-10T14:52:01Z</time>
      </trkpt>
      <trkpt lat="44.55883" lon="6.35539">
        <ele>1367.429199</ele>
        <time>2015-10-10T14:52:05Z</time>
      </trkpt>
      <trkpt lat="44.55883" lon="6.35539">
        <ele>1367.460449</ele>
        <time>2015-10-10T14:52:09Z</time>
      </trkpt>
      <trkpt lat="44.55883" lon="6.35539">
        <ele>1367.522949</ele>
        <time>2015-10-10T14:52:13Z</time>
      </trkpt>
      <trkpt lat="44.55883" lon="6.35539">
        <ele>1367.585449</ele>
        <time>2015-10-10T14:52:17Z</time>
      </trkpt>
      <trkpt lat="44.55883" lon="6.35539">
        <ele>1367.647949</ele>
        <time>2015-10-10T14:52:21Z</time>
      </trkpt>
      <trkpt lat="44.55883" lon="6.35539">
        <ele>1367.679199</ele>
        <time>2015-10-10T14:52:25Z</time>
      </trkpt>
      <trkpt lat="44.55883" lon="6.35539">
        <ele>1367.710449</ele>
        <time>2015-10-10T14:52:29Z</time>
      </trkpt>
      <trkpt lat="44.55883" lon="6.35539">
        <ele>1367.741699</ele>
        <time>2015-10-10T14:52:33Z</time>
      </trkpt>
      <trkpt lat="44.55884" lon="6.35543">
        <ele>1367.179199</ele>
        <time>2015-10-10T14:52:37Z</time>
      </trkpt>
      <trkpt lat="44.55885" lon="6.35562">
        <ele>1366.022949</ele>
        <time>2015-10-10T14:52:41Z</time>
      </trkpt>
      <trkpt lat="44.55886" lon="6.35581">
        <ele>1364.460449</ele>
        <time>2015-10-10T14:52:45Z</time>
      </trkpt>
      <trkpt lat="44.55888" lon="6.35595">
        <ele>1363.366699</ele>
        <time>2015-10-10T14:52:49Z</time>
      </trkpt>
      <trkpt lat="44.55888" lon="6.356">
        <ele>1363.835449</ele>
        <time>2015-10-10T14:52:53Z</time>
      </trkpt>
      <trkpt lat="44.55888" lon="6.356">
        <ele>1364.179199</ele>
        <time>2015-10-10T14:52:57Z</time>
      </trkpt>
      <trkpt lat="44.55888" lon="6.356">
        <ele>1364.116699</ele>
        <time>2015-10-10T14:53:01Z</time>
      </trkpt>
      <trkpt lat="44.55888" lon="6.356">
        <ele>1364.085449</ele>
        <time>2015-10-10T14:53:05Z</time>
      </trkpt>
      <trkpt lat="44.55888" lon="6.356">
        <ele>1364.085449</ele>
        <time>2015-10-10T14:53:09Z</time>
      </trkpt>
      <trkpt lat="44.55888" lon="6.356">
        <ele>1364.116699</ele>
        <time>2015-10-10T14:53:13Z</time>
      </trkpt>
      <trkpt lat="44.55888" lon="6.356">
        <ele>1364.116699</ele>
        <time>2015-10-10T14:53:17Z</time>
      </trkpt>
      <trkpt lat="44.55888" lon="6.356">
        <ele>1364.085449</ele>
        <time>2015-10-10T14:53:21Z</time>
      </trkpt>
      <trkpt lat="44.55888" lon="6.356">
        <ele>1364.054199</ele>
        <time>2015-10-10T14:53:25Z</time>
      </trkpt>
      <trkpt lat="44.55888" lon="6.35601">
        <ele>1364.054199</ele>
        <time>2015-10-10T14:53:29Z</time>
      </trkpt>
      <trkpt lat="44.55888" lon="6.35601">
        <ele>1364.054199</ele>
        <time>2015-10-10T14:53:33Z</time>
      </trkpt>
      <trkpt lat="44.55888" lon="6.35602">
        <ele>1363.991699</ele>
        <time>2015-10-10T14:53:37Z</time>
      </trkpt>
      <trkpt lat="44.55891" lon="6.35616">
        <ele>1362.522949</ele>
        <time>2015-10-10T14:53:41Z</time>
      </trkpt>
      <trkpt lat="44.55894" lon="6.35643">
        <ele>1360.304199</ele>
        <time>2015-10-10T14:53:45Z</time>
      </trkpt>
      <trkpt lat="44.55894" lon="6.35683">
        <ele>1357.272949</ele>
        <time>2015-10-10T14:53:49Z</time>
      </trkpt>
      <trkpt lat="44.55895" lon="6.3573">
        <ele>1354.272949</ele>
        <time>2015-10-10T14:53:53Z</time>
      </trkpt>
      <trkpt lat="44.55892" lon="6.35786">
        <ele>1349.991699</ele>
        <time>2015-10-10T14:53:57Z</time>
      </trkpt>
      <trkpt lat="44.55888" lon="6.35842">
        <ele>1345.710449</ele>
        <time>2015-10-10T14:54:01Z</time>
      </trkpt>
      <trkpt lat="44.55888" lon="6.35892">
        <ele>1341.210449</ele>
        <time>2015-10-10T14:54:05Z</time>
      </trkpt>
      <trkpt lat="44.55882" lon="6.35943">
        <ele>1338.616699</ele>
        <time>2015-10-10T14:54:09Z</time>
      </trkpt>
      <trkpt lat="44.55866" lon="6.35994">
        <ele>1335.804199</ele>
        <time>2015-10-10T14:54:13Z</time>
      </trkpt>
      <trkpt lat="44.55841" lon="6.36044">
        <ele>1331.991699</ele>
        <time>2015-10-10T14:54:17Z</time>
      </trkpt>
      <trkpt lat="44.55823" lon="6.36074">
        <ele>1331.272949</ele>
        <time>2015-10-10T14:54:21Z</time>
      </trkpt>
      <trkpt lat="44.55804" lon="6.36071">
        <ele>1324.647949</ele>
        <time>2015-10-10T14:54:25Z</time>
      </trkpt>
      <trkpt lat="44.55783" lon="6.3607">
        <ele>1325.085449</ele>
        <time>2015-10-10T14:54:29Z</time>
      </trkpt>
      <trkpt lat="44.55772" lon="6.36078">
        <ele>1323.929199</ele>
        <time>2015-10-10T14:54:33Z</time>
      </trkpt>
      <trkpt lat="44.55764" lon="6.36095">
        <ele>1319.522949</ele>
        <time>2015-10-10T14:54:37Z</time>
      </trkpt>
      <trkpt lat="44.55757" lon="6.36107">
        <ele>1318.772949</ele>
        <time>2015-10-10T14:54:41Z</time>
      </trkpt>
      <trkpt lat="44.55753" lon="6.36113">
        <ele>1317.929199</ele>
        <time>2015-10-10T14:54:45Z</time>
      </trkpt>
      <trkpt lat="44.55753" lon="6.36112">
        <ele>1317.366699</ele>
        <time>2015-10-10T14:54:49Z</time>
      </trkpt>
      <trkpt lat="44.55753" lon="6.36112">
        <ele>1316.991699</ele>
        <time>2015-10-10T14:54:53Z</time>
      </trkpt>
      <trkpt lat="44.55753" lon="6.36112">
        <ele>1316.897949</ele>
        <time>2015-10-10T14:54:57Z</time>
      </trkpt>
      <trkpt lat="44.55753" lon="6.36113">
        <ele>1316.929199</ele>
        <time>2015-10-10T14:55:01Z</time>
      </trkpt>
      <trkpt lat="44.55747" lon="6.36117">
        <ele>1316.960449</ele>
        <time>2015-10-10T14:55:05Z</time>
      </trkpt>
      <trkpt lat="44.55735" lon="6.36128">
        <ele>1316.272949</ele>
        <time>2015-10-10T14:55:09Z</time>
      </trkpt>
      <trkpt lat="44.55725" lon="6.36122">
        <ele>1317.147949</ele>
        <time>2015-10-10T14:55:13Z</time>
      </trkpt>
      <trkpt lat="44.5572" lon="6.36115">
        <ele>1318.460449</ele>
        <time>2015-10-10T14:55:17Z</time>
      </trkpt>
      <trkpt lat="44.55719" lon="6.3611">
        <ele>1319.116699</ele>
        <time>2015-10-10T14:55:21Z</time>
      </trkpt>
      <trkpt lat="44.5572" lon="6.36111">
        <ele>1319.804199</ele>
        <time>2015-10-10T14:55:25Z</time>
      </trkpt>
      <trkpt lat="44.5572" lon="6.3611">
        <ele>1320.960449</ele>
        <time>2015-10-10T14:55:29Z</time>
      </trkpt>
      <trkpt lat="44.55718" lon="6.36107">
        <ele>1321.054199</ele>
        <time>2015-10-10T14:55:33Z</time>
      </trkpt>
      <trkpt lat="44.55718" lon="6.36109">
        <ele>1321.304199</ele>
        <time>2015-10-10T14:55:37Z</time>
      </trkpt>
      <trkpt lat="44.55718" lon="6.36109">
        <ele>1322.804199</ele>
        <time>2015-10-10T14:55:41Z</time>
      </trkpt>
      <trkpt lat="44.55723" lon="6.36115">
        <ele>1322.991699</ele>
        <time>2015-10-10T14:55:45Z</time>
      </trkpt>
      <trkpt lat="44.55734" lon="6.36124">
        <ele>1322.179199</ele>
        <time>2015-10-10T14:55:49Z</time>
      </trkpt>
      <trkpt lat="44.55738" lon="6.36146">
        <ele>1320.554199</ele>
        <time>2015-10-10T14:55:53Z</time>
      </trkpt>
      <trkpt lat="44.55746" lon="6.36165">
        <ele>1319.085449</ele>
        <time>2015-10-10T14:55:57Z</time>
      </trkpt>
      <trkpt lat="44.55757" lon="6.36177">
        <ele>1318.741699</ele>
        <time>2015-10-10T14:56:01Z</time>
      </trkpt>
      <trkpt lat="44.55767" lon="6.36183">
        <ele>1318.335449</ele>
        <time>2015-10-10T14:56:05Z</time>
      </trkpt>
      <trkpt lat="44.55769" lon="6.36176">
        <ele>1319.366699</ele>
        <time>2015-10-10T14:56:09Z</time>
      </trkpt>
      <trkpt lat="44.55758" lon="6.36173">
        <ele>1318.897949</ele>
        <time>2015-10-10T14:56:13Z</time>
      </trkpt>
      <trkpt lat="44.55742" lon="6.36154">
        <ele>1320.491699</ele>
        <time>2015-10-10T14:56:17Z</time>
      </trkpt>
      <trkpt lat="44.55735" lon="6.36133">
        <ele>1320.147949</ele>
        <time>2015-10-10T14:56:21Z</time>
      </trkpt>
      <trkpt lat="44.55732" lon="6.36122">
        <ele>1320.460449</ele>
        <time>2015-10-10T14:56:25Z</time>
      </trkpt>
      <trkpt lat="44.55728" lon="6.3613">
        <ele>1318.835449</ele>
        <time>2015-10-10T14:56:29Z</time>
      </trkpt>
      <trkpt lat="44.55717" lon="6.36138">
        <ele>1315.772949</ele>
        <time>2015-10-10T14:56:33Z</time>
      </trkpt>
      <trkpt lat="44.55706" lon="6.36134">
        <ele>1312.397949</ele>
        <time>2015-10-10T14:56:37Z</time>
      </trkpt>
      <trkpt lat="44.55699" lon="6.36125">
        <ele>1310.179199</ele>
        <time>2015-10-10T14:56:41Z</time>
      </trkpt>
      <trkpt lat="44.55692" lon="6.36116">
        <ele>1309.054199</ele>
        <time>2015-10-10T14:56:45Z</time>
      </trkpt>
      <trkpt lat="44.55683" lon="6.36112">
        <ele>1307.210449</ele>
        <time>2015-10-10T14:56:49Z</time>
      </trkpt>
      <trkpt lat="44.55676" lon="6.36111">
        <ele>1304.710449</ele>
        <time>2015-10-10T14:56:53Z</time>
      </trkpt>
      <trkpt lat="44.55676" lon="6.3611">
        <ele>1304.304199</ele>
        <time>2015-10-10T14:56:57Z</time>
      </trkpt>
      <trkpt lat="44.55676" lon="6.3611">
        <ele>1303.835449</ele>
        <time>2015-10-10T14:57:01Z</time>
      </trkpt>
      <trkpt lat="44.55676" lon="6.3611">
        <ele>1303.585449</ele>
        <time>2015-10-10T14:57:05Z</time>
      </trkpt>
      <trkpt lat="44.55676" lon="6.3611">
        <ele>1303.491699</ele>
        <time>2015-10-10T14:57:09Z</time>
      </trkpt>
      <trkpt lat="44.55676" lon="6.3611">
        <ele>1303.460449</ele>
        <time>2015-10-10T14:57:13Z</time>
      </trkpt>
      <trkpt lat="44.55676" lon="6.3611">
        <ele>1303.429199</ele>
        <time>2015-10-10T14:57:17Z</time>
      </trkpt>
      <trkpt lat="44.55664" lon="6.36109">
        <ele>1301.679199</ele>
        <time>2015-10-10T14:57:21Z</time>
      </trkpt>
      <trkpt lat="44.55652" lon="6.36114">
        <ele>1296.897949</ele>
        <time>2015-10-10T14:57:25Z</time>
      </trkpt>
      <trkpt lat="44.55644" lon="6.36118">
        <ele>1293.929199</ele>
        <time>2015-10-10T14:57:29Z</time>
      </trkpt>
      <trkpt lat="44.55637" lon="6.36118">
        <ele>1291.116699</ele>
        <time>2015-10-10T14:57:33Z</time>
      </trkpt>
      <trkpt lat="44.55626" lon="6.3612">
        <ele>1289.554199</ele>
        <time>2015-10-10T14:57:37Z</time>
      </trkpt>
      <trkpt lat="44.55615" lon="6.36108">
        <ele>1288.647949</ele>
        <time>2015-10-10T14:57:41Z</time>
      </trkpt>
      <trkpt lat="44.55606" lon="6.36085">
        <ele>1287.054199</ele>
        <time>2015-10-10T14:57:45Z</time>
      </trkpt>
      <trkpt lat="44.55596" lon="6.36061">
        <ele>1284.866699</ele>
        <time>2015-10-10T14:57:49Z</time>
      </trkpt>
      <trkpt lat="44.55585" lon="6.3604">
        <ele>1283.335449</ele>
        <time>2015-10-10T14:57:53Z</time>
      </trkpt>
      <trkpt lat="44.55579" lon="6.36027">
        <ele>1283.304199</ele>
        <time>2015-10-10T14:57:57Z</time>
      </trkpt>
      <trkpt lat="44.55576" lon="6.36023">
        <ele>1283.491699</ele>
        <time>2015-10-10T14:58:01Z</time>
      </trkpt>
      <trkpt lat="44.55579" lon="6.36011">
        <ele>1282.022949</ele>
        <time>2015-10-10T14:58:05Z</time>
      </trkpt>
      <trkpt lat="44.55579" lon="6.35989">
        <ele>1280.585449</ele>
        <time>2015-10-10T14:58:09Z</time>
      </trkpt>
      <trkpt lat="44.55579" lon="6.35962">
        <ele>1279.679199</ele>
        <time>2015-10-10T14:58:13Z</time>
      </trkpt>
      <trkpt lat="44.55585" lon="6.3593">
        <ele>1278.491699</ele>
        <time>2015-10-10T14:58:17Z</time>
      </trkpt>
      <trkpt lat="44.55587" lon="6.35913">
        <ele>1277.304199</ele>
        <time>2015-10-10T14:58:21Z</time>
      </trkpt>
      <trkpt lat="44.55575" lon="6.35924">
        <ele>1277.522949</ele>
        <time>2015-10-10T14:58:25Z</time>
      </trkpt>
      <trkpt lat="44.55566" lon="6.35957">
        <ele>1277.772949</ele>
        <time>2015-10-10T14:58:29Z</time>
      </trkpt>
      <trkpt lat="44.55562" lon="6.35995">
        <ele>1277.741699</ele>
        <time>2015-10-10T14:58:33Z</time>
      </trkpt>
      <trkpt lat="44.5555" lon="6.36031">
        <ele>1277.897949</ele>
        <time>2015-10-10T14:58:37Z</time>
      </trkpt>
      <trkpt lat="44.55537" lon="6.36066">
        <ele>1277.554199</ele>
        <time>2015-10-10T14:58:41Z</time>
      </trkpt>
      <trkpt lat="44.55531" lon="6.36106">
        <ele>1276.116699</ele>
        <time>2015-10-10T14:58:45Z</time>
      </trkpt>
      <trkpt lat="44.55526" lon="6.3615">
        <ele>1274.304199</ele>
        <time>2015-10-10T14:58:49Z</time>
      </trkpt>
      <trkpt lat="44.55525" lon="6.36197">
        <ele>1272.585449</ele>
        <time>2015-10-10T14:58:53Z</time>
      </trkpt>
      <trkpt lat="44.55519" lon="6.36212">
        <ele>1272.929199</ele>
        <time>2015-10-10T14:58:57Z</time>
      </trkpt>
      <trkpt lat="44.55519" lon="6.36213">
        <ele>1272.554199</ele>
        <time>2015-10-10T14:59:01Z</time>
      </trkpt>
      <trkpt lat="44.55518" lon="6.36214">
        <ele>1272.710449</ele>
        <time>2015-10-10T14:59:05Z</time>
      </trkpt>
      <trkpt lat="44.55519" lon="6.36214">
        <ele>1272.647949</ele>
        <time>2015-10-10T14:59:09Z</time>
      </trkpt>
      <trkpt lat="44.55519" lon="6.36214">
        <ele>1272.710449</ele>
        <time>2015-10-10T14:59:13Z</time>
      </trkpt>
      <trkpt lat="44.55518" lon="6.36214">
        <ele>1272.772949</ele>
        <time>2015-10-10T14:59:17Z</time>
      </trkpt>
      <trkpt lat="44.55517" lon="6.36214">
        <ele>1272.585449</ele>
        <time>2015-10-10T14:59:21Z</time>
      </trkpt>
      <trkpt lat="44.55517" lon="6.36214">
        <ele>1272.522949</ele>
        <time>2015-10-10T14:59:25Z</time>
      </trkpt>
      <trkpt lat="44.55517" lon="6.36214">
        <ele>1272.616699</ele>
        <time>2015-10-10T14:59:29Z</time>
      </trkpt>
      <trkpt lat="44.55516" lon="6.36214">
        <ele>1272.772949</ele>
        <time>2015-10-10T14:59:33Z</time>
      </trkpt>
      <trkpt lat="44.55517" lon="6.36214">
        <ele>1272.585449</ele>
        <time>2015-10-10T14:59:37Z</time>
      </trkpt>
      <trkpt lat="44.55517" lon="6.36214">
        <ele>1272.679199</ele>
        <time>2015-10-10T14:59:41Z</time>
      </trkpt>
      <trkpt lat="44.55517" lon="6.36214">
        <ele>1272.772949</ele>
        <time>2015-10-10T14:59:45Z</time>
      </trkpt>
      <trkpt lat="44.55517" lon="6.36214">
        <ele>1273.054199</ele>
        <time>2015-10-10T14:59:49Z</time>
      </trkpt>
      <trkpt lat="44.55517" lon="6.36214">
        <ele>1273.116699</ele>
        <time>2015-10-10T14:59:53Z</time>
      </trkpt>
      <trkpt lat="44.55517" lon="6.36214">
        <ele>1273.179199</ele>
        <time>2015-10-10T14:59:57Z</time>
      </trkpt>
      <trkpt lat="44.55517" lon="6.36214">
        <ele>1273.272949</ele>
        <time>2015-10-10T15:00:01Z</time>
      </trkpt>
      <trkpt lat="44.55517" lon="6.36214">
        <ele>1273.335449</ele>
        <time>2015-10-10T15:00:05Z</time>
      </trkpt>
      <trkpt lat="44.55517" lon="6.36214">
        <ele>1273.366699</ele>
        <time>2015-10-10T15:00:09Z</time>
      </trkpt>
      <trkpt lat="44.55517" lon="6.36214">
        <ele>1273.335449</ele>
        <time>2015-10-10T15:00:13Z</time>
      </trkpt>
      <trkpt lat="44.55517" lon="6.36214">
        <ele>1273.366699</ele>
        <time>2015-10-10T15:00:17Z</time>
      </trkpt>
      <trkpt lat="44.55517" lon="6.36214">
        <ele>1273.429199</ele>
        <time>2015-10-10T15:00:21Z</time>
      </trkpt>
      <trkpt lat="44.55516" lon="6.36214">
        <ele>1273.522949</ele>
        <time>2015-10-10T15:00:25Z</time>
      </trkpt>
      <trkpt lat="44.55517" lon="6.36214">
        <ele>1273.616699</ele>
        <time>2015-10-10T15:00:29Z</time>
      </trkpt>
      <trkpt lat="44.55517" lon="6.36214">
        <ele>1273.804199</ele>
        <time>2015-10-10T15:00:33Z</time>
      </trkpt>
      <trkpt lat="44.55517" lon="6.36215">
        <ele>1274.116699</ele>
        <time>2015-10-10T15:00:37Z</time>
      </trkpt>
      <trkpt lat="44.55517" lon="6.36215">
        <ele>1274.366699</ele>
        <time>2015-10-10T15:00:41Z</time>
      </trkpt>
      <trkpt lat="44.55517" lon="6.36215">
        <ele>1274.585449</ele>
        <time>2015-10-10T15:00:45Z</time>
      </trkpt>
      <trkpt lat="44.55517" lon="6.36215">
        <ele>1274.804199</ele>
        <time>2015-10-10T15:00:49Z</time>
      </trkpt>
      <trkpt lat="44.55517" lon="6.36215">
        <ele>1274.929199</ele>
        <time>2015-10-10T15:00:53Z</time>
      </trkpt>
      <trkpt lat="44.55517" lon="6.36215">
        <ele>1275.085449</ele>
        <time>2015-10-10T15:00:57Z</time>
      </trkpt>
      <trkpt lat="44.55517" lon="6.36215">
        <ele>1275.210449</ele>
        <time>2015-10-10T15:01:01Z</time>
      </trkpt>
      <trkpt lat="44.55517" lon="6.36215">
        <ele>1275.335449</ele>
        <time>2015-10-10T15:01:05Z</time>
      </trkpt>
      <trkpt lat="44.55517" lon="6.36215">
        <ele>1275.460449</ele>
        <time>2015-10-10T15:01:09Z</time>
      </trkpt>
      <trkpt lat="44.55517" lon="6.36215">
        <ele>1275.585449</ele>
        <time>2015-10-10T15:01:13Z</time>
      </trkpt>
      <trkpt lat="44.55517" lon="6.36216">
        <ele>1275.710449</ele>
        <time>2015-10-10T15:01:17Z</time>
      </trkpt>
      <trkpt lat="44.55517" lon="6.36216">
        <ele>1275.835449</ele>
        <time>2015-10-10T15:01:21Z</time>
      </trkpt>
      <trkpt lat="44.55517" lon="6.36215">
        <ele>1276.022949</ele>
        <time>2015-10-10T15:01:25Z</time>
      </trkpt>
      <trkpt lat="44.55518" lon="6.36217">
        <ele>1276.397949</ele>
        <time>2015-10-10T15:01:29Z</time>
      </trkpt>
      <trkpt lat="44.55518" lon="6.36217">
        <ele>1276.335449</ele>
        <time>2015-10-10T15:01:33Z</time>
      </trkpt>
      <trkpt lat="44.55518" lon="6.36217">
        <ele>1276.429199</ele>
        <time>2015-10-10T15:01:37Z</time>
      </trkpt>
      <trkpt lat="44.55518" lon="6.36217">
        <ele>1276.554199</ele>
        <time>2015-10-10T15:01:41Z</time>
      </trkpt>
      <trkpt lat="44.55518" lon="6.36217">
        <ele>1276.897949</ele>
        <time>2015-10-10T15:01:45Z</time>
      </trkpt>
      <trkpt lat="44.55518" lon="6.36217">
        <ele>1276.897949</ele>
        <time>2015-10-10T15:01:49Z</time>
      </trkpt>
      <trkpt lat="44.55518" lon="6.36217">
        <ele>1276.835449</ele>
        <time>2015-10-10T15:01:53Z</time>
      </trkpt>
      <trkpt lat="44.5552" lon="6.36216">
        <ele>1276.679199</ele>
        <time>2015-10-10T15:01:57Z</time>
      </trkpt>
      <trkpt lat="44.5552" lon="6.36216">
        <ele>1276.960449</ele>
        <time>2015-10-10T15:02:01Z</time>
      </trkpt>
      <trkpt lat="44.5552" lon="6.36212">
        <ele>1277.491699</ele>
        <time>2015-10-10T15:02:05Z</time>
      </trkpt>
      <trkpt lat="44.55523" lon="6.36206">
        <ele>1277.741699</ele>
        <time>2015-10-10T15:02:09Z</time>
      </trkpt>
      <trkpt lat="44.55525" lon="6.36192">
        <ele>1278.554199</ele>
        <time>2015-10-10T15:02:13Z</time>
      </trkpt>
      <trkpt lat="44.55525" lon="6.36174">
        <ele>1279.647949</ele>
        <time>2015-10-10T15:02:17Z</time>
      </trkpt>
      <trkpt lat="44.55526" lon="6.3616">
        <ele>1280.616699</ele>
        <time>2015-10-10T15:02:21Z</time>
      </trkpt>
      <trkpt lat="44.55527" lon="6.36152">
        <ele>1281.429199</ele>
        <time>2015-10-10T15:02:25Z</time>
      </trkpt>
      <trkpt lat="44.55529" lon="6.3614">
        <ele>1282.272949</ele>
        <time>2015-10-10T15:02:29Z</time>
      </trkpt>
      <trkpt lat="44.5553" lon="6.36127">
        <ele>1283.022949</ele>
        <time>2015-10-10T15:02:33Z</time>
      </trkpt>
      <trkpt lat="44.55532" lon="6.36112">
        <ele>1283.241699</ele>
        <time>2015-10-10T15:02:37Z</time>
      </trkpt>
      <trkpt lat="44.55533" lon="6.36095">
        <ele>1283.835449</ele>
        <time>2015-10-10T15:02:41Z</time>
      </trkpt>
      <trkpt lat="44.55535" lon="6.36084">
        <ele>1284.429199</ele>
        <time>2015-10-10T15:02:45Z</time>
      </trkpt>
      <trkpt lat="44.55537" lon="6.36073">
        <ele>1285.116699</ele>
        <time>2015-10-10T15:02:49Z</time>
      </trkpt>
      <trkpt lat="44.55542" lon="6.36059">
        <ele>1285.647949</ele>
        <time>2015-10-10T15:02:53Z</time>
      </trkpt>
      <trkpt lat="44.55549" lon="6.36043">
        <ele>1286.460449</ele>
        <time>2015-10-10T15:02:57Z</time>
      </trkpt>
      <trkpt lat="44.55557" lon="6.36025">
        <ele>1286.585449</ele>
        <time>2015-10-10T15:03:01Z</time>
      </trkpt>
      <trkpt lat="44.55564" lon="6.36004">
        <ele>1286.366699</ele>
        <time>2015-10-10T15:03:05Z</time>
      </trkpt>
      <trkpt lat="44.55568" lon="6.35979">
        <ele>1285.991699</ele>
        <time>2015-10-10T15:03:09Z</time>
      </trkpt>
      <trkpt lat="44.55571" lon="6.35952">
        <ele>1285.179199</ele>
        <time>2015-10-10T15:03:13Z</time>
      </trkpt>
      <trkpt lat="44.55577" lon="6.35924">
        <ele>1283.554199</ele>
        <time>2015-10-10T15:03:17Z</time>
      </trkpt>
      <trkpt lat="44.55589" lon="6.35899">
        <ele>1282.772949</ele>
        <time>2015-10-10T15:03:21Z</time>
      </trkpt>
      <trkpt lat="44.55598" lon="6.35869">
        <ele>1281.460449</ele>
        <time>2015-10-10T15:03:25Z</time>
      </trkpt>
      <trkpt lat="44.55596" lon="6.35831">
        <ele>1279.054199</ele>
        <time>2015-10-10T15:03:29Z</time>
      </trkpt>
      <trkpt lat="44.55582" lon="6.3579">
        <ele>1277.085449</ele>
        <time>2015-10-10T15:03:33Z</time>
      </trkpt>
      <trkpt lat="44.55572" lon="6.35748">
        <ele>1277.397949</ele>
        <time>2015-10-10T15:03:37Z</time>
      </trkpt>
      <trkpt lat="44.55573" lon="6.35709">
        <ele>1278.491699</ele>
        <time>2015-10-10T15:03:41Z</time>
      </trkpt>
      <trkpt lat="44.55576" lon="6.35673">
        <ele>1279.147949</ele>
        <time>2015-10-10T15:03:45Z</time>
      </trkpt>
      <trkpt lat="44.55574" lon="6.35639">
        <ele>1279.304199</ele>
        <time>2015-10-10T15:03:49Z</time>
      </trkpt>
      <trkpt lat="44.55566" lon="6.35608">
        <ele>1279.304199</ele>
        <time>2015-10-10T15:03:53Z</time>
      </trkpt>
      <trkpt lat="44.55556" lon="6.35576">
        <ele>1279.647949</ele>
        <time>2015-10-10T15:03:57Z</time>
      </trkpt>
      <trkpt lat="44.55549" lon="6.35547">
        <ele>1278.804199</ele>
        <time>2015-10-10T15:04:01Z</time>
      </trkpt>
      <trkpt lat="44.55544" lon="6.35518">
        <ele>1278.491699</ele>
        <time>2015-10-10T15:04:05Z</time>
      </trkpt>
      <trkpt lat="44.55541" lon="6.35497">
        <ele>1278.429199</ele>
        <time>2015-10-10T15:04:09Z</time>
      </trkpt>
      <trkpt lat="44.55541" lon="6.35496">
        <ele>1278.522949</ele>
        <time>2015-10-10T15:04:13Z</time>
      </trkpt>
      <trkpt lat="44.55541" lon="6.35496">
        <ele>1278.554199</ele>
        <time>2015-10-10T15:04:17Z</time>
      </trkpt>
      <trkpt lat="44.55541" lon="6.35496">
        <ele>1278.616699</ele>
        <time>2015-10-10T15:04:21Z</time>
      </trkpt>
      <trkpt lat="44.55541" lon="6.35496">
        <ele>1278.647949</ele>
        <time>2015-10-10T15:04:25Z</time>
      </trkpt>
      <trkpt lat="44.5554" lon="6.35489">
        <ele>1278.335449</ele>
        <time>2015-10-10T15:04:29Z</time>
      </trkpt>
      <trkpt lat="44.55538" lon="6.35477">
        <ele>1278.210449</ele>
        <time>2015-10-10T15:04:33Z</time>
      </trkpt>
      <trkpt lat="44.55537" lon="6.35463">
        <ele>1278.647949</ele>
        <time>2015-10-10T15:04:37Z</time>
      </trkpt>
      <trkpt lat="44.55534" lon="6.35449">
        <ele>1279.147949</ele>
        <time>2015-10-10T15:04:41Z</time>
      </trkpt>
      <trkpt lat="44.55533" lon="6.35435">
        <ele>1279.960449</ele>
        <time>2015-10-10T15:04:45Z</time>
      </trkpt>
      <trkpt lat="44.55531" lon="6.35421">
        <ele>1280.616699</ele>
        <time>2015-10-10T15:04:49Z</time>
      </trkpt>
      <trkpt lat="44.55528" lon="6.35405">
        <ele>1280.866699</ele>
        <time>2015-10-10T15:04:53Z</time>
      </trkpt>
      <trkpt lat="44.55524" lon="6.35384">
        <ele>1281.210449</ele>
        <time>2015-10-10T15:04:57Z</time>
      </trkpt>
      <trkpt lat="44.55525" lon="6.35358">
        <ele>1281.960449</ele>
        <time>2015-10-10T15:05:01Z</time>
      </trkpt>
      <trkpt lat="44.55528" lon="6.3533">
        <ele>1283.460449</ele>
        <time>2015-10-10T15:05:05Z</time>
      </trkpt>
      <trkpt lat="44.55533" lon="6.35301">
        <ele>1284.210449</ele>
        <time>2015-10-10T15:05:09Z</time>
      </trkpt>
      <trkpt lat="44.55542" lon="6.35274">
        <ele>1285.335449</ele>
        <time>2015-10-10T15:05:13Z</time>
      </trkpt>
      <trkpt lat="44.55555" lon="6.35249">
        <ele>1286.210449</ele>
        <time>2015-10-10T15:05:17Z</time>
      </trkpt>
      <trkpt lat="44.5557" lon="6.35229">
        <ele>1286.491699</ele>
        <time>2015-10-10T15:05:21Z</time>
      </trkpt>
      <trkpt lat="44.55586" lon="6.3521">
        <ele>1287.022949</ele>
        <time>2015-10-10T15:05:25Z</time>
      </trkpt>
      <trkpt lat="44.556" lon="6.35184">
        <ele>1286.116699</ele>
        <time>2015-10-10T15:05:29Z</time>
      </trkpt>
      <trkpt lat="44.55596" lon="6.35142">
        <ele>1280.585449</ele>
        <time>2015-10-10T15:05:33Z</time>
      </trkpt>
      <trkpt lat="44.55572" lon="6.35096">
        <ele>1273.929199</ele>
        <time>2015-10-10T15:05:37Z</time>
      </trkpt>
      <trkpt lat="44.55541" lon="6.35055">
        <ele>1272.679199</ele>
        <time>2015-10-10T15:05:41Z</time>
      </trkpt>
      <trkpt lat="44.55521" lon="6.3502">
        <ele>1273.022949</ele>
        <time>2015-10-10T15:05:45Z</time>
      </trkpt>
      <trkpt lat="44.55502" lon="6.34993">
        <ele>1272.835449</ele>
        <time>2015-10-10T15:05:49Z</time>
      </trkpt>
      <trkpt lat="44.55483" lon="6.3497">
        <ele>1271.804199</ele>
        <time>2015-10-10T15:05:53Z</time>
      </trkpt>
      <trkpt lat="44.55462" lon="6.34946">
        <ele>1268.897949</ele>
        <time>2015-10-10T15:05:57Z</time>
      </trkpt>
      <trkpt lat="44.55439" lon="6.34918">
        <ele>1265.335449</ele>
        <time>2015-10-10T15:06:01Z</time>
      </trkpt>
      <trkpt lat="44.55419" lon="6.34879">
        <ele>1262.929199</ele>
        <time>2015-10-10T15:06:05Z</time>
      </trkpt>
      <trkpt lat="44.5541" lon="6.34829">
        <ele>1259.241699</ele>
        <time>2015-10-10T15:06:09Z</time>
      </trkpt>
      <trkpt lat="44.55415" lon="6.34776">
        <ele>1256.054199</ele>
        <time>2015-10-10T15:06:13Z</time>
      </trkpt>
      <trkpt lat="44.55423" lon="6.34723">
        <ele>1254.460449</ele>
        <time>2015-10-10T15:06:17Z</time>
      </trkpt>
      <trkpt lat="44.55432" lon="6.34666">
        <ele>1252.366699</ele>
        <time>2015-10-10T15:06:21Z</time>
      </trkpt>
      <trkpt lat="44.55444" lon="6.34608">
        <ele>1248.304199</ele>
        <time>2015-10-10T15:06:25Z</time>
      </trkpt>
      <trkpt lat="44.55452" lon="6.34553">
        <ele>1245.647949</ele>
        <time>2015-10-10T15:06:29Z</time>
      </trkpt>
      <trkpt lat="44.55453" lon="6.34499">
        <ele>1242.960449</ele>
        <time>2015-10-10T15:06:33Z</time>
      </trkpt>
      <trkpt lat="44.55455" lon="6.34443">
        <ele>1234.804199</ele>
        <time>2015-10-10T15:06:37Z</time>
      </trkpt>
      <trkpt lat="44.55458" lon="6.34386">
        <ele>1231.835449</ele>
        <time>2015-10-10T15:06:41Z</time>
      </trkpt>
      <trkpt lat="44.55465" lon="6.3433">
        <ele>1231.022949</ele>
        <time>2015-10-10T15:06:45Z</time>
      </trkpt>
      <trkpt lat="44.55481" lon="6.34279">
        <ele>1232.366699</ele>
        <time>2015-10-10T15:06:49Z</time>
      </trkpt>
      <trkpt lat="44.55491" lon="6.34232">
        <ele>1231.616699</ele>
        <time>2015-10-10T15:06:53Z</time>
      </trkpt>
      <trkpt lat="44.55462" lon="6.34198">
        <ele>1231.147949</ele>
        <time>2015-10-10T15:06:57Z</time>
      </trkpt>
      <trkpt lat="44.55446" lon="6.34148">
        <ele>1227.929199</ele>
        <time>2015-10-10T15:07:01Z</time>
      </trkpt>
      <trkpt lat="44.55435" lon="6.34092">
        <ele>1225.116699</ele>
        <time>2015-10-10T15:07:05Z</time>
      </trkpt>
      <trkpt lat="44.5543" lon="6.34036">
        <ele>1222.241699</ele>
        <time>2015-10-10T15:07:09Z</time>
      </trkpt>
      <trkpt lat="44.5542" lon="6.33985">
        <ele>1220.897949</ele>
        <time>2015-10-10T15:07:13Z</time>
      </trkpt>
      <trkpt lat="44.5542" lon="6.33939">
        <ele>1223.585449</ele>
        <time>2015-10-10T15:07:17Z</time>
      </trkpt>
      <trkpt lat="44.55429" lon="6.33901">
        <ele>1223.304199</ele>
        <time>2015-10-10T15:07:21Z</time>
      </trkpt>
      <trkpt lat="44.55434" lon="6.33862">
        <ele>1221.804199</ele>
        <time>2015-10-10T15:07:25Z</time>
      </trkpt>
      <trkpt lat="44.55441" lon="6.33822">
        <ele>1222.054199</ele>
        <time>2015-10-10T15:07:29Z</time>
      </trkpt>
      <trkpt lat="44.55452" lon="6.33786">
        <ele>1221.460449</ele>
        <time>2015-10-10T15:07:33Z</time>
      </trkpt>
      <trkpt lat="44.55451" lon="6.33748">
        <ele>1220.866699</ele>
        <time>2015-10-10T15:07:37Z</time>
      </trkpt>
      <trkpt lat="44.55447" lon="6.33709">
        <ele>1218.679199</ele>
        <time>2015-10-10T15:07:41Z</time>
      </trkpt>
      <trkpt lat="44.5546" lon="6.33676">
        <ele>1217.272949</ele>
        <time>2015-10-10T15:07:45Z</time>
      </trkpt>
      <trkpt lat="44.55485" lon="6.3365">
        <ele>1216.929199</ele>
        <time>2015-10-10T15:07:49Z</time>
      </trkpt>
      <trkpt lat="44.55481" lon="6.33613">
        <ele>1216.022949</ele>
        <time>2015-10-10T15:07:53Z</time>
      </trkpt>
      <trkpt lat="44.55456" lon="6.33604">
        <ele>1212.366699</ele>
        <time>2015-10-10T15:07:57Z</time>
      </trkpt>
      <trkpt lat="44.55426" lon="6.33596">
        <ele>1211.147949</ele>
        <time>2015-10-10T15:08:01Z</time>
      </trkpt>
      <trkpt lat="44.55397" lon="6.3358">
        <ele>1210.491699</ele>
        <time>2015-10-10T15:08:05Z</time>
      </trkpt>
      <trkpt lat="44.5537" lon="6.33556">
        <ele>1209.929199</ele>
        <time>2015-10-10T15:08:09Z</time>
      </trkpt>
      <trkpt lat="44.55349" lon="6.33522">
        <ele>1208.679199</ele>
        <time>2015-10-10T15:08:13Z</time>
      </trkpt>
      <trkpt lat="44.55342" lon="6.33478">
        <ele>1207.397949</ele>
        <time>2015-10-10T15:08:17Z</time>
      </trkpt>
      <trkpt lat="44.5534" lon="6.33431">
        <ele>1206.210449</ele>
        <time>2015-10-10T15:08:21Z</time>
      </trkpt>
      <trkpt lat="44.55346" lon="6.33386">
        <ele>1206.460449</ele>
        <time>2015-10-10T15:08:25Z</time>
      </trkpt>
      <trkpt lat="44.55365" lon="6.33348">
        <ele>1206.085449</ele>
        <time>2015-10-10T15:08:29Z</time>
      </trkpt>
      <trkpt lat="44.5538" lon="6.33309">
        <ele>1205.866699</ele>
        <time>2015-10-10T15:08:33Z</time>
      </trkpt>
      <trkpt lat="44.55382" lon="6.33264">
        <ele>1204.616699</ele>
        <time>2015-10-10T15:08:37Z</time>
      </trkpt>
      <trkpt lat="44.55354" lon="6.33239">
        <ele>1202.804199</ele>
        <time>2015-10-10T15:08:41Z</time>
      </trkpt>
      <trkpt lat="44.55319" lon="6.33254">
        <ele>1198.585449</ele>
        <time>2015-10-10T15:08:45Z</time>
      </trkpt>
      <trkpt lat="44.55282" lon="6.33266">
        <ele>1195.835449</ele>
        <time>2015-10-10T15:08:49Z</time>
      </trkpt>
      <trkpt lat="44.55245" lon="6.33281">
        <ele>1192.304199</ele>
        <time>2015-10-10T15:08:53Z</time>
      </trkpt>
      <trkpt lat="44.55207" lon="6.33291">
        <ele>1190.335449</ele>
        <time>2015-10-10T15:08:57Z</time>
      </trkpt>
      <trkpt lat="44.55173" lon="6.33278">
        <ele>1188.710449</ele>
        <time>2015-10-10T15:09:01Z</time>
      </trkpt>
      <trkpt lat="44.55148" lon="6.33249">
        <ele>1190.772949</ele>
        <time>2015-10-10T15:09:05Z</time>
      </trkpt>
      <trkpt lat="44.55124" lon="6.3322">
        <ele>1190.397949</ele>
        <time>2015-10-10T15:09:09Z</time>
      </trkpt>
      <trkpt lat="44.55102" lon="6.33192">
        <ele>1190.491699</ele>
        <time>2015-10-10T15:09:13Z</time>
      </trkpt>
      <trkpt lat="44.55087" lon="6.33157">
        <ele>1189.710449</ele>
        <time>2015-10-10T15:09:17Z</time>
      </trkpt>
      <trkpt lat="44.55074" lon="6.33119">
        <ele>1187.147949</ele>
        <time>2015-10-10T15:09:21Z</time>
      </trkpt>
      <trkpt lat="44.55055" lon="6.33079">
        <ele>1182.991699</ele>
        <time>2015-10-10T15:09:25Z</time>
      </trkpt>
      <trkpt lat="44.5503" lon="6.33044">
        <ele>1179.804199</ele>
        <time>2015-10-10T15:09:29Z</time>
      </trkpt>
      <trkpt lat="44.55005" lon="6.33005">
        <ele>1177.460449</ele>
        <time>2015-10-10T15:09:33Z</time>
      </trkpt>
      <trkpt lat="44.54984" lon="6.32961">
        <ele>1174.054199</ele>
        <time>2015-10-10T15:09:37Z</time>
      </trkpt>
      <trkpt lat="44.54964" lon="6.32918">
        <ele>1170.960449</ele>
        <time>2015-10-10T15:09:41Z</time>
      </trkpt>
      <trkpt lat="44.54949" lon="6.32892">
        <ele>1168.522949</ele>
        <time>2015-10-10T15:09:45Z</time>
      </trkpt>
      <trkpt lat="44.54939" lon="6.32885">
        <ele>1165.897949</ele>
        <time>2015-10-10T15:09:49Z</time>
      </trkpt>
      <trkpt lat="44.54935" lon="6.3289">
        <ele>1166.835449</ele>
        <time>2015-10-10T15:09:53Z</time>
      </trkpt>
      <trkpt lat="44.54937" lon="6.32891">
        <ele>1168.210449</ele>
        <time>2015-10-10T15:09:57Z</time>
      </trkpt>
      <trkpt lat="44.54937" lon="6.32891">
        <ele>1168.147949</ele>
        <time>2015-10-10T15:10:01Z</time>
      </trkpt>
      <trkpt lat="44.54937" lon="6.32891">
        <ele>1168.147949</ele>
        <time>2015-10-10T15:10:05Z</time>
      </trkpt>
      <trkpt lat="44.54937" lon="6.32891">
        <ele>1168.116699</ele>
        <time>2015-10-10T15:10:09Z</time>
      </trkpt>
      <trkpt lat="44.54937" lon="6.32891">
        <ele>1168.116699</ele>
        <time>2015-10-10T15:10:13Z</time>
      </trkpt>
      <trkpt lat="44.54937" lon="6.32891">
        <ele>1168.147949</ele>
        <time>2015-10-10T15:10:17Z</time>
      </trkpt>
      <trkpt lat="44.54937" lon="6.3289">
        <ele>1168.116699</ele>
        <time>2015-10-10T15:10:21Z</time>
      </trkpt>
      <trkpt lat="44.54937" lon="6.3289">
        <ele>1168.147949</ele>
        <time>2015-10-10T15:10:25Z</time>
      </trkpt>
      <trkpt lat="44.54936" lon="6.32892">
        <ele>1168.241699</ele>
        <time>2015-10-10T15:10:29Z</time>
      </trkpt>
      <trkpt lat="44.54936" lon="6.32891">
        <ele>1168.335449</ele>
        <time>2015-10-10T15:10:33Z</time>
      </trkpt>
      <trkpt lat="44.54936" lon="6.32892">
        <ele>1168.179199</ele>
        <time>2015-10-10T15:10:37Z</time>
      </trkpt>
      <trkpt lat="44.54938" lon="6.32894">
        <ele>1169.366699</ele>
        <time>2015-10-10T15:10:41Z</time>
      </trkpt>
      <trkpt lat="44.54938" lon="6.32894">
        <ele>1170.241699</ele>
        <time>2015-10-10T15:10:45Z</time>
      </trkpt>
      <trkpt lat="44.54938" lon="6.32895">
        <ele>1170.710449</ele>
        <time>2015-10-10T15:10:49Z</time>
      </trkpt>
      <trkpt lat="44.54939" lon="6.32897">
        <ele>1171.991699</ele>
        <time>2015-10-10T15:10:53Z</time>
      </trkpt>
      <trkpt lat="44.5494" lon="6.32899">
        <ele>1173.991699</ele>
        <time>2015-10-10T15:10:57Z</time>
      </trkpt>
      <trkpt lat="44.5494" lon="6.32899">
        <ele>1174.022949</ele>
        <time>2015-10-10T15:11:01Z</time>
      </trkpt>
      <trkpt lat="44.5494" lon="6.32898">
        <ele>1174.116699</ele>
        <time>2015-10-10T15:11:05Z</time>
      </trkpt>
      <trkpt lat="44.54939" lon="6.32898">
        <ele>1174.210449</ele>
        <time>2015-10-10T15:11:09Z</time>
      </trkpt>
      <trkpt lat="44.54939" lon="6.32898">
        <ele>1174.304199</ele>
        <time>2015-10-10T15:11:13Z</time>
      </trkpt>
      <trkpt lat="44.54939" lon="6.32898">
        <ele>1174.366699</ele>
        <time>2015-10-10T15:11:17Z</time>
      </trkpt>
      <trkpt lat="44.54939" lon="6.32898">
        <ele>1174.366699</ele>
        <time>2015-10-10T15:11:21Z</time>
      </trkpt>
      <trkpt lat="44.54939" lon="6.32898">
        <ele>1174.366699</ele>
        <time>2015-10-10T15:11:25Z</time>
      </trkpt>
      <trkpt lat="44.54939" lon="6.32898">
        <ele>1174.397949</ele>
        <time>2015-10-10T15:11:29Z</time>
      </trkpt>
      <trkpt lat="44.54939" lon="6.32898">
        <ele>1174.366699</ele>
        <time>2015-10-10T15:11:33Z</time>
      </trkpt>
      <trkpt lat="44.54939" lon="6.32898">
        <ele>1174.366699</ele>
        <time>2015-10-10T15:11:37Z</time>
      </trkpt>
      <trkpt lat="44.54939" lon="6.32898">
        <ele>1174.397949</ele>
        <time>2015-10-10T15:11:41Z</time>
      </trkpt>
      <trkpt lat="44.54939" lon="6.32898">
        <ele>1174.366699</ele>
        <time>2015-10-10T15:11:45Z</time>
      </trkpt>
      <trkpt lat="44.54939" lon="6.32898">
        <ele>1174.397949</ele>
        <time>2015-10-10T15:11:49Z</time>
      </trkpt>
      <trkpt lat="44.54939" lon="6.32898">
        <ele>1174.397949</ele>
        <time>2015-10-10T15:11:53Z</time>
      </trkpt>
      <trkpt lat="44.54939" lon="6.32898">
        <ele>1174.366699</ele>
        <time>2015-10-10T15:11:57Z</time>
      </trkpt>
      <trkpt lat="44.54939" lon="6.32898">
        <ele>1174.366699</ele>
        <time>2015-10-10T15:12:01Z</time>
      </trkpt>
    </trkseg>
  </trk>
</gpx>